<?xml version="1.0" encoding="UTF-8" standalone="no" ?>
<gpx xmlns="http://www.topografix.com/GPX/1/1" xmlns:xsi="http://www.w3.org/2001/XMLSchema-instance" xsi:schemaLocation="http://www.topografix.com/GPX/1/1 http://www.topografix.com/GPX/1/1/gpx.xsd" version="1.1" creator="VisuGPX - https://www.visugpx.com">
  <metadata>
    <name>[Off kikou] LA Toute Pourrite</name>
    <desc><![CDATA[Export from GpsPrune]]></desc>
  </metadata>
  <trk>
    <name><![CDATA[20170211-run-toute_pourite-montceau-moncarra-ltp]]></name>
    <trkseg>
      <trkpt lat="45.59159" lon="5.38039">
        <ele>458</ele>
        <time>2017-02-11T06:07:14Z</time>
      </trkpt>
      <trkpt lat="45.5915" lon="5.38126">
        <ele>460</ele>
        <time>2017-02-11T06:08:05Z</time>
      </trkpt>
      <trkpt lat="45.59149" lon="5.38155">
        <ele>460</ele>
        <time>2017-02-11T06:08:14Z</time>
      </trkpt>
      <trkpt lat="45.59152" lon="5.38174">
        <ele>460</ele>
        <time>2017-02-11T06:08:21Z</time>
      </trkpt>
      <trkpt lat="45.59163" lon="5.38181">
        <ele>460</ele>
        <time>2017-02-11T06:08:28Z</time>
      </trkpt>
      <trkpt lat="45.59173" lon="5.38182">
        <ele>460</ele>
        <time>2017-02-11T06:08:32Z</time>
      </trkpt>
      <trkpt lat="45.5919" lon="5.38183">
        <ele>460</ele>
        <time>2017-02-11T06:08:38Z</time>
      </trkpt>
      <trkpt lat="45.59198" lon="5.38182">
        <ele>460</ele>
        <time>2017-02-11T06:08:39Z</time>
      </trkpt>
      <trkpt lat="45.59206" lon="5.38181">
        <ele>460</ele>
        <time>2017-02-11T06:08:43Z</time>
      </trkpt>
      <trkpt lat="45.59214" lon="5.38181">
        <ele>461</ele>
        <time>2017-02-11T06:08:47Z</time>
      </trkpt>
      <trkpt lat="45.59221" lon="5.3818">
        <ele>461</ele>
        <time>2017-02-11T06:08:50Z</time>
      </trkpt>
      <trkpt lat="45.59228" lon="5.38179">
        <ele>461</ele>
        <time>2017-02-11T06:08:53Z</time>
      </trkpt>
      <trkpt lat="45.59235" lon="5.38178">
        <ele>461</ele>
        <time>2017-02-11T06:08:56Z</time>
      </trkpt>
      <trkpt lat="45.5924" lon="5.38175">
        <ele>461</ele>
        <time>2017-02-11T06:08:59Z</time>
      </trkpt>
      <trkpt lat="45.59246" lon="5.38171">
        <ele>461</ele>
        <time>2017-02-11T06:09:02Z</time>
      </trkpt>
      <trkpt lat="45.59252" lon="5.38168">
        <ele>461</ele>
        <time>2017-02-11T06:09:05Z</time>
      </trkpt>
      <trkpt lat="45.59259" lon="5.38165">
        <ele>461</ele>
        <time>2017-02-11T06:09:08Z</time>
      </trkpt>
      <trkpt lat="45.5927" lon="5.38161">
        <ele>462</ele>
        <time>2017-02-11T06:09:13Z</time>
      </trkpt>
      <trkpt lat="45.59276" lon="5.38157">
        <ele>462</ele>
        <time>2017-02-11T06:09:16Z</time>
      </trkpt>
      <trkpt lat="45.59281" lon="5.38152">
        <ele>462</ele>
        <time>2017-02-11T06:09:19Z</time>
      </trkpt>
      <trkpt lat="45.59287" lon="5.38146">
        <ele>462</ele>
        <time>2017-02-11T06:09:22Z</time>
      </trkpt>
      <trkpt lat="45.59294" lon="5.38141">
        <ele>463</ele>
        <time>2017-02-11T06:09:26Z</time>
      </trkpt>
      <trkpt lat="45.59299" lon="5.38137">
        <ele>463</ele>
        <time>2017-02-11T06:09:29Z</time>
      </trkpt>
      <trkpt lat="45.59304" lon="5.38131">
        <ele>463</ele>
        <time>2017-02-11T06:09:32Z</time>
      </trkpt>
      <trkpt lat="45.59309" lon="5.38128">
        <ele>463</ele>
        <time>2017-02-11T06:09:35Z</time>
      </trkpt>
      <trkpt lat="45.59315" lon="5.38122">
        <ele>463</ele>
        <time>2017-02-11T06:09:38Z</time>
      </trkpt>
      <trkpt lat="45.5932" lon="5.38116">
        <ele>463</ele>
        <time>2017-02-11T06:09:41Z</time>
      </trkpt>
      <trkpt lat="45.59325" lon="5.38112">
        <ele>463</ele>
        <time>2017-02-11T06:09:44Z</time>
      </trkpt>
      <trkpt lat="45.5933" lon="5.38108">
        <ele>464</ele>
        <time>2017-02-11T06:09:47Z</time>
      </trkpt>
      <trkpt lat="45.59337" lon="5.38104">
        <ele>464</ele>
        <time>2017-02-11T06:09:51Z</time>
      </trkpt>
      <trkpt lat="45.59343" lon="5.38102">
        <ele>464</ele>
        <time>2017-02-11T06:09:54Z</time>
      </trkpt>
      <trkpt lat="45.5935" lon="5.381">
        <ele>464</ele>
        <time>2017-02-11T06:09:57Z</time>
      </trkpt>
      <trkpt lat="45.59359" lon="5.381">
        <ele>464</ele>
        <time>2017-02-11T06:10:01Z</time>
      </trkpt>
      <trkpt lat="45.59366" lon="5.38098">
        <ele>464</ele>
        <time>2017-02-11T06:10:04Z</time>
      </trkpt>
      <trkpt lat="45.59375" lon="5.38095">
        <ele>464</ele>
        <time>2017-02-11T06:10:08Z</time>
      </trkpt>
      <trkpt lat="45.59382" lon="5.38094">
        <ele>464</ele>
        <time>2017-02-11T06:10:11Z</time>
      </trkpt>
      <trkpt lat="45.59389" lon="5.38093">
        <ele>464</ele>
        <time>2017-02-11T06:10:14Z</time>
      </trkpt>
      <trkpt lat="45.59397" lon="5.38092">
        <ele>464</ele>
        <time>2017-02-11T06:10:17Z</time>
      </trkpt>
      <trkpt lat="45.59405" lon="5.38089">
        <ele>463</ele>
        <time>2017-02-11T06:10:21Z</time>
      </trkpt>
      <trkpt lat="45.59413" lon="5.38091">
        <ele>463</ele>
        <time>2017-02-11T06:10:24Z</time>
      </trkpt>
      <trkpt lat="45.59419" lon="5.38094">
        <ele>462</ele>
        <time>2017-02-11T06:10:26Z</time>
      </trkpt>
      <trkpt lat="45.59426" lon="5.38097">
        <ele>462</ele>
        <time>2017-02-11T06:10:29Z</time>
      </trkpt>
      <trkpt lat="45.59433" lon="5.381">
        <ele>461</ele>
        <time>2017-02-11T06:10:32Z</time>
      </trkpt>
      <trkpt lat="45.59439" lon="5.38103">
        <ele>461</ele>
        <time>2017-02-11T06:10:35Z</time>
      </trkpt>
      <trkpt lat="45.59446" lon="5.38104">
        <ele>460</ele>
        <time>2017-02-11T06:10:38Z</time>
      </trkpt>
      <trkpt lat="45.59453" lon="5.38106">
        <ele>460</ele>
        <time>2017-02-11T06:10:41Z</time>
      </trkpt>
      <trkpt lat="45.5946" lon="5.38109">
        <ele>460</ele>
        <time>2017-02-11T06:10:44Z</time>
      </trkpt>
      <trkpt lat="45.59468" lon="5.38113">
        <ele>459</ele>
        <time>2017-02-11T06:10:48Z</time>
      </trkpt>
      <trkpt lat="45.59473" lon="5.38117">
        <ele>459</ele>
        <time>2017-02-11T06:10:50Z</time>
      </trkpt>
      <trkpt lat="45.5948" lon="5.38122">
        <ele>459</ele>
        <time>2017-02-11T06:10:53Z</time>
      </trkpt>
      <trkpt lat="45.59487" lon="5.38127">
        <ele>459</ele>
        <time>2017-02-11T06:10:56Z</time>
      </trkpt>
      <trkpt lat="45.59493" lon="5.38131">
        <ele>459</ele>
        <time>2017-02-11T06:10:59Z</time>
      </trkpt>
      <trkpt lat="45.59499" lon="5.38135">
        <ele>459</ele>
        <time>2017-02-11T06:11:02Z</time>
      </trkpt>
      <trkpt lat="45.59504" lon="5.3814">
        <ele>455</ele>
        <time>2017-02-11T06:11:05Z</time>
      </trkpt>
      <trkpt lat="45.59509" lon="5.38143">
        <ele>455</ele>
        <time>2017-02-11T06:11:07Z</time>
      </trkpt>
      <trkpt lat="45.59515" lon="5.38147">
        <ele>455</ele>
        <time>2017-02-11T06:11:10Z</time>
      </trkpt>
      <trkpt lat="45.59521" lon="5.38153">
        <ele>455</ele>
        <time>2017-02-11T06:11:13Z</time>
      </trkpt>
      <trkpt lat="45.59527" lon="5.38158">
        <ele>455</ele>
        <time>2017-02-11T06:11:16Z</time>
      </trkpt>
      <trkpt lat="45.59526" lon="5.3817">
        <ele>455</ele>
        <time>2017-02-11T06:11:20Z</time>
      </trkpt>
      <trkpt lat="45.59525" lon="5.3818">
        <ele>455</ele>
        <time>2017-02-11T06:11:23Z</time>
      </trkpt>
      <trkpt lat="45.59522" lon="5.38187">
        <ele>455</ele>
        <time>2017-02-11T06:11:25Z</time>
      </trkpt>
      <trkpt lat="45.59519" lon="5.38196">
        <ele>455</ele>
        <time>2017-02-11T06:11:28Z</time>
      </trkpt>
      <trkpt lat="45.59515" lon="5.38203">
        <ele>454</ele>
        <time>2017-02-11T06:11:31Z</time>
      </trkpt>
      <trkpt lat="45.59512" lon="5.38209">
        <ele>454</ele>
        <time>2017-02-11T06:11:34Z</time>
      </trkpt>
      <trkpt lat="45.59508" lon="5.38216">
        <ele>454</ele>
        <time>2017-02-11T06:11:37Z</time>
      </trkpt>
      <trkpt lat="45.59504" lon="5.38223">
        <ele>455</ele>
        <time>2017-02-11T06:11:40Z</time>
      </trkpt>
      <trkpt lat="45.595" lon="5.38229">
        <ele>455</ele>
        <time>2017-02-11T06:11:43Z</time>
      </trkpt>
      <trkpt lat="45.59499" lon="5.38239">
        <ele>458</ele>
        <time>2017-02-11T06:11:47Z</time>
      </trkpt>
      <trkpt lat="45.59497" lon="5.38246">
        <ele>457</ele>
        <time>2017-02-11T06:11:50Z</time>
      </trkpt>
      <trkpt lat="45.59495" lon="5.38254">
        <ele>457</ele>
        <time>2017-02-11T06:11:53Z</time>
      </trkpt>
      <trkpt lat="45.59493" lon="5.38267">
        <ele>458</ele>
        <time>2017-02-11T06:11:57Z</time>
      </trkpt>
      <trkpt lat="45.59491" lon="5.38276">
        <ele>458</ele>
        <time>2017-02-11T06:12:00Z</time>
      </trkpt>
      <trkpt lat="45.59487" lon="5.38284">
        <ele>458</ele>
        <time>2017-02-11T06:12:03Z</time>
      </trkpt>
      <trkpt lat="45.59485" lon="5.38293">
        <ele>458</ele>
        <time>2017-02-11T06:12:06Z</time>
      </trkpt>
      <trkpt lat="45.59483" lon="5.38303">
        <ele>458</ele>
        <time>2017-02-11T06:12:10Z</time>
      </trkpt>
      <trkpt lat="45.59481" lon="5.38311">
        <ele>458</ele>
        <time>2017-02-11T06:12:13Z</time>
      </trkpt>
      <trkpt lat="45.59479" lon="5.38322">
        <ele>458</ele>
        <time>2017-02-11T06:12:17Z</time>
      </trkpt>
      <trkpt lat="45.59476" lon="5.38331">
        <ele>458</ele>
        <time>2017-02-11T06:12:20Z</time>
      </trkpt>
      <trkpt lat="45.59474" lon="5.38339">
        <ele>458</ele>
        <time>2017-02-11T06:12:23Z</time>
      </trkpt>
      <trkpt lat="45.59472" lon="5.3835">
        <ele>458</ele>
        <time>2017-02-11T06:12:27Z</time>
      </trkpt>
      <trkpt lat="45.5947" lon="5.38359">
        <ele>458</ele>
        <time>2017-02-11T06:12:31Z</time>
      </trkpt>
      <trkpt lat="45.59468" lon="5.38368">
        <ele>458</ele>
        <time>2017-02-11T06:12:35Z</time>
      </trkpt>
      <trkpt lat="45.59466" lon="5.38379">
        <ele>458</ele>
        <time>2017-02-11T06:12:39Z</time>
      </trkpt>
      <trkpt lat="45.59464" lon="5.38387">
        <ele>458</ele>
        <time>2017-02-11T06:12:42Z</time>
      </trkpt>
      <trkpt lat="45.59463" lon="5.38396">
        <ele>458</ele>
        <time>2017-02-11T06:12:45Z</time>
      </trkpt>
      <trkpt lat="45.59461" lon="5.38405">
        <ele>458</ele>
        <time>2017-02-11T06:12:48Z</time>
      </trkpt>
      <trkpt lat="45.59459" lon="5.38414">
        <ele>458</ele>
        <time>2017-02-11T06:12:51Z</time>
      </trkpt>
      <trkpt lat="45.59456" lon="5.38424">
        <ele>455</ele>
        <time>2017-02-11T06:12:54Z</time>
      </trkpt>
      <trkpt lat="45.59454" lon="5.38432">
        <ele>455</ele>
        <time>2017-02-11T06:12:56Z</time>
      </trkpt>
      <trkpt lat="45.59453" lon="5.38443">
        <ele>455</ele>
        <time>2017-02-11T06:12:59Z</time>
      </trkpt>
      <trkpt lat="45.5945" lon="5.38449">
        <ele>455</ele>
        <time>2017-02-11T06:13:01Z</time>
      </trkpt>
      <trkpt lat="45.59448" lon="5.38458">
        <ele>455</ele>
        <time>2017-02-11T06:13:04Z</time>
      </trkpt>
      <trkpt lat="45.59445" lon="5.38465">
        <ele>455</ele>
        <time>2017-02-11T06:13:06Z</time>
      </trkpt>
      <trkpt lat="45.59443" lon="5.38475">
        <ele>455</ele>
        <time>2017-02-11T06:13:09Z</time>
      </trkpt>
      <trkpt lat="45.59447" lon="5.38481">
        <ele>455</ele>
        <time>2017-02-11T06:13:13Z</time>
      </trkpt>
      <trkpt lat="45.5945" lon="5.3849">
        <ele>454</ele>
        <time>2017-02-11T06:13:16Z</time>
      </trkpt>
      <trkpt lat="45.59449" lon="5.385">
        <ele>452</ele>
        <time>2017-02-11T06:13:19Z</time>
      </trkpt>
      <trkpt lat="45.59446" lon="5.38507">
        <ele>453</ele>
        <time>2017-02-11T06:13:21Z</time>
      </trkpt>
      <trkpt lat="45.59444" lon="5.38516">
        <ele>453</ele>
        <time>2017-02-11T06:13:24Z</time>
      </trkpt>
      <trkpt lat="45.59445" lon="5.38525">
        <ele>452</ele>
        <time>2017-02-11T06:13:29Z</time>
      </trkpt>
      <trkpt lat="45.5945" lon="5.38531">
        <ele>452</ele>
        <time>2017-02-11T06:13:32Z</time>
      </trkpt>
      <trkpt lat="45.59456" lon="5.38536">
        <ele>451</ele>
        <time>2017-02-11T06:13:35Z</time>
      </trkpt>
      <trkpt lat="45.59461" lon="5.3854">
        <ele>451</ele>
        <time>2017-02-11T06:13:39Z</time>
      </trkpt>
      <trkpt lat="45.59465" lon="5.38546">
        <ele>451</ele>
        <time>2017-02-11T06:13:43Z</time>
      </trkpt>
      <trkpt lat="45.59469" lon="5.38552">
        <ele>450</ele>
        <time>2017-02-11T06:13:47Z</time>
      </trkpt>
      <trkpt lat="45.59474" lon="5.38557">
        <ele>450</ele>
        <time>2017-02-11T06:13:51Z</time>
      </trkpt>
      <trkpt lat="45.59479" lon="5.38563">
        <ele>449</ele>
        <time>2017-02-11T06:13:56Z</time>
      </trkpt>
      <trkpt lat="45.59483" lon="5.38568">
        <ele>448</ele>
        <time>2017-02-11T06:13:59Z</time>
      </trkpt>
      <trkpt lat="45.59487" lon="5.38574">
        <ele>448</ele>
        <time>2017-02-11T06:14:02Z</time>
      </trkpt>
      <trkpt lat="45.59493" lon="5.38578">
        <ele>446</ele>
        <time>2017-02-11T06:14:06Z</time>
      </trkpt>
      <trkpt lat="45.59498" lon="5.38581">
        <ele>445</ele>
        <time>2017-02-11T06:14:09Z</time>
      </trkpt>
      <trkpt lat="45.59503" lon="5.38587">
        <ele>443</ele>
        <time>2017-02-11T06:14:12Z</time>
      </trkpt>
      <trkpt lat="45.59509" lon="5.38592">
        <ele>442</ele>
        <time>2017-02-11T06:14:16Z</time>
      </trkpt>
      <trkpt lat="45.59513" lon="5.38596">
        <ele>441</ele>
        <time>2017-02-11T06:14:19Z</time>
      </trkpt>
      <trkpt lat="45.59519" lon="5.386">
        <ele>441</ele>
        <time>2017-02-11T06:14:22Z</time>
      </trkpt>
      <trkpt lat="45.59525" lon="5.38604">
        <ele>440</ele>
        <time>2017-02-11T06:14:25Z</time>
      </trkpt>
      <trkpt lat="45.5953" lon="5.38609">
        <ele>440</ele>
        <time>2017-02-11T06:14:29Z</time>
      </trkpt>
      <trkpt lat="45.59534" lon="5.38613">
        <ele>440</ele>
        <time>2017-02-11T06:14:31Z</time>
      </trkpt>
      <trkpt lat="45.5954" lon="5.38616">
        <ele>439</ele>
        <time>2017-02-11T06:14:34Z</time>
      </trkpt>
      <trkpt lat="45.59547" lon="5.38619">
        <ele>439</ele>
        <time>2017-02-11T06:14:39Z</time>
      </trkpt>
      <trkpt lat="45.59553" lon="5.38623">
        <ele>439</ele>
        <time>2017-02-11T06:14:42Z</time>
      </trkpt>
      <trkpt lat="45.59558" lon="5.38626">
        <ele>438</ele>
        <time>2017-02-11T06:14:45Z</time>
      </trkpt>
      <trkpt lat="45.59564" lon="5.38631">
        <ele>438</ele>
        <time>2017-02-11T06:14:48Z</time>
      </trkpt>
      <trkpt lat="45.59569" lon="5.38635">
        <ele>438</ele>
        <time>2017-02-11T06:14:51Z</time>
      </trkpt>
      <trkpt lat="45.59575" lon="5.38639">
        <ele>437</ele>
        <time>2017-02-11T06:14:55Z</time>
      </trkpt>
      <trkpt lat="45.5958" lon="5.38643">
        <ele>437</ele>
        <time>2017-02-11T06:14:58Z</time>
      </trkpt>
      <trkpt lat="45.59585" lon="5.38648">
        <ele>434</ele>
        <time>2017-02-11T06:15:01Z</time>
      </trkpt>
      <trkpt lat="45.5959" lon="5.38653">
        <ele>434</ele>
        <time>2017-02-11T06:15:05Z</time>
      </trkpt>
      <trkpt lat="45.59596" lon="5.38659">
        <ele>434</ele>
        <time>2017-02-11T06:15:08Z</time>
      </trkpt>
      <trkpt lat="45.59601" lon="5.38665">
        <ele>434</ele>
        <time>2017-02-11T06:15:11Z</time>
      </trkpt>
      <trkpt lat="45.59607" lon="5.38671">
        <ele>432</ele>
        <time>2017-02-11T06:15:14Z</time>
      </trkpt>
      <trkpt lat="45.59611" lon="5.38676">
        <ele>432</ele>
        <time>2017-02-11T06:15:16Z</time>
      </trkpt>
      <trkpt lat="45.59618" lon="5.38682">
        <ele>432</ele>
        <time>2017-02-11T06:15:19Z</time>
      </trkpt>
      <trkpt lat="45.59624" lon="5.38687">
        <ele>432</ele>
        <time>2017-02-11T06:15:22Z</time>
      </trkpt>
      <trkpt lat="45.5963" lon="5.38691">
        <ele>431</ele>
        <time>2017-02-11T06:15:25Z</time>
      </trkpt>
      <trkpt lat="45.59636" lon="5.38695">
        <ele>431</ele>
        <time>2017-02-11T06:15:28Z</time>
      </trkpt>
      <trkpt lat="45.59642" lon="5.387">
        <ele>431</ele>
        <time>2017-02-11T06:15:31Z</time>
      </trkpt>
      <trkpt lat="45.59649" lon="5.38704">
        <ele>431</ele>
        <time>2017-02-11T06:15:34Z</time>
      </trkpt>
      <trkpt lat="45.59654" lon="5.3871">
        <ele>431</ele>
        <time>2017-02-11T06:15:37Z</time>
      </trkpt>
      <trkpt lat="45.59659" lon="5.38716">
        <ele>431</ele>
        <time>2017-02-11T06:15:40Z</time>
      </trkpt>
      <trkpt lat="45.59661" lon="5.38723">
        <ele>431</ele>
        <time>2017-02-11T06:15:43Z</time>
      </trkpt>
      <trkpt lat="45.59658" lon="5.38729">
        <ele>431</ele>
        <time>2017-02-11T06:15:45Z</time>
      </trkpt>
      <trkpt lat="45.59656" lon="5.38737">
        <ele>431</ele>
        <time>2017-02-11T06:15:48Z</time>
      </trkpt>
      <trkpt lat="45.59653" lon="5.3875">
        <ele>430</ele>
        <time>2017-02-11T06:15:52Z</time>
      </trkpt>
      <trkpt lat="45.59651" lon="5.38758">
        <ele>431</ele>
        <time>2017-02-11T06:15:55Z</time>
      </trkpt>
      <trkpt lat="45.59648" lon="5.38766">
        <ele>431</ele>
        <time>2017-02-11T06:15:58Z</time>
      </trkpt>
      <trkpt lat="45.59646" lon="5.38774">
        <ele>431</ele>
        <time>2017-02-11T06:16:01Z</time>
      </trkpt>
      <trkpt lat="45.59647" lon="5.38784">
        <ele>431</ele>
        <time>2017-02-11T06:16:04Z</time>
      </trkpt>
      <trkpt lat="45.59648" lon="5.38792">
        <ele>431</ele>
        <time>2017-02-11T06:16:07Z</time>
      </trkpt>
      <trkpt lat="45.59649" lon="5.38802">
        <ele>431</ele>
        <time>2017-02-11T06:16:10Z</time>
      </trkpt>
      <trkpt lat="45.5965" lon="5.38811">
        <ele>431</ele>
        <time>2017-02-11T06:16:13Z</time>
      </trkpt>
      <trkpt lat="45.59653" lon="5.38821">
        <ele>431</ele>
        <time>2017-02-11T06:16:16Z</time>
      </trkpt>
      <trkpt lat="45.59655" lon="5.38829">
        <ele>430</ele>
        <time>2017-02-11T06:16:19Z</time>
      </trkpt>
      <trkpt lat="45.59659" lon="5.38837">
        <ele>430</ele>
        <time>2017-02-11T06:16:22Z</time>
      </trkpt>
      <trkpt lat="45.59664" lon="5.38841">
        <ele>430</ele>
        <time>2017-02-11T06:16:24Z</time>
      </trkpt>
      <trkpt lat="45.59671" lon="5.38846">
        <ele>430</ele>
        <time>2017-02-11T06:16:27Z</time>
      </trkpt>
      <trkpt lat="45.59678" lon="5.38849">
        <ele>430</ele>
        <time>2017-02-11T06:16:30Z</time>
      </trkpt>
      <trkpt lat="45.59685" lon="5.38853">
        <ele>430</ele>
        <time>2017-02-11T06:16:33Z</time>
      </trkpt>
      <trkpt lat="45.59691" lon="5.38855">
        <ele>430</ele>
        <time>2017-02-11T06:16:36Z</time>
      </trkpt>
      <trkpt lat="45.59697" lon="5.38858">
        <ele>430</ele>
        <time>2017-02-11T06:16:39Z</time>
      </trkpt>
      <trkpt lat="45.59702" lon="5.38862">
        <ele>430</ele>
        <time>2017-02-11T06:16:42Z</time>
      </trkpt>
      <trkpt lat="45.59705" lon="5.38872">
        <ele>430</ele>
        <time>2017-02-11T06:16:45Z</time>
      </trkpt>
      <trkpt lat="45.59707" lon="5.38882">
        <ele>430</ele>
        <time>2017-02-11T06:16:48Z</time>
      </trkpt>
      <trkpt lat="45.59708" lon="5.38892">
        <ele>430</ele>
        <time>2017-02-11T06:16:51Z</time>
      </trkpt>
      <trkpt lat="45.59707" lon="5.38903">
        <ele>430</ele>
        <time>2017-02-11T06:16:54Z</time>
      </trkpt>
      <trkpt lat="45.59706" lon="5.38914">
        <ele>430</ele>
        <time>2017-02-11T06:16:57Z</time>
      </trkpt>
      <trkpt lat="45.59705" lon="5.38923">
        <ele>431</ele>
        <time>2017-02-11T06:17:00Z</time>
      </trkpt>
      <trkpt lat="45.59703" lon="5.38934">
        <ele>431</ele>
        <time>2017-02-11T06:17:03Z</time>
      </trkpt>
      <trkpt lat="45.59703" lon="5.38943">
        <ele>431</ele>
        <time>2017-02-11T06:17:06Z</time>
      </trkpt>
      <trkpt lat="45.59702" lon="5.38956">
        <ele>431</ele>
        <time>2017-02-11T06:17:10Z</time>
      </trkpt>
      <trkpt lat="45.59702" lon="5.38968">
        <ele>431</ele>
        <time>2017-02-11T06:17:14Z</time>
      </trkpt>
      <trkpt lat="45.59701" lon="5.38976">
        <ele>431</ele>
        <time>2017-02-11T06:17:17Z</time>
      </trkpt>
      <trkpt lat="45.59698" lon="5.38985">
        <ele>432</ele>
        <time>2017-02-11T06:17:20Z</time>
      </trkpt>
      <trkpt lat="45.59697" lon="5.38994">
        <ele>432</ele>
        <time>2017-02-11T06:17:23Z</time>
      </trkpt>
      <trkpt lat="45.597" lon="5.39002">
        <ele>432</ele>
        <time>2017-02-11T06:17:26Z</time>
      </trkpt>
      <trkpt lat="45.59705" lon="5.39008">
        <ele>432</ele>
        <time>2017-02-11T06:17:29Z</time>
      </trkpt>
      <trkpt lat="45.59711" lon="5.39009">
        <ele>432</ele>
        <time>2017-02-11T06:17:32Z</time>
      </trkpt>
      <trkpt lat="45.59718" lon="5.39011">
        <ele>432</ele>
        <time>2017-02-11T06:17:35Z</time>
      </trkpt>
      <trkpt lat="45.59729" lon="5.39011">
        <ele>431</ele>
        <time>2017-02-11T06:17:40Z</time>
      </trkpt>
      <trkpt lat="45.59735" lon="5.39013">
        <ele>431</ele>
        <time>2017-02-11T06:17:43Z</time>
      </trkpt>
      <trkpt lat="45.59744" lon="5.39017">
        <ele>431</ele>
        <time>2017-02-11T06:17:46Z</time>
      </trkpt>
      <trkpt lat="45.5975" lon="5.39018">
        <ele>431</ele>
        <time>2017-02-11T06:17:49Z</time>
      </trkpt>
      <trkpt lat="45.59758" lon="5.39021">
        <ele>429</ele>
        <time>2017-02-11T06:17:52Z</time>
      </trkpt>
      <trkpt lat="45.59766" lon="5.39022">
        <ele>429</ele>
        <time>2017-02-11T06:17:55Z</time>
      </trkpt>
      <trkpt lat="45.59773" lon="5.39024">
        <ele>429</ele>
        <time>2017-02-11T06:17:58Z</time>
      </trkpt>
      <trkpt lat="45.59783" lon="5.39025">
        <ele>429</ele>
        <time>2017-02-11T06:18:02Z</time>
      </trkpt>
      <trkpt lat="45.5979" lon="5.39026">
        <ele>428</ele>
        <time>2017-02-11T06:18:05Z</time>
      </trkpt>
      <trkpt lat="45.59796" lon="5.39028">
        <ele>428</ele>
        <time>2017-02-11T06:18:08Z</time>
      </trkpt>
      <trkpt lat="45.59804" lon="5.3903">
        <ele>428</ele>
        <time>2017-02-11T06:18:11Z</time>
      </trkpt>
      <trkpt lat="45.5981" lon="5.39037">
        <ele>428</ele>
        <time>2017-02-11T06:18:14Z</time>
      </trkpt>
      <trkpt lat="45.59813" lon="5.39044">
        <ele>428</ele>
        <time>2017-02-11T06:18:16Z</time>
      </trkpt>
      <trkpt lat="45.59812" lon="5.39055">
        <ele>428</ele>
        <time>2017-02-11T06:18:19Z</time>
      </trkpt>
      <trkpt lat="45.59811" lon="5.39068">
        <ele>428</ele>
        <time>2017-02-11T06:18:23Z</time>
      </trkpt>
      <trkpt lat="45.59809" lon="5.39078">
        <ele>427</ele>
        <time>2017-02-11T06:18:26Z</time>
      </trkpt>
      <trkpt lat="45.59808" lon="5.39088">
        <ele>426</ele>
        <time>2017-02-11T06:18:29Z</time>
      </trkpt>
      <trkpt lat="45.59805" lon="5.39097">
        <ele>426</ele>
        <time>2017-02-11T06:18:32Z</time>
      </trkpt>
      <trkpt lat="45.59803" lon="5.39108">
        <ele>426</ele>
        <time>2017-02-11T06:18:35Z</time>
      </trkpt>
      <trkpt lat="45.598" lon="5.39118">
        <ele>426</ele>
        <time>2017-02-11T06:18:38Z</time>
      </trkpt>
      <trkpt lat="45.59797" lon="5.39126">
        <ele>426</ele>
        <time>2017-02-11T06:18:41Z</time>
      </trkpt>
      <trkpt lat="45.59793" lon="5.39134">
        <ele>426</ele>
        <time>2017-02-11T06:18:44Z</time>
      </trkpt>
      <trkpt lat="45.59791" lon="5.39143">
        <ele>426</ele>
        <time>2017-02-11T06:18:47Z</time>
      </trkpt>
      <trkpt lat="45.59789" lon="5.39153">
        <ele>426</ele>
        <time>2017-02-11T06:18:50Z</time>
      </trkpt>
      <trkpt lat="45.59788" lon="5.39163">
        <ele>426</ele>
        <time>2017-02-11T06:18:53Z</time>
      </trkpt>
      <trkpt lat="45.59785" lon="5.39173">
        <ele>424</ele>
        <time>2017-02-11T06:18:56Z</time>
      </trkpt>
      <trkpt lat="45.59783" lon="5.3918">
        <ele>424</ele>
        <time>2017-02-11T06:18:58Z</time>
      </trkpt>
      <trkpt lat="45.59782" lon="5.39189">
        <ele>424</ele>
        <time>2017-02-11T06:19:00Z</time>
      </trkpt>
      <trkpt lat="45.59779" lon="5.39199">
        <ele>423</ele>
        <time>2017-02-11T06:19:03Z</time>
      </trkpt>
      <trkpt lat="45.59776" lon="5.3921">
        <ele>423</ele>
        <time>2017-02-11T06:19:06Z</time>
      </trkpt>
      <trkpt lat="45.59774" lon="5.39221">
        <ele>423</ele>
        <time>2017-02-11T06:19:09Z</time>
      </trkpt>
      <trkpt lat="45.59771" lon="5.39228">
        <ele>423</ele>
        <time>2017-02-11T06:19:11Z</time>
      </trkpt>
      <trkpt lat="45.59768" lon="5.39237">
        <ele>422</ele>
        <time>2017-02-11T06:19:14Z</time>
      </trkpt>
      <trkpt lat="45.59764" lon="5.39246">
        <ele>422</ele>
        <time>2017-02-11T06:19:17Z</time>
      </trkpt>
      <trkpt lat="45.59761" lon="5.39252">
        <ele>421</ele>
        <time>2017-02-11T06:19:19Z</time>
      </trkpt>
      <trkpt lat="45.59757" lon="5.3926">
        <ele>420</ele>
        <time>2017-02-11T06:19:22Z</time>
      </trkpt>
      <trkpt lat="45.59754" lon="5.39267">
        <ele>420</ele>
        <time>2017-02-11T06:19:24Z</time>
      </trkpt>
      <trkpt lat="45.5975" lon="5.39276">
        <ele>424</ele>
        <time>2017-02-11T06:19:27Z</time>
      </trkpt>
      <trkpt lat="45.59745" lon="5.39282">
        <ele>425</ele>
        <time>2017-02-11T06:19:29Z</time>
      </trkpt>
      <trkpt lat="45.59743" lon="5.3929">
        <ele>424</ele>
        <time>2017-02-11T06:19:32Z</time>
      </trkpt>
      <trkpt lat="45.59739" lon="5.39299">
        <ele>424</ele>
        <time>2017-02-11T06:19:35Z</time>
      </trkpt>
      <trkpt lat="45.59736" lon="5.39308">
        <ele>424</ele>
        <time>2017-02-11T06:19:38Z</time>
      </trkpt>
      <trkpt lat="45.59734" lon="5.39318">
        <ele>423</ele>
        <time>2017-02-11T06:19:41Z</time>
      </trkpt>
      <trkpt lat="45.59732" lon="5.39329">
        <ele>423</ele>
        <time>2017-02-11T06:19:44Z</time>
      </trkpt>
      <trkpt lat="45.59731" lon="5.39342">
        <ele>422</ele>
        <time>2017-02-11T06:19:48Z</time>
      </trkpt>
      <trkpt lat="45.59731" lon="5.39353">
        <ele>422</ele>
        <time>2017-02-11T06:19:51Z</time>
      </trkpt>
      <trkpt lat="45.59732" lon="5.39363">
        <ele>423</ele>
        <time>2017-02-11T06:19:54Z</time>
      </trkpt>
      <trkpt lat="45.59733" lon="5.39374">
        <ele>423</ele>
        <time>2017-02-11T06:19:57Z</time>
      </trkpt>
      <trkpt lat="45.59733" lon="5.39385">
        <ele>423</ele>
        <time>2017-02-11T06:20:00Z</time>
      </trkpt>
      <trkpt lat="45.59733" lon="5.39396">
        <ele>422</ele>
        <time>2017-02-11T06:20:03Z</time>
      </trkpt>
      <trkpt lat="45.59733" lon="5.39405">
        <ele>421</ele>
        <time>2017-02-11T06:20:06Z</time>
      </trkpt>
      <trkpt lat="45.59733" lon="5.39417">
        <ele>421</ele>
        <time>2017-02-11T06:20:09Z</time>
      </trkpt>
      <trkpt lat="45.59734" lon="5.39427">
        <ele>421</ele>
        <time>2017-02-11T06:20:12Z</time>
      </trkpt>
      <trkpt lat="45.59735" lon="5.39438">
        <ele>422</ele>
        <time>2017-02-11T06:20:15Z</time>
      </trkpt>
      <trkpt lat="45.59735" lon="5.39448">
        <ele>423</ele>
        <time>2017-02-11T06:20:18Z</time>
      </trkpt>
      <trkpt lat="45.59735" lon="5.39457">
        <ele>423</ele>
        <time>2017-02-11T06:20:21Z</time>
      </trkpt>
      <trkpt lat="45.59736" lon="5.39469">
        <ele>423</ele>
        <time>2017-02-11T06:20:25Z</time>
      </trkpt>
      <trkpt lat="45.59734" lon="5.39478">
        <ele>422</ele>
        <time>2017-02-11T06:20:28Z</time>
      </trkpt>
      <trkpt lat="45.59732" lon="5.39488">
        <ele>422</ele>
        <time>2017-02-11T06:20:31Z</time>
      </trkpt>
      <trkpt lat="45.59731" lon="5.39498">
        <ele>422</ele>
        <time>2017-02-11T06:20:34Z</time>
      </trkpt>
      <trkpt lat="45.5973" lon="5.39508">
        <ele>422</ele>
        <time>2017-02-11T06:20:37Z</time>
      </trkpt>
      <trkpt lat="45.59728" lon="5.39517">
        <ele>422</ele>
        <time>2017-02-11T06:20:40Z</time>
      </trkpt>
      <trkpt lat="45.59726" lon="5.39527">
        <ele>423</ele>
        <time>2017-02-11T06:20:43Z</time>
      </trkpt>
      <trkpt lat="45.59723" lon="5.39538">
        <ele>423</ele>
        <time>2017-02-11T06:20:46Z</time>
      </trkpt>
      <trkpt lat="45.59721" lon="5.39547">
        <ele>423</ele>
        <time>2017-02-11T06:20:49Z</time>
      </trkpt>
      <trkpt lat="45.5972" lon="5.39555">
        <ele>423</ele>
        <time>2017-02-11T06:20:52Z</time>
      </trkpt>
      <trkpt lat="45.59717" lon="5.39563">
        <ele>423</ele>
        <time>2017-02-11T06:20:55Z</time>
      </trkpt>
      <trkpt lat="45.59715" lon="5.39572">
        <ele>423</ele>
        <time>2017-02-11T06:20:58Z</time>
      </trkpt>
      <trkpt lat="45.59712" lon="5.3958">
        <ele>423</ele>
        <time>2017-02-11T06:21:01Z</time>
      </trkpt>
      <trkpt lat="45.5971" lon="5.39589">
        <ele>421</ele>
        <time>2017-02-11T06:21:04Z</time>
      </trkpt>
      <trkpt lat="45.59709" lon="5.39598">
        <ele>421</ele>
        <time>2017-02-11T06:21:07Z</time>
      </trkpt>
      <trkpt lat="45.59707" lon="5.39608">
        <ele>421</ele>
        <time>2017-02-11T06:21:11Z</time>
      </trkpt>
      <trkpt lat="45.59705" lon="5.39616">
        <ele>421</ele>
        <time>2017-02-11T06:21:14Z</time>
      </trkpt>
      <trkpt lat="45.59702" lon="5.39624">
        <ele>421</ele>
        <time>2017-02-11T06:21:18Z</time>
      </trkpt>
      <trkpt lat="45.59699" lon="5.3963">
        <ele>421</ele>
        <time>2017-02-11T06:21:21Z</time>
      </trkpt>
      <trkpt lat="45.59695" lon="5.39636">
        <ele>421</ele>
        <time>2017-02-11T06:21:24Z</time>
      </trkpt>
      <trkpt lat="45.59691" lon="5.39641">
        <ele>421</ele>
        <time>2017-02-11T06:21:27Z</time>
      </trkpt>
      <trkpt lat="45.59686" lon="5.39647">
        <ele>422</ele>
        <time>2017-02-11T06:21:31Z</time>
      </trkpt>
      <trkpt lat="45.59684" lon="5.39654">
        <ele>422</ele>
        <time>2017-02-11T06:21:34Z</time>
      </trkpt>
      <trkpt lat="45.59681" lon="5.39663">
        <ele>423</ele>
        <time>2017-02-11T06:21:38Z</time>
      </trkpt>
      <trkpt lat="45.59677" lon="5.39672">
        <ele>422</ele>
        <time>2017-02-11T06:21:41Z</time>
      </trkpt>
      <trkpt lat="45.59674" lon="5.3968">
        <ele>421</ele>
        <time>2017-02-11T06:21:44Z</time>
      </trkpt>
      <trkpt lat="45.59672" lon="5.39689">
        <ele>420</ele>
        <time>2017-02-11T06:21:47Z</time>
      </trkpt>
      <trkpt lat="45.5967" lon="5.39697">
        <ele>419</ele>
        <time>2017-02-11T06:21:50Z</time>
      </trkpt>
      <trkpt lat="45.59669" lon="5.39709">
        <ele>418</ele>
        <time>2017-02-11T06:21:54Z</time>
      </trkpt>
      <trkpt lat="45.59667" lon="5.39718">
        <ele>429</ele>
        <time>2017-02-11T06:21:57Z</time>
      </trkpt>
      <trkpt lat="45.59665" lon="5.39727">
        <ele>428</ele>
        <time>2017-02-11T06:22:00Z</time>
      </trkpt>
      <trkpt lat="45.59663" lon="5.39736">
        <ele>426</ele>
        <time>2017-02-11T06:22:03Z</time>
      </trkpt>
      <trkpt lat="45.5966" lon="5.39744">
        <ele>424</ele>
        <time>2017-02-11T06:22:06Z</time>
      </trkpt>
      <trkpt lat="45.59657" lon="5.39752">
        <ele>423</ele>
        <time>2017-02-11T06:22:09Z</time>
      </trkpt>
      <trkpt lat="45.59654" lon="5.39761">
        <ele>425</ele>
        <time>2017-02-11T06:22:12Z</time>
      </trkpt>
      <trkpt lat="45.59652" lon="5.39769">
        <ele>426</ele>
        <time>2017-02-11T06:22:15Z</time>
      </trkpt>
      <trkpt lat="45.59651" lon="5.39781">
        <ele>427</ele>
        <time>2017-02-11T06:22:19Z</time>
      </trkpt>
      <trkpt lat="45.5965" lon="5.39792">
        <ele>427</ele>
        <time>2017-02-11T06:22:23Z</time>
      </trkpt>
      <trkpt lat="45.59648" lon="5.39801">
        <ele>426</ele>
        <time>2017-02-11T06:22:26Z</time>
      </trkpt>
      <trkpt lat="45.59646" lon="5.39812">
        <ele>426</ele>
        <time>2017-02-11T06:22:30Z</time>
      </trkpt>
      <trkpt lat="45.59642" lon="5.39822">
        <ele>426</ele>
        <time>2017-02-11T06:22:33Z</time>
      </trkpt>
      <trkpt lat="45.59638" lon="5.3983">
        <ele>426</ele>
        <time>2017-02-11T06:22:36Z</time>
      </trkpt>
      <trkpt lat="45.59636" lon="5.39839">
        <ele>424</ele>
        <time>2017-02-11T06:22:39Z</time>
      </trkpt>
      <trkpt lat="45.59635" lon="5.39849">
        <ele>424</ele>
        <time>2017-02-11T06:22:42Z</time>
      </trkpt>
      <trkpt lat="45.59634" lon="5.3986">
        <ele>424</ele>
        <time>2017-02-11T06:22:46Z</time>
      </trkpt>
      <trkpt lat="45.59634" lon="5.39873">
        <ele>424</ele>
        <time>2017-02-11T06:22:50Z</time>
      </trkpt>
      <trkpt lat="45.59633" lon="5.39883">
        <ele>424</ele>
        <time>2017-02-11T06:22:53Z</time>
      </trkpt>
      <trkpt lat="45.59632" lon="5.39895">
        <ele>423</ele>
        <time>2017-02-11T06:22:57Z</time>
      </trkpt>
      <trkpt lat="45.59629" lon="5.39904">
        <ele>424</ele>
        <time>2017-02-11T06:23:00Z</time>
      </trkpt>
      <trkpt lat="45.59631" lon="5.39914">
        <ele>423</ele>
        <time>2017-02-11T06:23:04Z</time>
      </trkpt>
      <trkpt lat="45.59632" lon="5.39924">
        <ele>420</ele>
        <time>2017-02-11T06:23:07Z</time>
      </trkpt>
      <trkpt lat="45.59632" lon="5.39934">
        <ele>420</ele>
        <time>2017-02-11T06:23:10Z</time>
      </trkpt>
      <trkpt lat="45.59631" lon="5.39947">
        <ele>420</ele>
        <time>2017-02-11T06:23:14Z</time>
      </trkpt>
      <trkpt lat="45.59631" lon="5.39957">
        <ele>420</ele>
        <time>2017-02-11T06:23:17Z</time>
      </trkpt>
      <trkpt lat="45.59632" lon="5.39965">
        <ele>420</ele>
        <time>2017-02-11T06:23:20Z</time>
      </trkpt>
      <trkpt lat="45.59631" lon="5.39975">
        <ele>420</ele>
        <time>2017-02-11T06:23:23Z</time>
      </trkpt>
      <trkpt lat="45.59629" lon="5.39985">
        <ele>420</ele>
        <time>2017-02-11T06:23:26Z</time>
      </trkpt>
      <trkpt lat="45.59628" lon="5.39993">
        <ele>420</ele>
        <time>2017-02-11T06:23:29Z</time>
      </trkpt>
      <trkpt lat="45.59626" lon="5.40003">
        <ele>418</ele>
        <time>2017-02-11T06:23:32Z</time>
      </trkpt>
      <trkpt lat="45.59624" lon="5.40012">
        <ele>419</ele>
        <time>2017-02-11T06:23:35Z</time>
      </trkpt>
      <trkpt lat="45.5962" lon="5.40019">
        <ele>419</ele>
        <time>2017-02-11T06:23:38Z</time>
      </trkpt>
      <trkpt lat="45.59617" lon="5.40028">
        <ele>419</ele>
        <time>2017-02-11T06:23:41Z</time>
      </trkpt>
      <trkpt lat="45.59613" lon="5.40034">
        <ele>419</ele>
        <time>2017-02-11T06:23:44Z</time>
      </trkpt>
      <trkpt lat="45.59609" lon="5.40042">
        <ele>419</ele>
        <time>2017-02-11T06:23:47Z</time>
      </trkpt>
      <trkpt lat="45.59606" lon="5.4005">
        <ele>420</ele>
        <time>2017-02-11T06:23:50Z</time>
      </trkpt>
      <trkpt lat="45.59602" lon="5.40058">
        <ele>420</ele>
        <time>2017-02-11T06:23:53Z</time>
      </trkpt>
      <trkpt lat="45.59598" lon="5.40065">
        <ele>420</ele>
        <time>2017-02-11T06:23:56Z</time>
      </trkpt>
      <trkpt lat="45.59595" lon="5.40073">
        <ele>421</ele>
        <time>2017-02-11T06:23:59Z</time>
      </trkpt>
      <trkpt lat="45.59592" lon="5.40084">
        <ele>421</ele>
        <time>2017-02-11T06:24:03Z</time>
      </trkpt>
      <trkpt lat="45.59591" lon="5.40094">
        <ele>420</ele>
        <time>2017-02-11T06:24:07Z</time>
      </trkpt>
      <trkpt lat="45.59598" lon="5.40096">
        <ele>419</ele>
        <time>2017-02-11T06:24:11Z</time>
      </trkpt>
      <trkpt lat="45.59604" lon="5.40089">
        <ele>419</ele>
        <time>2017-02-11T06:24:14Z</time>
      </trkpt>
      <trkpt lat="45.5961" lon="5.40084">
        <ele>418</ele>
        <time>2017-02-11T06:24:17Z</time>
      </trkpt>
      <trkpt lat="45.59616" lon="5.40078">
        <ele>419</ele>
        <time>2017-02-11T06:24:20Z</time>
      </trkpt>
      <trkpt lat="45.5962" lon="5.40072">
        <ele>418</ele>
        <time>2017-02-11T06:24:23Z</time>
      </trkpt>
      <trkpt lat="45.59626" lon="5.40069">
        <ele>418</ele>
        <time>2017-02-11T06:24:26Z</time>
      </trkpt>
      <trkpt lat="45.59631" lon="5.40063">
        <ele>418</ele>
        <time>2017-02-11T06:24:29Z</time>
      </trkpt>
      <trkpt lat="45.59635" lon="5.40057">
        <ele>417</ele>
        <time>2017-02-11T06:24:32Z</time>
      </trkpt>
      <trkpt lat="45.59641" lon="5.40051">
        <ele>417</ele>
        <time>2017-02-11T06:24:35Z</time>
      </trkpt>
      <trkpt lat="45.59647" lon="5.40045">
        <ele>417</ele>
        <time>2017-02-11T06:24:38Z</time>
      </trkpt>
      <trkpt lat="45.59652" lon="5.40038">
        <ele>416</ele>
        <time>2017-02-11T06:24:41Z</time>
      </trkpt>
      <trkpt lat="45.59657" lon="5.40031">
        <ele>416</ele>
        <time>2017-02-11T06:24:44Z</time>
      </trkpt>
      <trkpt lat="45.59661" lon="5.40023">
        <ele>415</ele>
        <time>2017-02-11T06:24:47Z</time>
      </trkpt>
      <trkpt lat="45.59664" lon="5.40015">
        <ele>414</ele>
        <time>2017-02-11T06:24:50Z</time>
      </trkpt>
      <trkpt lat="45.59666" lon="5.40005">
        <ele>412</ele>
        <time>2017-02-11T06:24:53Z</time>
      </trkpt>
      <trkpt lat="45.59669" lon="5.39996">
        <ele>411</ele>
        <time>2017-02-11T06:24:56Z</time>
      </trkpt>
      <trkpt lat="45.59672" lon="5.39987">
        <ele>411</ele>
        <time>2017-02-11T06:24:59Z</time>
      </trkpt>
      <trkpt lat="45.59675" lon="5.39978">
        <ele>411</ele>
        <time>2017-02-11T06:25:02Z</time>
      </trkpt>
      <trkpt lat="45.59678" lon="5.39968">
        <ele>411</ele>
        <time>2017-02-11T06:25:05Z</time>
      </trkpt>
      <trkpt lat="45.5968" lon="5.3996">
        <ele>411</ele>
        <time>2017-02-11T06:25:08Z</time>
      </trkpt>
      <trkpt lat="45.59683" lon="5.39951">
        <ele>411</ele>
        <time>2017-02-11T06:25:11Z</time>
      </trkpt>
      <trkpt lat="45.59685" lon="5.39943">
        <ele>411</ele>
        <time>2017-02-11T06:25:14Z</time>
      </trkpt>
      <trkpt lat="45.59687" lon="5.39933">
        <ele>411</ele>
        <time>2017-02-11T06:25:17Z</time>
      </trkpt>
      <trkpt lat="45.59689" lon="5.39924">
        <ele>411</ele>
        <time>2017-02-11T06:25:20Z</time>
      </trkpt>
      <trkpt lat="45.59692" lon="5.39916">
        <ele>412</ele>
        <time>2017-02-11T06:25:23Z</time>
      </trkpt>
      <trkpt lat="45.59695" lon="5.39909">
        <ele>412</ele>
        <time>2017-02-11T06:25:26Z</time>
      </trkpt>
      <trkpt lat="45.59697" lon="5.399">
        <ele>412</ele>
        <time>2017-02-11T06:25:29Z</time>
      </trkpt>
      <trkpt lat="45.59701" lon="5.39892">
        <ele>412</ele>
        <time>2017-02-11T06:25:32Z</time>
      </trkpt>
      <trkpt lat="45.59704" lon="5.39883">
        <ele>412</ele>
        <time>2017-02-11T06:25:35Z</time>
      </trkpt>
      <trkpt lat="45.59706" lon="5.39874">
        <ele>412</ele>
        <time>2017-02-11T06:25:38Z</time>
      </trkpt>
      <trkpt lat="45.5971" lon="5.39864">
        <ele>412</ele>
        <time>2017-02-11T06:25:41Z</time>
      </trkpt>
      <trkpt lat="45.59712" lon="5.39855">
        <ele>412</ele>
        <time>2017-02-11T06:25:44Z</time>
      </trkpt>
      <trkpt lat="45.59714" lon="5.39846">
        <ele>411</ele>
        <time>2017-02-11T06:25:47Z</time>
      </trkpt>
      <trkpt lat="45.59716" lon="5.39836">
        <ele>411</ele>
        <time>2017-02-11T06:25:50Z</time>
      </trkpt>
      <trkpt lat="45.59718" lon="5.39826">
        <ele>412</ele>
        <time>2017-02-11T06:25:53Z</time>
      </trkpt>
      <trkpt lat="45.5972" lon="5.39816">
        <ele>412</ele>
        <time>2017-02-11T06:25:56Z</time>
      </trkpt>
      <trkpt lat="45.59723" lon="5.39807">
        <ele>412</ele>
        <time>2017-02-11T06:25:59Z</time>
      </trkpt>
      <trkpt lat="45.59726" lon="5.39796">
        <ele>412</ele>
        <time>2017-02-11T06:26:02Z</time>
      </trkpt>
      <trkpt lat="45.59729" lon="5.39787">
        <ele>412</ele>
        <time>2017-02-11T06:26:05Z</time>
      </trkpt>
      <trkpt lat="45.59734" lon="5.39779">
        <ele>412</ele>
        <time>2017-02-11T06:26:08Z</time>
      </trkpt>
      <trkpt lat="45.59738" lon="5.39772">
        <ele>411</ele>
        <time>2017-02-11T06:26:11Z</time>
      </trkpt>
      <trkpt lat="45.59745" lon="5.39767">
        <ele>411</ele>
        <time>2017-02-11T06:26:14Z</time>
      </trkpt>
      <trkpt lat="45.59751" lon="5.39765">
        <ele>409</ele>
        <time>2017-02-11T06:26:17Z</time>
      </trkpt>
      <trkpt lat="45.59759" lon="5.39765">
        <ele>409</ele>
        <time>2017-02-11T06:26:20Z</time>
      </trkpt>
      <trkpt lat="45.59766" lon="5.39766">
        <ele>409</ele>
        <time>2017-02-11T06:26:23Z</time>
      </trkpt>
      <trkpt lat="45.59773" lon="5.39767">
        <ele>410</ele>
        <time>2017-02-11T06:26:26Z</time>
      </trkpt>
      <trkpt lat="45.59781" lon="5.39771">
        <ele>410</ele>
        <time>2017-02-11T06:26:30Z</time>
      </trkpt>
      <trkpt lat="45.59787" lon="5.39775">
        <ele>410</ele>
        <time>2017-02-11T06:26:33Z</time>
      </trkpt>
      <trkpt lat="45.59792" lon="5.39781">
        <ele>410</ele>
        <time>2017-02-11T06:26:36Z</time>
      </trkpt>
      <trkpt lat="45.59798" lon="5.39787">
        <ele>410</ele>
        <time>2017-02-11T06:26:39Z</time>
      </trkpt>
      <trkpt lat="45.59802" lon="5.39792">
        <ele>410</ele>
        <time>2017-02-11T06:26:42Z</time>
      </trkpt>
      <trkpt lat="45.59808" lon="5.39796">
        <ele>411</ele>
        <time>2017-02-11T06:26:45Z</time>
      </trkpt>
      <trkpt lat="45.59818" lon="5.39797">
        <ele>411</ele>
        <time>2017-02-11T06:26:50Z</time>
      </trkpt>
      <trkpt lat="45.59824" lon="5.39798">
        <ele>411</ele>
        <time>2017-02-11T06:26:53Z</time>
      </trkpt>
      <trkpt lat="45.5983" lon="5.39796">
        <ele>411</ele>
        <time>2017-02-11T06:26:56Z</time>
      </trkpt>
      <trkpt lat="45.59837" lon="5.39794">
        <ele>409</ele>
        <time>2017-02-11T06:26:59Z</time>
      </trkpt>
      <trkpt lat="45.59846" lon="5.39793">
        <ele>409</ele>
        <time>2017-02-11T06:27:03Z</time>
      </trkpt>
      <trkpt lat="45.59852" lon="5.3979">
        <ele>409</ele>
        <time>2017-02-11T06:27:06Z</time>
      </trkpt>
      <trkpt lat="45.59859" lon="5.39792">
        <ele>409</ele>
        <time>2017-02-11T06:27:09Z</time>
      </trkpt>
      <trkpt lat="45.59867" lon="5.39791">
        <ele>408</ele>
        <time>2017-02-11T06:27:13Z</time>
      </trkpt>
      <trkpt lat="45.59875" lon="5.39791">
        <ele>408</ele>
        <time>2017-02-11T06:27:17Z</time>
      </trkpt>
      <trkpt lat="45.59882" lon="5.39793">
        <ele>408</ele>
        <time>2017-02-11T06:27:20Z</time>
      </trkpt>
      <trkpt lat="45.59891" lon="5.39793">
        <ele>407</ele>
        <time>2017-02-11T06:27:24Z</time>
      </trkpt>
      <trkpt lat="45.599" lon="5.39795">
        <ele>407</ele>
        <time>2017-02-11T06:27:27Z</time>
      </trkpt>
      <trkpt lat="45.5991" lon="5.39794">
        <ele>407</ele>
        <time>2017-02-11T06:27:31Z</time>
      </trkpt>
      <trkpt lat="45.59917" lon="5.39794">
        <ele>401</ele>
        <time>2017-02-11T06:27:34Z</time>
      </trkpt>
      <trkpt lat="45.59924" lon="5.39796">
        <ele>401</ele>
        <time>2017-02-11T06:27:37Z</time>
      </trkpt>
      <trkpt lat="45.59932" lon="5.39799">
        <ele>400</ele>
        <time>2017-02-11T06:27:41Z</time>
      </trkpt>
      <trkpt lat="45.59938" lon="5.39802">
        <ele>400</ele>
        <time>2017-02-11T06:27:44Z</time>
      </trkpt>
      <trkpt lat="45.59944" lon="5.39804">
        <ele>400</ele>
        <time>2017-02-11T06:27:47Z</time>
      </trkpt>
      <trkpt lat="45.5995" lon="5.39806">
        <ele>399</ele>
        <time>2017-02-11T06:27:50Z</time>
      </trkpt>
      <trkpt lat="45.59959" lon="5.39806">
        <ele>399</ele>
        <time>2017-02-11T06:27:54Z</time>
      </trkpt>
      <trkpt lat="45.59966" lon="5.39804">
        <ele>398</ele>
        <time>2017-02-11T06:27:57Z</time>
      </trkpt>
      <trkpt lat="45.59973" lon="5.39801">
        <ele>398</ele>
        <time>2017-02-11T06:28:00Z</time>
      </trkpt>
      <trkpt lat="45.59979" lon="5.39797">
        <ele>398</ele>
        <time>2017-02-11T06:28:03Z</time>
      </trkpt>
      <trkpt lat="45.59984" lon="5.39792">
        <ele>398</ele>
        <time>2017-02-11T06:28:05Z</time>
      </trkpt>
      <trkpt lat="45.5999" lon="5.39786">
        <ele>398</ele>
        <time>2017-02-11T06:28:08Z</time>
      </trkpt>
      <trkpt lat="45.59993" lon="5.39781">
        <ele>398</ele>
        <time>2017-02-11T06:28:11Z</time>
      </trkpt>
      <trkpt lat="45.6" lon="5.39776">
        <ele>391</ele>
        <time>2017-02-11T06:28:15Z</time>
      </trkpt>
      <trkpt lat="45.60005" lon="5.39772">
        <ele>392</ele>
        <time>2017-02-11T06:28:18Z</time>
      </trkpt>
      <trkpt lat="45.60009" lon="5.39765">
        <ele>392</ele>
        <time>2017-02-11T06:28:21Z</time>
      </trkpt>
      <trkpt lat="45.60014" lon="5.39759">
        <ele>392</ele>
        <time>2017-02-11T06:28:24Z</time>
      </trkpt>
      <trkpt lat="45.6002" lon="5.39751">
        <ele>392</ele>
        <time>2017-02-11T06:28:27Z</time>
      </trkpt>
      <trkpt lat="45.60024" lon="5.39744">
        <ele>393</ele>
        <time>2017-02-11T06:28:29Z</time>
      </trkpt>
      <trkpt lat="45.6003" lon="5.39737">
        <ele>393</ele>
        <time>2017-02-11T06:28:32Z</time>
      </trkpt>
      <trkpt lat="45.60033" lon="5.39732">
        <ele>392</ele>
        <time>2017-02-11T06:28:35Z</time>
      </trkpt>
      <trkpt lat="45.60038" lon="5.39727">
        <ele>392</ele>
        <time>2017-02-11T06:28:37Z</time>
      </trkpt>
      <trkpt lat="45.60043" lon="5.3972">
        <ele>392</ele>
        <time>2017-02-11T06:28:40Z</time>
      </trkpt>
      <trkpt lat="45.60049" lon="5.39715">
        <ele>391</ele>
        <time>2017-02-11T06:28:43Z</time>
      </trkpt>
      <trkpt lat="45.60055" lon="5.39712">
        <ele>391</ele>
        <time>2017-02-11T06:28:46Z</time>
      </trkpt>
      <trkpt lat="45.60064" lon="5.39712">
        <ele>390</ele>
        <time>2017-02-11T06:28:50Z</time>
      </trkpt>
      <trkpt lat="45.6007" lon="5.3971">
        <ele>390</ele>
        <time>2017-02-11T06:28:53Z</time>
      </trkpt>
      <trkpt lat="45.60076" lon="5.39708">
        <ele>390</ele>
        <time>2017-02-11T06:28:56Z</time>
      </trkpt>
      <trkpt lat="45.60083" lon="5.39711">
        <ele>389</ele>
        <time>2017-02-11T06:28:59Z</time>
      </trkpt>
      <trkpt lat="45.6009" lon="5.39715">
        <ele>384</ele>
        <time>2017-02-11T06:29:02Z</time>
      </trkpt>
      <trkpt lat="45.60094" lon="5.39719">
        <ele>383</ele>
        <time>2017-02-11T06:29:05Z</time>
      </trkpt>
      <trkpt lat="45.60101" lon="5.39724">
        <ele>383</ele>
        <time>2017-02-11T06:29:08Z</time>
      </trkpt>
      <trkpt lat="45.60109" lon="5.39728">
        <ele>383</ele>
        <time>2017-02-11T06:29:12Z</time>
      </trkpt>
      <trkpt lat="45.60116" lon="5.39729">
        <ele>383</ele>
        <time>2017-02-11T06:29:15Z</time>
      </trkpt>
      <trkpt lat="45.60125" lon="5.3973">
        <ele>383</ele>
        <time>2017-02-11T06:29:19Z</time>
      </trkpt>
      <trkpt lat="45.60134" lon="5.39731">
        <ele>382</ele>
        <time>2017-02-11T06:29:23Z</time>
      </trkpt>
      <trkpt lat="45.60141" lon="5.39732">
        <ele>382</ele>
        <time>2017-02-11T06:29:26Z</time>
      </trkpt>
      <trkpt lat="45.60149" lon="5.39733">
        <ele>381</ele>
        <time>2017-02-11T06:29:29Z</time>
      </trkpt>
      <trkpt lat="45.60157" lon="5.39734">
        <ele>381</ele>
        <time>2017-02-11T06:29:32Z</time>
      </trkpt>
      <trkpt lat="45.60164" lon="5.39732">
        <ele>381</ele>
        <time>2017-02-11T06:29:35Z</time>
      </trkpt>
      <trkpt lat="45.60171" lon="5.39731">
        <ele>378</ele>
        <time>2017-02-11T06:29:38Z</time>
      </trkpt>
      <trkpt lat="45.60178" lon="5.39729">
        <ele>377</ele>
        <time>2017-02-11T06:29:41Z</time>
      </trkpt>
      <trkpt lat="45.60184" lon="5.39727">
        <ele>377</ele>
        <time>2017-02-11T06:29:44Z</time>
      </trkpt>
      <trkpt lat="45.60191" lon="5.39726">
        <ele>377</ele>
        <time>2017-02-11T06:29:47Z</time>
      </trkpt>
      <trkpt lat="45.60201" lon="5.39724">
        <ele>376</ele>
        <time>2017-02-11T06:29:51Z</time>
      </trkpt>
      <trkpt lat="45.60209" lon="5.39722">
        <ele>376</ele>
        <time>2017-02-11T06:29:55Z</time>
      </trkpt>
      <trkpt lat="45.60216" lon="5.3972">
        <ele>375</ele>
        <time>2017-02-11T06:29:58Z</time>
      </trkpt>
      <trkpt lat="45.60224" lon="5.39717">
        <ele>375</ele>
        <time>2017-02-11T06:30:01Z</time>
      </trkpt>
      <trkpt lat="45.60231" lon="5.39716">
        <ele>375</ele>
        <time>2017-02-11T06:30:04Z</time>
      </trkpt>
      <trkpt lat="45.60239" lon="5.39715">
        <ele>374</ele>
        <time>2017-02-11T06:30:07Z</time>
      </trkpt>
      <trkpt lat="45.60248" lon="5.39715">
        <ele>374</ele>
        <time>2017-02-11T06:30:11Z</time>
      </trkpt>
      <trkpt lat="45.60255" lon="5.39717">
        <ele>369</ele>
        <time>2017-02-11T06:30:14Z</time>
      </trkpt>
      <trkpt lat="45.60263" lon="5.3972">
        <ele>369</ele>
        <time>2017-02-11T06:30:17Z</time>
      </trkpt>
      <trkpt lat="45.60271" lon="5.39722">
        <ele>369</ele>
        <time>2017-02-11T06:30:20Z</time>
      </trkpt>
      <trkpt lat="45.60278" lon="5.39724">
        <ele>369</ele>
        <time>2017-02-11T06:30:23Z</time>
      </trkpt>
      <trkpt lat="45.60286" lon="5.39727">
        <ele>368</ele>
        <time>2017-02-11T06:30:26Z</time>
      </trkpt>
      <trkpt lat="45.60293" lon="5.39728">
        <ele>368</ele>
        <time>2017-02-11T06:30:29Z</time>
      </trkpt>
      <trkpt lat="45.60301" lon="5.39731">
        <ele>367</ele>
        <time>2017-02-11T06:30:32Z</time>
      </trkpt>
      <trkpt lat="45.60308" lon="5.39734">
        <ele>367</ele>
        <time>2017-02-11T06:30:35Z</time>
      </trkpt>
      <trkpt lat="45.60313" lon="5.39737">
        <ele>366</ele>
        <time>2017-02-11T06:30:37Z</time>
      </trkpt>
      <trkpt lat="45.60319" lon="5.39742">
        <ele>365</ele>
        <time>2017-02-11T06:30:40Z</time>
      </trkpt>
      <trkpt lat="45.60326" lon="5.39746">
        <ele>364</ele>
        <time>2017-02-11T06:30:43Z</time>
      </trkpt>
      <trkpt lat="45.60333" lon="5.3975">
        <ele>362</ele>
        <time>2017-02-11T06:30:46Z</time>
      </trkpt>
      <trkpt lat="45.6034" lon="5.39753">
        <ele>361</ele>
        <time>2017-02-11T06:30:49Z</time>
      </trkpt>
      <trkpt lat="45.60347" lon="5.39755">
        <ele>360</ele>
        <time>2017-02-11T06:30:52Z</time>
      </trkpt>
      <trkpt lat="45.60354" lon="5.39758">
        <ele>360</ele>
        <time>2017-02-11T06:30:55Z</time>
      </trkpt>
      <trkpt lat="45.60361" lon="5.3976">
        <ele>359</ele>
        <time>2017-02-11T06:30:58Z</time>
      </trkpt>
      <trkpt lat="45.60368" lon="5.39763">
        <ele>359</ele>
        <time>2017-02-11T06:31:01Z</time>
      </trkpt>
      <trkpt lat="45.60375" lon="5.39764">
        <ele>358</ele>
        <time>2017-02-11T06:31:04Z</time>
      </trkpt>
      <trkpt lat="45.60383" lon="5.39764">
        <ele>358</ele>
        <time>2017-02-11T06:31:07Z</time>
      </trkpt>
      <trkpt lat="45.60389" lon="5.39766">
        <ele>358</ele>
        <time>2017-02-11T06:31:10Z</time>
      </trkpt>
      <trkpt lat="45.60393" lon="5.39773">
        <ele>358</ele>
        <time>2017-02-11T06:31:13Z</time>
      </trkpt>
      <trkpt lat="45.6039" lon="5.3978">
        <ele>358</ele>
        <time>2017-02-11T06:31:16Z</time>
      </trkpt>
      <trkpt lat="45.60386" lon="5.3979">
        <ele>358</ele>
        <time>2017-02-11T06:31:19Z</time>
      </trkpt>
      <trkpt lat="45.60383" lon="5.39796">
        <ele>358</ele>
        <time>2017-02-11T06:31:21Z</time>
      </trkpt>
      <trkpt lat="45.60377" lon="5.39803">
        <ele>358</ele>
        <time>2017-02-11T06:31:24Z</time>
      </trkpt>
      <trkpt lat="45.60371" lon="5.39809">
        <ele>358</ele>
        <time>2017-02-11T06:31:27Z</time>
      </trkpt>
      <trkpt lat="45.60367" lon="5.39814">
        <ele>358</ele>
        <time>2017-02-11T06:31:29Z</time>
      </trkpt>
      <trkpt lat="45.6036" lon="5.39819">
        <ele>358</ele>
        <time>2017-02-11T06:31:32Z</time>
      </trkpt>
      <trkpt lat="45.60356" lon="5.39827">
        <ele>359</ele>
        <time>2017-02-11T06:31:35Z</time>
      </trkpt>
      <trkpt lat="45.60351" lon="5.39833">
        <ele>359</ele>
        <time>2017-02-11T06:31:38Z</time>
      </trkpt>
      <trkpt lat="45.60346" lon="5.39839">
        <ele>359</ele>
        <time>2017-02-11T06:31:41Z</time>
      </trkpt>
      <trkpt lat="45.60342" lon="5.39844">
        <ele>359</ele>
        <time>2017-02-11T06:31:43Z</time>
      </trkpt>
      <trkpt lat="45.60336" lon="5.39851">
        <ele>359</ele>
        <time>2017-02-11T06:31:46Z</time>
      </trkpt>
      <trkpt lat="45.60332" lon="5.39856">
        <ele>363</ele>
        <time>2017-02-11T06:31:49Z</time>
      </trkpt>
      <trkpt lat="45.60328" lon="5.39861">
        <ele>363</ele>
        <time>2017-02-11T06:31:51Z</time>
      </trkpt>
      <trkpt lat="45.60323" lon="5.39868">
        <ele>363</ele>
        <time>2017-02-11T06:31:54Z</time>
      </trkpt>
      <trkpt lat="45.60317" lon="5.39875">
        <ele>363</ele>
        <time>2017-02-11T06:31:57Z</time>
      </trkpt>
      <trkpt lat="45.60313" lon="5.39882">
        <ele>363</ele>
        <time>2017-02-11T06:32:00Z</time>
      </trkpt>
      <trkpt lat="45.60308" lon="5.3989">
        <ele>364</ele>
        <time>2017-02-11T06:32:03Z</time>
      </trkpt>
      <trkpt lat="45.60305" lon="5.39898">
        <ele>364</ele>
        <time>2017-02-11T06:32:06Z</time>
      </trkpt>
      <trkpt lat="45.60301" lon="5.39904">
        <ele>364</ele>
        <time>2017-02-11T06:32:09Z</time>
      </trkpt>
      <trkpt lat="45.60297" lon="5.39911">
        <ele>364</ele>
        <time>2017-02-11T06:32:12Z</time>
      </trkpt>
      <trkpt lat="45.60291" lon="5.39916">
        <ele>364</ele>
        <time>2017-02-11T06:32:15Z</time>
      </trkpt>
      <trkpt lat="45.60287" lon="5.39923">
        <ele>364</ele>
        <time>2017-02-11T06:32:18Z</time>
      </trkpt>
      <trkpt lat="45.60285" lon="5.39933">
        <ele>364</ele>
        <time>2017-02-11T06:32:22Z</time>
      </trkpt>
      <trkpt lat="45.60282" lon="5.39943">
        <ele>364</ele>
        <time>2017-02-11T06:32:25Z</time>
      </trkpt>
      <trkpt lat="45.6028" lon="5.39952">
        <ele>364</ele>
        <time>2017-02-11T06:32:28Z</time>
      </trkpt>
      <trkpt lat="45.60277" lon="5.39959">
        <ele>365</ele>
        <time>2017-02-11T06:32:31Z</time>
      </trkpt>
      <trkpt lat="45.6028" lon="5.39967">
        <ele>365</ele>
        <time>2017-02-11T06:32:36Z</time>
      </trkpt>
      <trkpt lat="45.60286" lon="5.3997">
        <ele>365</ele>
        <time>2017-02-11T06:32:39Z</time>
      </trkpt>
      <trkpt lat="45.60292" lon="5.39974">
        <ele>364</ele>
        <time>2017-02-11T06:32:42Z</time>
      </trkpt>
      <trkpt lat="45.60299" lon="5.39977">
        <ele>364</ele>
        <time>2017-02-11T06:32:45Z</time>
      </trkpt>
      <trkpt lat="45.60304" lon="5.39981">
        <ele>364</ele>
        <time>2017-02-11T06:32:48Z</time>
      </trkpt>
      <trkpt lat="45.6031" lon="5.39985">
        <ele>364</ele>
        <time>2017-02-11T06:32:51Z</time>
      </trkpt>
      <trkpt lat="45.60316" lon="5.39988">
        <ele>364</ele>
        <time>2017-02-11T06:32:54Z</time>
      </trkpt>
      <trkpt lat="45.60322" lon="5.39992">
        <ele>364</ele>
        <time>2017-02-11T06:32:57Z</time>
      </trkpt>
      <trkpt lat="45.60328" lon="5.39995">
        <ele>364</ele>
        <time>2017-02-11T06:33:00Z</time>
      </trkpt>
      <trkpt lat="45.60335" lon="5.39999">
        <ele>364</ele>
        <time>2017-02-11T06:33:04Z</time>
      </trkpt>
      <trkpt lat="45.60341" lon="5.40003">
        <ele>365</ele>
        <time>2017-02-11T06:33:07Z</time>
      </trkpt>
      <trkpt lat="45.60351" lon="5.40003">
        <ele>367</ele>
        <time>2017-02-11T06:33:12Z</time>
      </trkpt>
      <trkpt lat="45.60359" lon="5.40002">
        <ele>367</ele>
        <time>2017-02-11T06:33:16Z</time>
      </trkpt>
      <trkpt lat="45.60369" lon="5.40001">
        <ele>367</ele>
        <time>2017-02-11T06:33:21Z</time>
      </trkpt>
      <trkpt lat="45.60377" lon="5.40001">
        <ele>368</ele>
        <time>2017-02-11T06:33:25Z</time>
      </trkpt>
      <trkpt lat="45.60385" lon="5.40003">
        <ele>368</ele>
        <time>2017-02-11T06:33:29Z</time>
      </trkpt>
      <trkpt lat="45.60393" lon="5.40007">
        <ele>368</ele>
        <time>2017-02-11T06:33:33Z</time>
      </trkpt>
      <trkpt lat="45.60399" lon="5.4001">
        <ele>368</ele>
        <time>2017-02-11T06:33:36Z</time>
      </trkpt>
      <trkpt lat="45.60407" lon="5.40012">
        <ele>368</ele>
        <time>2017-02-11T06:33:40Z</time>
      </trkpt>
      <trkpt lat="45.60414" lon="5.40015">
        <ele>368</ele>
        <time>2017-02-11T06:33:44Z</time>
      </trkpt>
      <trkpt lat="45.60419" lon="5.40018">
        <ele>373</ele>
        <time>2017-02-11T06:33:47Z</time>
      </trkpt>
      <trkpt lat="45.60427" lon="5.40018">
        <ele>374</ele>
        <time>2017-02-11T06:33:53Z</time>
      </trkpt>
      <trkpt lat="45.60428" lon="5.40006">
        <ele>372</ele>
        <time>2017-02-11T06:33:57Z</time>
      </trkpt>
      <trkpt lat="45.60432" lon="5.40001">
        <ele>373</ele>
        <time>2017-02-11T06:34:00Z</time>
      </trkpt>
      <trkpt lat="45.60436" lon="5.39996">
        <ele>368</ele>
        <time>2017-02-11T06:34:03Z</time>
      </trkpt>
      <trkpt lat="45.60438" lon="5.39987">
        <ele>368</ele>
        <time>2017-02-11T06:34:07Z</time>
      </trkpt>
      <trkpt lat="45.60439" lon="5.39978">
        <ele>368</ele>
        <time>2017-02-11T06:34:10Z</time>
      </trkpt>
      <trkpt lat="45.60441" lon="5.3997">
        <ele>368</ele>
        <time>2017-02-11T06:34:13Z</time>
      </trkpt>
      <trkpt lat="45.60445" lon="5.39962">
        <ele>367</ele>
        <time>2017-02-11T06:34:16Z</time>
      </trkpt>
      <trkpt lat="45.6045" lon="5.39958">
        <ele>367</ele>
        <time>2017-02-11T06:34:19Z</time>
      </trkpt>
      <trkpt lat="45.60457" lon="5.39956">
        <ele>367</ele>
        <time>2017-02-11T06:34:23Z</time>
      </trkpt>
      <trkpt lat="45.60464" lon="5.39952">
        <ele>367</ele>
        <time>2017-02-11T06:34:27Z</time>
      </trkpt>
      <trkpt lat="45.60469" lon="5.39948">
        <ele>367</ele>
        <time>2017-02-11T06:34:30Z</time>
      </trkpt>
      <trkpt lat="45.60477" lon="5.39945">
        <ele>367</ele>
        <time>2017-02-11T06:34:35Z</time>
      </trkpt>
      <trkpt lat="45.60483" lon="5.39941">
        <ele>367</ele>
        <time>2017-02-11T06:34:38Z</time>
      </trkpt>
      <trkpt lat="45.6049" lon="5.39937">
        <ele>366</ele>
        <time>2017-02-11T06:34:41Z</time>
      </trkpt>
      <trkpt lat="45.60495" lon="5.39933">
        <ele>366</ele>
        <time>2017-02-11T06:34:45Z</time>
      </trkpt>
      <trkpt lat="45.60501" lon="5.3993">
        <ele>367</ele>
        <time>2017-02-11T06:34:49Z</time>
      </trkpt>
      <trkpt lat="45.60508" lon="5.39928">
        <ele>367</ele>
        <time>2017-02-11T06:34:53Z</time>
      </trkpt>
      <trkpt lat="45.60513" lon="5.39925">
        <ele>367</ele>
        <time>2017-02-11T06:34:57Z</time>
      </trkpt>
      <trkpt lat="45.60519" lon="5.39919">
        <ele>367</ele>
        <time>2017-02-11T06:35:02Z</time>
      </trkpt>
      <trkpt lat="45.60524" lon="5.39913">
        <ele>359</ele>
        <time>2017-02-11T06:35:06Z</time>
      </trkpt>
      <trkpt lat="45.6053" lon="5.39909">
        <ele>358</ele>
        <time>2017-02-11T06:35:10Z</time>
      </trkpt>
      <trkpt lat="45.60536" lon="5.39905">
        <ele>358</ele>
        <time>2017-02-11T06:35:13Z</time>
      </trkpt>
      <trkpt lat="45.60543" lon="5.39902">
        <ele>357</ele>
        <time>2017-02-11T06:35:16Z</time>
      </trkpt>
      <trkpt lat="45.60551" lon="5.39904">
        <ele>357</ele>
        <time>2017-02-11T06:35:19Z</time>
      </trkpt>
      <trkpt lat="45.60557" lon="5.39905">
        <ele>357</ele>
        <time>2017-02-11T06:35:22Z</time>
      </trkpt>
      <trkpt lat="45.60564" lon="5.39908">
        <ele>358</ele>
        <time>2017-02-11T06:35:25Z</time>
      </trkpt>
      <trkpt lat="45.60572" lon="5.3991">
        <ele>358</ele>
        <time>2017-02-11T06:35:28Z</time>
      </trkpt>
      <trkpt lat="45.60579" lon="5.39911">
        <ele>359</ele>
        <time>2017-02-11T06:35:31Z</time>
      </trkpt>
      <trkpt lat="45.60585" lon="5.39913">
        <ele>358</ele>
        <time>2017-02-11T06:35:34Z</time>
      </trkpt>
      <trkpt lat="45.60592" lon="5.39915">
        <ele>357</ele>
        <time>2017-02-11T06:35:38Z</time>
      </trkpt>
      <trkpt lat="45.60598" lon="5.39918">
        <ele>361</ele>
        <time>2017-02-11T06:35:41Z</time>
      </trkpt>
      <trkpt lat="45.60605" lon="5.3992">
        <ele>361</ele>
        <time>2017-02-11T06:35:44Z</time>
      </trkpt>
      <trkpt lat="45.60613" lon="5.39924">
        <ele>361</ele>
        <time>2017-02-11T06:35:47Z</time>
      </trkpt>
      <trkpt lat="45.60619" lon="5.39927">
        <ele>360</ele>
        <time>2017-02-11T06:35:50Z</time>
      </trkpt>
      <trkpt lat="45.60627" lon="5.39931">
        <ele>360</ele>
        <time>2017-02-11T06:35:53Z</time>
      </trkpt>
      <trkpt lat="45.60633" lon="5.39937">
        <ele>360</ele>
        <time>2017-02-11T06:35:56Z</time>
      </trkpt>
      <trkpt lat="45.60638" lon="5.39941">
        <ele>360</ele>
        <time>2017-02-11T06:35:59Z</time>
      </trkpt>
      <trkpt lat="45.60641" lon="5.39947">
        <ele>360</ele>
        <time>2017-02-11T06:36:02Z</time>
      </trkpt>
      <trkpt lat="45.60649" lon="5.39953">
        <ele>360</ele>
        <time>2017-02-11T06:36:05Z</time>
      </trkpt>
      <trkpt lat="45.60654" lon="5.39956">
        <ele>360</ele>
        <time>2017-02-11T06:36:07Z</time>
      </trkpt>
      <trkpt lat="45.60659" lon="5.3996">
        <ele>360</ele>
        <time>2017-02-11T06:36:10Z</time>
      </trkpt>
      <trkpt lat="45.60664" lon="5.39964">
        <ele>361</ele>
        <time>2017-02-11T06:36:12Z</time>
      </trkpt>
      <trkpt lat="45.6067" lon="5.3997">
        <ele>353</ele>
        <time>2017-02-11T06:36:14Z</time>
      </trkpt>
      <trkpt lat="45.60674" lon="5.39975">
        <ele>354</ele>
        <time>2017-02-11T06:36:16Z</time>
      </trkpt>
      <trkpt lat="45.60678" lon="5.3998">
        <ele>354</ele>
        <time>2017-02-11T06:36:18Z</time>
      </trkpt>
      <trkpt lat="45.60682" lon="5.39985">
        <ele>355</ele>
        <time>2017-02-11T06:36:20Z</time>
      </trkpt>
      <trkpt lat="45.60688" lon="5.39991">
        <ele>354</ele>
        <time>2017-02-11T06:36:23Z</time>
      </trkpt>
      <trkpt lat="45.60694" lon="5.39996">
        <ele>353</ele>
        <time>2017-02-11T06:36:26Z</time>
      </trkpt>
      <trkpt lat="45.60702" lon="5.39994">
        <ele>352</ele>
        <time>2017-02-11T06:36:30Z</time>
      </trkpt>
      <trkpt lat="45.60708" lon="5.39991">
        <ele>351</ele>
        <time>2017-02-11T06:36:33Z</time>
      </trkpt>
      <trkpt lat="45.60712" lon="5.39987">
        <ele>350</ele>
        <time>2017-02-11T06:36:35Z</time>
      </trkpt>
      <trkpt lat="45.60716" lon="5.3998">
        <ele>350</ele>
        <time>2017-02-11T06:36:38Z</time>
      </trkpt>
      <trkpt lat="45.60719" lon="5.39972">
        <ele>349</ele>
        <time>2017-02-11T06:36:41Z</time>
      </trkpt>
      <trkpt lat="45.60722" lon="5.39962">
        <ele>349</ele>
        <time>2017-02-11T06:36:44Z</time>
      </trkpt>
      <trkpt lat="45.60725" lon="5.39955">
        <ele>348</ele>
        <time>2017-02-11T06:36:47Z</time>
      </trkpt>
      <trkpt lat="45.60727" lon="5.39946">
        <ele>348</ele>
        <time>2017-02-11T06:36:50Z</time>
      </trkpt>
      <trkpt lat="45.6073" lon="5.39939">
        <ele>347</ele>
        <time>2017-02-11T06:36:53Z</time>
      </trkpt>
      <trkpt lat="45.60731" lon="5.3993">
        <ele>346</ele>
        <time>2017-02-11T06:36:56Z</time>
      </trkpt>
      <trkpt lat="45.60734" lon="5.39921">
        <ele>346</ele>
        <time>2017-02-11T06:36:59Z</time>
      </trkpt>
      <trkpt lat="45.60736" lon="5.3991">
        <ele>344</ele>
        <time>2017-02-11T06:37:02Z</time>
      </trkpt>
      <trkpt lat="45.6074" lon="5.39901">
        <ele>344</ele>
        <time>2017-02-11T06:37:05Z</time>
      </trkpt>
      <trkpt lat="45.60742" lon="5.39891">
        <ele>344</ele>
        <time>2017-02-11T06:37:08Z</time>
      </trkpt>
      <trkpt lat="45.60745" lon="5.3988">
        <ele>344</ele>
        <time>2017-02-11T06:37:11Z</time>
      </trkpt>
      <trkpt lat="45.60748" lon="5.39872">
        <ele>344</ele>
        <time>2017-02-11T06:37:14Z</time>
      </trkpt>
      <trkpt lat="45.60748" lon="5.39861">
        <ele>344</ele>
        <time>2017-02-11T06:37:17Z</time>
      </trkpt>
      <trkpt lat="45.60747" lon="5.39851">
        <ele>344</ele>
        <time>2017-02-11T06:37:20Z</time>
      </trkpt>
      <trkpt lat="45.60745" lon="5.39842">
        <ele>344</ele>
        <time>2017-02-11T06:37:23Z</time>
      </trkpt>
      <trkpt lat="45.60742" lon="5.39834">
        <ele>344</ele>
        <time>2017-02-11T06:37:26Z</time>
      </trkpt>
      <trkpt lat="45.6074" lon="5.39825">
        <ele>344</ele>
        <time>2017-02-11T06:37:29Z</time>
      </trkpt>
      <trkpt lat="45.60735" lon="5.39809">
        <ele>344</ele>
        <time>2017-02-11T06:37:34Z</time>
      </trkpt>
      <trkpt lat="45.60733" lon="5.398">
        <ele>344</ele>
        <time>2017-02-11T06:37:37Z</time>
      </trkpt>
      <trkpt lat="45.6073" lon="5.3979">
        <ele>344</ele>
        <time>2017-02-11T06:37:40Z</time>
      </trkpt>
      <trkpt lat="45.6073" lon="5.39778">
        <ele>344</ele>
        <time>2017-02-11T06:37:43Z</time>
      </trkpt>
      <trkpt lat="45.60731" lon="5.39765">
        <ele>344</ele>
        <time>2017-02-11T06:37:47Z</time>
      </trkpt>
      <trkpt lat="45.60736" lon="5.39758">
        <ele>344</ele>
        <time>2017-02-11T06:37:50Z</time>
      </trkpt>
      <trkpt lat="45.60742" lon="5.39756">
        <ele>344</ele>
        <time>2017-02-11T06:37:54Z</time>
      </trkpt>
      <trkpt lat="45.60749" lon="5.39754">
        <ele>344</ele>
        <time>2017-02-11T06:37:58Z</time>
      </trkpt>
      <trkpt lat="45.60755" lon="5.39751">
        <ele>344</ele>
        <time>2017-02-11T06:38:01Z</time>
      </trkpt>
      <trkpt lat="45.60762" lon="5.39748">
        <ele>343</ele>
        <time>2017-02-11T06:38:04Z</time>
      </trkpt>
      <trkpt lat="45.60768" lon="5.39743">
        <ele>343</ele>
        <time>2017-02-11T06:38:07Z</time>
      </trkpt>
      <trkpt lat="45.60776" lon="5.39741">
        <ele>343</ele>
        <time>2017-02-11T06:38:10Z</time>
      </trkpt>
      <trkpt lat="45.60784" lon="5.39739">
        <ele>343</ele>
        <time>2017-02-11T06:38:13Z</time>
      </trkpt>
      <trkpt lat="45.60791" lon="5.39737">
        <ele>342</ele>
        <time>2017-02-11T06:38:16Z</time>
      </trkpt>
      <trkpt lat="45.60799" lon="5.39735">
        <ele>342</ele>
        <time>2017-02-11T06:38:19Z</time>
      </trkpt>
      <trkpt lat="45.60807" lon="5.39734">
        <ele>342</ele>
        <time>2017-02-11T06:38:23Z</time>
      </trkpt>
      <trkpt lat="45.60814" lon="5.39732">
        <ele>342</ele>
        <time>2017-02-11T06:38:26Z</time>
      </trkpt>
      <trkpt lat="45.60822" lon="5.39732">
        <ele>342</ele>
        <time>2017-02-11T06:38:29Z</time>
      </trkpt>
      <trkpt lat="45.60833" lon="5.39731">
        <ele>342</ele>
        <time>2017-02-11T06:38:33Z</time>
      </trkpt>
      <trkpt lat="45.6084" lon="5.39728">
        <ele>343</ele>
        <time>2017-02-11T06:38:36Z</time>
      </trkpt>
      <trkpt lat="45.60847" lon="5.39726">
        <ele>343</ele>
        <time>2017-02-11T06:38:39Z</time>
      </trkpt>
      <trkpt lat="45.60855" lon="5.39725">
        <ele>343</ele>
        <time>2017-02-11T06:38:42Z</time>
      </trkpt>
      <trkpt lat="45.60862" lon="5.39723">
        <ele>343</ele>
        <time>2017-02-11T06:38:45Z</time>
      </trkpt>
      <trkpt lat="45.6087" lon="5.39722">
        <ele>343</ele>
        <time>2017-02-11T06:38:48Z</time>
      </trkpt>
      <trkpt lat="45.60877" lon="5.3972">
        <ele>344</ele>
        <time>2017-02-11T06:38:51Z</time>
      </trkpt>
      <trkpt lat="45.60884" lon="5.39718">
        <ele>344</ele>
        <time>2017-02-11T06:38:54Z</time>
      </trkpt>
      <trkpt lat="45.6089" lon="5.39716">
        <ele>344</ele>
        <time>2017-02-11T06:38:57Z</time>
      </trkpt>
      <trkpt lat="45.60898" lon="5.39714">
        <ele>344</ele>
        <time>2017-02-11T06:39:00Z</time>
      </trkpt>
      <trkpt lat="45.60907" lon="5.39714">
        <ele>344</ele>
        <time>2017-02-11T06:39:04Z</time>
      </trkpt>
      <trkpt lat="45.60915" lon="5.39711">
        <ele>344</ele>
        <time>2017-02-11T06:39:07Z</time>
      </trkpt>
      <trkpt lat="45.60923" lon="5.3971">
        <ele>345</ele>
        <time>2017-02-11T06:39:10Z</time>
      </trkpt>
      <trkpt lat="45.6093" lon="5.39707">
        <ele>345</ele>
        <time>2017-02-11T06:39:13Z</time>
      </trkpt>
      <trkpt lat="45.60936" lon="5.39703">
        <ele>345</ele>
        <time>2017-02-11T06:39:16Z</time>
      </trkpt>
      <trkpt lat="45.60943" lon="5.397">
        <ele>345</ele>
        <time>2017-02-11T06:39:19Z</time>
      </trkpt>
      <trkpt lat="45.6095" lon="5.39699">
        <ele>345</ele>
        <time>2017-02-11T06:39:22Z</time>
      </trkpt>
      <trkpt lat="45.60958" lon="5.39697">
        <ele>345</ele>
        <time>2017-02-11T06:39:25Z</time>
      </trkpt>
      <trkpt lat="45.60965" lon="5.39696">
        <ele>345</ele>
        <time>2017-02-11T06:39:28Z</time>
      </trkpt>
      <trkpt lat="45.60972" lon="5.39695">
        <ele>345</ele>
        <time>2017-02-11T06:39:31Z</time>
      </trkpt>
      <trkpt lat="45.60981" lon="5.39694">
        <ele>345</ele>
        <time>2017-02-11T06:39:35Z</time>
      </trkpt>
      <trkpt lat="45.60987" lon="5.39693">
        <ele>345</ele>
        <time>2017-02-11T06:39:38Z</time>
      </trkpt>
      <trkpt lat="45.60996" lon="5.39692">
        <ele>345</ele>
        <time>2017-02-11T06:39:42Z</time>
      </trkpt>
      <trkpt lat="45.61004" lon="5.39696">
        <ele>347</ele>
        <time>2017-02-11T06:39:46Z</time>
      </trkpt>
      <trkpt lat="45.61007" lon="5.39703">
        <ele>347</ele>
        <time>2017-02-11T06:39:49Z</time>
      </trkpt>
      <trkpt lat="45.6101" lon="5.39711">
        <ele>348</ele>
        <time>2017-02-11T06:39:52Z</time>
      </trkpt>
      <trkpt lat="45.61011" lon="5.3972">
        <ele>348</ele>
        <time>2017-02-11T06:39:55Z</time>
      </trkpt>
      <trkpt lat="45.61013" lon="5.3973">
        <ele>348</ele>
        <time>2017-02-11T06:39:59Z</time>
      </trkpt>
      <trkpt lat="45.61013" lon="5.3974">
        <ele>348</ele>
        <time>2017-02-11T06:40:02Z</time>
      </trkpt>
      <trkpt lat="45.61012" lon="5.3975">
        <ele>348</ele>
        <time>2017-02-11T06:40:05Z</time>
      </trkpt>
      <trkpt lat="45.61013" lon="5.39761">
        <ele>348</ele>
        <time>2017-02-11T06:40:09Z</time>
      </trkpt>
      <trkpt lat="45.61013" lon="5.39774">
        <ele>349</ele>
        <time>2017-02-11T06:40:13Z</time>
      </trkpt>
      <trkpt lat="45.61013" lon="5.39788">
        <ele>349</ele>
        <time>2017-02-11T06:40:16Z</time>
      </trkpt>
      <trkpt lat="45.61012" lon="5.39797">
        <ele>349</ele>
        <time>2017-02-11T06:40:19Z</time>
      </trkpt>
      <trkpt lat="45.61011" lon="5.39809">
        <ele>349</ele>
        <time>2017-02-11T06:40:23Z</time>
      </trkpt>
      <trkpt lat="45.61009" lon="5.39819">
        <ele>349</ele>
        <time>2017-02-11T06:40:27Z</time>
      </trkpt>
      <trkpt lat="45.61008" lon="5.3983">
        <ele>349</ele>
        <time>2017-02-11T06:40:31Z</time>
      </trkpt>
      <trkpt lat="45.61009" lon="5.39841">
        <ele>349</ele>
        <time>2017-02-11T06:40:35Z</time>
      </trkpt>
      <trkpt lat="45.61009" lon="5.39854">
        <ele>349</ele>
        <time>2017-02-11T06:40:39Z</time>
      </trkpt>
      <trkpt lat="45.61009" lon="5.39865">
        <ele>349</ele>
        <time>2017-02-11T06:40:43Z</time>
      </trkpt>
      <trkpt lat="45.61009" lon="5.39878">
        <ele>348</ele>
        <time>2017-02-11T06:40:47Z</time>
      </trkpt>
      <trkpt lat="45.61009" lon="5.39889">
        <ele>348</ele>
        <time>2017-02-11T06:40:51Z</time>
      </trkpt>
      <trkpt lat="45.61011" lon="5.399">
        <ele>347</ele>
        <time>2017-02-11T06:40:54Z</time>
      </trkpt>
      <trkpt lat="45.61012" lon="5.39911">
        <ele>346</ele>
        <time>2017-02-11T06:40:57Z</time>
      </trkpt>
      <trkpt lat="45.61014" lon="5.39922">
        <ele>346</ele>
        <time>2017-02-11T06:41:01Z</time>
      </trkpt>
      <trkpt lat="45.61016" lon="5.39932">
        <ele>347</ele>
        <time>2017-02-11T06:41:04Z</time>
      </trkpt>
      <trkpt lat="45.61017" lon="5.39943">
        <ele>347</ele>
        <time>2017-02-11T06:41:07Z</time>
      </trkpt>
      <trkpt lat="45.61018" lon="5.39952">
        <ele>348</ele>
        <time>2017-02-11T06:41:10Z</time>
      </trkpt>
      <trkpt lat="45.61019" lon="5.39964">
        <ele>348</ele>
        <time>2017-02-11T06:41:14Z</time>
      </trkpt>
      <trkpt lat="45.61019" lon="5.39974">
        <ele>348</ele>
        <time>2017-02-11T06:41:17Z</time>
      </trkpt>
      <trkpt lat="45.61019" lon="5.39985">
        <ele>348</ele>
        <time>2017-02-11T06:41:20Z</time>
      </trkpt>
      <trkpt lat="45.61018" lon="5.39997">
        <ele>347</ele>
        <time>2017-02-11T06:41:23Z</time>
      </trkpt>
      <trkpt lat="45.61019" lon="5.40009">
        <ele>348</ele>
        <time>2017-02-11T06:41:26Z</time>
      </trkpt>
      <trkpt lat="45.61019" lon="5.40019">
        <ele>348</ele>
        <time>2017-02-11T06:41:29Z</time>
      </trkpt>
      <trkpt lat="45.6102" lon="5.40028">
        <ele>349</ele>
        <time>2017-02-11T06:41:32Z</time>
      </trkpt>
      <trkpt lat="45.61019" lon="5.4004">
        <ele>349</ele>
        <time>2017-02-11T06:41:36Z</time>
      </trkpt>
      <trkpt lat="45.61019" lon="5.4005">
        <ele>349</ele>
        <time>2017-02-11T06:41:39Z</time>
      </trkpt>
      <trkpt lat="45.61017" lon="5.40062">
        <ele>349</ele>
        <time>2017-02-11T06:41:43Z</time>
      </trkpt>
      <trkpt lat="45.61016" lon="5.40072">
        <ele>349</ele>
        <time>2017-02-11T06:41:47Z</time>
      </trkpt>
      <trkpt lat="45.61014" lon="5.40081">
        <ele>349</ele>
        <time>2017-02-11T06:41:50Z</time>
      </trkpt>
      <trkpt lat="45.61012" lon="5.4009">
        <ele>349</ele>
        <time>2017-02-11T06:41:54Z</time>
      </trkpt>
      <trkpt lat="45.6101" lon="5.40099">
        <ele>349</ele>
        <time>2017-02-11T06:41:57Z</time>
      </trkpt>
      <trkpt lat="45.61009" lon="5.40109">
        <ele>349</ele>
        <time>2017-02-11T06:42:00Z</time>
      </trkpt>
      <trkpt lat="45.61006" lon="5.40117">
        <ele>350</ele>
        <time>2017-02-11T06:42:03Z</time>
      </trkpt>
      <trkpt lat="45.61004" lon="5.40125">
        <ele>350</ele>
        <time>2017-02-11T06:42:05Z</time>
      </trkpt>
      <trkpt lat="45.61003" lon="5.40136">
        <ele>349</ele>
        <time>2017-02-11T06:42:08Z</time>
      </trkpt>
      <trkpt lat="45.61" lon="5.40144">
        <ele>346</ele>
        <time>2017-02-11T06:42:11Z</time>
      </trkpt>
      <trkpt lat="45.60996" lon="5.40152">
        <ele>346</ele>
        <time>2017-02-11T06:42:14Z</time>
      </trkpt>
      <trkpt lat="45.60993" lon="5.40161">
        <ele>346</ele>
        <time>2017-02-11T06:42:17Z</time>
      </trkpt>
      <trkpt lat="45.60991" lon="5.4017">
        <ele>346</ele>
        <time>2017-02-11T06:42:19Z</time>
      </trkpt>
      <trkpt lat="45.60988" lon="5.40178">
        <ele>347</ele>
        <time>2017-02-11T06:42:21Z</time>
      </trkpt>
      <trkpt lat="45.60986" lon="5.40188">
        <ele>347</ele>
        <time>2017-02-11T06:42:24Z</time>
      </trkpt>
      <trkpt lat="45.60984" lon="5.40199">
        <ele>347</ele>
        <time>2017-02-11T06:42:28Z</time>
      </trkpt>
      <trkpt lat="45.60981" lon="5.40205">
        <ele>347</ele>
        <time>2017-02-11T06:42:31Z</time>
      </trkpt>
      <trkpt lat="45.60979" lon="5.40214">
        <ele>348</ele>
        <time>2017-02-11T06:42:34Z</time>
      </trkpt>
      <trkpt lat="45.60976" lon="5.40222">
        <ele>348</ele>
        <time>2017-02-11T06:42:37Z</time>
      </trkpt>
      <trkpt lat="45.60974" lon="5.40229">
        <ele>348</ele>
        <time>2017-02-11T06:42:40Z</time>
      </trkpt>
      <trkpt lat="45.60972" lon="5.40239">
        <ele>348</ele>
        <time>2017-02-11T06:42:43Z</time>
      </trkpt>
      <trkpt lat="45.6097" lon="5.40248">
        <ele>348</ele>
        <time>2017-02-11T06:42:46Z</time>
      </trkpt>
      <trkpt lat="45.60968" lon="5.40256">
        <ele>349</ele>
        <time>2017-02-11T06:42:49Z</time>
      </trkpt>
      <trkpt lat="45.60966" lon="5.40266">
        <ele>349</ele>
        <time>2017-02-11T06:42:51Z</time>
      </trkpt>
      <trkpt lat="45.60964" lon="5.40278">
        <ele>349</ele>
        <time>2017-02-11T06:42:54Z</time>
      </trkpt>
      <trkpt lat="45.60962" lon="5.40289">
        <ele>349</ele>
        <time>2017-02-11T06:42:57Z</time>
      </trkpt>
      <trkpt lat="45.60959" lon="5.40297">
        <ele>349</ele>
        <time>2017-02-11T06:43:00Z</time>
      </trkpt>
      <trkpt lat="45.60957" lon="5.40307">
        <ele>349</ele>
        <time>2017-02-11T06:43:03Z</time>
      </trkpt>
      <trkpt lat="45.60956" lon="5.40317">
        <ele>349</ele>
        <time>2017-02-11T06:43:07Z</time>
      </trkpt>
      <trkpt lat="45.60957" lon="5.40327">
        <ele>349</ele>
        <time>2017-02-11T06:43:10Z</time>
      </trkpt>
      <trkpt lat="45.60957" lon="5.40337">
        <ele>349</ele>
        <time>2017-02-11T06:43:13Z</time>
      </trkpt>
      <trkpt lat="45.60959" lon="5.40349">
        <ele>349</ele>
        <time>2017-02-11T06:43:16Z</time>
      </trkpt>
      <trkpt lat="45.6096" lon="5.40358">
        <ele>349</ele>
        <time>2017-02-11T06:43:19Z</time>
      </trkpt>
      <trkpt lat="45.60961" lon="5.40369">
        <ele>349</ele>
        <time>2017-02-11T06:43:22Z</time>
      </trkpt>
      <trkpt lat="45.60963" lon="5.4038">
        <ele>349</ele>
        <time>2017-02-11T06:43:25Z</time>
      </trkpt>
      <trkpt lat="45.60963" lon="5.40392">
        <ele>349</ele>
        <time>2017-02-11T06:43:29Z</time>
      </trkpt>
      <trkpt lat="45.60962" lon="5.40403">
        <ele>349</ele>
        <time>2017-02-11T06:43:33Z</time>
      </trkpt>
      <trkpt lat="45.60962" lon="5.40413">
        <ele>349</ele>
        <time>2017-02-11T06:43:37Z</time>
      </trkpt>
      <trkpt lat="45.60969" lon="5.40412">
        <ele>349</ele>
        <time>2017-02-11T06:43:43Z</time>
      </trkpt>
      <trkpt lat="45.60976" lon="5.40409">
        <ele>349</ele>
        <time>2017-02-11T06:43:47Z</time>
      </trkpt>
      <trkpt lat="45.60982" lon="5.40406">
        <ele>349</ele>
        <time>2017-02-11T06:43:50Z</time>
      </trkpt>
      <trkpt lat="45.60987" lon="5.40401">
        <ele>349</ele>
        <time>2017-02-11T06:43:53Z</time>
      </trkpt>
      <trkpt lat="45.60992" lon="5.40399">
        <ele>349</ele>
        <time>2017-02-11T06:43:56Z</time>
      </trkpt>
      <trkpt lat="45.60998" lon="5.40396">
        <ele>349</ele>
        <time>2017-02-11T06:43:59Z</time>
      </trkpt>
      <trkpt lat="45.61003" lon="5.40394">
        <ele>352</ele>
        <time>2017-02-11T06:44:02Z</time>
      </trkpt>
      <trkpt lat="45.61009" lon="5.40392">
        <ele>353</ele>
        <time>2017-02-11T06:44:05Z</time>
      </trkpt>
      <trkpt lat="45.61017" lon="5.4039">
        <ele>353</ele>
        <time>2017-02-11T06:44:09Z</time>
      </trkpt>
      <trkpt lat="45.61023" lon="5.40388">
        <ele>354</ele>
        <time>2017-02-11T06:44:12Z</time>
      </trkpt>
      <trkpt lat="45.6103" lon="5.40385">
        <ele>354</ele>
        <time>2017-02-11T06:44:15Z</time>
      </trkpt>
      <trkpt lat="45.61036" lon="5.40383">
        <ele>355</ele>
        <time>2017-02-11T06:44:19Z</time>
      </trkpt>
      <trkpt lat="45.61041" lon="5.40379">
        <ele>355</ele>
        <time>2017-02-11T06:44:22Z</time>
      </trkpt>
      <trkpt lat="45.61044" lon="5.40372">
        <ele>355</ele>
        <time>2017-02-11T06:44:25Z</time>
      </trkpt>
      <trkpt lat="45.61047" lon="5.40365">
        <ele>355</ele>
        <time>2017-02-11T06:44:28Z</time>
      </trkpt>
      <trkpt lat="45.61049" lon="5.40357">
        <ele>355</ele>
        <time>2017-02-11T06:44:31Z</time>
      </trkpt>
      <trkpt lat="45.61053" lon="5.40352">
        <ele>356</ele>
        <time>2017-02-11T06:44:34Z</time>
      </trkpt>
      <trkpt lat="45.61057" lon="5.40346">
        <ele>356</ele>
        <time>2017-02-11T06:44:37Z</time>
      </trkpt>
      <trkpt lat="45.61063" lon="5.40342">
        <ele>357</ele>
        <time>2017-02-11T06:44:40Z</time>
      </trkpt>
      <trkpt lat="45.61068" lon="5.40337">
        <ele>357</ele>
        <time>2017-02-11T06:44:43Z</time>
      </trkpt>
      <trkpt lat="45.61074" lon="5.40332">
        <ele>357</ele>
        <time>2017-02-11T06:44:46Z</time>
      </trkpt>
      <trkpt lat="45.61079" lon="5.4033">
        <ele>358</ele>
        <time>2017-02-11T06:44:49Z</time>
      </trkpt>
      <trkpt lat="45.61086" lon="5.40329">
        <ele>360</ele>
        <time>2017-02-11T06:44:53Z</time>
      </trkpt>
      <trkpt lat="45.61092" lon="5.40326">
        <ele>361</ele>
        <time>2017-02-11T06:44:56Z</time>
      </trkpt>
      <trkpt lat="45.61098" lon="5.40325">
        <ele>362</ele>
        <time>2017-02-11T06:45:00Z</time>
      </trkpt>
      <trkpt lat="45.61106" lon="5.40324">
        <ele>363</ele>
        <time>2017-02-11T06:45:04Z</time>
      </trkpt>
      <trkpt lat="45.61112" lon="5.40323">
        <ele>363</ele>
        <time>2017-02-11T06:45:08Z</time>
      </trkpt>
      <trkpt lat="45.61121" lon="5.40324">
        <ele>364</ele>
        <time>2017-02-11T06:45:13Z</time>
      </trkpt>
      <trkpt lat="45.61128" lon="5.40325">
        <ele>365</ele>
        <time>2017-02-11T06:45:17Z</time>
      </trkpt>
      <trkpt lat="45.61138" lon="5.40328">
        <ele>365</ele>
        <time>2017-02-11T06:45:22Z</time>
      </trkpt>
      <trkpt lat="45.61145" lon="5.40329">
        <ele>366</ele>
        <time>2017-02-11T06:45:25Z</time>
      </trkpt>
      <trkpt lat="45.61151" lon="5.4033">
        <ele>367</ele>
        <time>2017-02-11T06:45:28Z</time>
      </trkpt>
      <trkpt lat="45.61159" lon="5.40333">
        <ele>368</ele>
        <time>2017-02-11T06:45:32Z</time>
      </trkpt>
      <trkpt lat="45.61165" lon="5.40334">
        <ele>369</ele>
        <time>2017-02-11T06:45:35Z</time>
      </trkpt>
      <trkpt lat="45.61172" lon="5.40338">
        <ele>370</ele>
        <time>2017-02-11T06:45:38Z</time>
      </trkpt>
      <trkpt lat="45.61179" lon="5.4034">
        <ele>371</ele>
        <time>2017-02-11T06:45:42Z</time>
      </trkpt>
      <trkpt lat="45.61186" lon="5.40341">
        <ele>371</ele>
        <time>2017-02-11T06:45:45Z</time>
      </trkpt>
      <trkpt lat="45.61192" lon="5.40343">
        <ele>372</ele>
        <time>2017-02-11T06:45:48Z</time>
      </trkpt>
      <trkpt lat="45.61199" lon="5.40344">
        <ele>372</ele>
        <time>2017-02-11T06:45:52Z</time>
      </trkpt>
      <trkpt lat="45.61207" lon="5.40343">
        <ele>372</ele>
        <time>2017-02-11T06:45:56Z</time>
      </trkpt>
      <trkpt lat="45.61214" lon="5.40342">
        <ele>372</ele>
        <time>2017-02-11T06:46:00Z</time>
      </trkpt>
      <trkpt lat="45.61223" lon="5.40342">
        <ele>372</ele>
        <time>2017-02-11T06:46:04Z</time>
      </trkpt>
      <trkpt lat="45.61231" lon="5.40341">
        <ele>372</ele>
        <time>2017-02-11T06:46:08Z</time>
      </trkpt>
      <trkpt lat="45.61239" lon="5.40339">
        <ele>372</ele>
        <time>2017-02-11T06:46:12Z</time>
      </trkpt>
      <trkpt lat="45.61246" lon="5.40338">
        <ele>372</ele>
        <time>2017-02-11T06:46:15Z</time>
      </trkpt>
      <trkpt lat="45.61254" lon="5.40335">
        <ele>372</ele>
        <time>2017-02-11T06:46:19Z</time>
      </trkpt>
      <trkpt lat="45.61263" lon="5.40334">
        <ele>372</ele>
        <time>2017-02-11T06:46:23Z</time>
      </trkpt>
      <trkpt lat="45.61271" lon="5.40336">
        <ele>373</ele>
        <time>2017-02-11T06:46:27Z</time>
      </trkpt>
      <trkpt lat="45.61278" lon="5.40337">
        <ele>373</ele>
        <time>2017-02-11T06:46:30Z</time>
      </trkpt>
      <trkpt lat="45.61287" lon="5.40337">
        <ele>374</ele>
        <time>2017-02-11T06:46:34Z</time>
      </trkpt>
      <trkpt lat="45.61293" lon="5.4034">
        <ele>374</ele>
        <time>2017-02-11T06:46:37Z</time>
      </trkpt>
      <trkpt lat="45.613" lon="5.40342">
        <ele>374</ele>
        <time>2017-02-11T06:46:40Z</time>
      </trkpt>
      <trkpt lat="45.61306" lon="5.40346">
        <ele>374</ele>
        <time>2017-02-11T06:46:43Z</time>
      </trkpt>
      <trkpt lat="45.61313" lon="5.40352">
        <ele>374</ele>
        <time>2017-02-11T06:46:46Z</time>
      </trkpt>
      <trkpt lat="45.61319" lon="5.40357">
        <ele>374</ele>
        <time>2017-02-11T06:46:49Z</time>
      </trkpt>
      <trkpt lat="45.61324" lon="5.40364">
        <ele>374</ele>
        <time>2017-02-11T06:46:52Z</time>
      </trkpt>
      <trkpt lat="45.61328" lon="5.40369">
        <ele>374</ele>
        <time>2017-02-11T06:46:54Z</time>
      </trkpt>
      <trkpt lat="45.61333" lon="5.40375">
        <ele>377</ele>
        <time>2017-02-11T06:46:57Z</time>
      </trkpt>
      <trkpt lat="45.61337" lon="5.4038">
        <ele>377</ele>
        <time>2017-02-11T06:46:59Z</time>
      </trkpt>
      <trkpt lat="45.61343" lon="5.40387">
        <ele>377</ele>
        <time>2017-02-11T06:47:02Z</time>
      </trkpt>
      <trkpt lat="45.61347" lon="5.40395">
        <ele>377</ele>
        <time>2017-02-11T06:47:05Z</time>
      </trkpt>
      <trkpt lat="45.61352" lon="5.40402">
        <ele>377</ele>
        <time>2017-02-11T06:47:08Z</time>
      </trkpt>
      <trkpt lat="45.61358" lon="5.40408">
        <ele>378</ele>
        <time>2017-02-11T06:47:11Z</time>
      </trkpt>
      <trkpt lat="45.61363" lon="5.40412">
        <ele>378</ele>
        <time>2017-02-11T06:47:14Z</time>
      </trkpt>
      <trkpt lat="45.61368" lon="5.40414">
        <ele>378</ele>
        <time>2017-02-11T06:47:21Z</time>
      </trkpt>
      <trkpt lat="45.61373" lon="5.4041">
        <ele>379</ele>
        <time>2017-02-11T06:47:24Z</time>
      </trkpt>
      <trkpt lat="45.61376" lon="5.40402">
        <ele>379</ele>
        <time>2017-02-11T06:47:27Z</time>
      </trkpt>
      <trkpt lat="45.61379" lon="5.40393">
        <ele>379</ele>
        <time>2017-02-11T06:47:30Z</time>
      </trkpt>
      <trkpt lat="45.61382" lon="5.40384">
        <ele>379</ele>
        <time>2017-02-11T06:47:33Z</time>
      </trkpt>
      <trkpt lat="45.61384" lon="5.40375">
        <ele>379</ele>
        <time>2017-02-11T06:47:36Z</time>
      </trkpt>
      <trkpt lat="45.61385" lon="5.40366">
        <ele>379</ele>
        <time>2017-02-11T06:47:39Z</time>
      </trkpt>
      <trkpt lat="45.61386" lon="5.40356">
        <ele>379</ele>
        <time>2017-02-11T06:47:42Z</time>
      </trkpt>
      <trkpt lat="45.61388" lon="5.40346">
        <ele>379</ele>
        <time>2017-02-11T06:47:45Z</time>
      </trkpt>
      <trkpt lat="45.61389" lon="5.40336">
        <ele>379</ele>
        <time>2017-02-11T06:47:49Z</time>
      </trkpt>
      <trkpt lat="45.61391" lon="5.40326">
        <ele>378</ele>
        <time>2017-02-11T06:47:52Z</time>
      </trkpt>
      <trkpt lat="45.61394" lon="5.40319">
        <ele>378</ele>
        <time>2017-02-11T06:47:54Z</time>
      </trkpt>
      <trkpt lat="45.61396" lon="5.40309">
        <ele>378</ele>
        <time>2017-02-11T06:47:57Z</time>
      </trkpt>
      <trkpt lat="45.61399" lon="5.40302">
        <ele>378</ele>
        <time>2017-02-11T06:48:00Z</time>
      </trkpt>
      <trkpt lat="45.61402" lon="5.40292">
        <ele>378</ele>
        <time>2017-02-11T06:48:04Z</time>
      </trkpt>
      <trkpt lat="45.61404" lon="5.40282">
        <ele>378</ele>
        <time>2017-02-11T06:48:07Z</time>
      </trkpt>
      <trkpt lat="45.61407" lon="5.40273">
        <ele>378</ele>
        <time>2017-02-11T06:48:10Z</time>
      </trkpt>
      <trkpt lat="45.61408" lon="5.40265">
        <ele>379</ele>
        <time>2017-02-11T06:48:13Z</time>
      </trkpt>
      <trkpt lat="45.6141" lon="5.40256">
        <ele>379</ele>
        <time>2017-02-11T06:48:16Z</time>
      </trkpt>
      <trkpt lat="45.61412" lon="5.40247">
        <ele>379</ele>
        <time>2017-02-11T06:48:19Z</time>
      </trkpt>
      <trkpt lat="45.61413" lon="5.40236">
        <ele>379</ele>
        <time>2017-02-11T06:48:22Z</time>
      </trkpt>
      <trkpt lat="45.61414" lon="5.40225">
        <ele>378</ele>
        <time>2017-02-11T06:48:25Z</time>
      </trkpt>
      <trkpt lat="45.61414" lon="5.40215">
        <ele>378</ele>
        <time>2017-02-11T06:48:28Z</time>
      </trkpt>
      <trkpt lat="45.61416" lon="5.40206">
        <ele>377</ele>
        <time>2017-02-11T06:48:31Z</time>
      </trkpt>
      <trkpt lat="45.61418" lon="5.40196">
        <ele>383</ele>
        <time>2017-02-11T06:48:34Z</time>
      </trkpt>
      <trkpt lat="45.61421" lon="5.40186">
        <ele>382</ele>
        <time>2017-02-11T06:48:37Z</time>
      </trkpt>
      <trkpt lat="45.61423" lon="5.40179">
        <ele>381</ele>
        <time>2017-02-11T06:48:39Z</time>
      </trkpt>
      <trkpt lat="45.61425" lon="5.40168">
        <ele>380</ele>
        <time>2017-02-11T06:48:42Z</time>
      </trkpt>
      <trkpt lat="45.61426" lon="5.40159">
        <ele>380</ele>
        <time>2017-02-11T06:48:45Z</time>
      </trkpt>
      <trkpt lat="45.61428" lon="5.40149">
        <ele>381</ele>
        <time>2017-02-11T06:48:48Z</time>
      </trkpt>
      <trkpt lat="45.61431" lon="5.40141">
        <ele>382</ele>
        <time>2017-02-11T06:48:51Z</time>
      </trkpt>
      <trkpt lat="45.61432" lon="5.4013">
        <ele>382</ele>
        <time>2017-02-11T06:48:54Z</time>
      </trkpt>
      <trkpt lat="45.61433" lon="5.40119">
        <ele>382</ele>
        <time>2017-02-11T06:48:57Z</time>
      </trkpt>
      <trkpt lat="45.61435" lon="5.40107">
        <ele>382</ele>
        <time>2017-02-11T06:49:00Z</time>
      </trkpt>
      <trkpt lat="45.61436" lon="5.40098">
        <ele>381</ele>
        <time>2017-02-11T06:49:03Z</time>
      </trkpt>
      <trkpt lat="45.61436" lon="5.40083">
        <ele>380</ele>
        <time>2017-02-11T06:49:07Z</time>
      </trkpt>
      <trkpt lat="45.61436" lon="5.4007">
        <ele>381</ele>
        <time>2017-02-11T06:49:11Z</time>
      </trkpt>
      <trkpt lat="45.61437" lon="5.40061">
        <ele>381</ele>
        <time>2017-02-11T06:49:14Z</time>
      </trkpt>
      <trkpt lat="45.61438" lon="5.40048">
        <ele>381</ele>
        <time>2017-02-11T06:49:18Z</time>
      </trkpt>
      <trkpt lat="45.61437" lon="5.40035">
        <ele>381</ele>
        <time>2017-02-11T06:49:22Z</time>
      </trkpt>
      <trkpt lat="45.61438" lon="5.40024">
        <ele>381</ele>
        <time>2017-02-11T06:49:25Z</time>
      </trkpt>
      <trkpt lat="45.6144" lon="5.40014">
        <ele>381</ele>
        <time>2017-02-11T06:49:28Z</time>
      </trkpt>
      <trkpt lat="45.61441" lon="5.40004">
        <ele>381</ele>
        <time>2017-02-11T06:49:31Z</time>
      </trkpt>
      <trkpt lat="45.61441" lon="5.39992">
        <ele>380</ele>
        <time>2017-02-11T06:49:35Z</time>
      </trkpt>
      <trkpt lat="45.61441" lon="5.39982">
        <ele>380</ele>
        <time>2017-02-11T06:49:38Z</time>
      </trkpt>
      <trkpt lat="45.61442" lon="5.3997">
        <ele>380</ele>
        <time>2017-02-11T06:49:42Z</time>
      </trkpt>
      <trkpt lat="45.61443" lon="5.39961">
        <ele>380</ele>
        <time>2017-02-11T06:49:45Z</time>
      </trkpt>
      <trkpt lat="45.61445" lon="5.39952">
        <ele>380</ele>
        <time>2017-02-11T06:49:48Z</time>
      </trkpt>
      <trkpt lat="45.61446" lon="5.39943">
        <ele>380</ele>
        <time>2017-02-11T06:49:51Z</time>
      </trkpt>
      <trkpt lat="45.61448" lon="5.39934">
        <ele>380</ele>
        <time>2017-02-11T06:49:54Z</time>
      </trkpt>
      <trkpt lat="45.6145" lon="5.39925">
        <ele>380</ele>
        <time>2017-02-11T06:49:57Z</time>
      </trkpt>
      <trkpt lat="45.61452" lon="5.39916">
        <ele>380</ele>
        <time>2017-02-11T06:50:00Z</time>
      </trkpt>
      <trkpt lat="45.61454" lon="5.39906">
        <ele>380</ele>
        <time>2017-02-11T06:50:03Z</time>
      </trkpt>
      <trkpt lat="45.61454" lon="5.39894">
        <ele>380</ele>
        <time>2017-02-11T06:50:07Z</time>
      </trkpt>
      <trkpt lat="45.61455" lon="5.39885">
        <ele>380</ele>
        <time>2017-02-11T06:50:10Z</time>
      </trkpt>
      <trkpt lat="45.61457" lon="5.39878">
        <ele>380</ele>
        <time>2017-02-11T06:50:13Z</time>
      </trkpt>
      <trkpt lat="45.61458" lon="5.39866">
        <ele>380</ele>
        <time>2017-02-11T06:50:17Z</time>
      </trkpt>
      <trkpt lat="45.6146" lon="5.39857">
        <ele>380</ele>
        <time>2017-02-11T06:50:20Z</time>
      </trkpt>
      <trkpt lat="45.61461" lon="5.39848">
        <ele>380</ele>
        <time>2017-02-11T06:50:23Z</time>
      </trkpt>
      <trkpt lat="45.61463" lon="5.3984">
        <ele>381</ele>
        <time>2017-02-11T06:50:26Z</time>
      </trkpt>
      <trkpt lat="45.61465" lon="5.39831">
        <ele>380</ele>
        <time>2017-02-11T06:50:29Z</time>
      </trkpt>
      <trkpt lat="45.61467" lon="5.39821">
        <ele>380</ele>
        <time>2017-02-11T06:50:32Z</time>
      </trkpt>
      <trkpt lat="45.6147" lon="5.39812">
        <ele>380</ele>
        <time>2017-02-11T06:50:35Z</time>
      </trkpt>
      <trkpt lat="45.61475" lon="5.39804">
        <ele>380</ele>
        <time>2017-02-11T06:50:40Z</time>
      </trkpt>
      <trkpt lat="45.61479" lon="5.39798">
        <ele>380</ele>
        <time>2017-02-11T06:50:43Z</time>
      </trkpt>
      <trkpt lat="45.61484" lon="5.39791">
        <ele>380</ele>
        <time>2017-02-11T06:50:46Z</time>
      </trkpt>
      <trkpt lat="45.61487" lon="5.39784">
        <ele>380</ele>
        <time>2017-02-11T06:50:49Z</time>
      </trkpt>
      <trkpt lat="45.61491" lon="5.39777">
        <ele>380</ele>
        <time>2017-02-11T06:50:52Z</time>
      </trkpt>
      <trkpt lat="45.61494" lon="5.39769">
        <ele>380</ele>
        <time>2017-02-11T06:50:55Z</time>
      </trkpt>
      <trkpt lat="45.61497" lon="5.39761">
        <ele>381</ele>
        <time>2017-02-11T06:50:58Z</time>
      </trkpt>
      <trkpt lat="45.615" lon="5.39753">
        <ele>382</ele>
        <time>2017-02-11T06:51:01Z</time>
      </trkpt>
      <trkpt lat="45.61502" lon="5.39745">
        <ele>383</ele>
        <time>2017-02-11T06:51:04Z</time>
      </trkpt>
      <trkpt lat="45.61504" lon="5.39737">
        <ele>385</ele>
        <time>2017-02-11T06:51:07Z</time>
      </trkpt>
      <trkpt lat="45.61506" lon="5.39728">
        <ele>386</ele>
        <time>2017-02-11T06:51:10Z</time>
      </trkpt>
      <trkpt lat="45.6151" lon="5.39719">
        <ele>386</ele>
        <time>2017-02-11T06:51:13Z</time>
      </trkpt>
      <trkpt lat="45.61512" lon="5.39712">
        <ele>387</ele>
        <time>2017-02-11T06:51:16Z</time>
      </trkpt>
      <trkpt lat="45.61517" lon="5.39705">
        <ele>387</ele>
        <time>2017-02-11T06:51:19Z</time>
      </trkpt>
      <trkpt lat="45.6152" lon="5.39697">
        <ele>387</ele>
        <time>2017-02-11T06:51:22Z</time>
      </trkpt>
      <trkpt lat="45.61523" lon="5.3969">
        <ele>387</ele>
        <time>2017-02-11T06:51:25Z</time>
      </trkpt>
      <trkpt lat="45.61527" lon="5.39684">
        <ele>387</ele>
        <time>2017-02-11T06:51:28Z</time>
      </trkpt>
      <trkpt lat="45.61531" lon="5.39676">
        <ele>387</ele>
        <time>2017-02-11T06:51:31Z</time>
      </trkpt>
      <trkpt lat="45.61534" lon="5.39668">
        <ele>387</ele>
        <time>2017-02-11T06:51:34Z</time>
      </trkpt>
      <trkpt lat="45.61538" lon="5.39662">
        <ele>387</ele>
        <time>2017-02-11T06:51:37Z</time>
      </trkpt>
      <trkpt lat="45.61541" lon="5.39655">
        <ele>387</ele>
        <time>2017-02-11T06:51:40Z</time>
      </trkpt>
      <trkpt lat="45.61544" lon="5.39647">
        <ele>388</ele>
        <time>2017-02-11T06:51:43Z</time>
      </trkpt>
      <trkpt lat="45.61546" lon="5.39641">
        <ele>388</ele>
        <time>2017-02-11T06:51:46Z</time>
      </trkpt>
      <trkpt lat="45.6155" lon="5.39633">
        <ele>388</ele>
        <time>2017-02-11T06:51:49Z</time>
      </trkpt>
      <trkpt lat="45.61553" lon="5.39627">
        <ele>388</ele>
        <time>2017-02-11T06:51:52Z</time>
      </trkpt>
      <trkpt lat="45.61557" lon="5.3962">
        <ele>388</ele>
        <time>2017-02-11T06:51:55Z</time>
      </trkpt>
      <trkpt lat="45.61561" lon="5.39614">
        <ele>389</ele>
        <time>2017-02-11T06:51:58Z</time>
      </trkpt>
      <trkpt lat="45.61564" lon="5.39606">
        <ele>389</ele>
        <time>2017-02-11T06:52:01Z</time>
      </trkpt>
      <trkpt lat="45.61567" lon="5.396">
        <ele>390</ele>
        <time>2017-02-11T06:52:04Z</time>
      </trkpt>
      <trkpt lat="45.61571" lon="5.39594">
        <ele>391</ele>
        <time>2017-02-11T06:52:07Z</time>
      </trkpt>
      <trkpt lat="45.61574" lon="5.39587">
        <ele>392</ele>
        <time>2017-02-11T06:52:10Z</time>
      </trkpt>
      <trkpt lat="45.61577" lon="5.3958">
        <ele>392</ele>
        <time>2017-02-11T06:52:13Z</time>
      </trkpt>
      <trkpt lat="45.61581" lon="5.39572">
        <ele>391</ele>
        <time>2017-02-11T06:52:16Z</time>
      </trkpt>
      <trkpt lat="45.61583" lon="5.39565">
        <ele>389</ele>
        <time>2017-02-11T06:52:19Z</time>
      </trkpt>
      <trkpt lat="45.61587" lon="5.39559">
        <ele>397</ele>
        <time>2017-02-11T06:52:23Z</time>
      </trkpt>
      <trkpt lat="45.6159" lon="5.39552">
        <ele>397</ele>
        <time>2017-02-11T06:52:26Z</time>
      </trkpt>
      <trkpt lat="45.61593" lon="5.39545">
        <ele>397</ele>
        <time>2017-02-11T06:52:29Z</time>
      </trkpt>
      <trkpt lat="45.61599" lon="5.39537">
        <ele>397</ele>
        <time>2017-02-11T06:52:33Z</time>
      </trkpt>
      <trkpt lat="45.61603" lon="5.39531">
        <ele>397</ele>
        <time>2017-02-11T06:52:36Z</time>
      </trkpt>
      <trkpt lat="45.61607" lon="5.39525">
        <ele>397</ele>
        <time>2017-02-11T06:52:39Z</time>
      </trkpt>
      <trkpt lat="45.61611" lon="5.39519">
        <ele>397</ele>
        <time>2017-02-11T06:52:42Z</time>
      </trkpt>
      <trkpt lat="45.61614" lon="5.39513">
        <ele>397</ele>
        <time>2017-02-11T06:52:45Z</time>
      </trkpt>
      <trkpt lat="45.61618" lon="5.39506">
        <ele>397</ele>
        <time>2017-02-11T06:52:48Z</time>
      </trkpt>
      <trkpt lat="45.61621" lon="5.39499">
        <ele>396</ele>
        <time>2017-02-11T06:52:51Z</time>
      </trkpt>
      <trkpt lat="45.61623" lon="5.39492">
        <ele>396</ele>
        <time>2017-02-11T06:52:54Z</time>
      </trkpt>
      <trkpt lat="45.61625" lon="5.39485">
        <ele>396</ele>
        <time>2017-02-11T06:52:57Z</time>
      </trkpt>
      <trkpt lat="45.61629" lon="5.39479">
        <ele>396</ele>
        <time>2017-02-11T06:53:00Z</time>
      </trkpt>
      <trkpt lat="45.61633" lon="5.39474">
        <ele>397</ele>
        <time>2017-02-11T06:53:03Z</time>
      </trkpt>
      <trkpt lat="45.61638" lon="5.39469">
        <ele>397</ele>
        <time>2017-02-11T06:53:06Z</time>
      </trkpt>
      <trkpt lat="45.61642" lon="5.39463">
        <ele>397</ele>
        <time>2017-02-11T06:53:09Z</time>
      </trkpt>
      <trkpt lat="45.61646" lon="5.39457">
        <ele>397</ele>
        <time>2017-02-11T06:53:12Z</time>
      </trkpt>
      <trkpt lat="45.6165" lon="5.39452">
        <ele>397</ele>
        <time>2017-02-11T06:53:15Z</time>
      </trkpt>
      <trkpt lat="45.61654" lon="5.39446">
        <ele>398</ele>
        <time>2017-02-11T06:53:18Z</time>
      </trkpt>
      <trkpt lat="45.61658" lon="5.39441">
        <ele>398</ele>
        <time>2017-02-11T06:53:21Z</time>
      </trkpt>
      <trkpt lat="45.61661" lon="5.39435">
        <ele>399</ele>
        <time>2017-02-11T06:53:24Z</time>
      </trkpt>
      <trkpt lat="45.61666" lon="5.3943">
        <ele>400</ele>
        <time>2017-02-11T06:53:27Z</time>
      </trkpt>
      <trkpt lat="45.61671" lon="5.39424">
        <ele>404</ele>
        <time>2017-02-11T06:53:30Z</time>
      </trkpt>
      <trkpt lat="45.61675" lon="5.39419">
        <ele>404</ele>
        <time>2017-02-11T06:53:33Z</time>
      </trkpt>
      <trkpt lat="45.6168" lon="5.39415">
        <ele>403</ele>
        <time>2017-02-11T06:53:36Z</time>
      </trkpt>
      <trkpt lat="45.61685" lon="5.3941">
        <ele>404</ele>
        <time>2017-02-11T06:53:39Z</time>
      </trkpt>
      <trkpt lat="45.61691" lon="5.39399">
        <ele>404</ele>
        <time>2017-02-11T06:53:44Z</time>
      </trkpt>
      <trkpt lat="45.61696" lon="5.39392">
        <ele>405</ele>
        <time>2017-02-11T06:53:48Z</time>
      </trkpt>
      <trkpt lat="45.61701" lon="5.39386">
        <ele>405</ele>
        <time>2017-02-11T06:53:51Z</time>
      </trkpt>
      <trkpt lat="45.61705" lon="5.39381">
        <ele>405</ele>
        <time>2017-02-11T06:53:54Z</time>
      </trkpt>
      <trkpt lat="45.6171" lon="5.39375">
        <ele>405</ele>
        <time>2017-02-11T06:53:57Z</time>
      </trkpt>
      <trkpt lat="45.61715" lon="5.39369">
        <ele>406</ele>
        <time>2017-02-11T06:54:00Z</time>
      </trkpt>
      <trkpt lat="45.61718" lon="5.39363">
        <ele>406</ele>
        <time>2017-02-11T06:54:03Z</time>
      </trkpt>
      <trkpt lat="45.61724" lon="5.39359">
        <ele>406</ele>
        <time>2017-02-11T06:54:07Z</time>
      </trkpt>
      <trkpt lat="45.61729" lon="5.39354">
        <ele>406</ele>
        <time>2017-02-11T06:54:10Z</time>
      </trkpt>
      <trkpt lat="45.61734" lon="5.39349">
        <ele>407</ele>
        <time>2017-02-11T06:54:13Z</time>
      </trkpt>
      <trkpt lat="45.61738" lon="5.39344">
        <ele>407</ele>
        <time>2017-02-11T06:54:16Z</time>
      </trkpt>
      <trkpt lat="45.61743" lon="5.39341">
        <ele>408</ele>
        <time>2017-02-11T06:54:19Z</time>
      </trkpt>
      <trkpt lat="45.61748" lon="5.39335">
        <ele>409</ele>
        <time>2017-02-11T06:54:23Z</time>
      </trkpt>
      <trkpt lat="45.61753" lon="5.3933">
        <ele>410</ele>
        <time>2017-02-11T06:54:26Z</time>
      </trkpt>
      <trkpt lat="45.61758" lon="5.39324">
        <ele>411</ele>
        <time>2017-02-11T06:54:29Z</time>
      </trkpt>
      <trkpt lat="45.61763" lon="5.39318">
        <ele>411</ele>
        <time>2017-02-11T06:54:32Z</time>
      </trkpt>
      <trkpt lat="45.61766" lon="5.39313">
        <ele>412</ele>
        <time>2017-02-11T06:54:35Z</time>
      </trkpt>
      <trkpt lat="45.61771" lon="5.39307">
        <ele>412</ele>
        <time>2017-02-11T06:54:38Z</time>
      </trkpt>
      <trkpt lat="45.61776" lon="5.39303">
        <ele>412</ele>
        <time>2017-02-11T06:54:41Z</time>
      </trkpt>
      <trkpt lat="45.61781" lon="5.39297">
        <ele>412</ele>
        <time>2017-02-11T06:54:44Z</time>
      </trkpt>
      <trkpt lat="45.61786" lon="5.39294">
        <ele>413</ele>
        <time>2017-02-11T06:54:47Z</time>
      </trkpt>
      <trkpt lat="45.61792" lon="5.39291">
        <ele>413</ele>
        <time>2017-02-11T06:54:51Z</time>
      </trkpt>
      <trkpt lat="45.61797" lon="5.39297">
        <ele>413</ele>
        <time>2017-02-11T06:54:54Z</time>
      </trkpt>
      <trkpt lat="45.61801" lon="5.39303">
        <ele>414</ele>
        <time>2017-02-11T06:54:57Z</time>
      </trkpt>
      <trkpt lat="45.61804" lon="5.39308">
        <ele>414</ele>
        <time>2017-02-11T06:55:00Z</time>
      </trkpt>
      <trkpt lat="45.61808" lon="5.39315">
        <ele>414</ele>
        <time>2017-02-11T06:55:03Z</time>
      </trkpt>
      <trkpt lat="45.61812" lon="5.3932">
        <ele>415</ele>
        <time>2017-02-11T06:55:06Z</time>
      </trkpt>
      <trkpt lat="45.61816" lon="5.39325">
        <ele>415</ele>
        <time>2017-02-11T06:55:09Z</time>
      </trkpt>
      <trkpt lat="45.6182" lon="5.3933">
        <ele>416</ele>
        <time>2017-02-11T06:55:12Z</time>
      </trkpt>
      <trkpt lat="45.61827" lon="5.39336">
        <ele>417</ele>
        <time>2017-02-11T06:55:16Z</time>
      </trkpt>
      <trkpt lat="45.61832" lon="5.39341">
        <ele>417</ele>
        <time>2017-02-11T06:55:19Z</time>
      </trkpt>
      <trkpt lat="45.61835" lon="5.39346">
        <ele>419</ele>
        <time>2017-02-11T06:55:22Z</time>
      </trkpt>
      <trkpt lat="45.6184" lon="5.3935">
        <ele>420</ele>
        <time>2017-02-11T06:55:25Z</time>
      </trkpt>
      <trkpt lat="45.61844" lon="5.39355">
        <ele>420</ele>
        <time>2017-02-11T06:55:28Z</time>
      </trkpt>
      <trkpt lat="45.61848" lon="5.3936">
        <ele>420</ele>
        <time>2017-02-11T06:55:31Z</time>
      </trkpt>
      <trkpt lat="45.61852" lon="5.39366">
        <ele>421</ele>
        <time>2017-02-11T06:55:34Z</time>
      </trkpt>
      <trkpt lat="45.61855" lon="5.39371">
        <ele>421</ele>
        <time>2017-02-11T06:55:37Z</time>
      </trkpt>
      <trkpt lat="45.6186" lon="5.39378">
        <ele>421</ele>
        <time>2017-02-11T06:55:41Z</time>
      </trkpt>
      <trkpt lat="45.61864" lon="5.39382">
        <ele>421</ele>
        <time>2017-02-11T06:55:44Z</time>
      </trkpt>
      <trkpt lat="45.61868" lon="5.39387">
        <ele>421</ele>
        <time>2017-02-11T06:55:47Z</time>
      </trkpt>
      <trkpt lat="45.61873" lon="5.39391">
        <ele>422</ele>
        <time>2017-02-11T06:55:50Z</time>
      </trkpt>
      <trkpt lat="45.61877" lon="5.39397">
        <ele>422</ele>
        <time>2017-02-11T06:55:53Z</time>
      </trkpt>
      <trkpt lat="45.61883" lon="5.39402">
        <ele>422</ele>
        <time>2017-02-11T06:55:56Z</time>
      </trkpt>
      <trkpt lat="45.61889" lon="5.39407">
        <ele>423</ele>
        <time>2017-02-11T06:55:59Z</time>
      </trkpt>
      <trkpt lat="45.61894" lon="5.39413">
        <ele>423</ele>
        <time>2017-02-11T06:56:02Z</time>
      </trkpt>
      <trkpt lat="45.619" lon="5.39419">
        <ele>424</ele>
        <time>2017-02-11T06:56:05Z</time>
      </trkpt>
      <trkpt lat="45.61905" lon="5.39424">
        <ele>425</ele>
        <time>2017-02-11T06:56:09Z</time>
      </trkpt>
      <trkpt lat="45.6191" lon="5.3943">
        <ele>425</ele>
        <time>2017-02-11T06:56:12Z</time>
      </trkpt>
      <trkpt lat="45.61915" lon="5.39435">
        <ele>425</ele>
        <time>2017-02-11T06:56:15Z</time>
      </trkpt>
      <trkpt lat="45.6192" lon="5.39442">
        <ele>426</ele>
        <time>2017-02-11T06:56:18Z</time>
      </trkpt>
      <trkpt lat="45.61925" lon="5.39447">
        <ele>426</ele>
        <time>2017-02-11T06:56:21Z</time>
      </trkpt>
      <trkpt lat="45.61929" lon="5.39454">
        <ele>426</ele>
        <time>2017-02-11T06:56:24Z</time>
      </trkpt>
      <trkpt lat="45.61934" lon="5.39461">
        <ele>427</ele>
        <time>2017-02-11T06:56:27Z</time>
      </trkpt>
      <trkpt lat="45.61939" lon="5.39467">
        <ele>427</ele>
        <time>2017-02-11T06:56:30Z</time>
      </trkpt>
      <trkpt lat="45.61943" lon="5.39475">
        <ele>427</ele>
        <time>2017-02-11T06:56:33Z</time>
      </trkpt>
      <trkpt lat="45.61947" lon="5.39481">
        <ele>427</ele>
        <time>2017-02-11T06:56:36Z</time>
      </trkpt>
      <trkpt lat="45.61951" lon="5.39487">
        <ele>427</ele>
        <time>2017-02-11T06:56:39Z</time>
      </trkpt>
      <trkpt lat="45.61957" lon="5.39493">
        <ele>427</ele>
        <time>2017-02-11T06:56:42Z</time>
      </trkpt>
      <trkpt lat="45.61965" lon="5.39493">
        <ele>427</ele>
        <time>2017-02-11T06:56:46Z</time>
      </trkpt>
      <trkpt lat="45.6197" lon="5.39487">
        <ele>427</ele>
        <time>2017-02-11T06:56:49Z</time>
      </trkpt>
      <trkpt lat="45.61975" lon="5.39479">
        <ele>427</ele>
        <time>2017-02-11T06:56:52Z</time>
      </trkpt>
      <trkpt lat="45.61979" lon="5.39471">
        <ele>427</ele>
        <time>2017-02-11T06:56:55Z</time>
      </trkpt>
      <trkpt lat="45.61982" lon="5.39462">
        <ele>427</ele>
        <time>2017-02-11T06:56:58Z</time>
      </trkpt>
      <trkpt lat="45.61986" lon="5.39454">
        <ele>426</ele>
        <time>2017-02-11T06:57:01Z</time>
      </trkpt>
      <trkpt lat="45.61989" lon="5.39445">
        <ele>426</ele>
        <time>2017-02-11T06:57:04Z</time>
      </trkpt>
      <trkpt lat="45.61992" lon="5.39435">
        <ele>426</ele>
        <time>2017-02-11T06:57:07Z</time>
      </trkpt>
      <trkpt lat="45.61995" lon="5.39429">
        <ele>426</ele>
        <time>2017-02-11T06:57:09Z</time>
      </trkpt>
      <trkpt lat="45.61997" lon="5.3942">
        <ele>426</ele>
        <time>2017-02-11T06:57:12Z</time>
      </trkpt>
      <trkpt lat="45.62001" lon="5.39411">
        <ele>426</ele>
        <time>2017-02-11T06:57:15Z</time>
      </trkpt>
      <trkpt lat="45.62005" lon="5.39402">
        <ele>425</ele>
        <time>2017-02-11T06:57:18Z</time>
      </trkpt>
      <trkpt lat="45.62007" lon="5.39394">
        <ele>425</ele>
        <time>2017-02-11T06:57:21Z</time>
      </trkpt>
      <trkpt lat="45.62012" lon="5.39387">
        <ele>425</ele>
        <time>2017-02-11T06:57:24Z</time>
      </trkpt>
      <trkpt lat="45.62014" lon="5.39377">
        <ele>425</ele>
        <time>2017-02-11T06:57:27Z</time>
      </trkpt>
      <trkpt lat="45.62018" lon="5.39367">
        <ele>425</ele>
        <time>2017-02-11T06:57:30Z</time>
      </trkpt>
      <trkpt lat="45.6202" lon="5.39361">
        <ele>425</ele>
        <time>2017-02-11T06:57:32Z</time>
      </trkpt>
      <trkpt lat="45.62024" lon="5.39351">
        <ele>425</ele>
        <time>2017-02-11T06:57:35Z</time>
      </trkpt>
      <trkpt lat="45.62026" lon="5.39343">
        <ele>425</ele>
        <time>2017-02-11T06:57:38Z</time>
      </trkpt>
      <trkpt lat="45.6203" lon="5.39335">
        <ele>425</ele>
        <time>2017-02-11T06:57:41Z</time>
      </trkpt>
      <trkpt lat="45.62032" lon="5.39327">
        <ele>425</ele>
        <time>2017-02-11T06:57:44Z</time>
      </trkpt>
      <trkpt lat="45.62036" lon="5.39319">
        <ele>425</ele>
        <time>2017-02-11T06:57:47Z</time>
      </trkpt>
      <trkpt lat="45.62039" lon="5.3931">
        <ele>425</ele>
        <time>2017-02-11T06:57:50Z</time>
      </trkpt>
      <trkpt lat="45.62041" lon="5.39303">
        <ele>425</ele>
        <time>2017-02-11T06:57:52Z</time>
      </trkpt>
      <trkpt lat="45.62044" lon="5.39294">
        <ele>424</ele>
        <time>2017-02-11T06:57:55Z</time>
      </trkpt>
      <trkpt lat="45.62048" lon="5.39284">
        <ele>425</ele>
        <time>2017-02-11T06:57:58Z</time>
      </trkpt>
      <trkpt lat="45.62051" lon="5.39274">
        <ele>425</ele>
        <time>2017-02-11T06:58:01Z</time>
      </trkpt>
      <trkpt lat="45.62054" lon="5.39266">
        <ele>425</ele>
        <time>2017-02-11T06:58:04Z</time>
      </trkpt>
      <trkpt lat="45.62056" lon="5.39256">
        <ele>425</ele>
        <time>2017-02-11T06:58:07Z</time>
      </trkpt>
      <trkpt lat="45.6206" lon="5.39246">
        <ele>425</ele>
        <time>2017-02-11T06:58:10Z</time>
      </trkpt>
      <trkpt lat="45.62063" lon="5.3924">
        <ele>425</ele>
        <time>2017-02-11T06:58:12Z</time>
      </trkpt>
      <trkpt lat="45.62067" lon="5.39231">
        <ele>425</ele>
        <time>2017-02-11T06:58:15Z</time>
      </trkpt>
      <trkpt lat="45.6207" lon="5.39223">
        <ele>425</ele>
        <time>2017-02-11T06:58:18Z</time>
      </trkpt>
      <trkpt lat="45.62072" lon="5.39213">
        <ele>425</ele>
        <time>2017-02-11T06:58:21Z</time>
      </trkpt>
      <trkpt lat="45.62074" lon="5.39204">
        <ele>425</ele>
        <time>2017-02-11T06:58:24Z</time>
      </trkpt>
      <trkpt lat="45.62077" lon="5.39197">
        <ele>425</ele>
        <time>2017-02-11T06:58:26Z</time>
      </trkpt>
      <trkpt lat="45.6208" lon="5.39187">
        <ele>425</ele>
        <time>2017-02-11T06:58:29Z</time>
      </trkpt>
      <trkpt lat="45.62082" lon="5.39179">
        <ele>426</ele>
        <time>2017-02-11T06:58:32Z</time>
      </trkpt>
      <trkpt lat="45.62084" lon="5.39169">
        <ele>426</ele>
        <time>2017-02-11T06:58:35Z</time>
      </trkpt>
      <trkpt lat="45.62087" lon="5.3916">
        <ele>425</ele>
        <time>2017-02-11T06:58:38Z</time>
      </trkpt>
      <trkpt lat="45.6209" lon="5.39152">
        <ele>425</ele>
        <time>2017-02-11T06:58:41Z</time>
      </trkpt>
      <trkpt lat="45.62093" lon="5.39145">
        <ele>425</ele>
        <time>2017-02-11T06:58:44Z</time>
      </trkpt>
      <trkpt lat="45.62096" lon="5.39135">
        <ele>424</ele>
        <time>2017-02-11T06:58:47Z</time>
      </trkpt>
      <trkpt lat="45.62098" lon="5.39126">
        <ele>424</ele>
        <time>2017-02-11T06:58:50Z</time>
      </trkpt>
      <trkpt lat="45.62102" lon="5.39116">
        <ele>424</ele>
        <time>2017-02-11T06:58:53Z</time>
      </trkpt>
      <trkpt lat="45.62104" lon="5.39109">
        <ele>424</ele>
        <time>2017-02-11T06:58:55Z</time>
      </trkpt>
      <trkpt lat="45.62106" lon="5.39099">
        <ele>424</ele>
        <time>2017-02-11T06:58:58Z</time>
      </trkpt>
      <trkpt lat="45.62109" lon="5.39089">
        <ele>424</ele>
        <time>2017-02-11T06:59:01Z</time>
      </trkpt>
      <trkpt lat="45.62112" lon="5.3908">
        <ele>423</ele>
        <time>2017-02-11T06:59:04Z</time>
      </trkpt>
      <trkpt lat="45.62115" lon="5.39071">
        <ele>423</ele>
        <time>2017-02-11T06:59:07Z</time>
      </trkpt>
      <trkpt lat="45.62118" lon="5.39061">
        <ele>423</ele>
        <time>2017-02-11T06:59:10Z</time>
      </trkpt>
      <trkpt lat="45.6212" lon="5.39054">
        <ele>423</ele>
        <time>2017-02-11T06:59:12Z</time>
      </trkpt>
      <trkpt lat="45.62123" lon="5.39044">
        <ele>423</ele>
        <time>2017-02-11T06:59:15Z</time>
      </trkpt>
      <trkpt lat="45.62124" lon="5.39034">
        <ele>423</ele>
        <time>2017-02-11T06:59:18Z</time>
      </trkpt>
      <trkpt lat="45.62125" lon="5.39025">
        <ele>423</ele>
        <time>2017-02-11T06:59:21Z</time>
      </trkpt>
      <trkpt lat="45.62127" lon="5.39015">
        <ele>423</ele>
        <time>2017-02-11T06:59:24Z</time>
      </trkpt>
      <trkpt lat="45.62129" lon="5.39006">
        <ele>423</ele>
        <time>2017-02-11T06:59:27Z</time>
      </trkpt>
      <trkpt lat="45.62132" lon="5.38997">
        <ele>423</ele>
        <time>2017-02-11T06:59:30Z</time>
      </trkpt>
      <trkpt lat="45.62134" lon="5.38986">
        <ele>423</ele>
        <time>2017-02-11T06:59:33Z</time>
      </trkpt>
      <trkpt lat="45.62135" lon="5.38975">
        <ele>423</ele>
        <time>2017-02-11T06:59:36Z</time>
      </trkpt>
      <trkpt lat="45.62136" lon="5.38965">
        <ele>423</ele>
        <time>2017-02-11T06:59:39Z</time>
      </trkpt>
      <trkpt lat="45.62139" lon="5.38955">
        <ele>423</ele>
        <time>2017-02-11T06:59:42Z</time>
      </trkpt>
      <trkpt lat="45.62141" lon="5.38945">
        <ele>423</ele>
        <time>2017-02-11T06:59:45Z</time>
      </trkpt>
      <trkpt lat="45.62144" lon="5.38935">
        <ele>423</ele>
        <time>2017-02-11T06:59:48Z</time>
      </trkpt>
      <trkpt lat="45.62146" lon="5.38926">
        <ele>423</ele>
        <time>2017-02-11T06:59:51Z</time>
      </trkpt>
      <trkpt lat="45.62149" lon="5.38919">
        <ele>423</ele>
        <time>2017-02-11T06:59:53Z</time>
      </trkpt>
      <trkpt lat="45.62151" lon="5.38911">
        <ele>424</ele>
        <time>2017-02-11T06:59:56Z</time>
      </trkpt>
      <trkpt lat="45.62153" lon="5.38902">
        <ele>424</ele>
        <time>2017-02-11T06:59:59Z</time>
      </trkpt>
      <trkpt lat="45.62156" lon="5.38892">
        <ele>424</ele>
        <time>2017-02-11T07:00:02Z</time>
      </trkpt>
      <trkpt lat="45.62158" lon="5.38883">
        <ele>424</ele>
        <time>2017-02-11T07:00:05Z</time>
      </trkpt>
      <trkpt lat="45.62159" lon="5.38873">
        <ele>425</ele>
        <time>2017-02-11T07:00:08Z</time>
      </trkpt>
      <trkpt lat="45.62161" lon="5.38864">
        <ele>425</ele>
        <time>2017-02-11T07:00:11Z</time>
      </trkpt>
      <trkpt lat="45.62164" lon="5.38856">
        <ele>425</ele>
        <time>2017-02-11T07:00:14Z</time>
      </trkpt>
      <trkpt lat="45.62166" lon="5.38846">
        <ele>425</ele>
        <time>2017-02-11T07:00:17Z</time>
      </trkpt>
      <trkpt lat="45.62169" lon="5.38839">
        <ele>424</ele>
        <time>2017-02-11T07:00:20Z</time>
      </trkpt>
      <trkpt lat="45.62172" lon="5.38829">
        <ele>424</ele>
        <time>2017-02-11T07:00:23Z</time>
      </trkpt>
      <trkpt lat="45.62173" lon="5.3882">
        <ele>424</ele>
        <time>2017-02-11T07:00:26Z</time>
      </trkpt>
      <trkpt lat="45.62175" lon="5.38812">
        <ele>424</ele>
        <time>2017-02-11T07:00:29Z</time>
      </trkpt>
      <trkpt lat="45.62177" lon="5.38802">
        <ele>424</ele>
        <time>2017-02-11T07:00:32Z</time>
      </trkpt>
      <trkpt lat="45.62179" lon="5.38793">
        <ele>424</ele>
        <time>2017-02-11T07:00:35Z</time>
      </trkpt>
      <trkpt lat="45.62182" lon="5.38784">
        <ele>424</ele>
        <time>2017-02-11T07:00:38Z</time>
      </trkpt>
      <trkpt lat="45.62184" lon="5.38776">
        <ele>424</ele>
        <time>2017-02-11T07:00:41Z</time>
      </trkpt>
      <trkpt lat="45.62185" lon="5.38767">
        <ele>424</ele>
        <time>2017-02-11T07:00:44Z</time>
      </trkpt>
      <trkpt lat="45.62187" lon="5.38757">
        <ele>424</ele>
        <time>2017-02-11T07:00:47Z</time>
      </trkpt>
      <trkpt lat="45.62188" lon="5.38746">
        <ele>424</ele>
        <time>2017-02-11T07:00:50Z</time>
      </trkpt>
      <trkpt lat="45.6219" lon="5.38737">
        <ele>424</ele>
        <time>2017-02-11T07:00:53Z</time>
      </trkpt>
      <trkpt lat="45.62191" lon="5.38728">
        <ele>424</ele>
        <time>2017-02-11T07:00:56Z</time>
      </trkpt>
      <trkpt lat="45.62192" lon="5.38716">
        <ele>424</ele>
        <time>2017-02-11T07:01:00Z</time>
      </trkpt>
      <trkpt lat="45.62193" lon="5.38706">
        <ele>424</ele>
        <time>2017-02-11T07:01:03Z</time>
      </trkpt>
      <trkpt lat="45.62192" lon="5.38696">
        <ele>424</ele>
        <time>2017-02-11T07:01:06Z</time>
      </trkpt>
      <trkpt lat="45.62193" lon="5.38687">
        <ele>424</ele>
        <time>2017-02-11T07:01:09Z</time>
      </trkpt>
      <trkpt lat="45.62194" lon="5.38675">
        <ele>424</ele>
        <time>2017-02-11T07:01:13Z</time>
      </trkpt>
      <trkpt lat="45.62195" lon="5.38663">
        <ele>424</ele>
        <time>2017-02-11T07:01:17Z</time>
      </trkpt>
      <trkpt lat="45.62195" lon="5.38653">
        <ele>424</ele>
        <time>2017-02-11T07:01:20Z</time>
      </trkpt>
      <trkpt lat="45.62195" lon="5.3864">
        <ele>424</ele>
        <time>2017-02-11T07:01:24Z</time>
      </trkpt>
      <trkpt lat="45.62196" lon="5.3863">
        <ele>424</ele>
        <time>2017-02-11T07:01:27Z</time>
      </trkpt>
      <trkpt lat="45.62196" lon="5.38617">
        <ele>424</ele>
        <time>2017-02-11T07:01:31Z</time>
      </trkpt>
      <trkpt lat="45.62197" lon="5.38605">
        <ele>424</ele>
        <time>2017-02-11T07:01:34Z</time>
      </trkpt>
      <trkpt lat="45.62197" lon="5.38593">
        <ele>424</ele>
        <time>2017-02-11T07:01:37Z</time>
      </trkpt>
      <trkpt lat="45.62198" lon="5.38582">
        <ele>424</ele>
        <time>2017-02-11T07:01:40Z</time>
      </trkpt>
      <trkpt lat="45.62199" lon="5.38571">
        <ele>424</ele>
        <time>2017-02-11T07:01:43Z</time>
      </trkpt>
      <trkpt lat="45.62199" lon="5.38559">
        <ele>424</ele>
        <time>2017-02-11T07:01:46Z</time>
      </trkpt>
      <trkpt lat="45.62199" lon="5.38548">
        <ele>424</ele>
        <time>2017-02-11T07:01:49Z</time>
      </trkpt>
      <trkpt lat="45.622" lon="5.38537">
        <ele>424</ele>
        <time>2017-02-11T07:01:52Z</time>
      </trkpt>
      <trkpt lat="45.62201" lon="5.38526">
        <ele>424</ele>
        <time>2017-02-11T07:01:56Z</time>
      </trkpt>
      <trkpt lat="45.62204" lon="5.38515">
        <ele>424</ele>
        <time>2017-02-11T07:01:59Z</time>
      </trkpt>
      <trkpt lat="45.62206" lon="5.38507">
        <ele>424</ele>
        <time>2017-02-11T07:02:02Z</time>
      </trkpt>
      <trkpt lat="45.62208" lon="5.38497">
        <ele>424</ele>
        <time>2017-02-11T07:02:05Z</time>
      </trkpt>
      <trkpt lat="45.6221" lon="5.38486">
        <ele>424</ele>
        <time>2017-02-11T07:02:08Z</time>
      </trkpt>
      <trkpt lat="45.62211" lon="5.38476">
        <ele>424</ele>
        <time>2017-02-11T07:02:11Z</time>
      </trkpt>
      <trkpt lat="45.62213" lon="5.38466">
        <ele>424</ele>
        <time>2017-02-11T07:02:14Z</time>
      </trkpt>
      <trkpt lat="45.62216" lon="5.38457">
        <ele>424</ele>
        <time>2017-02-11T07:02:17Z</time>
      </trkpt>
      <trkpt lat="45.62218" lon="5.38448">
        <ele>424</ele>
        <time>2017-02-11T07:02:20Z</time>
      </trkpt>
      <trkpt lat="45.6222" lon="5.38437">
        <ele>424</ele>
        <time>2017-02-11T07:02:23Z</time>
      </trkpt>
      <trkpt lat="45.62222" lon="5.38427">
        <ele>424</ele>
        <time>2017-02-11T07:02:26Z</time>
      </trkpt>
      <trkpt lat="45.62223" lon="5.38417">
        <ele>424</ele>
        <time>2017-02-11T07:02:29Z</time>
      </trkpt>
      <trkpt lat="45.62225" lon="5.38407">
        <ele>424</ele>
        <time>2017-02-11T07:02:32Z</time>
      </trkpt>
      <trkpt lat="45.62228" lon="5.38397">
        <ele>424</ele>
        <time>2017-02-11T07:02:35Z</time>
      </trkpt>
      <trkpt lat="45.6223" lon="5.38388">
        <ele>424</ele>
        <time>2017-02-11T07:02:38Z</time>
      </trkpt>
      <trkpt lat="45.62232" lon="5.38378">
        <ele>424</ele>
        <time>2017-02-11T07:02:41Z</time>
      </trkpt>
      <trkpt lat="45.62235" lon="5.38369">
        <ele>424</ele>
        <time>2017-02-11T07:02:44Z</time>
      </trkpt>
      <trkpt lat="45.62238" lon="5.38359">
        <ele>424</ele>
        <time>2017-02-11T07:02:47Z</time>
      </trkpt>
      <trkpt lat="45.6224" lon="5.3835">
        <ele>424</ele>
        <time>2017-02-11T07:02:50Z</time>
      </trkpt>
      <trkpt lat="45.62242" lon="5.38339">
        <ele>425</ele>
        <time>2017-02-11T07:02:53Z</time>
      </trkpt>
      <trkpt lat="45.62244" lon="5.38328">
        <ele>424</ele>
        <time>2017-02-11T07:02:56Z</time>
      </trkpt>
      <trkpt lat="45.62247" lon="5.3832">
        <ele>424</ele>
        <time>2017-02-11T07:02:59Z</time>
      </trkpt>
      <trkpt lat="45.62251" lon="5.3831">
        <ele>424</ele>
        <time>2017-02-11T07:03:02Z</time>
      </trkpt>
      <trkpt lat="45.62253" lon="5.38301">
        <ele>424</ele>
        <time>2017-02-11T07:03:05Z</time>
      </trkpt>
      <trkpt lat="45.62256" lon="5.38293">
        <ele>424</ele>
        <time>2017-02-11T07:03:08Z</time>
      </trkpt>
      <trkpt lat="45.62258" lon="5.38283">
        <ele>424</ele>
        <time>2017-02-11T07:03:11Z</time>
      </trkpt>
      <trkpt lat="45.62262" lon="5.38273">
        <ele>424</ele>
        <time>2017-02-11T07:03:14Z</time>
      </trkpt>
      <trkpt lat="45.62265" lon="5.38267">
        <ele>424</ele>
        <time>2017-02-11T07:03:16Z</time>
      </trkpt>
      <trkpt lat="45.62268" lon="5.38261">
        <ele>424</ele>
        <time>2017-02-11T07:03:18Z</time>
      </trkpt>
      <trkpt lat="45.62273" lon="5.38253">
        <ele>424</ele>
        <time>2017-02-11T07:03:21Z</time>
      </trkpt>
      <trkpt lat="45.62275" lon="5.38247">
        <ele>423</ele>
        <time>2017-02-11T07:03:23Z</time>
      </trkpt>
      <trkpt lat="45.62278" lon="5.38237">
        <ele>423</ele>
        <time>2017-02-11T07:03:26Z</time>
      </trkpt>
      <trkpt lat="45.62278" lon="5.38226">
        <ele>423</ele>
        <time>2017-02-11T07:03:29Z</time>
      </trkpt>
      <trkpt lat="45.62281" lon="5.38217">
        <ele>423</ele>
        <time>2017-02-11T07:03:32Z</time>
      </trkpt>
      <trkpt lat="45.62283" lon="5.38206">
        <ele>423</ele>
        <time>2017-02-11T07:03:35Z</time>
      </trkpt>
      <trkpt lat="45.62286" lon="5.38197">
        <ele>423</ele>
        <time>2017-02-11T07:03:38Z</time>
      </trkpt>
      <trkpt lat="45.62288" lon="5.38187">
        <ele>423</ele>
        <time>2017-02-11T07:03:41Z</time>
      </trkpt>
      <trkpt lat="45.6229" lon="5.38178">
        <ele>423</ele>
        <time>2017-02-11T07:03:44Z</time>
      </trkpt>
      <trkpt lat="45.6229" lon="5.38167">
        <ele>423</ele>
        <time>2017-02-11T07:03:47Z</time>
      </trkpt>
      <trkpt lat="45.62292" lon="5.38156">
        <ele>422</ele>
        <time>2017-02-11T07:03:50Z</time>
      </trkpt>
      <trkpt lat="45.62294" lon="5.38147">
        <ele>422</ele>
        <time>2017-02-11T07:03:53Z</time>
      </trkpt>
      <trkpt lat="45.62297" lon="5.38138">
        <ele>422</ele>
        <time>2017-02-11T07:03:56Z</time>
      </trkpt>
      <trkpt lat="45.62298" lon="5.38127">
        <ele>422</ele>
        <time>2017-02-11T07:03:59Z</time>
      </trkpt>
      <trkpt lat="45.623" lon="5.38117">
        <ele>422</ele>
        <time>2017-02-11T07:04:02Z</time>
      </trkpt>
      <trkpt lat="45.62301" lon="5.38108">
        <ele>422</ele>
        <time>2017-02-11T07:04:05Z</time>
      </trkpt>
      <trkpt lat="45.62303" lon="5.38098">
        <ele>421</ele>
        <time>2017-02-11T07:04:08Z</time>
      </trkpt>
      <trkpt lat="45.62306" lon="5.38089">
        <ele>421</ele>
        <time>2017-02-11T07:04:11Z</time>
      </trkpt>
      <trkpt lat="45.62307" lon="5.3808">
        <ele>421</ele>
        <time>2017-02-11T07:04:14Z</time>
      </trkpt>
      <trkpt lat="45.62309" lon="5.38071">
        <ele>421</ele>
        <time>2017-02-11T07:04:17Z</time>
      </trkpt>
      <trkpt lat="45.6231" lon="5.3806">
        <ele>421</ele>
        <time>2017-02-11T07:04:21Z</time>
      </trkpt>
      <trkpt lat="45.6231" lon="5.38047">
        <ele>421</ele>
        <time>2017-02-11T07:04:25Z</time>
      </trkpt>
      <trkpt lat="45.62311" lon="5.38037">
        <ele>421</ele>
        <time>2017-02-11T07:04:28Z</time>
      </trkpt>
      <trkpt lat="45.62313" lon="5.38027">
        <ele>421</ele>
        <time>2017-02-11T07:04:31Z</time>
      </trkpt>
      <trkpt lat="45.62314" lon="5.38015">
        <ele>421</ele>
        <time>2017-02-11T07:04:34Z</time>
      </trkpt>
      <trkpt lat="45.62316" lon="5.38005">
        <ele>421</ele>
        <time>2017-02-11T07:04:37Z</time>
      </trkpt>
      <trkpt lat="45.62319" lon="5.37996">
        <ele>420</ele>
        <time>2017-02-11T07:04:40Z</time>
      </trkpt>
      <trkpt lat="45.62321" lon="5.37986">
        <ele>420</ele>
        <time>2017-02-11T07:04:43Z</time>
      </trkpt>
      <trkpt lat="45.62324" lon="5.37978">
        <ele>420</ele>
        <time>2017-02-11T07:04:46Z</time>
      </trkpt>
      <trkpt lat="45.62325" lon="5.37967">
        <ele>420</ele>
        <time>2017-02-11T07:04:49Z</time>
      </trkpt>
      <trkpt lat="45.62327" lon="5.37958">
        <ele>419</ele>
        <time>2017-02-11T07:04:52Z</time>
      </trkpt>
      <trkpt lat="45.62329" lon="5.37947">
        <ele>419</ele>
        <time>2017-02-11T07:04:55Z</time>
      </trkpt>
      <trkpt lat="45.6233" lon="5.37937">
        <ele>419</ele>
        <time>2017-02-11T07:04:58Z</time>
      </trkpt>
      <trkpt lat="45.62332" lon="5.37927">
        <ele>419</ele>
        <time>2017-02-11T07:05:01Z</time>
      </trkpt>
      <trkpt lat="45.62333" lon="5.37917">
        <ele>419</ele>
        <time>2017-02-11T07:05:04Z</time>
      </trkpt>
      <trkpt lat="45.62334" lon="5.37906">
        <ele>418</ele>
        <time>2017-02-11T07:05:07Z</time>
      </trkpt>
      <trkpt lat="45.62336" lon="5.37895">
        <ele>418</ele>
        <time>2017-02-11T07:05:10Z</time>
      </trkpt>
      <trkpt lat="45.62337" lon="5.37884">
        <ele>418</ele>
        <time>2017-02-11T07:05:13Z</time>
      </trkpt>
      <trkpt lat="45.62339" lon="5.37872">
        <ele>417</ele>
        <time>2017-02-11T07:05:16Z</time>
      </trkpt>
      <trkpt lat="45.62341" lon="5.37862">
        <ele>417</ele>
        <time>2017-02-11T07:05:19Z</time>
      </trkpt>
      <trkpt lat="45.62343" lon="5.37851">
        <ele>417</ele>
        <time>2017-02-11T07:05:22Z</time>
      </trkpt>
      <trkpt lat="45.62344" lon="5.37841">
        <ele>417</ele>
        <time>2017-02-11T07:05:25Z</time>
      </trkpt>
      <trkpt lat="45.62345" lon="5.37832">
        <ele>417</ele>
        <time>2017-02-11T07:05:28Z</time>
      </trkpt>
      <trkpt lat="45.62347" lon="5.37821">
        <ele>416</ele>
        <time>2017-02-11T07:05:31Z</time>
      </trkpt>
      <trkpt lat="45.62348" lon="5.3781">
        <ele>416</ele>
        <time>2017-02-11T07:05:34Z</time>
      </trkpt>
      <trkpt lat="45.6235" lon="5.37798">
        <ele>416</ele>
        <time>2017-02-11T07:05:37Z</time>
      </trkpt>
      <trkpt lat="45.62351" lon="5.37788">
        <ele>415</ele>
        <time>2017-02-11T07:05:40Z</time>
      </trkpt>
      <trkpt lat="45.62353" lon="5.37778">
        <ele>415</ele>
        <time>2017-02-11T07:05:43Z</time>
      </trkpt>
      <trkpt lat="45.62354" lon="5.37767">
        <ele>415</ele>
        <time>2017-02-11T07:05:46Z</time>
      </trkpt>
      <trkpt lat="45.62356" lon="5.37756">
        <ele>415</ele>
        <time>2017-02-11T07:05:49Z</time>
      </trkpt>
      <trkpt lat="45.62359" lon="5.37746">
        <ele>414</ele>
        <time>2017-02-11T07:05:52Z</time>
      </trkpt>
      <trkpt lat="45.62361" lon="5.37737">
        <ele>414</ele>
        <time>2017-02-11T07:05:55Z</time>
      </trkpt>
      <trkpt lat="45.62363" lon="5.37729">
        <ele>413</ele>
        <time>2017-02-11T07:05:57Z</time>
      </trkpt>
      <trkpt lat="45.62365" lon="5.37719">
        <ele>413</ele>
        <time>2017-02-11T07:06:00Z</time>
      </trkpt>
      <trkpt lat="45.62367" lon="5.37709">
        <ele>413</ele>
        <time>2017-02-11T07:06:03Z</time>
      </trkpt>
      <trkpt lat="45.62369" lon="5.37702">
        <ele>413</ele>
        <time>2017-02-11T07:06:05Z</time>
      </trkpt>
      <trkpt lat="45.62371" lon="5.37691">
        <ele>413</ele>
        <time>2017-02-11T07:06:08Z</time>
      </trkpt>
      <trkpt lat="45.62372" lon="5.37681">
        <ele>413</ele>
        <time>2017-02-11T07:06:11Z</time>
      </trkpt>
      <trkpt lat="45.62375" lon="5.37671">
        <ele>413</ele>
        <time>2017-02-11T07:06:14Z</time>
      </trkpt>
      <trkpt lat="45.62377" lon="5.3766">
        <ele>411</ele>
        <time>2017-02-11T07:06:17Z</time>
      </trkpt>
      <trkpt lat="45.6238" lon="5.37651">
        <ele>411</ele>
        <time>2017-02-11T07:06:20Z</time>
      </trkpt>
      <trkpt lat="45.62382" lon="5.37642">
        <ele>411</ele>
        <time>2017-02-11T07:06:23Z</time>
      </trkpt>
      <trkpt lat="45.62384" lon="5.37632">
        <ele>411</ele>
        <time>2017-02-11T07:06:26Z</time>
      </trkpt>
      <trkpt lat="45.62385" lon="5.37621">
        <ele>411</ele>
        <time>2017-02-11T07:06:29Z</time>
      </trkpt>
      <trkpt lat="45.62386" lon="5.3761">
        <ele>411</ele>
        <time>2017-02-11T07:06:32Z</time>
      </trkpt>
      <trkpt lat="45.62388" lon="5.37598">
        <ele>411</ele>
        <time>2017-02-11T07:06:35Z</time>
      </trkpt>
      <trkpt lat="45.62389" lon="5.37587">
        <ele>411</ele>
        <time>2017-02-11T07:06:38Z</time>
      </trkpt>
      <trkpt lat="45.62392" lon="5.37576">
        <ele>410</ele>
        <time>2017-02-11T07:06:41Z</time>
      </trkpt>
      <trkpt lat="45.62394" lon="5.37565">
        <ele>410</ele>
        <time>2017-02-11T07:06:44Z</time>
      </trkpt>
      <trkpt lat="45.62396" lon="5.37554">
        <ele>410</ele>
        <time>2017-02-11T07:06:47Z</time>
      </trkpt>
      <trkpt lat="45.62397" lon="5.37543">
        <ele>410</ele>
        <time>2017-02-11T07:06:51Z</time>
      </trkpt>
      <trkpt lat="45.624" lon="5.37534">
        <ele>410</ele>
        <time>2017-02-11T07:06:54Z</time>
      </trkpt>
      <trkpt lat="45.62402" lon="5.37524">
        <ele>410</ele>
        <time>2017-02-11T07:06:57Z</time>
      </trkpt>
      <trkpt lat="45.62405" lon="5.37514">
        <ele>410</ele>
        <time>2017-02-11T07:07:00Z</time>
      </trkpt>
      <trkpt lat="45.62408" lon="5.37505">
        <ele>410</ele>
        <time>2017-02-11T07:07:03Z</time>
      </trkpt>
      <trkpt lat="45.62411" lon="5.37495">
        <ele>409</ele>
        <time>2017-02-11T07:07:06Z</time>
      </trkpt>
      <trkpt lat="45.62413" lon="5.37485">
        <ele>409</ele>
        <time>2017-02-11T07:07:09Z</time>
      </trkpt>
      <trkpt lat="45.62415" lon="5.37475">
        <ele>409</ele>
        <time>2017-02-11T07:07:12Z</time>
      </trkpt>
      <trkpt lat="45.62417" lon="5.37464">
        <ele>409</ele>
        <time>2017-02-11T07:07:15Z</time>
      </trkpt>
      <trkpt lat="45.62419" lon="5.37454">
        <ele>409</ele>
        <time>2017-02-11T07:07:18Z</time>
      </trkpt>
      <trkpt lat="45.62421" lon="5.3744">
        <ele>409</ele>
        <time>2017-02-11T07:07:22Z</time>
      </trkpt>
      <trkpt lat="45.62423" lon="5.3743">
        <ele>409</ele>
        <time>2017-02-11T07:07:25Z</time>
      </trkpt>
      <trkpt lat="45.62425" lon="5.37421">
        <ele>408</ele>
        <time>2017-02-11T07:07:28Z</time>
      </trkpt>
      <trkpt lat="45.62427" lon="5.37411">
        <ele>408</ele>
        <time>2017-02-11T07:07:31Z</time>
      </trkpt>
      <trkpt lat="45.62429" lon="5.37404">
        <ele>408</ele>
        <time>2017-02-11T07:07:33Z</time>
      </trkpt>
      <trkpt lat="45.62432" lon="5.37395">
        <ele>408</ele>
        <time>2017-02-11T07:07:36Z</time>
      </trkpt>
      <trkpt lat="45.62436" lon="5.37385">
        <ele>409</ele>
        <time>2017-02-11T07:07:39Z</time>
      </trkpt>
      <trkpt lat="45.62438" lon="5.37375">
        <ele>408</ele>
        <time>2017-02-11T07:07:42Z</time>
      </trkpt>
      <trkpt lat="45.6244" lon="5.37363">
        <ele>408</ele>
        <time>2017-02-11T07:07:45Z</time>
      </trkpt>
      <trkpt lat="45.62442" lon="5.37354">
        <ele>408</ele>
        <time>2017-02-11T07:07:48Z</time>
      </trkpt>
      <trkpt lat="45.62445" lon="5.37345">
        <ele>408</ele>
        <time>2017-02-11T07:07:51Z</time>
      </trkpt>
      <trkpt lat="45.62447" lon="5.37338">
        <ele>408</ele>
        <time>2017-02-11T07:07:53Z</time>
      </trkpt>
      <trkpt lat="45.62449" lon="5.37328">
        <ele>407</ele>
        <time>2017-02-11T07:07:56Z</time>
      </trkpt>
      <trkpt lat="45.6245" lon="5.37318">
        <ele>407</ele>
        <time>2017-02-11T07:07:59Z</time>
      </trkpt>
      <trkpt lat="45.62452" lon="5.37309">
        <ele>407</ele>
        <time>2017-02-11T07:08:02Z</time>
      </trkpt>
      <trkpt lat="45.62446" lon="5.37313">
        <ele>407</ele>
        <time>2017-02-11T07:08:06Z</time>
      </trkpt>
      <trkpt lat="45.62441" lon="5.37319">
        <ele>407</ele>
        <time>2017-02-11T07:08:08Z</time>
      </trkpt>
      <trkpt lat="45.62437" lon="5.37325">
        <ele>407</ele>
        <time>2017-02-11T07:08:10Z</time>
      </trkpt>
      <trkpt lat="45.62434" lon="5.3733">
        <ele>406</ele>
        <time>2017-02-11T07:08:12Z</time>
      </trkpt>
      <trkpt lat="45.62428" lon="5.37336">
        <ele>407</ele>
        <time>2017-02-11T07:08:15Z</time>
      </trkpt>
      <trkpt lat="45.62421" lon="5.37343">
        <ele>406</ele>
        <time>2017-02-11T07:08:19Z</time>
      </trkpt>
      <trkpt lat="45.62416" lon="5.37348">
        <ele>405</ele>
        <time>2017-02-11T07:08:21Z</time>
      </trkpt>
      <trkpt lat="45.62413" lon="5.37353">
        <ele>405</ele>
        <time>2017-02-11T07:08:23Z</time>
      </trkpt>
      <trkpt lat="45.62409" lon="5.37358">
        <ele>405</ele>
        <time>2017-02-11T07:08:25Z</time>
      </trkpt>
      <trkpt lat="45.62404" lon="5.37366">
        <ele>406</ele>
        <time>2017-02-11T07:08:28Z</time>
      </trkpt>
      <trkpt lat="45.624" lon="5.37372">
        <ele>406</ele>
        <time>2017-02-11T07:08:30Z</time>
      </trkpt>
      <trkpt lat="45.62395" lon="5.37377">
        <ele>406</ele>
        <time>2017-02-11T07:08:32Z</time>
      </trkpt>
      <trkpt lat="45.62391" lon="5.37382">
        <ele>406</ele>
        <time>2017-02-11T07:08:34Z</time>
      </trkpt>
      <trkpt lat="45.62386" lon="5.37389">
        <ele>406</ele>
        <time>2017-02-11T07:08:37Z</time>
      </trkpt>
      <trkpt lat="45.62381" lon="5.37395">
        <ele>406</ele>
        <time>2017-02-11T07:08:40Z</time>
      </trkpt>
      <trkpt lat="45.62375" lon="5.37402">
        <ele>406</ele>
        <time>2017-02-11T07:08:43Z</time>
      </trkpt>
      <trkpt lat="45.6237" lon="5.37407">
        <ele>406</ele>
        <time>2017-02-11T07:08:46Z</time>
      </trkpt>
      <trkpt lat="45.62364" lon="5.37413">
        <ele>406</ele>
        <time>2017-02-11T07:08:49Z</time>
      </trkpt>
      <trkpt lat="45.6236" lon="5.37418">
        <ele>407</ele>
        <time>2017-02-11T07:08:51Z</time>
      </trkpt>
      <trkpt lat="45.62355" lon="5.37423">
        <ele>407</ele>
        <time>2017-02-11T07:08:54Z</time>
      </trkpt>
      <trkpt lat="45.6235" lon="5.37429">
        <ele>407</ele>
        <time>2017-02-11T07:08:57Z</time>
      </trkpt>
      <trkpt lat="45.62345" lon="5.37435">
        <ele>407</ele>
        <time>2017-02-11T07:09:00Z</time>
      </trkpt>
      <trkpt lat="45.6234" lon="5.37441">
        <ele>407</ele>
        <time>2017-02-11T07:09:03Z</time>
      </trkpt>
      <trkpt lat="45.62335" lon="5.37449">
        <ele>407</ele>
        <time>2017-02-11T07:09:06Z</time>
      </trkpt>
      <trkpt lat="45.6233" lon="5.37454">
        <ele>407</ele>
        <time>2017-02-11T07:09:08Z</time>
      </trkpt>
      <trkpt lat="45.62325" lon="5.37459">
        <ele>407</ele>
        <time>2017-02-11T07:09:11Z</time>
      </trkpt>
      <trkpt lat="45.6232" lon="5.37464">
        <ele>407</ele>
        <time>2017-02-11T07:09:13Z</time>
      </trkpt>
      <trkpt lat="45.62315" lon="5.3747">
        <ele>407</ele>
        <time>2017-02-11T07:09:16Z</time>
      </trkpt>
      <trkpt lat="45.6231" lon="5.37477">
        <ele>407</ele>
        <time>2017-02-11T07:09:19Z</time>
      </trkpt>
      <trkpt lat="45.62305" lon="5.37483">
        <ele>407</ele>
        <time>2017-02-11T07:09:22Z</time>
      </trkpt>
      <trkpt lat="45.623" lon="5.37489">
        <ele>407</ele>
        <time>2017-02-11T07:09:25Z</time>
      </trkpt>
      <trkpt lat="45.62294" lon="5.37496">
        <ele>407</ele>
        <time>2017-02-11T07:09:28Z</time>
      </trkpt>
      <trkpt lat="45.6229" lon="5.37502">
        <ele>408</ele>
        <time>2017-02-11T07:09:31Z</time>
      </trkpt>
      <trkpt lat="45.62285" lon="5.37508">
        <ele>408</ele>
        <time>2017-02-11T07:09:34Z</time>
      </trkpt>
      <trkpt lat="45.6228" lon="5.37514">
        <ele>408</ele>
        <time>2017-02-11T07:09:37Z</time>
      </trkpt>
      <trkpt lat="45.62274" lon="5.37519">
        <ele>409</ele>
        <time>2017-02-11T07:09:40Z</time>
      </trkpt>
      <trkpt lat="45.62269" lon="5.37526">
        <ele>409</ele>
        <time>2017-02-11T07:09:43Z</time>
      </trkpt>
      <trkpt lat="45.62265" lon="5.37531">
        <ele>409</ele>
        <time>2017-02-11T07:09:45Z</time>
      </trkpt>
      <trkpt lat="45.62259" lon="5.37533">
        <ele>409</ele>
        <time>2017-02-11T07:09:48Z</time>
      </trkpt>
      <trkpt lat="45.62253" lon="5.37536">
        <ele>409</ele>
        <time>2017-02-11T07:09:51Z</time>
      </trkpt>
      <trkpt lat="45.62246" lon="5.37537">
        <ele>408</ele>
        <time>2017-02-11T07:09:54Z</time>
      </trkpt>
      <trkpt lat="45.62237" lon="5.37537">
        <ele>408</ele>
        <time>2017-02-11T07:09:58Z</time>
      </trkpt>
      <trkpt lat="45.6223" lon="5.37538">
        <ele>408</ele>
        <time>2017-02-11T07:10:01Z</time>
      </trkpt>
      <trkpt lat="45.62223" lon="5.3754">
        <ele>408</ele>
        <time>2017-02-11T07:10:04Z</time>
      </trkpt>
      <trkpt lat="45.62216" lon="5.37542">
        <ele>409</ele>
        <time>2017-02-11T07:10:07Z</time>
      </trkpt>
      <trkpt lat="45.6221" lon="5.37543">
        <ele>409</ele>
        <time>2017-02-11T07:10:10Z</time>
      </trkpt>
      <trkpt lat="45.62203" lon="5.37545">
        <ele>409</ele>
        <time>2017-02-11T07:10:13Z</time>
      </trkpt>
      <trkpt lat="45.62196" lon="5.37547">
        <ele>409</ele>
        <time>2017-02-11T07:10:16Z</time>
      </trkpt>
      <trkpt lat="45.62189" lon="5.37551">
        <ele>409</ele>
        <time>2017-02-11T07:10:19Z</time>
      </trkpt>
      <trkpt lat="45.62182" lon="5.37553">
        <ele>409</ele>
        <time>2017-02-11T07:10:22Z</time>
      </trkpt>
      <trkpt lat="45.62174" lon="5.37556">
        <ele>409</ele>
        <time>2017-02-11T07:10:25Z</time>
      </trkpt>
      <trkpt lat="45.62167" lon="5.37558">
        <ele>409</ele>
        <time>2017-02-11T07:10:28Z</time>
      </trkpt>
      <trkpt lat="45.6216" lon="5.37559">
        <ele>407</ele>
        <time>2017-02-11T07:10:31Z</time>
      </trkpt>
      <trkpt lat="45.62152" lon="5.3756">
        <ele>407</ele>
        <time>2017-02-11T07:10:34Z</time>
      </trkpt>
      <trkpt lat="45.62146" lon="5.37562">
        <ele>406</ele>
        <time>2017-02-11T07:10:37Z</time>
      </trkpt>
      <trkpt lat="45.62137" lon="5.37564">
        <ele>406</ele>
        <time>2017-02-11T07:10:40Z</time>
      </trkpt>
      <trkpt lat="45.62132" lon="5.37566">
        <ele>406</ele>
        <time>2017-02-11T07:10:42Z</time>
      </trkpt>
      <trkpt lat="45.62124" lon="5.37568">
        <ele>405</ele>
        <time>2017-02-11T07:10:45Z</time>
      </trkpt>
      <trkpt lat="45.62117" lon="5.37571">
        <ele>405</ele>
        <time>2017-02-11T07:10:48Z</time>
      </trkpt>
      <trkpt lat="45.62109" lon="5.37573">
        <ele>405</ele>
        <time>2017-02-11T07:10:51Z</time>
      </trkpt>
      <trkpt lat="45.62104" lon="5.37575">
        <ele>405</ele>
        <time>2017-02-11T07:10:53Z</time>
      </trkpt>
      <trkpt lat="45.62099" lon="5.37578">
        <ele>404</ele>
        <time>2017-02-11T07:10:55Z</time>
      </trkpt>
      <trkpt lat="45.62092" lon="5.3758">
        <ele>404</ele>
        <time>2017-02-11T07:10:58Z</time>
      </trkpt>
      <trkpt lat="45.62084" lon="5.37581">
        <ele>404</ele>
        <time>2017-02-11T07:11:01Z</time>
      </trkpt>
      <trkpt lat="45.62076" lon="5.37584">
        <ele>403</ele>
        <time>2017-02-11T07:11:04Z</time>
      </trkpt>
      <trkpt lat="45.62069" lon="5.37589">
        <ele>402</ele>
        <time>2017-02-11T07:11:07Z</time>
      </trkpt>
      <trkpt lat="45.62063" lon="5.37592">
        <ele>402</ele>
        <time>2017-02-11T07:11:09Z</time>
      </trkpt>
      <trkpt lat="45.62057" lon="5.37595">
        <ele>402</ele>
        <time>2017-02-11T07:11:12Z</time>
      </trkpt>
      <trkpt lat="45.6205" lon="5.37598">
        <ele>401</ele>
        <time>2017-02-11T07:11:15Z</time>
      </trkpt>
      <trkpt lat="45.62043" lon="5.37601">
        <ele>401</ele>
        <time>2017-02-11T07:11:18Z</time>
      </trkpt>
      <trkpt lat="45.62035" lon="5.37605">
        <ele>400</ele>
        <time>2017-02-11T07:11:21Z</time>
      </trkpt>
      <trkpt lat="45.62029" lon="5.37608">
        <ele>400</ele>
        <time>2017-02-11T07:11:23Z</time>
      </trkpt>
      <trkpt lat="45.62023" lon="5.37611">
        <ele>399</ele>
        <time>2017-02-11T07:11:26Z</time>
      </trkpt>
      <trkpt lat="45.62016" lon="5.37614">
        <ele>399</ele>
        <time>2017-02-11T07:11:29Z</time>
      </trkpt>
      <trkpt lat="45.62008" lon="5.37617">
        <ele>399</ele>
        <time>2017-02-11T07:11:32Z</time>
      </trkpt>
      <trkpt lat="45.62" lon="5.37619">
        <ele>391</ele>
        <time>2017-02-11T07:11:35Z</time>
      </trkpt>
      <trkpt lat="45.61992" lon="5.37622">
        <ele>391</ele>
        <time>2017-02-11T07:11:38Z</time>
      </trkpt>
      <trkpt lat="45.61985" lon="5.37624">
        <ele>390</ele>
        <time>2017-02-11T07:11:41Z</time>
      </trkpt>
      <trkpt lat="45.6198" lon="5.37629">
        <ele>390</ele>
        <time>2017-02-11T07:11:43Z</time>
      </trkpt>
      <trkpt lat="45.61977" lon="5.37635">
        <ele>390</ele>
        <time>2017-02-11T07:11:45Z</time>
      </trkpt>
      <trkpt lat="45.61972" lon="5.37642">
        <ele>390</ele>
        <time>2017-02-11T07:11:48Z</time>
      </trkpt>
      <trkpt lat="45.61968" lon="5.37649">
        <ele>390</ele>
        <time>2017-02-11T07:11:51Z</time>
      </trkpt>
      <trkpt lat="45.61965" lon="5.37658">
        <ele>390</ele>
        <time>2017-02-11T07:11:54Z</time>
      </trkpt>
      <trkpt lat="45.61962" lon="5.37668">
        <ele>394</ele>
        <time>2017-02-11T07:11:57Z</time>
      </trkpt>
      <trkpt lat="45.61957" lon="5.37676">
        <ele>394</ele>
        <time>2017-02-11T07:12:00Z</time>
      </trkpt>
      <trkpt lat="45.61953" lon="5.37683">
        <ele>393</ele>
        <time>2017-02-11T07:12:03Z</time>
      </trkpt>
      <trkpt lat="45.61948" lon="5.37689">
        <ele>393</ele>
        <time>2017-02-11T07:12:06Z</time>
      </trkpt>
      <trkpt lat="45.61943" lon="5.37693">
        <ele>393</ele>
        <time>2017-02-11T07:12:09Z</time>
      </trkpt>
      <trkpt lat="45.61937" lon="5.37698">
        <ele>393</ele>
        <time>2017-02-11T07:12:12Z</time>
      </trkpt>
      <trkpt lat="45.61932" lon="5.37701">
        <ele>392</ele>
        <time>2017-02-11T07:12:14Z</time>
      </trkpt>
      <trkpt lat="45.61927" lon="5.37706">
        <ele>393</ele>
        <time>2017-02-11T07:12:17Z</time>
      </trkpt>
      <trkpt lat="45.61921" lon="5.37711">
        <ele>393</ele>
        <time>2017-02-11T07:12:21Z</time>
      </trkpt>
      <trkpt lat="45.61915" lon="5.37716">
        <ele>380</ele>
        <time>2017-02-11T07:12:24Z</time>
      </trkpt>
      <trkpt lat="45.61911" lon="5.37721">
        <ele>381</ele>
        <time>2017-02-11T07:12:27Z</time>
      </trkpt>
      <trkpt lat="45.61906" lon="5.37726">
        <ele>381</ele>
        <time>2017-02-11T07:12:30Z</time>
      </trkpt>
      <trkpt lat="45.61902" lon="5.37731">
        <ele>381</ele>
        <time>2017-02-11T07:12:32Z</time>
      </trkpt>
      <trkpt lat="45.61898" lon="5.37737">
        <ele>381</ele>
        <time>2017-02-11T07:12:34Z</time>
      </trkpt>
      <trkpt lat="45.61894" lon="5.37743">
        <ele>381</ele>
        <time>2017-02-11T07:12:36Z</time>
      </trkpt>
      <trkpt lat="45.61889" lon="5.3775">
        <ele>380</ele>
        <time>2017-02-11T07:12:39Z</time>
      </trkpt>
      <trkpt lat="45.61883" lon="5.37755">
        <ele>385</ele>
        <time>2017-02-11T07:12:41Z</time>
      </trkpt>
      <trkpt lat="45.61879" lon="5.37761">
        <ele>384</ele>
        <time>2017-02-11T07:12:43Z</time>
      </trkpt>
      <trkpt lat="45.61875" lon="5.37766">
        <ele>383</ele>
        <time>2017-02-11T07:12:45Z</time>
      </trkpt>
      <trkpt lat="45.6187" lon="5.37774">
        <ele>383</ele>
        <time>2017-02-11T07:12:48Z</time>
      </trkpt>
      <trkpt lat="45.61867" lon="5.37779">
        <ele>383</ele>
        <time>2017-02-11T07:12:50Z</time>
      </trkpt>
      <trkpt lat="45.61863" lon="5.37785">
        <ele>383</ele>
        <time>2017-02-11T07:12:52Z</time>
      </trkpt>
      <trkpt lat="45.61858" lon="5.37791">
        <ele>382</ele>
        <time>2017-02-11T07:12:54Z</time>
      </trkpt>
      <trkpt lat="45.61853" lon="5.37795">
        <ele>382</ele>
        <time>2017-02-11T07:12:56Z</time>
      </trkpt>
      <trkpt lat="45.61848" lon="5.378">
        <ele>382</ele>
        <time>2017-02-11T07:12:58Z</time>
      </trkpt>
      <trkpt lat="45.61842" lon="5.37805">
        <ele>381</ele>
        <time>2017-02-11T07:13:01Z</time>
      </trkpt>
      <trkpt lat="45.61837" lon="5.37808">
        <ele>381</ele>
        <time>2017-02-11T07:13:03Z</time>
      </trkpt>
      <trkpt lat="45.6183" lon="5.37812">
        <ele>367</ele>
        <time>2017-02-11T07:13:06Z</time>
      </trkpt>
      <trkpt lat="45.61826" lon="5.37818">
        <ele>368</ele>
        <time>2017-02-11T07:13:09Z</time>
      </trkpt>
      <trkpt lat="45.61824" lon="5.37827">
        <ele>370</ele>
        <time>2017-02-11T07:13:12Z</time>
      </trkpt>
      <trkpt lat="45.61822" lon="5.37838">
        <ele>376</ele>
        <time>2017-02-11T07:13:15Z</time>
      </trkpt>
      <trkpt lat="45.61821" lon="5.37849">
        <ele>375</ele>
        <time>2017-02-11T07:13:18Z</time>
      </trkpt>
      <trkpt lat="45.61816" lon="5.37853">
        <ele>375</ele>
        <time>2017-02-11T07:13:21Z</time>
      </trkpt>
      <trkpt lat="45.61808" lon="5.37853">
        <ele>374</ele>
        <time>2017-02-11T07:13:25Z</time>
      </trkpt>
      <trkpt lat="45.61802" lon="5.37852">
        <ele>373</ele>
        <time>2017-02-11T07:13:28Z</time>
      </trkpt>
      <trkpt lat="45.61795" lon="5.37849">
        <ele>372</ele>
        <time>2017-02-11T07:13:31Z</time>
      </trkpt>
      <trkpt lat="45.61787" lon="5.37846">
        <ele>370</ele>
        <time>2017-02-11T07:13:34Z</time>
      </trkpt>
      <trkpt lat="45.61781" lon="5.37843">
        <ele>369</ele>
        <time>2017-02-11T07:13:37Z</time>
      </trkpt>
      <trkpt lat="45.61773" lon="5.3784">
        <ele>366</ele>
        <time>2017-02-11T07:13:41Z</time>
      </trkpt>
      <trkpt lat="45.61767" lon="5.37839">
        <ele>364</ele>
        <time>2017-02-11T07:13:43Z</time>
      </trkpt>
      <trkpt lat="45.6176" lon="5.37837">
        <ele>361</ele>
        <time>2017-02-11T07:13:45Z</time>
      </trkpt>
      <trkpt lat="45.61752" lon="5.37837">
        <ele>356</ele>
        <time>2017-02-11T07:13:48Z</time>
      </trkpt>
      <trkpt lat="45.61744" lon="5.37835">
        <ele>352</ele>
        <time>2017-02-11T07:13:51Z</time>
      </trkpt>
      <trkpt lat="45.61739" lon="5.37828">
        <ele>345</ele>
        <time>2017-02-11T07:13:54Z</time>
      </trkpt>
      <trkpt lat="45.61737" lon="5.37821">
        <ele>342</ele>
        <time>2017-02-11T07:13:56Z</time>
      </trkpt>
      <trkpt lat="45.61735" lon="5.37811">
        <ele>339</ele>
        <time>2017-02-11T07:13:59Z</time>
      </trkpt>
      <trkpt lat="45.61733" lon="5.378">
        <ele>337</ele>
        <time>2017-02-11T07:14:02Z</time>
      </trkpt>
      <trkpt lat="45.6173" lon="5.37792">
        <ele>336</ele>
        <time>2017-02-11T07:14:05Z</time>
      </trkpt>
      <trkpt lat="45.61725" lon="5.37785">
        <ele>334</ele>
        <time>2017-02-11T07:14:08Z</time>
      </trkpt>
      <trkpt lat="45.61719" lon="5.37778">
        <ele>333</ele>
        <time>2017-02-11T07:14:13Z</time>
      </trkpt>
      <trkpt lat="45.61713" lon="5.37776">
        <ele>332</ele>
        <time>2017-02-11T07:14:17Z</time>
      </trkpt>
      <trkpt lat="45.61707" lon="5.37773">
        <ele>331</ele>
        <time>2017-02-11T07:14:19Z</time>
      </trkpt>
      <trkpt lat="45.617" lon="5.37771">
        <ele>330</ele>
        <time>2017-02-11T07:14:23Z</time>
      </trkpt>
      <trkpt lat="45.61693" lon="5.37769">
        <ele>329</ele>
        <time>2017-02-11T07:14:27Z</time>
      </trkpt>
      <trkpt lat="45.61686" lon="5.37766">
        <ele>327</ele>
        <time>2017-02-11T07:14:30Z</time>
      </trkpt>
      <trkpt lat="45.6168" lon="5.37762">
        <ele>325</ele>
        <time>2017-02-11T07:14:33Z</time>
      </trkpt>
      <trkpt lat="45.61672" lon="5.37757">
        <ele>322</ele>
        <time>2017-02-11T07:14:36Z</time>
      </trkpt>
      <trkpt lat="45.61664" lon="5.37755">
        <ele>318</ele>
        <time>2017-02-11T07:14:39Z</time>
      </trkpt>
      <trkpt lat="45.61656" lon="5.3775">
        <ele>317</ele>
        <time>2017-02-11T07:14:42Z</time>
      </trkpt>
      <trkpt lat="45.6165" lon="5.37744">
        <ele>315</ele>
        <time>2017-02-11T07:14:45Z</time>
      </trkpt>
      <trkpt lat="45.61644" lon="5.37736">
        <ele>314</ele>
        <time>2017-02-11T07:14:48Z</time>
      </trkpt>
      <trkpt lat="45.61638" lon="5.37732">
        <ele>313</ele>
        <time>2017-02-11T07:14:51Z</time>
      </trkpt>
      <trkpt lat="45.61634" lon="5.37729">
        <ele>313</ele>
        <time>2017-02-11T07:14:53Z</time>
      </trkpt>
      <trkpt lat="45.61627" lon="5.37723">
        <ele>312</ele>
        <time>2017-02-11T07:14:56Z</time>
      </trkpt>
      <trkpt lat="45.61621" lon="5.37717">
        <ele>312</ele>
        <time>2017-02-11T07:14:59Z</time>
      </trkpt>
      <trkpt lat="45.61615" lon="5.37713">
        <ele>312</ele>
        <time>2017-02-11T07:15:03Z</time>
      </trkpt>
      <trkpt lat="45.61607" lon="5.37709">
        <ele>311</ele>
        <time>2017-02-11T07:15:39Z</time>
      </trkpt>
      <trkpt lat="45.61601" lon="5.37706">
        <ele>311</ele>
        <time>2017-02-11T07:15:42Z</time>
      </trkpt>
      <trkpt lat="45.61594" lon="5.37701">
        <ele>311</ele>
        <time>2017-02-11T07:15:45Z</time>
      </trkpt>
      <trkpt lat="45.6159" lon="5.37696">
        <ele>311</ele>
        <time>2017-02-11T07:15:47Z</time>
      </trkpt>
      <trkpt lat="45.61585" lon="5.37691">
        <ele>311</ele>
        <time>2017-02-11T07:15:49Z</time>
      </trkpt>
      <trkpt lat="45.61579" lon="5.37686">
        <ele>309</ele>
        <time>2017-02-11T07:15:52Z</time>
      </trkpt>
      <trkpt lat="45.61573" lon="5.37681">
        <ele>309</ele>
        <time>2017-02-11T07:15:55Z</time>
      </trkpt>
      <trkpt lat="45.61568" lon="5.37675">
        <ele>309</ele>
        <time>2017-02-11T07:15:58Z</time>
      </trkpt>
      <trkpt lat="45.61563" lon="5.37671">
        <ele>309</ele>
        <time>2017-02-11T07:16:00Z</time>
      </trkpt>
      <trkpt lat="45.61558" lon="5.37665">
        <ele>309</ele>
        <time>2017-02-11T07:16:03Z</time>
      </trkpt>
      <trkpt lat="45.61552" lon="5.37661">
        <ele>309</ele>
        <time>2017-02-11T07:16:06Z</time>
      </trkpt>
      <trkpt lat="45.61546" lon="5.37657">
        <ele>309</ele>
        <time>2017-02-11T07:16:09Z</time>
      </trkpt>
      <trkpt lat="45.6154" lon="5.37652">
        <ele>308</ele>
        <time>2017-02-11T07:16:12Z</time>
      </trkpt>
      <trkpt lat="45.61535" lon="5.37646">
        <ele>308</ele>
        <time>2017-02-11T07:16:15Z</time>
      </trkpt>
      <trkpt lat="45.61531" lon="5.37641">
        <ele>308</ele>
        <time>2017-02-11T07:16:17Z</time>
      </trkpt>
      <trkpt lat="45.61525" lon="5.37635">
        <ele>308</ele>
        <time>2017-02-11T07:16:20Z</time>
      </trkpt>
      <trkpt lat="45.6152" lon="5.37631">
        <ele>308</ele>
        <time>2017-02-11T07:16:22Z</time>
      </trkpt>
      <trkpt lat="45.61514" lon="5.37627">
        <ele>308</ele>
        <time>2017-02-11T07:16:25Z</time>
      </trkpt>
      <trkpt lat="45.61509" lon="5.37624">
        <ele>309</ele>
        <time>2017-02-11T07:16:28Z</time>
      </trkpt>
      <trkpt lat="45.61503" lon="5.37621">
        <ele>309</ele>
        <time>2017-02-11T07:16:31Z</time>
      </trkpt>
      <trkpt lat="45.61497" lon="5.37616">
        <ele>310</ele>
        <time>2017-02-11T07:16:34Z</time>
      </trkpt>
      <trkpt lat="45.6149" lon="5.37611">
        <ele>310</ele>
        <time>2017-02-11T07:16:37Z</time>
      </trkpt>
      <trkpt lat="45.61485" lon="5.37606">
        <ele>310</ele>
        <time>2017-02-11T07:16:40Z</time>
      </trkpt>
      <trkpt lat="45.6148" lon="5.37602">
        <ele>310</ele>
        <time>2017-02-11T07:16:42Z</time>
      </trkpt>
      <trkpt lat="45.61474" lon="5.37595">
        <ele>310</ele>
        <time>2017-02-11T07:16:45Z</time>
      </trkpt>
      <trkpt lat="45.61469" lon="5.37591">
        <ele>311</ele>
        <time>2017-02-11T07:16:48Z</time>
      </trkpt>
      <trkpt lat="45.61464" lon="5.37586">
        <ele>311</ele>
        <time>2017-02-11T07:16:51Z</time>
      </trkpt>
      <trkpt lat="45.61458" lon="5.37582">
        <ele>314</ele>
        <time>2017-02-11T07:16:55Z</time>
      </trkpt>
      <trkpt lat="45.61451" lon="5.37579">
        <ele>314</ele>
        <time>2017-02-11T07:16:59Z</time>
      </trkpt>
      <trkpt lat="45.61444" lon="5.37577">
        <ele>314</ele>
        <time>2017-02-11T07:17:03Z</time>
      </trkpt>
      <trkpt lat="45.61436" lon="5.37575">
        <ele>315</ele>
        <time>2017-02-11T07:17:07Z</time>
      </trkpt>
      <trkpt lat="45.61432" lon="5.3757">
        <ele>315</ele>
        <time>2017-02-11T07:17:09Z</time>
      </trkpt>
      <trkpt lat="45.61431" lon="5.37556">
        <ele>315</ele>
        <time>2017-02-11T07:17:12Z</time>
      </trkpt>
      <trkpt lat="45.61432" lon="5.37545">
        <ele>316</ele>
        <time>2017-02-11T07:17:15Z</time>
      </trkpt>
      <trkpt lat="45.61436" lon="5.37536">
        <ele>316</ele>
        <time>2017-02-11T07:17:18Z</time>
      </trkpt>
      <trkpt lat="45.61439" lon="5.37528">
        <ele>316</ele>
        <time>2017-02-11T07:17:21Z</time>
      </trkpt>
      <trkpt lat="45.61442" lon="5.3752">
        <ele>317</ele>
        <time>2017-02-11T07:17:24Z</time>
      </trkpt>
      <trkpt lat="45.61442" lon="5.37509">
        <ele>317</ele>
        <time>2017-02-11T07:17:29Z</time>
      </trkpt>
      <trkpt lat="45.61442" lon="5.37499">
        <ele>321</ele>
        <time>2017-02-11T07:17:35Z</time>
      </trkpt>
      <trkpt lat="45.61439" lon="5.37492">
        <ele>322</ele>
        <time>2017-02-11T07:17:40Z</time>
      </trkpt>
      <trkpt lat="45.61435" lon="5.37486">
        <ele>322</ele>
        <time>2017-02-11T07:17:43Z</time>
      </trkpt>
      <trkpt lat="45.61431" lon="5.37482">
        <ele>322</ele>
        <time>2017-02-11T07:17:46Z</time>
      </trkpt>
      <trkpt lat="45.61426" lon="5.37476">
        <ele>322</ele>
        <time>2017-02-11T07:17:51Z</time>
      </trkpt>
      <trkpt lat="45.61422" lon="5.3747">
        <ele>323</ele>
        <time>2017-02-11T07:17:56Z</time>
      </trkpt>
      <trkpt lat="45.61417" lon="5.37466">
        <ele>323</ele>
        <time>2017-02-11T07:18:00Z</time>
      </trkpt>
      <trkpt lat="45.61414" lon="5.37458">
        <ele>331</ele>
        <time>2017-02-11T07:18:03Z</time>
      </trkpt>
      <trkpt lat="45.61412" lon="5.37449">
        <ele>331</ele>
        <time>2017-02-11T07:18:07Z</time>
      </trkpt>
      <trkpt lat="45.61412" lon="5.37439">
        <ele>332</ele>
        <time>2017-02-11T07:18:11Z</time>
      </trkpt>
      <trkpt lat="45.61409" lon="5.37429">
        <ele>332</ele>
        <time>2017-02-11T07:18:15Z</time>
      </trkpt>
      <trkpt lat="45.61408" lon="5.3742">
        <ele>332</ele>
        <time>2017-02-11T07:18:19Z</time>
      </trkpt>
      <trkpt lat="45.61409" lon="5.3741">
        <ele>335</ele>
        <time>2017-02-11T07:18:23Z</time>
      </trkpt>
      <trkpt lat="45.61409" lon="5.374">
        <ele>336</ele>
        <time>2017-02-11T07:18:29Z</time>
      </trkpt>
      <trkpt lat="45.61407" lon="5.37392">
        <ele>337</ele>
        <time>2017-02-11T07:18:55Z</time>
      </trkpt>
      <trkpt lat="45.61406" lon="5.37359">
        <ele>340</ele>
        <time>2017-02-11T07:19:10Z</time>
      </trkpt>
      <trkpt lat="45.6141" lon="5.37349">
        <ele>341</ele>
        <time>2017-02-11T07:19:11Z</time>
      </trkpt>
      <trkpt lat="45.61409" lon="5.3734">
        <ele>342</ele>
        <time>2017-02-11T07:19:13Z</time>
      </trkpt>
      <trkpt lat="45.61409" lon="5.37329">
        <ele>344</ele>
        <time>2017-02-11T07:19:16Z</time>
      </trkpt>
      <trkpt lat="45.61409" lon="5.37319">
        <ele>345</ele>
        <time>2017-02-11T07:19:20Z</time>
      </trkpt>
      <trkpt lat="45.61407" lon="5.3731">
        <ele>345</ele>
        <time>2017-02-11T07:19:24Z</time>
      </trkpt>
      <trkpt lat="45.61406" lon="5.37302">
        <ele>346</ele>
        <time>2017-02-11T07:19:28Z</time>
      </trkpt>
      <trkpt lat="45.61402" lon="5.37293">
        <ele>346</ele>
        <time>2017-02-11T07:19:32Z</time>
      </trkpt>
      <trkpt lat="45.61398" lon="5.37286">
        <ele>346</ele>
        <time>2017-02-11T07:19:36Z</time>
      </trkpt>
      <trkpt lat="45.614" lon="5.37275">
        <ele>347</ele>
        <time>2017-02-11T07:19:41Z</time>
      </trkpt>
      <trkpt lat="45.61399" lon="5.37265">
        <ele>348</ele>
        <time>2017-02-11T07:19:45Z</time>
      </trkpt>
      <trkpt lat="45.61397" lon="5.37257">
        <ele>348</ele>
        <time>2017-02-11T07:19:49Z</time>
      </trkpt>
      <trkpt lat="45.61395" lon="5.37248">
        <ele>350</ele>
        <time>2017-02-11T07:19:53Z</time>
      </trkpt>
      <trkpt lat="45.61393" lon="5.37239">
        <ele>350</ele>
        <time>2017-02-11T07:19:57Z</time>
      </trkpt>
      <trkpt lat="45.61394" lon="5.37227">
        <ele>350</ele>
        <time>2017-02-11T07:20:01Z</time>
      </trkpt>
      <trkpt lat="45.61395" lon="5.37219">
        <ele>351</ele>
        <time>2017-02-11T07:20:04Z</time>
      </trkpt>
      <trkpt lat="45.61397" lon="5.3721">
        <ele>351</ele>
        <time>2017-02-11T07:20:07Z</time>
      </trkpt>
      <trkpt lat="45.61399" lon="5.37203">
        <ele>351</ele>
        <time>2017-02-11T07:20:10Z</time>
      </trkpt>
      <trkpt lat="45.61403" lon="5.37193">
        <ele>352</ele>
        <time>2017-02-11T07:20:14Z</time>
      </trkpt>
      <trkpt lat="45.61405" lon="5.37185">
        <ele>352</ele>
        <time>2017-02-11T07:20:18Z</time>
      </trkpt>
      <trkpt lat="45.61407" lon="5.37178">
        <ele>353</ele>
        <time>2017-02-11T07:20:21Z</time>
      </trkpt>
      <trkpt lat="45.61411" lon="5.3717">
        <ele>354</ele>
        <time>2017-02-11T07:20:24Z</time>
      </trkpt>
      <trkpt lat="45.61413" lon="5.37162">
        <ele>355</ele>
        <time>2017-02-11T07:20:27Z</time>
      </trkpt>
      <trkpt lat="45.61415" lon="5.37154">
        <ele>354</ele>
        <time>2017-02-11T07:20:30Z</time>
      </trkpt>
      <trkpt lat="45.61417" lon="5.37146">
        <ele>356</ele>
        <time>2017-02-11T07:20:33Z</time>
      </trkpt>
      <trkpt lat="45.61417" lon="5.37135">
        <ele>356</ele>
        <time>2017-02-11T07:20:37Z</time>
      </trkpt>
      <trkpt lat="45.61415" lon="5.37126">
        <ele>354</ele>
        <time>2017-02-11T07:20:53Z</time>
      </trkpt>
      <trkpt lat="45.6141" lon="5.37118">
        <ele>354</ele>
        <time>2017-02-11T07:20:56Z</time>
      </trkpt>
      <trkpt lat="45.61406" lon="5.3711">
        <ele>354</ele>
        <time>2017-02-11T07:20:59Z</time>
      </trkpt>
      <trkpt lat="45.61402" lon="5.37101">
        <ele>354</ele>
        <time>2017-02-11T07:21:02Z</time>
      </trkpt>
      <trkpt lat="45.61399" lon="5.37094">
        <ele>355</ele>
        <time>2017-02-11T07:21:05Z</time>
      </trkpt>
      <trkpt lat="45.61396" lon="5.37085">
        <ele>354</ele>
        <time>2017-02-11T07:21:08Z</time>
      </trkpt>
      <trkpt lat="45.61393" lon="5.37077">
        <ele>355</ele>
        <time>2017-02-11T07:21:11Z</time>
      </trkpt>
      <trkpt lat="45.6139" lon="5.37068">
        <ele>355</ele>
        <time>2017-02-11T07:21:14Z</time>
      </trkpt>
      <trkpt lat="45.61388" lon="5.37058">
        <ele>355</ele>
        <time>2017-02-11T07:21:17Z</time>
      </trkpt>
      <trkpt lat="45.61386" lon="5.37049">
        <ele>355</ele>
        <time>2017-02-11T07:21:20Z</time>
      </trkpt>
      <trkpt lat="45.61383" lon="5.37039">
        <ele>355</ele>
        <time>2017-02-11T07:21:23Z</time>
      </trkpt>
      <trkpt lat="45.6138" lon="5.37028">
        <ele>355</ele>
        <time>2017-02-11T07:21:26Z</time>
      </trkpt>
      <trkpt lat="45.61376" lon="5.3702">
        <ele>354</ele>
        <time>2017-02-11T07:21:29Z</time>
      </trkpt>
      <trkpt lat="45.61373" lon="5.3701">
        <ele>354</ele>
        <time>2017-02-11T07:21:32Z</time>
      </trkpt>
      <trkpt lat="45.61368" lon="5.37001">
        <ele>354</ele>
        <time>2017-02-11T07:21:35Z</time>
      </trkpt>
      <trkpt lat="45.61365" lon="5.36996">
        <ele>355</ele>
        <time>2017-02-11T07:21:37Z</time>
      </trkpt>
      <trkpt lat="45.61361" lon="5.36989">
        <ele>355</ele>
        <time>2017-02-11T07:21:40Z</time>
      </trkpt>
      <trkpt lat="45.61357" lon="5.36983">
        <ele>355</ele>
        <time>2017-02-11T07:21:42Z</time>
      </trkpt>
      <trkpt lat="45.61353" lon="5.36978">
        <ele>355</ele>
        <time>2017-02-11T07:21:44Z</time>
      </trkpt>
      <trkpt lat="45.61345" lon="5.36975">
        <ele>355</ele>
        <time>2017-02-11T07:21:47Z</time>
      </trkpt>
      <trkpt lat="45.61337" lon="5.36975">
        <ele>354</ele>
        <time>2017-02-11T07:21:50Z</time>
      </trkpt>
      <trkpt lat="45.61329" lon="5.36976">
        <ele>355</ele>
        <time>2017-02-11T07:21:53Z</time>
      </trkpt>
      <trkpt lat="45.61321" lon="5.36976">
        <ele>355</ele>
        <time>2017-02-11T07:21:56Z</time>
      </trkpt>
      <trkpt lat="45.61314" lon="5.36977">
        <ele>355</ele>
        <time>2017-02-11T07:21:59Z</time>
      </trkpt>
      <trkpt lat="45.61305" lon="5.36979">
        <ele>356</ele>
        <time>2017-02-11T07:22:03Z</time>
      </trkpt>
      <trkpt lat="45.61298" lon="5.36978">
        <ele>356</ele>
        <time>2017-02-11T07:22:07Z</time>
      </trkpt>
      <trkpt lat="45.6129" lon="5.36978">
        <ele>356</ele>
        <time>2017-02-11T07:22:11Z</time>
      </trkpt>
      <trkpt lat="45.61282" lon="5.3698">
        <ele>356</ele>
        <time>2017-02-11T07:22:15Z</time>
      </trkpt>
      <trkpt lat="45.61274" lon="5.36981">
        <ele>356</ele>
        <time>2017-02-11T07:22:18Z</time>
      </trkpt>
      <trkpt lat="45.61269" lon="5.36984">
        <ele>357</ele>
        <time>2017-02-11T07:22:20Z</time>
      </trkpt>
      <trkpt lat="45.61261" lon="5.36988">
        <ele>357</ele>
        <time>2017-02-11T07:22:23Z</time>
      </trkpt>
      <trkpt lat="45.61254" lon="5.36993">
        <ele>357</ele>
        <time>2017-02-11T07:22:26Z</time>
      </trkpt>
      <trkpt lat="45.61248" lon="5.36997">
        <ele>357</ele>
        <time>2017-02-11T07:22:29Z</time>
      </trkpt>
      <trkpt lat="45.61244" lon="5.37002">
        <ele>357</ele>
        <time>2017-02-11T07:22:31Z</time>
      </trkpt>
      <trkpt lat="45.61239" lon="5.37006">
        <ele>357</ele>
        <time>2017-02-11T07:22:33Z</time>
      </trkpt>
      <trkpt lat="45.61233" lon="5.3701">
        <ele>357</ele>
        <time>2017-02-11T07:22:36Z</time>
      </trkpt>
      <trkpt lat="45.61226" lon="5.3701">
        <ele>357</ele>
        <time>2017-02-11T07:22:39Z</time>
      </trkpt>
      <trkpt lat="45.61219" lon="5.37011">
        <ele>357</ele>
        <time>2017-02-11T07:22:42Z</time>
      </trkpt>
      <trkpt lat="45.61212" lon="5.37012">
        <ele>357</ele>
        <time>2017-02-11T07:22:45Z</time>
      </trkpt>
      <trkpt lat="45.61206" lon="5.37015">
        <ele>357</ele>
        <time>2017-02-11T07:22:48Z</time>
      </trkpt>
      <trkpt lat="45.61201" lon="5.37019">
        <ele>357</ele>
        <time>2017-02-11T07:22:51Z</time>
      </trkpt>
      <trkpt lat="45.61198" lon="5.37027">
        <ele>357</ele>
        <time>2017-02-11T07:22:54Z</time>
      </trkpt>
      <trkpt lat="45.61195" lon="5.37035">
        <ele>357</ele>
        <time>2017-02-11T07:22:57Z</time>
      </trkpt>
      <trkpt lat="45.61193" lon="5.37044">
        <ele>357</ele>
        <time>2017-02-11T07:23:00Z</time>
      </trkpt>
      <trkpt lat="45.61193" lon="5.37056">
        <ele>357</ele>
        <time>2017-02-11T07:23:04Z</time>
      </trkpt>
      <trkpt lat="45.61191" lon="5.37062">
        <ele>357</ele>
        <time>2017-02-11T07:23:07Z</time>
      </trkpt>
      <trkpt lat="45.61188" lon="5.37071">
        <ele>357</ele>
        <time>2017-02-11T07:23:11Z</time>
      </trkpt>
      <trkpt lat="45.61188" lon="5.37083">
        <ele>357</ele>
        <time>2017-02-11T07:23:15Z</time>
      </trkpt>
      <trkpt lat="45.61188" lon="5.37093">
        <ele>356</ele>
        <time>2017-02-11T07:23:18Z</time>
      </trkpt>
      <trkpt lat="45.61188" lon="5.37103">
        <ele>355</ele>
        <time>2017-02-11T07:23:21Z</time>
      </trkpt>
      <trkpt lat="45.61188" lon="5.37116">
        <ele>355</ele>
        <time>2017-02-11T07:23:25Z</time>
      </trkpt>
      <trkpt lat="45.61187" lon="5.37129">
        <ele>355</ele>
        <time>2017-02-11T07:23:28Z</time>
      </trkpt>
      <trkpt lat="45.61186" lon="5.37139">
        <ele>355</ele>
        <time>2017-02-11T07:23:31Z</time>
      </trkpt>
      <trkpt lat="45.61187" lon="5.37152">
        <ele>355</ele>
        <time>2017-02-11T07:23:35Z</time>
      </trkpt>
      <trkpt lat="45.61186" lon="5.37164">
        <ele>355</ele>
        <time>2017-02-11T07:23:38Z</time>
      </trkpt>
      <trkpt lat="45.61184" lon="5.37175">
        <ele>354</ele>
        <time>2017-02-11T07:23:41Z</time>
      </trkpt>
      <trkpt lat="45.61182" lon="5.37185">
        <ele>354</ele>
        <time>2017-02-11T07:23:44Z</time>
      </trkpt>
      <trkpt lat="45.61181" lon="5.37195">
        <ele>353</ele>
        <time>2017-02-11T07:23:47Z</time>
      </trkpt>
      <trkpt lat="45.61178" lon="5.37206">
        <ele>353</ele>
        <time>2017-02-11T07:23:50Z</time>
      </trkpt>
      <trkpt lat="45.61176" lon="5.37214">
        <ele>353</ele>
        <time>2017-02-11T07:23:52Z</time>
      </trkpt>
      <trkpt lat="45.61173" lon="5.3722">
        <ele>353</ele>
        <time>2017-02-11T07:23:54Z</time>
      </trkpt>
      <trkpt lat="45.6117" lon="5.37227">
        <ele>353</ele>
        <time>2017-02-11T07:23:56Z</time>
      </trkpt>
      <trkpt lat="45.61167" lon="5.37234">
        <ele>354</ele>
        <time>2017-02-11T07:23:58Z</time>
      </trkpt>
      <trkpt lat="45.61164" lon="5.3724">
        <ele>357</ele>
        <time>2017-02-11T07:24:00Z</time>
      </trkpt>
      <trkpt lat="45.6116" lon="5.37246">
        <ele>356</ele>
        <time>2017-02-11T07:24:02Z</time>
      </trkpt>
      <trkpt lat="45.61157" lon="5.37252">
        <ele>357</ele>
        <time>2017-02-11T07:24:04Z</time>
      </trkpt>
      <trkpt lat="45.61152" lon="5.37259">
        <ele>357</ele>
        <time>2017-02-11T07:24:07Z</time>
      </trkpt>
      <trkpt lat="45.61149" lon="5.37265">
        <ele>358</ele>
        <time>2017-02-11T07:24:09Z</time>
      </trkpt>
      <trkpt lat="45.61145" lon="5.37273">
        <ele>358</ele>
        <time>2017-02-11T07:24:12Z</time>
      </trkpt>
      <trkpt lat="45.61142" lon="5.37282">
        <ele>359</ele>
        <time>2017-02-11T07:24:15Z</time>
      </trkpt>
      <trkpt lat="45.61139" lon="5.37292">
        <ele>359</ele>
        <time>2017-02-11T07:24:18Z</time>
      </trkpt>
      <trkpt lat="45.61136" lon="5.373">
        <ele>359</ele>
        <time>2017-02-11T07:24:21Z</time>
      </trkpt>
      <trkpt lat="45.61133" lon="5.37309">
        <ele>359</ele>
        <time>2017-02-11T07:24:24Z</time>
      </trkpt>
      <trkpt lat="45.61129" lon="5.37318">
        <ele>359</ele>
        <time>2017-02-11T07:24:27Z</time>
      </trkpt>
      <trkpt lat="45.61127" lon="5.37325">
        <ele>359</ele>
        <time>2017-02-11T07:24:29Z</time>
      </trkpt>
      <trkpt lat="45.61123" lon="5.37333">
        <ele>360</ele>
        <time>2017-02-11T07:24:32Z</time>
      </trkpt>
      <trkpt lat="45.61121" lon="5.37341">
        <ele>359</ele>
        <time>2017-02-11T07:24:35Z</time>
      </trkpt>
      <trkpt lat="45.61117" lon="5.37349">
        <ele>359</ele>
        <time>2017-02-11T07:24:38Z</time>
      </trkpt>
      <trkpt lat="45.61116" lon="5.37357">
        <ele>359</ele>
        <time>2017-02-11T07:24:41Z</time>
      </trkpt>
      <trkpt lat="45.61113" lon="5.37366">
        <ele>359</ele>
        <time>2017-02-11T07:24:44Z</time>
      </trkpt>
      <trkpt lat="45.61111" lon="5.37374">
        <ele>359</ele>
        <time>2017-02-11T07:24:47Z</time>
      </trkpt>
      <trkpt lat="45.61109" lon="5.37383">
        <ele>359</ele>
        <time>2017-02-11T07:24:50Z</time>
      </trkpt>
      <trkpt lat="45.61107" lon="5.37392">
        <ele>359</ele>
        <time>2017-02-11T07:24:53Z</time>
      </trkpt>
      <trkpt lat="45.61104" lon="5.37398">
        <ele>359</ele>
        <time>2017-02-11T07:24:55Z</time>
      </trkpt>
      <trkpt lat="45.61102" lon="5.37406">
        <ele>360</ele>
        <time>2017-02-11T07:24:58Z</time>
      </trkpt>
      <trkpt lat="45.611" lon="5.37413">
        <ele>360</ele>
        <time>2017-02-11T07:25:01Z</time>
      </trkpt>
      <trkpt lat="45.61093" lon="5.37416">
        <ele>360</ele>
        <time>2017-02-11T07:25:05Z</time>
      </trkpt>
      <trkpt lat="45.61088" lon="5.37412">
        <ele>360</ele>
        <time>2017-02-11T07:25:08Z</time>
      </trkpt>
      <trkpt lat="45.61082" lon="5.37408">
        <ele>362</ele>
        <time>2017-02-11T07:25:12Z</time>
      </trkpt>
      <trkpt lat="45.61076" lon="5.37405">
        <ele>362</ele>
        <time>2017-02-11T07:25:15Z</time>
      </trkpt>
      <trkpt lat="45.6107" lon="5.37403">
        <ele>362</ele>
        <time>2017-02-11T07:25:18Z</time>
      </trkpt>
      <trkpt lat="45.61062" lon="5.37401">
        <ele>363</ele>
        <time>2017-02-11T07:25:21Z</time>
      </trkpt>
      <trkpt lat="45.61055" lon="5.37399">
        <ele>363</ele>
        <time>2017-02-11T07:25:24Z</time>
      </trkpt>
      <trkpt lat="45.6105" lon="5.37395">
        <ele>363</ele>
        <time>2017-02-11T07:25:27Z</time>
      </trkpt>
      <trkpt lat="45.61045" lon="5.37392">
        <ele>363</ele>
        <time>2017-02-11T07:25:29Z</time>
      </trkpt>
      <trkpt lat="45.61038" lon="5.3739">
        <ele>363</ele>
        <time>2017-02-11T07:25:32Z</time>
      </trkpt>
      <trkpt lat="45.6103" lon="5.37389">
        <ele>363</ele>
        <time>2017-02-11T07:25:36Z</time>
      </trkpt>
      <trkpt lat="45.61024" lon="5.37392">
        <ele>364</ele>
        <time>2017-02-11T07:25:39Z</time>
      </trkpt>
      <trkpt lat="45.61017" lon="5.37392">
        <ele>364</ele>
        <time>2017-02-11T07:25:43Z</time>
      </trkpt>
      <trkpt lat="45.61013" lon="5.37398">
        <ele>364</ele>
        <time>2017-02-11T07:25:47Z</time>
      </trkpt>
      <trkpt lat="45.61006" lon="5.37398">
        <ele>364</ele>
        <time>2017-02-11T07:25:51Z</time>
      </trkpt>
      <trkpt lat="45.61" lon="5.37402">
        <ele>364</ele>
        <time>2017-02-11T07:25:56Z</time>
      </trkpt>
      <trkpt lat="45.60995" lon="5.37406">
        <ele>367</ele>
        <time>2017-02-11T07:25:59Z</time>
      </trkpt>
      <trkpt lat="45.60987" lon="5.37405">
        <ele>368</ele>
        <time>2017-02-11T07:26:03Z</time>
      </trkpt>
      <trkpt lat="45.60978" lon="5.37407">
        <ele>369</ele>
        <time>2017-02-11T07:26:07Z</time>
      </trkpt>
      <trkpt lat="45.6097" lon="5.37408">
        <ele>370</ele>
        <time>2017-02-11T07:26:11Z</time>
      </trkpt>
      <trkpt lat="45.60962" lon="5.37408">
        <ele>371</ele>
        <time>2017-02-11T07:26:15Z</time>
      </trkpt>
      <trkpt lat="45.60955" lon="5.37406">
        <ele>372</ele>
        <time>2017-02-11T07:26:20Z</time>
      </trkpt>
      <trkpt lat="45.60947" lon="5.37402">
        <ele>373</ele>
        <time>2017-02-11T07:26:24Z</time>
      </trkpt>
      <trkpt lat="45.60942" lon="5.374">
        <ele>373</ele>
        <time>2017-02-11T07:26:27Z</time>
      </trkpt>
      <trkpt lat="45.60933" lon="5.374">
        <ele>374</ele>
        <time>2017-02-11T07:26:31Z</time>
      </trkpt>
      <trkpt lat="45.60926" lon="5.37397">
        <ele>374</ele>
        <time>2017-02-11T07:26:35Z</time>
      </trkpt>
      <trkpt lat="45.60915" lon="5.3739">
        <ele>381</ele>
        <time>2017-02-11T07:26:41Z</time>
      </trkpt>
      <trkpt lat="45.60909" lon="5.37385">
        <ele>382</ele>
        <time>2017-02-11T07:26:44Z</time>
      </trkpt>
      <trkpt lat="45.60903" lon="5.37383">
        <ele>382</ele>
        <time>2017-02-11T07:26:48Z</time>
      </trkpt>
      <trkpt lat="45.60897" lon="5.3738">
        <ele>382</ele>
        <time>2017-02-11T07:26:52Z</time>
      </trkpt>
      <trkpt lat="45.60891" lon="5.37377">
        <ele>383</ele>
        <time>2017-02-11T07:26:56Z</time>
      </trkpt>
      <trkpt lat="45.60884" lon="5.37373">
        <ele>383</ele>
        <time>2017-02-11T07:27:00Z</time>
      </trkpt>
      <trkpt lat="45.60877" lon="5.37371">
        <ele>384</ele>
        <time>2017-02-11T07:27:03Z</time>
      </trkpt>
      <trkpt lat="45.60872" lon="5.37368">
        <ele>384</ele>
        <time>2017-02-11T07:27:06Z</time>
      </trkpt>
      <trkpt lat="45.60865" lon="5.37365">
        <ele>384</ele>
        <time>2017-02-11T07:27:10Z</time>
      </trkpt>
      <trkpt lat="45.60859" lon="5.37361">
        <ele>385</ele>
        <time>2017-02-11T07:27:14Z</time>
      </trkpt>
      <trkpt lat="45.60853" lon="5.37359">
        <ele>385</ele>
        <time>2017-02-11T07:27:19Z</time>
      </trkpt>
      <trkpt lat="45.60845" lon="5.37358">
        <ele>386</ele>
        <time>2017-02-11T07:27:23Z</time>
      </trkpt>
      <trkpt lat="45.60839" lon="5.37356">
        <ele>386</ele>
        <time>2017-02-11T07:27:26Z</time>
      </trkpt>
      <trkpt lat="45.60832" lon="5.37358">
        <ele>390</ele>
        <time>2017-02-11T07:27:30Z</time>
      </trkpt>
      <trkpt lat="45.60824" lon="5.37359">
        <ele>390</ele>
        <time>2017-02-11T07:27:33Z</time>
      </trkpt>
      <trkpt lat="45.60818" lon="5.37358">
        <ele>391</ele>
        <time>2017-02-11T07:27:37Z</time>
      </trkpt>
      <trkpt lat="45.6081" lon="5.37355">
        <ele>391</ele>
        <time>2017-02-11T07:27:42Z</time>
      </trkpt>
      <trkpt lat="45.60805" lon="5.37353">
        <ele>391</ele>
        <time>2017-02-11T07:27:45Z</time>
      </trkpt>
      <trkpt lat="45.60798" lon="5.37348">
        <ele>391</ele>
        <time>2017-02-11T07:27:48Z</time>
      </trkpt>
      <trkpt lat="45.60792" lon="5.37345">
        <ele>391</ele>
        <time>2017-02-11T07:27:51Z</time>
      </trkpt>
      <trkpt lat="45.60786" lon="5.37341">
        <ele>392</ele>
        <time>2017-02-11T07:27:54Z</time>
      </trkpt>
      <trkpt lat="45.6078" lon="5.37338">
        <ele>392</ele>
        <time>2017-02-11T07:27:57Z</time>
      </trkpt>
      <trkpt lat="45.60774" lon="5.37335">
        <ele>392</ele>
        <time>2017-02-11T07:28:00Z</time>
      </trkpt>
      <trkpt lat="45.60768" lon="5.37332">
        <ele>392</ele>
        <time>2017-02-11T07:28:03Z</time>
      </trkpt>
      <trkpt lat="45.60761" lon="5.37331">
        <ele>392</ele>
        <time>2017-02-11T07:28:06Z</time>
      </trkpt>
      <trkpt lat="45.60754" lon="5.37328">
        <ele>392</ele>
        <time>2017-02-11T07:28:10Z</time>
      </trkpt>
      <trkpt lat="45.60749" lon="5.37325">
        <ele>394</ele>
        <time>2017-02-11T07:28:13Z</time>
      </trkpt>
      <trkpt lat="45.60742" lon="5.37324">
        <ele>395</ele>
        <time>2017-02-11T07:28:17Z</time>
      </trkpt>
      <trkpt lat="45.60737" lon="5.37321">
        <ele>395</ele>
        <time>2017-02-11T07:28:20Z</time>
      </trkpt>
      <trkpt lat="45.60732" lon="5.37316">
        <ele>396</ele>
        <time>2017-02-11T07:28:23Z</time>
      </trkpt>
      <trkpt lat="45.60726" lon="5.37313">
        <ele>396</ele>
        <time>2017-02-11T07:28:26Z</time>
      </trkpt>
      <trkpt lat="45.60719" lon="5.37311">
        <ele>396</ele>
        <time>2017-02-11T07:28:29Z</time>
      </trkpt>
      <trkpt lat="45.6071" lon="5.37311">
        <ele>397</ele>
        <time>2017-02-11T07:28:33Z</time>
      </trkpt>
      <trkpt lat="45.60706" lon="5.37307">
        <ele>397</ele>
        <time>2017-02-11T07:28:35Z</time>
      </trkpt>
      <trkpt lat="45.607" lon="5.37305">
        <ele>397</ele>
        <time>2017-02-11T07:28:38Z</time>
      </trkpt>
      <trkpt lat="45.60692" lon="5.37305">
        <ele>398</ele>
        <time>2017-02-11T07:28:42Z</time>
      </trkpt>
      <trkpt lat="45.60683" lon="5.37307">
        <ele>398</ele>
        <time>2017-02-11T07:28:45Z</time>
      </trkpt>
      <trkpt lat="45.60676" lon="5.37307">
        <ele>398</ele>
        <time>2017-02-11T07:28:48Z</time>
      </trkpt>
      <trkpt lat="45.60669" lon="5.37309">
        <ele>398</ele>
        <time>2017-02-11T07:28:51Z</time>
      </trkpt>
      <trkpt lat="45.60661" lon="5.37307">
        <ele>400</ele>
        <time>2017-02-11T07:28:55Z</time>
      </trkpt>
      <trkpt lat="45.60654" lon="5.37303">
        <ele>400</ele>
        <time>2017-02-11T07:28:59Z</time>
      </trkpt>
      <trkpt lat="45.60649" lon="5.373">
        <ele>400</ele>
        <time>2017-02-11T07:29:02Z</time>
      </trkpt>
      <trkpt lat="45.60643" lon="5.37297">
        <ele>399</ele>
        <time>2017-02-11T07:29:05Z</time>
      </trkpt>
      <trkpt lat="45.60638" lon="5.37292">
        <ele>399</ele>
        <time>2017-02-11T07:29:08Z</time>
      </trkpt>
      <trkpt lat="45.60632" lon="5.37288">
        <ele>399</ele>
        <time>2017-02-11T07:29:11Z</time>
      </trkpt>
      <trkpt lat="45.60628" lon="5.37282">
        <ele>399</ele>
        <time>2017-02-11T07:29:14Z</time>
      </trkpt>
      <trkpt lat="45.60627" lon="5.37272">
        <ele>400</ele>
        <time>2017-02-11T07:30:02Z</time>
      </trkpt>
      <trkpt lat="45.60628" lon="5.37293">
        <ele>405.33</ele>
        <time>2017-02-11T07:31:10Z</time>
      </trkpt>
      <trkpt lat="45.6063" lon="5.37316">
        <ele>404.85</ele>
        <time>2017-02-11T07:31:16Z</time>
      </trkpt>
      <trkpt lat="45.60631" lon="5.37333">
        <ele>404.37</ele>
        <time>2017-02-11T07:31:21Z</time>
      </trkpt>
      <trkpt lat="45.60635" lon="5.37351">
        <ele>403.89</ele>
        <time>2017-02-11T07:31:26Z</time>
      </trkpt>
      <trkpt lat="45.60637" lon="5.3737">
        <ele>401.97</ele>
        <time>2017-02-11T07:31:32Z</time>
      </trkpt>
      <trkpt lat="45.60642" lon="5.37388">
        <ele>401.49</ele>
        <time>2017-02-11T07:31:38Z</time>
      </trkpt>
      <trkpt lat="45.60648" lon="5.37415">
        <ele>400.53</ele>
        <time>2017-02-11T07:31:46Z</time>
      </trkpt>
      <trkpt lat="45.60653" lon="5.37446">
        <ele>399.08</ele>
        <time>2017-02-11T07:31:55Z</time>
      </trkpt>
      <trkpt lat="45.60659" lon="5.37473">
        <ele>397.64</ele>
        <time>2017-02-11T07:32:03Z</time>
      </trkpt>
      <trkpt lat="45.60667" lon="5.37501">
        <ele>396.68</ele>
        <time>2017-02-11T07:32:12Z</time>
      </trkpt>
      <trkpt lat="45.60676" lon="5.37523">
        <ele>397.16</ele>
        <time>2017-02-11T07:32:20Z</time>
      </trkpt>
      <trkpt lat="45.60686" lon="5.37543">
        <ele>397.64</ele>
        <time>2017-02-11T07:32:27Z</time>
      </trkpt>
      <trkpt lat="45.60694" lon="5.37559">
        <ele>397.64</ele>
        <time>2017-02-11T07:32:33Z</time>
      </trkpt>
      <trkpt lat="45.60701" lon="5.37578">
        <ele>396.68</ele>
        <time>2017-02-11T07:32:39Z</time>
      </trkpt>
      <trkpt lat="45.60704" lon="5.37599">
        <ele>393.8</ele>
        <time>2017-02-11T07:32:45Z</time>
      </trkpt>
      <trkpt lat="45.60706" lon="5.37618">
        <ele>391.87</ele>
        <time>2017-02-11T07:32:50Z</time>
      </trkpt>
      <trkpt lat="45.60707" lon="5.37635">
        <ele>389.95</ele>
        <time>2017-02-11T07:32:55Z</time>
      </trkpt>
      <trkpt lat="45.60709" lon="5.37653">
        <ele>388.99</ele>
        <time>2017-02-11T07:33:00Z</time>
      </trkpt>
      <trkpt lat="45.60711" lon="5.37674">
        <ele>387.55</ele>
        <time>2017-02-11T07:33:06Z</time>
      </trkpt>
      <trkpt lat="45.60712" lon="5.377">
        <ele>385.63</ele>
        <time>2017-02-11T07:33:13Z</time>
      </trkpt>
      <trkpt lat="45.60717" lon="5.3772">
        <ele>382.26</ele>
        <time>2017-02-11T07:33:19Z</time>
      </trkpt>
      <trkpt lat="45.60721" lon="5.37742">
        <ele>379.86</ele>
        <time>2017-02-11T07:33:26Z</time>
      </trkpt>
      <trkpt lat="45.60723" lon="5.3777">
        <ele>376.97</ele>
        <time>2017-02-11T07:33:32Z</time>
      </trkpt>
      <trkpt lat="45.60722" lon="5.37787">
        <ele>374.57</ele>
        <time>2017-02-11T07:33:37Z</time>
      </trkpt>
      <trkpt lat="45.60723" lon="5.37809">
        <ele>371.69</ele>
        <time>2017-02-11T07:33:43Z</time>
      </trkpt>
      <trkpt lat="45.6073" lon="5.37823">
        <ele>369.28</ele>
        <time>2017-02-11T07:33:48Z</time>
      </trkpt>
      <trkpt lat="45.60732" lon="5.37845">
        <ele>367.36</ele>
        <time>2017-02-11T07:33:54Z</time>
      </trkpt>
      <trkpt lat="45.60734" lon="5.37866">
        <ele>364.48</ele>
        <time>2017-02-11T07:33:59Z</time>
      </trkpt>
      <trkpt lat="45.60736" lon="5.37887">
        <ele>361.59</ele>
        <time>2017-02-11T07:34:05Z</time>
      </trkpt>
      <trkpt lat="45.60737" lon="5.37912">
        <ele>358.71</ele>
        <time>2017-02-11T07:34:12Z</time>
      </trkpt>
      <trkpt lat="45.60739" lon="5.3793">
        <ele>356.79</ele>
        <time>2017-02-11T07:34:17Z</time>
      </trkpt>
      <trkpt lat="45.6074" lon="5.37946">
        <ele>355.34</ele>
        <time>2017-02-11T07:34:22Z</time>
      </trkpt>
      <trkpt lat="45.60741" lon="5.37968">
        <ele>353.42</ele>
        <time>2017-02-11T07:34:28Z</time>
      </trkpt>
      <trkpt lat="45.60738" lon="5.37992">
        <ele>351.02</ele>
        <time>2017-02-11T07:34:35Z</time>
      </trkpt>
      <trkpt lat="45.60737" lon="5.38016">
        <ele>349.1</ele>
        <time>2017-02-11T07:34:41Z</time>
      </trkpt>
      <trkpt lat="45.60734" lon="5.38039">
        <ele>346.21</ele>
        <time>2017-02-11T07:34:47Z</time>
      </trkpt>
      <trkpt lat="45.6073" lon="5.38055">
        <ele>344.29</ele>
        <time>2017-02-11T07:34:54Z</time>
      </trkpt>
      <trkpt lat="45.60711" lon="5.38038">
        <ele>344.77</ele>
        <time>2017-02-11T07:35:13Z</time>
      </trkpt>
      <trkpt lat="45.60701" lon="5.3804">
        <ele>344.77</ele>
        <time>2017-02-11T07:35:17Z</time>
      </trkpt>
      <trkpt lat="45.60693" lon="5.38043">
        <ele>344.29</ele>
        <time>2017-02-11T07:35:22Z</time>
      </trkpt>
      <trkpt lat="45.6068" lon="5.38052">
        <ele>344.29</ele>
        <time>2017-02-11T07:35:29Z</time>
      </trkpt>
      <trkpt lat="45.60665" lon="5.38057">
        <ele>344.29</ele>
        <time>2017-02-11T07:35:37Z</time>
      </trkpt>
      <trkpt lat="45.60652" lon="5.38059">
        <ele>344.77</ele>
        <time>2017-02-11T07:35:42Z</time>
      </trkpt>
      <trkpt lat="45.60641" lon="5.38054">
        <ele>345.25</ele>
        <time>2017-02-11T07:35:46Z</time>
      </trkpt>
      <trkpt lat="45.60625" lon="5.38035">
        <ele>347.17</ele>
        <time>2017-02-11T07:35:55Z</time>
      </trkpt>
      <trkpt lat="45.60617" lon="5.38026">
        <ele>347.65</ele>
        <time>2017-02-11T07:36:00Z</time>
      </trkpt>
      <trkpt lat="45.60606" lon="5.38019">
        <ele>349.58</ele>
        <time>2017-02-11T07:36:06Z</time>
      </trkpt>
      <trkpt lat="45.60595" lon="5.38017">
        <ele>351.5</ele>
        <time>2017-02-11T07:36:14Z</time>
      </trkpt>
      <trkpt lat="45.60585" lon="5.38013">
        <ele>352.94</ele>
        <time>2017-02-11T07:36:22Z</time>
      </trkpt>
      <trkpt lat="45.60577" lon="5.38012">
        <ele>355.34</ele>
        <time>2017-02-11T07:36:30Z</time>
      </trkpt>
      <trkpt lat="45.60564" lon="5.38012">
        <ele>358.23</ele>
        <time>2017-02-11T07:36:41Z</time>
      </trkpt>
      <trkpt lat="45.60551" lon="5.38011">
        <ele>361.11</ele>
        <time>2017-02-11T07:36:53Z</time>
      </trkpt>
      <trkpt lat="45.60537" lon="5.38009">
        <ele>364</ele>
        <time>2017-02-11T07:37:04Z</time>
      </trkpt>
      <trkpt lat="45.60528" lon="5.38011">
        <ele>365.92</ele>
        <time>2017-02-11T07:37:13Z</time>
      </trkpt>
      <trkpt lat="45.60509" lon="5.38014">
        <ele>369.28</ele>
        <time>2017-02-11T07:37:26Z</time>
      </trkpt>
      <trkpt lat="45.60492" lon="5.38018">
        <ele>372.17</ele>
        <time>2017-02-11T07:37:38Z</time>
      </trkpt>
      <trkpt lat="45.60484" lon="5.38022">
        <ele>374.09</ele>
        <time>2017-02-11T07:37:45Z</time>
      </trkpt>
      <trkpt lat="45.6047" lon="5.38031">
        <ele>376.49</ele>
        <time>2017-02-11T07:37:57Z</time>
      </trkpt>
      <trkpt lat="45.60456" lon="5.38039">
        <ele>379.38</ele>
        <time>2017-02-11T07:38:08Z</time>
      </trkpt>
      <trkpt lat="45.60448" lon="5.38047">
        <ele>381.3</ele>
        <time>2017-02-11T07:38:16Z</time>
      </trkpt>
      <trkpt lat="45.60443" lon="5.38056">
        <ele>383.22</ele>
        <time>2017-02-11T07:38:23Z</time>
      </trkpt>
      <trkpt lat="45.60439" lon="5.38067">
        <ele>384.66</ele>
        <time>2017-02-11T07:38:30Z</time>
      </trkpt>
      <trkpt lat="45.60433" lon="5.38075">
        <ele>386.59</ele>
        <time>2017-02-11T07:38:37Z</time>
      </trkpt>
      <trkpt lat="45.60429" lon="5.38081">
        <ele>387.55</ele>
        <time>2017-02-11T07:38:46Z</time>
      </trkpt>
      <trkpt lat="45.60422" lon="5.38087">
        <ele>388.99</ele>
        <time>2017-02-11T07:38:55Z</time>
      </trkpt>
      <trkpt lat="45.60414" lon="5.38103">
        <ele>390.43</ele>
        <time>2017-02-11T07:39:05Z</time>
      </trkpt>
      <trkpt lat="45.60405" lon="5.38111">
        <ele>391.87</ele>
        <time>2017-02-11T07:39:13Z</time>
      </trkpt>
      <trkpt lat="45.60399" lon="5.38115">
        <ele>393.32</ele>
        <time>2017-02-11T07:39:19Z</time>
      </trkpt>
      <trkpt lat="45.60392" lon="5.3812">
        <ele>394.76</ele>
        <time>2017-02-11T07:39:26Z</time>
      </trkpt>
      <trkpt lat="45.60384" lon="5.3812">
        <ele>396.68</ele>
        <time>2017-02-11T07:39:32Z</time>
      </trkpt>
      <trkpt lat="45.60374" lon="5.38119">
        <ele>397.64</ele>
        <time>2017-02-11T07:39:39Z</time>
      </trkpt>
      <trkpt lat="45.60363" lon="5.38115">
        <ele>399.57</ele>
        <time>2017-02-11T07:39:49Z</time>
      </trkpt>
      <trkpt lat="45.60373" lon="5.38123">
        <ele>398.6</ele>
        <time>2017-02-11T07:39:58Z</time>
      </trkpt>
      <trkpt lat="45.6038" lon="5.38135">
        <ele>398.12</ele>
        <time>2017-02-11T07:40:04Z</time>
      </trkpt>
      <trkpt lat="45.6038" lon="5.38146">
        <ele>398.6</ele>
        <time>2017-02-11T07:40:08Z</time>
      </trkpt>
      <trkpt lat="45.60379" lon="5.38172">
        <ele>400.05</ele>
        <time>2017-02-11T07:40:17Z</time>
      </trkpt>
      <trkpt lat="45.6038" lon="5.38191">
        <ele>400.53</ele>
        <time>2017-02-11T07:40:23Z</time>
      </trkpt>
      <trkpt lat="45.60381" lon="5.38213">
        <ele>401.49</ele>
        <time>2017-02-11T07:40:31Z</time>
      </trkpt>
      <trkpt lat="45.60381" lon="5.38233">
        <ele>401.97</ele>
        <time>2017-02-11T07:40:37Z</time>
      </trkpt>
      <trkpt lat="45.60384" lon="5.38251">
        <ele>402.45</ele>
        <time>2017-02-11T07:40:43Z</time>
      </trkpt>
      <trkpt lat="45.60385" lon="5.38266">
        <ele>402.93</ele>
        <time>2017-02-11T07:40:48Z</time>
      </trkpt>
      <trkpt lat="45.60386" lon="5.38286">
        <ele>403.41</ele>
        <time>2017-02-11T07:40:55Z</time>
      </trkpt>
      <trkpt lat="45.60385" lon="5.38305">
        <ele>403.89</ele>
        <time>2017-02-11T07:41:01Z</time>
      </trkpt>
      <trkpt lat="45.60384" lon="5.38322">
        <ele>404.85</ele>
        <time>2017-02-11T07:41:07Z</time>
      </trkpt>
      <trkpt lat="45.60382" lon="5.3834">
        <ele>405.81</ele>
        <time>2017-02-11T07:41:13Z</time>
      </trkpt>
      <trkpt lat="45.60379" lon="5.38363">
        <ele>406.29</ele>
        <time>2017-02-11T07:41:21Z</time>
      </trkpt>
      <trkpt lat="45.60377" lon="5.38376">
        <ele>406.77</ele>
        <time>2017-02-11T07:41:26Z</time>
      </trkpt>
      <trkpt lat="45.60375" lon="5.38386">
        <ele>407.26</ele>
        <time>2017-02-11T07:41:30Z</time>
      </trkpt>
      <trkpt lat="45.60374" lon="5.38397">
        <ele>407.74</ele>
        <time>2017-02-11T07:41:34Z</time>
      </trkpt>
      <trkpt lat="45.60372" lon="5.38408">
        <ele>409.18</ele>
        <time>2017-02-11T07:41:38Z</time>
      </trkpt>
      <trkpt lat="45.60371" lon="5.38422">
        <ele>409.66</ele>
        <time>2017-02-11T07:41:43Z</time>
      </trkpt>
      <trkpt lat="45.60366" lon="5.38441">
        <ele>410.62</ele>
        <time>2017-02-11T07:41:51Z</time>
      </trkpt>
      <trkpt lat="45.60361" lon="5.38457">
        <ele>411.58</ele>
        <time>2017-02-11T07:41:58Z</time>
      </trkpt>
      <trkpt lat="45.60357" lon="5.38477">
        <ele>412.06</ele>
        <time>2017-02-11T07:42:05Z</time>
      </trkpt>
      <trkpt lat="45.60351" lon="5.38503">
        <ele>413.02</ele>
        <time>2017-02-11T07:42:13Z</time>
      </trkpt>
      <trkpt lat="45.60347" lon="5.38521">
        <ele>413.98</ele>
        <time>2017-02-11T07:42:20Z</time>
      </trkpt>
      <trkpt lat="45.6034" lon="5.38546">
        <ele>414.47</ele>
        <time>2017-02-11T07:42:30Z</time>
      </trkpt>
      <trkpt lat="45.60334" lon="5.38563">
        <ele>414.95</ele>
        <time>2017-02-11T07:42:37Z</time>
      </trkpt>
      <trkpt lat="45.60328" lon="5.38588">
        <ele>415.43</ele>
        <time>2017-02-11T07:42:45Z</time>
      </trkpt>
      <trkpt lat="45.60324" lon="5.38616">
        <ele>415.91</ele>
        <time>2017-02-11T07:42:54Z</time>
      </trkpt>
      <trkpt lat="45.60325" lon="5.38641">
        <ele>415.91</ele>
        <time>2017-02-11T07:43:03Z</time>
      </trkpt>
      <trkpt lat="45.60332" lon="5.3864">
        <ele>415.91</ele>
        <time>2017-02-11T07:43:07Z</time>
      </trkpt>
      <trkpt lat="45.60341" lon="5.3866">
        <ele>414.47</ele>
        <time>2017-02-11T07:43:17Z</time>
      </trkpt>
      <trkpt lat="45.60346" lon="5.38698">
        <ele>413.02</ele>
        <time>2017-02-11T07:43:30Z</time>
      </trkpt>
      <trkpt lat="45.6035" lon="5.3872">
        <ele>412.54</ele>
        <time>2017-02-11T07:43:37Z</time>
      </trkpt>
      <trkpt lat="45.60352" lon="5.38751">
        <ele>412.06</ele>
        <time>2017-02-11T07:43:47Z</time>
      </trkpt>
      <trkpt lat="45.60349" lon="5.38776">
        <ele>412.54</ele>
        <time>2017-02-11T07:43:56Z</time>
      </trkpt>
      <trkpt lat="45.60342" lon="5.38801">
        <ele>412.54</ele>
        <time>2017-02-11T07:44:06Z</time>
      </trkpt>
      <trkpt lat="45.60332" lon="5.38807">
        <ele>413.98</ele>
        <time>2017-02-11T07:44:11Z</time>
      </trkpt>
      <trkpt lat="45.60319" lon="5.38811">
        <ele>414.47</ele>
        <time>2017-02-11T07:44:17Z</time>
      </trkpt>
      <trkpt lat="45.60306" lon="5.38815">
        <ele>414.95</ele>
        <time>2017-02-11T07:44:24Z</time>
      </trkpt>
      <trkpt lat="45.60288" lon="5.38818">
        <ele>416.87</ele>
        <time>2017-02-11T07:44:33Z</time>
      </trkpt>
      <trkpt lat="45.60276" lon="5.3882">
        <ele>417.35</ele>
        <time>2017-02-11T07:44:39Z</time>
      </trkpt>
      <trkpt lat="45.60263" lon="5.38822">
        <ele>418.31</ele>
        <time>2017-02-11T07:44:45Z</time>
      </trkpt>
      <trkpt lat="45.60254" lon="5.38825">
        <ele>419.75</ele>
        <time>2017-02-11T07:44:49Z</time>
      </trkpt>
      <trkpt lat="45.60239" lon="5.3883">
        <ele>420.71</ele>
        <time>2017-02-11T07:44:55Z</time>
      </trkpt>
      <trkpt lat="45.60227" lon="5.38831">
        <ele>421.19</ele>
        <time>2017-02-11T07:45:01Z</time>
      </trkpt>
      <trkpt lat="45.60219" lon="5.38828">
        <ele>421.68</ele>
        <time>2017-02-11T07:45:06Z</time>
      </trkpt>
      <trkpt lat="45.60208" lon="5.38823">
        <ele>422.16</ele>
        <time>2017-02-11T07:45:11Z</time>
      </trkpt>
      <trkpt lat="45.60199" lon="5.38819">
        <ele>423.12</ele>
        <time>2017-02-11T07:45:16Z</time>
      </trkpt>
      <trkpt lat="45.60181" lon="5.38814">
        <ele>423.6</ele>
        <time>2017-02-11T07:45:24Z</time>
      </trkpt>
      <trkpt lat="45.60164" lon="5.38818">
        <ele>423.6</ele>
        <time>2017-02-11T07:45:31Z</time>
      </trkpt>
      <trkpt lat="45.6015" lon="5.38819">
        <ele>423.12</ele>
        <time>2017-02-11T07:45:37Z</time>
      </trkpt>
      <trkpt lat="45.60137" lon="5.38821">
        <ele>423.6</ele>
        <time>2017-02-11T07:45:42Z</time>
      </trkpt>
      <trkpt lat="45.60119" lon="5.38822">
        <ele>423.12</ele>
        <time>2017-02-11T07:45:49Z</time>
      </trkpt>
      <trkpt lat="45.60099" lon="5.38824">
        <ele>422.16</ele>
        <time>2017-02-11T07:45:58Z</time>
      </trkpt>
      <trkpt lat="45.60086" lon="5.38828">
        <ele>421.68</ele>
        <time>2017-02-11T07:46:04Z</time>
      </trkpt>
      <trkpt lat="45.60077" lon="5.38844">
        <ele>420.23</ele>
        <time>2017-02-11T07:46:11Z</time>
      </trkpt>
      <trkpt lat="45.60075" lon="5.38856">
        <ele>419.75</ele>
        <time>2017-02-11T07:46:14Z</time>
      </trkpt>
      <trkpt lat="45.60077" lon="5.38878">
        <ele>419.27</ele>
        <time>2017-02-11T07:46:20Z</time>
      </trkpt>
      <trkpt lat="45.60078" lon="5.38898">
        <ele>418.79</ele>
        <time>2017-02-11T07:46:26Z</time>
      </trkpt>
      <trkpt lat="45.60083" lon="5.38925">
        <ele>418.31</ele>
        <time>2017-02-11T07:46:34Z</time>
      </trkpt>
      <trkpt lat="45.60084" lon="5.38953">
        <ele>417.35</ele>
        <time>2017-02-11T07:46:41Z</time>
      </trkpt>
      <trkpt lat="45.60083" lon="5.38976">
        <ele>416.39</ele>
        <time>2017-02-11T07:46:47Z</time>
      </trkpt>
      <trkpt lat="45.60078" lon="5.3899">
        <ele>415.43</ele>
        <time>2017-02-11T07:46:54Z</time>
      </trkpt>
      <trkpt lat="45.60064" lon="5.38988">
        <ele>415.91</ele>
        <time>2017-02-11T07:47:01Z</time>
      </trkpt>
      <trkpt lat="45.6005" lon="5.38984">
        <ele>416.39</ele>
        <time>2017-02-11T07:47:07Z</time>
      </trkpt>
      <trkpt lat="45.60035" lon="5.3898">
        <ele>417.35</ele>
        <time>2017-02-11T07:47:14Z</time>
      </trkpt>
      <trkpt lat="45.60024" lon="5.38976">
        <ele>417.83</ele>
        <time>2017-02-11T07:47:20Z</time>
      </trkpt>
      <trkpt lat="45.60016" lon="5.38974">
        <ele>418.79</ele>
        <time>2017-02-11T07:47:24Z</time>
      </trkpt>
      <trkpt lat="45.60004" lon="5.38973">
        <ele>419.27</ele>
        <time>2017-02-11T07:47:30Z</time>
      </trkpt>
      <trkpt lat="45.59988" lon="5.38973">
        <ele>421.19</ele>
        <time>2017-02-11T07:47:39Z</time>
      </trkpt>
      <trkpt lat="45.59976" lon="5.38977">
        <ele>422.16</ele>
        <time>2017-02-11T07:47:45Z</time>
      </trkpt>
      <trkpt lat="45.59969" lon="5.38982">
        <ele>423.12</ele>
        <time>2017-02-11T07:47:50Z</time>
      </trkpt>
      <trkpt lat="45.59962" lon="5.3899">
        <ele>423.6</ele>
        <time>2017-02-11T07:47:54Z</time>
      </trkpt>
      <trkpt lat="45.59951" lon="5.39001">
        <ele>424.56</ele>
        <time>2017-02-11T07:48:01Z</time>
      </trkpt>
      <trkpt lat="45.59942" lon="5.39007">
        <ele>425.04</ele>
        <time>2017-02-11T07:48:06Z</time>
      </trkpt>
      <trkpt lat="45.59929" lon="5.39015">
        <ele>426</ele>
        <time>2017-02-11T07:48:12Z</time>
      </trkpt>
      <trkpt lat="45.59913" lon="5.39022">
        <ele>426.48</ele>
        <time>2017-02-11T07:48:20Z</time>
      </trkpt>
      <trkpt lat="45.59899" lon="5.39024">
        <ele>427.44</ele>
        <time>2017-02-11T07:48:26Z</time>
      </trkpt>
      <trkpt lat="45.59886" lon="5.39027">
        <ele>428.4</ele>
        <time>2017-02-11T07:48:32Z</time>
      </trkpt>
      <trkpt lat="45.59866" lon="5.39029">
        <ele>429.37</ele>
        <time>2017-02-11T07:48:41Z</time>
      </trkpt>
      <trkpt lat="45.59851" lon="5.39033">
        <ele>430.81</ele>
        <time>2017-02-11T07:48:49Z</time>
      </trkpt>
      <trkpt lat="45.59834" lon="5.39035">
        <ele>431.29</ele>
        <time>2017-02-11T07:48:57Z</time>
      </trkpt>
      <trkpt lat="45.59818" lon="5.39033">
        <ele>431.29</ele>
        <time>2017-02-11T07:49:04Z</time>
      </trkpt>
      <trkpt lat="45.59805" lon="5.39028">
        <ele>431.29</ele>
        <time>2017-02-11T07:49:10Z</time>
      </trkpt>
      <trkpt lat="45.59793" lon="5.39027">
        <ele>431.77</ele>
        <time>2017-02-11T07:49:16Z</time>
      </trkpt>
      <trkpt lat="45.5978" lon="5.39027">
        <ele>431.77</ele>
        <time>2017-02-11T07:49:22Z</time>
      </trkpt>
      <trkpt lat="45.59766" lon="5.39025">
        <ele>431.77</ele>
        <time>2017-02-11T07:49:28Z</time>
      </trkpt>
      <trkpt lat="45.59752" lon="5.39021">
        <ele>431.77</ele>
        <time>2017-02-11T07:49:34Z</time>
      </trkpt>
      <trkpt lat="45.59734" lon="5.39017">
        <ele>432.25</ele>
        <time>2017-02-11T07:49:42Z</time>
      </trkpt>
      <trkpt lat="45.59719" lon="5.39014">
        <ele>432.73</ele>
        <time>2017-02-11T07:49:48Z</time>
      </trkpt>
      <trkpt lat="45.59704" lon="5.3901">
        <ele>432.73</ele>
        <time>2017-02-11T07:49:54Z</time>
      </trkpt>
      <trkpt lat="45.59695" lon="5.3899">
        <ele>433.21</ele>
        <time>2017-02-11T07:50:02Z</time>
      </trkpt>
      <trkpt lat="45.59705" lon="5.38956">
        <ele>432.25</ele>
        <time>2017-02-11T07:50:13Z</time>
      </trkpt>
      <trkpt lat="45.5971" lon="5.38929">
        <ele>431.77</ele>
        <time>2017-02-11T07:50:21Z</time>
      </trkpt>
      <trkpt lat="45.5971" lon="5.38894">
        <ele>430.81</ele>
        <time>2017-02-11T07:50:31Z</time>
      </trkpt>
      <trkpt lat="45.59705" lon="5.38871">
        <ele>430.33</ele>
        <time>2017-02-11T07:50:38Z</time>
      </trkpt>
      <trkpt lat="45.59694" lon="5.38857">
        <ele>429.85</ele>
        <time>2017-02-11T07:50:45Z</time>
      </trkpt>
      <trkpt lat="45.5968" lon="5.38843">
        <ele>428.89</ele>
        <time>2017-02-11T07:50:53Z</time>
      </trkpt>
      <trkpt lat="45.59665" lon="5.38834">
        <ele>428.4</ele>
        <time>2017-02-11T07:50:59Z</time>
      </trkpt>
      <trkpt lat="45.59653" lon="5.38811">
        <ele>428.4</ele>
        <time>2017-02-11T07:51:08Z</time>
      </trkpt>
      <trkpt lat="45.59652" lon="5.38785">
        <ele>428.89</ele>
        <time>2017-02-11T07:51:15Z</time>
      </trkpt>
      <trkpt lat="45.59654" lon="5.38764">
        <ele>429.85</ele>
        <time>2017-02-11T07:51:22Z</time>
      </trkpt>
      <trkpt lat="45.5966" lon="5.38731">
        <ele>431.77</ele>
        <time>2017-02-11T07:51:33Z</time>
      </trkpt>
      <trkpt lat="45.5966" lon="5.3872">
        <ele>431.77</ele>
        <time>2017-02-11T07:51:36Z</time>
      </trkpt>
      <trkpt lat="45.59648" lon="5.38707">
        <ele>432.25</ele>
        <time>2017-02-11T07:51:43Z</time>
      </trkpt>
      <trkpt lat="45.59637" lon="5.38697">
        <ele>433.21</ele>
        <time>2017-02-11T07:51:49Z</time>
      </trkpt>
      <trkpt lat="45.59628" lon="5.38689">
        <ele>433.21</ele>
        <time>2017-02-11T07:51:54Z</time>
      </trkpt>
      <trkpt lat="45.59617" lon="5.38678">
        <ele>433.69</ele>
        <time>2017-02-11T07:52:00Z</time>
      </trkpt>
      <trkpt lat="45.59608" lon="5.3867">
        <ele>434.17</ele>
        <time>2017-02-11T07:52:05Z</time>
      </trkpt>
      <trkpt lat="45.59593" lon="5.38658">
        <ele>434.65</ele>
        <time>2017-02-11T07:52:14Z</time>
      </trkpt>
      <trkpt lat="45.59581" lon="5.38647">
        <ele>435.61</ele>
        <time>2017-02-11T07:52:21Z</time>
      </trkpt>
      <trkpt lat="45.59564" lon="5.38629">
        <ele>437.06</ele>
        <time>2017-02-11T07:52:31Z</time>
      </trkpt>
      <trkpt lat="45.59545" lon="5.38616">
        <ele>438.02</ele>
        <time>2017-02-11T07:52:41Z</time>
      </trkpt>
      <trkpt lat="45.59528" lon="5.38601">
        <ele>439.46</ele>
        <time>2017-02-11T07:52:52Z</time>
      </trkpt>
      <trkpt lat="45.59516" lon="5.38589">
        <ele>441.38</ele>
        <time>2017-02-11T07:53:00Z</time>
      </trkpt>
      <trkpt lat="45.59505" lon="5.38581">
        <ele>443.79</ele>
        <time>2017-02-11T07:53:07Z</time>
      </trkpt>
      <trkpt lat="45.59496" lon="5.38572">
        <ele>446.19</ele>
        <time>2017-02-11T07:53:15Z</time>
      </trkpt>
      <trkpt lat="45.59489" lon="5.38559">
        <ele>449.55</ele>
        <time>2017-02-11T07:53:25Z</time>
      </trkpt>
      <trkpt lat="45.59475" lon="5.38547">
        <ele>452.44</ele>
        <time>2017-02-11T07:53:36Z</time>
      </trkpt>
      <trkpt lat="45.59465" lon="5.38534">
        <ele>453.88</ele>
        <time>2017-02-11T07:53:45Z</time>
      </trkpt>
      <trkpt lat="45.59452" lon="5.3852">
        <ele>455.8</ele>
        <time>2017-02-11T07:53:53Z</time>
      </trkpt>
      <trkpt lat="45.59452" lon="5.38503">
        <ele>455.8</ele>
        <time>2017-02-11T07:54:01Z</time>
      </trkpt>
      <trkpt lat="45.59448" lon="5.38482">
        <ele>456.28</ele>
        <time>2017-02-11T07:54:09Z</time>
      </trkpt>
      <trkpt lat="45.59445" lon="5.38471">
        <ele>457.72</ele>
        <time>2017-02-11T07:54:18Z</time>
      </trkpt>
      <trkpt lat="45.59451" lon="5.38439">
        <ele>457.24</ele>
        <time>2017-02-11T07:55:34Z</time>
      </trkpt>
      <trkpt lat="45.59458" lon="5.38415">
        <ele>457.72</ele>
        <time>2017-02-11T07:55:42Z</time>
      </trkpt>
      <trkpt lat="45.59462" lon="5.38397">
        <ele>458.21</ele>
        <time>2017-02-11T07:55:48Z</time>
      </trkpt>
      <trkpt lat="45.59465" lon="5.38377">
        <ele>458.69</ele>
        <time>2017-02-11T07:55:54Z</time>
      </trkpt>
      <trkpt lat="45.5947" lon="5.38356">
        <ele>458.69</ele>
        <time>2017-02-11T07:56:00Z</time>
      </trkpt>
      <trkpt lat="45.59473" lon="5.38342">
        <ele>458.21</ele>
        <time>2017-02-11T07:56:04Z</time>
      </trkpt>
      <trkpt lat="45.59476" lon="5.38326">
        <ele>457.72</ele>
        <time>2017-02-11T07:56:09Z</time>
      </trkpt>
      <trkpt lat="45.59481" lon="5.3831">
        <ele>457.72</ele>
        <time>2017-02-11T07:56:14Z</time>
      </trkpt>
      <trkpt lat="45.59488" lon="5.38291">
        <ele>458.21</ele>
        <time>2017-02-11T07:56:20Z</time>
      </trkpt>
      <trkpt lat="45.59494" lon="5.38272">
        <ele>458.69</ele>
        <time>2017-02-11T07:56:26Z</time>
      </trkpt>
      <trkpt lat="45.59497" lon="5.38258">
        <ele>458.69</ele>
        <time>2017-02-11T07:56:30Z</time>
      </trkpt>
      <trkpt lat="45.595" lon="5.38242">
        <ele>458.69</ele>
        <time>2017-02-11T07:56:35Z</time>
      </trkpt>
      <trkpt lat="45.59505" lon="5.38228">
        <ele>457.72</ele>
        <time>2017-02-11T07:56:40Z</time>
      </trkpt>
      <trkpt lat="45.59512" lon="5.38215">
        <ele>457.24</ele>
        <time>2017-02-11T07:56:45Z</time>
      </trkpt>
      <trkpt lat="45.59519" lon="5.38199">
        <ele>456.76</ele>
        <time>2017-02-11T07:56:50Z</time>
      </trkpt>
      <trkpt lat="45.59525" lon="5.3818">
        <ele>455.32</ele>
        <time>2017-02-11T07:56:55Z</time>
      </trkpt>
      <trkpt lat="45.59527" lon="5.38167">
        <ele>454.36</ele>
        <time>2017-02-11T07:56:59Z</time>
      </trkpt>
      <trkpt lat="45.59522" lon="5.38149">
        <ele>454.84</ele>
        <time>2017-02-11T07:57:06Z</time>
      </trkpt>
      <trkpt lat="45.59502" lon="5.38134">
        <ele>456.28</ele>
        <time>2017-02-11T07:57:16Z</time>
      </trkpt>
      <trkpt lat="45.5949" lon="5.38125">
        <ele>457.24</ele>
        <time>2017-02-11T07:57:22Z</time>
      </trkpt>
      <trkpt lat="45.59473" lon="5.38117">
        <ele>459.65</ele>
        <time>2017-02-11T07:57:30Z</time>
      </trkpt>
      <trkpt lat="45.59457" lon="5.38108">
        <ele>461.09</ele>
        <time>2017-02-11T07:57:38Z</time>
      </trkpt>
      <trkpt lat="45.59442" lon="5.38102">
        <ele>463.49</ele>
        <time>2017-02-11T07:57:45Z</time>
      </trkpt>
      <trkpt lat="45.5943" lon="5.38099">
        <ele>464.45</ele>
        <time>2017-02-11T07:57:51Z</time>
      </trkpt>
      <trkpt lat="45.59419" lon="5.38096">
        <ele>465.42</ele>
        <time>2017-02-11T07:57:56Z</time>
      </trkpt>
      <trkpt lat="45.59397" lon="5.38093">
        <ele>466.38</ele>
        <time>2017-02-11T07:58:06Z</time>
      </trkpt>
      <trkpt lat="45.59386" lon="5.38094">
        <ele>466.86</ele>
        <time>2017-02-11T07:58:11Z</time>
      </trkpt>
      <trkpt lat="45.59368" lon="5.38102">
        <ele>467.34</ele>
        <time>2017-02-11T07:58:19Z</time>
      </trkpt>
      <trkpt lat="45.59352" lon="5.38109">
        <ele>467.82</ele>
        <time>2017-02-11T07:58:26Z</time>
      </trkpt>
      <trkpt lat="45.59342" lon="5.38113">
        <ele>467.82</ele>
        <time>2017-02-11T07:58:31Z</time>
      </trkpt>
      <trkpt lat="45.59324" lon="5.38124">
        <ele>467.34</ele>
        <time>2017-02-11T07:58:39Z</time>
      </trkpt>
      <trkpt lat="45.59312" lon="5.38135">
        <ele>466.38</ele>
        <time>2017-02-11T07:58:44Z</time>
      </trkpt>
      <trkpt lat="45.59299" lon="5.38149">
        <ele>465.42</ele>
        <time>2017-02-11T07:58:50Z</time>
      </trkpt>
      <trkpt lat="45.59283" lon="5.38163">
        <ele>463.97</ele>
        <time>2017-02-11T07:58:57Z</time>
      </trkpt>
      <trkpt lat="45.59269" lon="5.3817">
        <ele>463.01</ele>
        <time>2017-02-11T07:59:02Z</time>
      </trkpt>
      <trkpt lat="45.59254" lon="5.38176">
        <ele>461.57</ele>
        <time>2017-02-11T07:59:08Z</time>
      </trkpt>
      <trkpt lat="45.59236" lon="5.38181">
        <ele>460.61</ele>
        <time>2017-02-11T07:59:15Z</time>
      </trkpt>
      <trkpt lat="45.5922" lon="5.38184">
        <ele>459.65</ele>
        <time>2017-02-11T07:59:21Z</time>
      </trkpt>
      <trkpt lat="45.59205" lon="5.38186">
        <ele>459.65</ele>
        <time>2017-02-11T07:59:26Z</time>
      </trkpt>
      <trkpt lat="45.59192" lon="5.38187">
        <ele>459.65</ele>
        <time>2017-02-11T07:59:31Z</time>
      </trkpt>
      <trkpt lat="45.59178" lon="5.38187">
        <ele>459.17</ele>
        <time>2017-02-11T07:59:36Z</time>
      </trkpt>
      <trkpt lat="45.59162" lon="5.38185">
        <ele>459.65</ele>
        <time>2017-02-11T07:59:43Z</time>
      </trkpt>
      <trkpt lat="45.5915" lon="5.3816">
        <ele>459.17</ele>
        <time>2017-02-11T07:59:52Z</time>
      </trkpt>
      <trkpt lat="45.59148" lon="5.3814">
        <ele>459.17</ele>
        <time>2017-02-11T07:59:57Z</time>
      </trkpt>
      <trkpt lat="45.5915" lon="5.38119">
        <ele>459.17</ele>
        <time>2017-02-11T08:00:02Z</time>
      </trkpt>
      <trkpt lat="45.59151" lon="5.38099">
        <ele>459.17</ele>
        <time>2017-02-11T08:00:07Z</time>
      </trkpt>
      <trkpt lat="45.59152" lon="5.3808">
        <ele>458.69</ele>
        <time>2017-02-11T08:00:12Z</time>
      </trkpt>
      <trkpt lat="45.59152" lon="5.38067">
        <ele>458.69</ele>
        <time>2017-02-11T08:00:16Z</time>
      </trkpt>
      <trkpt lat="45.59157" lon="5.38038">
        <ele>458.21</ele>
        <time>2017-02-11T08:07:15Z</time>
      </trkpt>
      <trkpt lat="45.59157" lon="5.38053">
        <ele>458.69</ele>
        <time>2017-02-11T08:08:28Z</time>
      </trkpt>
      <trkpt lat="45.59157" lon="5.38066">
        <ele>459.17</ele>
        <time>2017-02-11T08:08:32Z</time>
      </trkpt>
      <trkpt lat="45.59158" lon="5.38086">
        <ele>459.17</ele>
        <time>2017-02-11T08:08:38Z</time>
      </trkpt>
      <trkpt lat="45.59156" lon="5.38105">
        <ele>459.65</ele>
        <time>2017-02-11T08:08:43Z</time>
      </trkpt>
      <trkpt lat="45.59154" lon="5.38119">
        <ele>459.17</ele>
        <time>2017-02-11T08:08:47Z</time>
      </trkpt>
      <trkpt lat="45.59153" lon="5.38149">
        <ele>459.65</ele>
        <time>2017-02-11T08:08:56Z</time>
      </trkpt>
      <trkpt lat="45.59149" lon="5.38166">
        <ele>460.13</ele>
        <time>2017-02-11T08:09:02Z</time>
      </trkpt>
      <trkpt lat="45.59139" lon="5.3817">
        <ele>460.61</ele>
        <time>2017-02-11T08:09:06Z</time>
      </trkpt>
      <trkpt lat="45.59128" lon="5.38167">
        <ele>461.09</ele>
        <time>2017-02-11T08:09:11Z</time>
      </trkpt>
      <trkpt lat="45.59114" lon="5.38159">
        <ele>462.05</ele>
        <time>2017-02-11T08:09:17Z</time>
      </trkpt>
      <trkpt lat="45.59104" lon="5.38152">
        <ele>462.05</ele>
        <time>2017-02-11T08:09:21Z</time>
      </trkpt>
      <trkpt lat="45.59085" lon="5.3814">
        <ele>463.01</ele>
        <time>2017-02-11T08:09:29Z</time>
      </trkpt>
      <trkpt lat="45.59074" lon="5.38127">
        <ele>463.97</ele>
        <time>2017-02-11T08:09:35Z</time>
      </trkpt>
      <trkpt lat="45.59064" lon="5.38118">
        <ele>464.45</ele>
        <time>2017-02-11T08:09:40Z</time>
      </trkpt>
      <trkpt lat="45.59053" lon="5.38111">
        <ele>465.42</ele>
        <time>2017-02-11T08:09:45Z</time>
      </trkpt>
      <trkpt lat="45.59038" lon="5.38101">
        <ele>466.86</ele>
        <time>2017-02-11T08:09:53Z</time>
      </trkpt>
      <trkpt lat="45.59023" lon="5.38091">
        <ele>468.78</ele>
        <time>2017-02-11T08:10:01Z</time>
      </trkpt>
      <trkpt lat="45.5901" lon="5.3808">
        <ele>470.7</ele>
        <time>2017-02-11T08:10:08Z</time>
      </trkpt>
      <trkpt lat="45.58992" lon="5.38068">
        <ele>472.14</ele>
        <time>2017-02-11T08:10:16Z</time>
      </trkpt>
      <trkpt lat="45.58983" lon="5.3806">
        <ele>472.63</ele>
        <time>2017-02-11T08:10:21Z</time>
      </trkpt>
      <trkpt lat="45.58966" lon="5.38053">
        <ele>473.11</ele>
        <time>2017-02-11T08:10:27Z</time>
      </trkpt>
      <trkpt lat="45.58958" lon="5.38044">
        <ele>474.55</ele>
        <time>2017-02-11T08:10:32Z</time>
      </trkpt>
      <trkpt lat="45.58946" lon="5.38034">
        <ele>474.55</ele>
        <time>2017-02-11T08:10:37Z</time>
      </trkpt>
      <trkpt lat="45.58936" lon="5.38026">
        <ele>474.55</ele>
        <time>2017-02-11T08:10:42Z</time>
      </trkpt>
      <trkpt lat="45.58927" lon="5.38017">
        <ele>474.07</ele>
        <time>2017-02-11T08:10:47Z</time>
      </trkpt>
      <trkpt lat="45.58916" lon="5.38011">
        <ele>474.07</ele>
        <time>2017-02-11T08:10:52Z</time>
      </trkpt>
      <trkpt lat="45.58903" lon="5.38005">
        <ele>474.07</ele>
        <time>2017-02-11T08:10:57Z</time>
      </trkpt>
      <trkpt lat="45.58895" lon="5.38002">
        <ele>474.07</ele>
        <time>2017-02-11T08:11:01Z</time>
      </trkpt>
      <trkpt lat="45.58885" lon="5.37991">
        <ele>474.07</ele>
        <time>2017-02-11T08:11:06Z</time>
      </trkpt>
      <trkpt lat="45.5887" lon="5.37969">
        <ele>473.59</ele>
        <time>2017-02-11T08:11:14Z</time>
      </trkpt>
      <trkpt lat="45.58853" lon="5.3795">
        <ele>474.07</ele>
        <time>2017-02-11T08:11:23Z</time>
      </trkpt>
      <trkpt lat="45.58842" lon="5.3794">
        <ele>474.55</ele>
        <time>2017-02-11T08:11:29Z</time>
      </trkpt>
      <trkpt lat="45.58826" lon="5.37924">
        <ele>475.03</ele>
        <time>2017-02-11T08:11:37Z</time>
      </trkpt>
      <trkpt lat="45.5881" lon="5.37912">
        <ele>475.99</ele>
        <time>2017-02-11T08:11:45Z</time>
      </trkpt>
      <trkpt lat="45.588" lon="5.37905">
        <ele>476.47</ele>
        <time>2017-02-11T08:11:50Z</time>
      </trkpt>
      <trkpt lat="45.58781" lon="5.37897">
        <ele>476.47</ele>
        <time>2017-02-11T08:11:59Z</time>
      </trkpt>
      <trkpt lat="45.58772" lon="5.37889">
        <ele>475.99</ele>
        <time>2017-02-11T08:12:03Z</time>
      </trkpt>
      <trkpt lat="45.58762" lon="5.37879">
        <ele>475.03</ele>
        <time>2017-02-11T08:12:09Z</time>
      </trkpt>
      <trkpt lat="45.58747" lon="5.37875">
        <ele>473.59</ele>
        <time>2017-02-11T08:12:16Z</time>
      </trkpt>
      <trkpt lat="45.58734" lon="5.37875">
        <ele>472.63</ele>
        <time>2017-02-11T08:12:22Z</time>
      </trkpt>
      <trkpt lat="45.58722" lon="5.37877">
        <ele>471.18</ele>
        <time>2017-02-11T08:12:28Z</time>
      </trkpt>
      <trkpt lat="45.58693" lon="5.37875">
        <ele>469.74</ele>
        <time>2017-02-11T08:12:35Z</time>
      </trkpt>
      <trkpt lat="45.58672" lon="5.37878">
        <ele>468.3</ele>
        <time>2017-02-11T08:12:42Z</time>
      </trkpt>
      <trkpt lat="45.58655" lon="5.37885">
        <ele>466.86</ele>
        <time>2017-02-11T08:12:49Z</time>
      </trkpt>
      <trkpt lat="45.58641" lon="5.37887">
        <ele>463.97</ele>
        <time>2017-02-11T08:12:54Z</time>
      </trkpt>
      <trkpt lat="45.58623" lon="5.37889">
        <ele>461.09</ele>
        <time>2017-02-11T08:13:00Z</time>
      </trkpt>
      <trkpt lat="45.58607" lon="5.37888">
        <ele>459.17</ele>
        <time>2017-02-11T08:13:05Z</time>
      </trkpt>
      <trkpt lat="45.58591" lon="5.37884">
        <ele>456.28</ele>
        <time>2017-02-11T08:13:12Z</time>
      </trkpt>
      <trkpt lat="45.58583" lon="5.37879">
        <ele>455.32</ele>
        <time>2017-02-11T08:13:15Z</time>
      </trkpt>
      <trkpt lat="45.58573" lon="5.37857">
        <ele>451.96</ele>
        <time>2017-02-11T08:13:21Z</time>
      </trkpt>
      <trkpt lat="45.58571" lon="5.37845">
        <ele>450.52</ele>
        <time>2017-02-11T08:13:24Z</time>
      </trkpt>
      <trkpt lat="45.58562" lon="5.37815">
        <ele>447.15</ele>
        <time>2017-02-11T08:13:33Z</time>
      </trkpt>
      <trkpt lat="45.58552" lon="5.37797">
        <ele>445.23</ele>
        <time>2017-02-11T08:13:38Z</time>
      </trkpt>
      <trkpt lat="45.58541" lon="5.37783">
        <ele>442.82</ele>
        <time>2017-02-11T08:13:44Z</time>
      </trkpt>
      <trkpt lat="45.58529" lon="5.37784">
        <ele>440.42</ele>
        <time>2017-02-11T08:13:48Z</time>
      </trkpt>
      <trkpt lat="45.58523" lon="5.37787">
        <ele>439.94</ele>
        <time>2017-02-11T08:13:50Z</time>
      </trkpt>
      <trkpt lat="45.58518" lon="5.37796">
        <ele>438.02</ele>
        <time>2017-02-11T08:13:53Z</time>
      </trkpt>
      <trkpt lat="45.58505" lon="5.37806">
        <ele>433.69</ele>
        <time>2017-02-11T08:14:01Z</time>
      </trkpt>
      <trkpt lat="45.58487" lon="5.37803">
        <ele>429.85</ele>
        <time>2017-02-11T08:14:07Z</time>
      </trkpt>
      <trkpt lat="45.58469" lon="5.378">
        <ele>426</ele>
        <time>2017-02-11T08:14:14Z</time>
      </trkpt>
      <trkpt lat="45.58462" lon="5.378">
        <ele>424.56</ele>
        <time>2017-02-11T08:14:17Z</time>
      </trkpt>
      <trkpt lat="45.5845" lon="5.37796">
        <ele>421.19</ele>
        <time>2017-02-11T08:14:21Z</time>
      </trkpt>
      <trkpt lat="45.58433" lon="5.37787">
        <ele>416.87</ele>
        <time>2017-02-11T08:14:27Z</time>
      </trkpt>
      <trkpt lat="45.58423" lon="5.37782">
        <ele>414.95</ele>
        <time>2017-02-11T08:14:31Z</time>
      </trkpt>
      <trkpt lat="45.58408" lon="5.37778">
        <ele>412.06</ele>
        <time>2017-02-11T08:14:37Z</time>
      </trkpt>
      <trkpt lat="45.58386" lon="5.37762">
        <ele>410.62</ele>
        <time>2017-02-11T08:14:44Z</time>
      </trkpt>
      <trkpt lat="45.58389" lon="5.37743">
        <ele>412.06</ele>
        <time>2017-02-11T08:14:51Z</time>
      </trkpt>
      <trkpt lat="45.58388" lon="5.37719">
        <ele>413.5</ele>
        <time>2017-02-11T08:15:00Z</time>
      </trkpt>
      <trkpt lat="45.58384" lon="5.37704">
        <ele>415.91</ele>
        <time>2017-02-11T08:15:08Z</time>
      </trkpt>
      <trkpt lat="45.58374" lon="5.37702">
        <ele>418.31</ele>
        <time>2017-02-11T08:15:16Z</time>
      </trkpt>
      <trkpt lat="45.58364" lon="5.37702">
        <ele>420.71</ele>
        <time>2017-02-11T08:15:24Z</time>
      </trkpt>
      <trkpt lat="45.58345" lon="5.37698">
        <ele>422.64</ele>
        <time>2017-02-11T08:15:33Z</time>
      </trkpt>
      <trkpt lat="45.58331" lon="5.37687">
        <ele>423.12</ele>
        <time>2017-02-11T08:15:40Z</time>
      </trkpt>
      <trkpt lat="45.58313" lon="5.37679">
        <ele>424.08</ele>
        <time>2017-02-11T08:15:47Z</time>
      </trkpt>
      <trkpt lat="45.58299" lon="5.37675">
        <ele>425.04</ele>
        <time>2017-02-11T08:15:54Z</time>
      </trkpt>
      <trkpt lat="45.5829" lon="5.37674">
        <ele>426</ele>
        <time>2017-02-11T08:15:59Z</time>
      </trkpt>
      <trkpt lat="45.58282" lon="5.37671">
        <ele>426.48</ele>
        <time>2017-02-11T08:16:05Z</time>
      </trkpt>
      <trkpt lat="45.58267" lon="5.37668">
        <ele>426.96</ele>
        <time>2017-02-11T08:16:13Z</time>
      </trkpt>
      <trkpt lat="45.58249" lon="5.37666">
        <ele>427.44</ele>
        <time>2017-02-11T08:16:21Z</time>
      </trkpt>
      <trkpt lat="45.58236" lon="5.37665">
        <ele>428.4</ele>
        <time>2017-02-11T08:16:27Z</time>
      </trkpt>
      <trkpt lat="45.58227" lon="5.37663">
        <ele>428.89</ele>
        <time>2017-02-11T08:16:32Z</time>
      </trkpt>
      <trkpt lat="45.58205" lon="5.37666">
        <ele>431.77</ele>
        <time>2017-02-11T08:16:47Z</time>
      </trkpt>
      <trkpt lat="45.58198" lon="5.37646">
        <ele>432.73</ele>
        <time>2017-02-11T08:16:54Z</time>
      </trkpt>
      <trkpt lat="45.58197" lon="5.37611">
        <ele>431.29</ele>
        <time>2017-02-11T08:17:04Z</time>
      </trkpt>
      <trkpt lat="45.582" lon="5.37584">
        <ele>430.33</ele>
        <time>2017-02-11T08:17:13Z</time>
      </trkpt>
      <trkpt lat="45.58201" lon="5.37551">
        <ele>428.89</ele>
        <time>2017-02-11T08:17:22Z</time>
      </trkpt>
      <trkpt lat="45.582" lon="5.37529">
        <ele>427.44</ele>
        <time>2017-02-11T08:17:28Z</time>
      </trkpt>
      <trkpt lat="45.58203" lon="5.37494">
        <ele>426</ele>
        <time>2017-02-11T08:17:37Z</time>
      </trkpt>
      <trkpt lat="45.5821" lon="5.3746">
        <ele>424.56</ele>
        <time>2017-02-11T08:17:47Z</time>
      </trkpt>
      <trkpt lat="45.58212" lon="5.37431">
        <ele>424.08</ele>
        <time>2017-02-11T08:17:56Z</time>
      </trkpt>
      <trkpt lat="45.5821" lon="5.37403">
        <ele>423.6</ele>
        <time>2017-02-11T08:18:04Z</time>
      </trkpt>
      <trkpt lat="45.58212" lon="5.37377">
        <ele>423.12</ele>
        <time>2017-02-11T08:18:12Z</time>
      </trkpt>
      <trkpt lat="45.5821" lon="5.37345">
        <ele>422.64</ele>
        <time>2017-02-11T08:18:21Z</time>
      </trkpt>
      <trkpt lat="45.58216" lon="5.37315">
        <ele>422.16</ele>
        <time>2017-02-11T08:18:29Z</time>
      </trkpt>
      <trkpt lat="45.5822" lon="5.37295">
        <ele>421.68</ele>
        <time>2017-02-11T08:18:35Z</time>
      </trkpt>
      <trkpt lat="45.58216" lon="5.37284">
        <ele>421.19</ele>
        <time>2017-02-11T08:18:38Z</time>
      </trkpt>
      <trkpt lat="45.58219" lon="5.37252">
        <ele>419.75</ele>
        <time>2017-02-11T08:18:47Z</time>
      </trkpt>
      <trkpt lat="45.58225" lon="5.37212">
        <ele>418.79</ele>
        <time>2017-02-11T08:18:59Z</time>
      </trkpt>
      <trkpt lat="45.58228" lon="5.37189">
        <ele>418.31</ele>
        <time>2017-02-11T08:19:06Z</time>
      </trkpt>
      <trkpt lat="45.58231" lon="5.37163">
        <ele>417.83</ele>
        <time>2017-02-11T08:19:14Z</time>
      </trkpt>
      <trkpt lat="45.58236" lon="5.37132">
        <ele>417.83</ele>
        <time>2017-02-11T08:19:24Z</time>
      </trkpt>
      <trkpt lat="45.58239" lon="5.37111">
        <ele>417.83</ele>
        <time>2017-02-11T08:19:31Z</time>
      </trkpt>
      <trkpt lat="45.58244" lon="5.37091">
        <ele>417.35</ele>
        <time>2017-02-11T08:19:36Z</time>
      </trkpt>
      <trkpt lat="45.58241" lon="5.37077">
        <ele>416.87</ele>
        <time>2017-02-11T08:19:40Z</time>
      </trkpt>
      <trkpt lat="45.58249" lon="5.37051">
        <ele>416.39</ele>
        <time>2017-02-11T08:19:48Z</time>
      </trkpt>
      <trkpt lat="45.5825" lon="5.37025">
        <ele>416.39</ele>
        <time>2017-02-11T08:19:55Z</time>
      </trkpt>
      <trkpt lat="45.58251" lon="5.37003">
        <ele>415.91</ele>
        <time>2017-02-11T08:20:02Z</time>
      </trkpt>
      <trkpt lat="45.58252" lon="5.36966">
        <ele>415.91</ele>
        <time>2017-02-11T08:20:12Z</time>
      </trkpt>
      <trkpt lat="45.58262" lon="5.36912">
        <ele>414.95</ele>
        <time>2017-02-11T08:20:23Z</time>
      </trkpt>
      <trkpt lat="45.58252" lon="5.36893">
        <ele>413.98</ele>
        <time>2017-02-11T08:20:30Z</time>
      </trkpt>
      <trkpt lat="45.58255" lon="5.36887">
        <ele>413.5</ele>
        <time>2017-02-11T08:20:32Z</time>
      </trkpt>
      <trkpt lat="45.58274" lon="5.36856">
        <ele>411.1</ele>
        <time>2017-02-11T08:20:42Z</time>
      </trkpt>
      <trkpt lat="45.58278" lon="5.36821">
        <ele>410.14</ele>
        <time>2017-02-11T08:20:50Z</time>
      </trkpt>
      <trkpt lat="45.58289" lon="5.36801">
        <ele>410.14</ele>
        <time>2017-02-11T08:20:56Z</time>
      </trkpt>
      <trkpt lat="45.58295" lon="5.36772">
        <ele>411.58</ele>
        <time>2017-02-11T08:21:04Z</time>
      </trkpt>
      <trkpt lat="45.58302" lon="5.36735">
        <ele>413.5</ele>
        <time>2017-02-11T08:21:15Z</time>
      </trkpt>
      <trkpt lat="45.58306" lon="5.36708">
        <ele>413.5</ele>
        <time>2017-02-11T08:21:23Z</time>
      </trkpt>
      <trkpt lat="45.58312" lon="5.36676">
        <ele>413.02</ele>
        <time>2017-02-11T08:21:31Z</time>
      </trkpt>
      <trkpt lat="45.58315" lon="5.36655">
        <ele>412.06</ele>
        <time>2017-02-11T08:21:38Z</time>
      </trkpt>
      <trkpt lat="45.58321" lon="5.36633">
        <ele>411.58</ele>
        <time>2017-02-11T08:21:45Z</time>
      </trkpt>
      <trkpt lat="45.58326" lon="5.36604">
        <ele>410.62</ele>
        <time>2017-02-11T08:21:53Z</time>
      </trkpt>
      <trkpt lat="45.58333" lon="5.36574">
        <ele>410.14</ele>
        <time>2017-02-11T08:22:01Z</time>
      </trkpt>
      <trkpt lat="45.5834" lon="5.36541">
        <ele>407.26</ele>
        <time>2017-02-11T08:22:10Z</time>
      </trkpt>
      <trkpt lat="45.5835" lon="5.36534">
        <ele>405.81</ele>
        <time>2017-02-11T08:22:14Z</time>
      </trkpt>
      <trkpt lat="45.58362" lon="5.36535">
        <ele>403.89</ele>
        <time>2017-02-11T08:22:19Z</time>
      </trkpt>
      <trkpt lat="45.5837" lon="5.36535">
        <ele>402.45</ele>
        <time>2017-02-11T08:22:23Z</time>
      </trkpt>
      <trkpt lat="45.58386" lon="5.36536">
        <ele>399.57</ele>
        <time>2017-02-11T08:22:30Z</time>
      </trkpt>
      <trkpt lat="45.58401" lon="5.36539">
        <ele>396.68</ele>
        <time>2017-02-11T08:22:37Z</time>
      </trkpt>
      <trkpt lat="45.5842" lon="5.36545">
        <ele>393.32</ele>
        <time>2017-02-11T08:22:46Z</time>
      </trkpt>
      <trkpt lat="45.58435" lon="5.36552">
        <ele>390.43</ele>
        <time>2017-02-11T08:22:53Z</time>
      </trkpt>
      <trkpt lat="45.58444" lon="5.36543">
        <ele>389.47</ele>
        <time>2017-02-11T08:22:59Z</time>
      </trkpt>
      <trkpt lat="45.58452" lon="5.36518">
        <ele>391.87</ele>
        <time>2017-02-11T08:23:10Z</time>
      </trkpt>
      <trkpt lat="45.58449" lon="5.36505">
        <ele>394.28</ele>
        <time>2017-02-11T08:23:19Z</time>
      </trkpt>
      <trkpt lat="45.58444" lon="5.36485">
        <ele>395.72</ele>
        <time>2017-02-11T08:23:27Z</time>
      </trkpt>
      <trkpt lat="45.58435" lon="5.36464">
        <ele>397.64</ele>
        <time>2017-02-11T08:23:35Z</time>
      </trkpt>
      <trkpt lat="45.58423" lon="5.36438">
        <ele>398.6</ele>
        <time>2017-02-11T08:23:52Z</time>
      </trkpt>
      <trkpt lat="45.58418" lon="5.36425">
        <ele>399.08</ele>
        <time>2017-02-11T08:23:57Z</time>
      </trkpt>
      <trkpt lat="45.5841" lon="5.36409">
        <ele>399.57</ele>
        <time>2017-02-11T08:24:03Z</time>
      </trkpt>
      <trkpt lat="45.58402" lon="5.36396">
        <ele>400.05</ele>
        <time>2017-02-11T08:24:08Z</time>
      </trkpt>
      <trkpt lat="45.58396" lon="5.36386">
        <ele>401.49</ele>
        <time>2017-02-11T08:24:14Z</time>
      </trkpt>
      <trkpt lat="45.5839" lon="5.36373">
        <ele>403.41</ele>
        <time>2017-02-11T08:24:23Z</time>
      </trkpt>
      <trkpt lat="45.58384" lon="5.36345">
        <ele>406.29</ele>
        <time>2017-02-11T08:24:38Z</time>
      </trkpt>
      <trkpt lat="45.5838" lon="5.36324">
        <ele>409.18</ele>
        <time>2017-02-11T08:24:49Z</time>
      </trkpt>
      <trkpt lat="45.58377" lon="5.36306">
        <ele>411.1</ele>
        <time>2017-02-11T08:24:57Z</time>
      </trkpt>
      <trkpt lat="45.58377" lon="5.36284">
        <ele>412.54</ele>
        <time>2017-02-11T08:25:06Z</time>
      </trkpt>
      <trkpt lat="45.58378" lon="5.36261">
        <ele>413.5</ele>
        <time>2017-02-11T08:25:14Z</time>
      </trkpt>
      <trkpt lat="45.58376" lon="5.36239">
        <ele>413.98</ele>
        <time>2017-02-11T08:25:26Z</time>
      </trkpt>
      <trkpt lat="45.58376" lon="5.36217">
        <ele>414.95</ele>
        <time>2017-02-11T08:25:34Z</time>
      </trkpt>
      <trkpt lat="45.58375" lon="5.36194">
        <ele>414.95</ele>
        <time>2017-02-11T08:25:41Z</time>
      </trkpt>
      <trkpt lat="45.58373" lon="5.36171">
        <ele>415.43</ele>
        <time>2017-02-11T08:25:49Z</time>
      </trkpt>
      <trkpt lat="45.58373" lon="5.36143">
        <ele>414.47</ele>
        <time>2017-02-11T08:25:56Z</time>
      </trkpt>
      <trkpt lat="45.58377" lon="5.36124">
        <ele>413.98</ele>
        <time>2017-02-11T08:26:02Z</time>
      </trkpt>
      <trkpt lat="45.58387" lon="5.36087">
        <ele>412.54</ele>
        <time>2017-02-11T08:26:11Z</time>
      </trkpt>
      <trkpt lat="45.58389" lon="5.36067">
        <ele>411.1</ele>
        <time>2017-02-11T08:26:18Z</time>
      </trkpt>
      <trkpt lat="45.58388" lon="5.36043">
        <ele>409.18</ele>
        <time>2017-02-11T08:26:24Z</time>
      </trkpt>
      <trkpt lat="45.58392" lon="5.36016">
        <ele>406.29</ele>
        <time>2017-02-11T08:26:31Z</time>
      </trkpt>
      <trkpt lat="45.584" lon="5.36006">
        <ele>405.33</ele>
        <time>2017-02-11T08:26:36Z</time>
      </trkpt>
      <trkpt lat="45.58421" lon="5.35994">
        <ele>403.41</ele>
        <time>2017-02-11T08:26:44Z</time>
      </trkpt>
      <trkpt lat="45.58441" lon="5.35993">
        <ele>401.49</ele>
        <time>2017-02-11T08:26:51Z</time>
      </trkpt>
      <trkpt lat="45.58461" lon="5.35986">
        <ele>399.57</ele>
        <time>2017-02-11T08:27:02Z</time>
      </trkpt>
      <trkpt lat="45.58471" lon="5.35965">
        <ele>399.08</ele>
        <time>2017-02-11T08:27:10Z</time>
      </trkpt>
      <trkpt lat="45.5847" lon="5.35941">
        <ele>398.12</ele>
        <time>2017-02-11T08:27:18Z</time>
      </trkpt>
      <trkpt lat="45.58464" lon="5.35921">
        <ele>398.12</ele>
        <time>2017-02-11T08:27:25Z</time>
      </trkpt>
      <trkpt lat="45.5846" lon="5.35897">
        <ele>397.16</ele>
        <time>2017-02-11T08:27:32Z</time>
      </trkpt>
      <trkpt lat="45.58458" lon="5.35881">
        <ele>395.24</ele>
        <time>2017-02-11T08:27:37Z</time>
      </trkpt>
      <trkpt lat="45.58469" lon="5.35865">
        <ele>392.84</ele>
        <time>2017-02-11T08:27:42Z</time>
      </trkpt>
      <trkpt lat="45.58483" lon="5.35855">
        <ele>388.51</ele>
        <time>2017-02-11T08:27:49Z</time>
      </trkpt>
      <trkpt lat="45.58499" lon="5.35851">
        <ele>383.7</ele>
        <time>2017-02-11T08:27:58Z</time>
      </trkpt>
      <trkpt lat="45.5851" lon="5.35854">
        <ele>381.78</ele>
        <time>2017-02-11T08:28:04Z</time>
      </trkpt>
      <trkpt lat="45.58519" lon="5.35853">
        <ele>378.9</ele>
        <time>2017-02-11T08:28:10Z</time>
      </trkpt>
      <trkpt lat="45.58535" lon="5.35846">
        <ele>376.49</ele>
        <time>2017-02-11T08:28:17Z</time>
      </trkpt>
      <trkpt lat="45.58546" lon="5.35835">
        <ele>373.61</ele>
        <time>2017-02-11T08:28:24Z</time>
      </trkpt>
      <trkpt lat="45.58552" lon="5.35823">
        <ele>370.24</ele>
        <time>2017-02-11T08:28:31Z</time>
      </trkpt>
      <trkpt lat="45.58549" lon="5.35813">
        <ele>368.8</ele>
        <time>2017-02-11T08:28:34Z</time>
      </trkpt>
      <trkpt lat="45.5855" lon="5.35787">
        <ele>367.84</ele>
        <time>2017-02-11T08:28:42Z</time>
      </trkpt>
      <trkpt lat="45.58548" lon="5.35761">
        <ele>368.32</ele>
        <time>2017-02-11T08:28:50Z</time>
      </trkpt>
      <trkpt lat="45.58544" lon="5.35733">
        <ele>369.76</ele>
        <time>2017-02-11T08:29:00Z</time>
      </trkpt>
      <trkpt lat="45.58545" lon="5.3571">
        <ele>369.76</ele>
        <time>2017-02-11T08:29:07Z</time>
      </trkpt>
      <trkpt lat="45.58545" lon="5.35686">
        <ele>369.28</ele>
        <time>2017-02-11T08:29:14Z</time>
      </trkpt>
      <trkpt lat="45.58552" lon="5.35663">
        <ele>370.24</ele>
        <time>2017-02-11T08:29:22Z</time>
      </trkpt>
      <trkpt lat="45.58546" lon="5.35645">
        <ele>371.21</ele>
        <time>2017-02-11T08:29:30Z</time>
      </trkpt>
      <trkpt lat="45.58546" lon="5.35632">
        <ele>371.69</ele>
        <time>2017-02-11T08:29:34Z</time>
      </trkpt>
      <trkpt lat="45.58558" lon="5.35627">
        <ele>369.28</ele>
        <time>2017-02-11T08:29:42Z</time>
      </trkpt>
      <trkpt lat="45.58575" lon="5.35615">
        <ele>365.92</ele>
        <time>2017-02-11T08:29:47Z</time>
      </trkpt>
      <trkpt lat="45.58581" lon="5.35595">
        <ele>364.48</ele>
        <time>2017-02-11T08:29:54Z</time>
      </trkpt>
      <trkpt lat="45.58587" lon="5.35565">
        <ele>364.48</ele>
        <time>2017-02-11T08:30:03Z</time>
      </trkpt>
      <trkpt lat="45.58586" lon="5.3553">
        <ele>364.48</ele>
        <time>2017-02-11T08:30:13Z</time>
      </trkpt>
      <trkpt lat="45.58582" lon="5.35501">
        <ele>364.96</ele>
        <time>2017-02-11T08:30:21Z</time>
      </trkpt>
      <trkpt lat="45.58586" lon="5.35479">
        <ele>364.96</ele>
        <time>2017-02-11T08:30:28Z</time>
      </trkpt>
      <trkpt lat="45.58587" lon="5.35442">
        <ele>365.44</ele>
        <time>2017-02-11T08:30:38Z</time>
      </trkpt>
      <trkpt lat="45.58581" lon="5.35432">
        <ele>365.92</ele>
        <time>2017-02-11T08:30:43Z</time>
      </trkpt>
      <trkpt lat="45.58576" lon="5.35429">
        <ele>373.61</ele>
        <time>2017-02-11T08:31:16Z</time>
      </trkpt>
      <trkpt lat="45.58578" lon="5.35416">
        <ele>389.47</ele>
        <time>2017-02-11T08:32:22Z</time>
      </trkpt>
      <trkpt lat="45.5855" lon="5.3537">
        <ele>390.91</ele>
        <time>2017-02-11T08:32:32Z</time>
      </trkpt>
      <trkpt lat="45.58538" lon="5.35327">
        <ele>392.84</ele>
        <time>2017-02-11T08:32:44Z</time>
      </trkpt>
      <trkpt lat="45.58533" lon="5.35305">
        <ele>394.28</ele>
        <time>2017-02-11T08:32:52Z</time>
      </trkpt>
      <trkpt lat="45.58527" lon="5.35286">
        <ele>395.24</ele>
        <time>2017-02-11T08:32:59Z</time>
      </trkpt>
      <trkpt lat="45.58528" lon="5.35259">
        <ele>396.2</ele>
        <time>2017-02-11T08:33:07Z</time>
      </trkpt>
      <trkpt lat="45.58529" lon="5.35239">
        <ele>396.2</ele>
        <time>2017-02-11T08:33:13Z</time>
      </trkpt>
      <trkpt lat="45.58529" lon="5.35217">
        <ele>396.2</ele>
        <time>2017-02-11T08:33:20Z</time>
      </trkpt>
      <trkpt lat="45.58527" lon="5.35187">
        <ele>395.72</ele>
        <time>2017-02-11T08:33:28Z</time>
      </trkpt>
      <trkpt lat="45.58525" lon="5.35161">
        <ele>395.72</ele>
        <time>2017-02-11T08:33:36Z</time>
      </trkpt>
      <trkpt lat="45.58528" lon="5.3513">
        <ele>394.76</ele>
        <time>2017-02-11T08:33:43Z</time>
      </trkpt>
      <trkpt lat="45.58531" lon="5.35104">
        <ele>395.24</ele>
        <time>2017-02-11T08:33:50Z</time>
      </trkpt>
      <trkpt lat="45.58531" lon="5.3508">
        <ele>395.24</ele>
        <time>2017-02-11T08:33:57Z</time>
      </trkpt>
      <trkpt lat="45.58529" lon="5.35063">
        <ele>395.24</ele>
        <time>2017-02-11T08:34:03Z</time>
      </trkpt>
      <trkpt lat="45.58524" lon="5.35046">
        <ele>396.2</ele>
        <time>2017-02-11T08:34:10Z</time>
      </trkpt>
      <trkpt lat="45.58518" lon="5.35024">
        <ele>398.12</ele>
        <time>2017-02-11T08:34:18Z</time>
      </trkpt>
      <trkpt lat="45.58507" lon="5.35006">
        <ele>400.05</ele>
        <time>2017-02-11T08:34:25Z</time>
      </trkpt>
      <trkpt lat="45.58501" lon="5.34985">
        <ele>401.49</ele>
        <time>2017-02-11T08:34:34Z</time>
      </trkpt>
      <trkpt lat="45.58493" lon="5.34965">
        <ele>403.41</ele>
        <time>2017-02-11T08:34:42Z</time>
      </trkpt>
      <trkpt lat="45.58482" lon="5.34931">
        <ele>403.41</ele>
        <time>2017-02-11T08:34:53Z</time>
      </trkpt>
      <trkpt lat="45.58476" lon="5.34912">
        <ele>403.89</ele>
        <time>2017-02-11T08:35:00Z</time>
      </trkpt>
      <trkpt lat="45.58473" lon="5.34899">
        <ele>405.33</ele>
        <time>2017-02-11T08:35:05Z</time>
      </trkpt>
      <trkpt lat="45.58465" lon="5.34876">
        <ele>407.26</ele>
        <time>2017-02-11T08:35:12Z</time>
      </trkpt>
      <trkpt lat="45.5845" lon="5.34845">
        <ele>409.66</ele>
        <time>2017-02-11T08:35:22Z</time>
      </trkpt>
      <trkpt lat="45.58443" lon="5.34828">
        <ele>412.06</ele>
        <time>2017-02-11T08:35:32Z</time>
      </trkpt>
      <trkpt lat="45.58435" lon="5.34812">
        <ele>413.98</ele>
        <time>2017-02-11T08:35:42Z</time>
      </trkpt>
      <trkpt lat="45.58426" lon="5.34795">
        <ele>414.95</ele>
        <time>2017-02-11T08:35:49Z</time>
      </trkpt>
      <trkpt lat="45.5842" lon="5.34779">
        <ele>413.5</ele>
        <time>2017-02-11T08:35:55Z</time>
      </trkpt>
      <trkpt lat="45.5842" lon="5.34751">
        <ele>411.1</ele>
        <time>2017-02-11T08:36:02Z</time>
      </trkpt>
      <trkpt lat="45.58425" lon="5.34721">
        <ele>410.62</ele>
        <time>2017-02-11T08:36:10Z</time>
      </trkpt>
      <trkpt lat="45.58424" lon="5.3469">
        <ele>413.02</ele>
        <time>2017-02-11T08:36:18Z</time>
      </trkpt>
      <trkpt lat="45.58421" lon="5.34661">
        <ele>413.5</ele>
        <time>2017-02-11T08:36:26Z</time>
      </trkpt>
      <trkpt lat="45.58419" lon="5.34637">
        <ele>413.98</ele>
        <time>2017-02-11T08:36:33Z</time>
      </trkpt>
      <trkpt lat="45.58418" lon="5.34612">
        <ele>413.02</ele>
        <time>2017-02-11T08:36:40Z</time>
      </trkpt>
      <trkpt lat="45.58413" lon="5.34575">
        <ele>411.58</ele>
        <time>2017-02-11T08:36:49Z</time>
      </trkpt>
      <trkpt lat="45.58415" lon="5.3455">
        <ele>411.1</ele>
        <time>2017-02-11T08:36:55Z</time>
      </trkpt>
      <trkpt lat="45.58428" lon="5.34529">
        <ele>410.62</ele>
        <time>2017-02-11T08:37:02Z</time>
      </trkpt>
      <trkpt lat="45.58435" lon="5.34511">
        <ele>410.62</ele>
        <time>2017-02-11T08:37:09Z</time>
      </trkpt>
      <trkpt lat="45.58426" lon="5.34504">
        <ele>410.62</ele>
        <time>2017-02-11T08:37:15Z</time>
      </trkpt>
      <trkpt lat="45.58415" lon="5.34496">
        <ele>411.58</ele>
        <time>2017-02-11T08:37:33Z</time>
      </trkpt>
      <trkpt lat="45.58407" lon="5.34491">
        <ele>412.06</ele>
        <time>2017-02-11T08:37:39Z</time>
      </trkpt>
      <trkpt lat="45.58395" lon="5.3448">
        <ele>414.47</ele>
        <time>2017-02-11T08:37:49Z</time>
      </trkpt>
      <trkpt lat="45.58378" lon="5.34467">
        <ele>416.39</ele>
        <time>2017-02-11T08:38:00Z</time>
      </trkpt>
      <trkpt lat="45.58362" lon="5.34462">
        <ele>418.79</ele>
        <time>2017-02-11T08:38:10Z</time>
      </trkpt>
      <trkpt lat="45.58348" lon="5.34461">
        <ele>421.68</ele>
        <time>2017-02-11T08:38:19Z</time>
      </trkpt>
      <trkpt lat="45.58334" lon="5.34463">
        <ele>424.08</ele>
        <time>2017-02-11T08:38:30Z</time>
      </trkpt>
      <trkpt lat="45.58324" lon="5.34459">
        <ele>426.48</ele>
        <time>2017-02-11T08:38:43Z</time>
      </trkpt>
      <trkpt lat="45.58313" lon="5.34456">
        <ele>428.4</ele>
        <time>2017-02-11T08:38:52Z</time>
      </trkpt>
      <trkpt lat="45.58304" lon="5.34449">
        <ele>430.33</ele>
        <time>2017-02-11T08:39:01Z</time>
      </trkpt>
      <trkpt lat="45.58291" lon="5.34435">
        <ele>433.21</ele>
        <time>2017-02-11T08:39:14Z</time>
      </trkpt>
      <trkpt lat="45.58286" lon="5.3442">
        <ele>434.65</ele>
        <time>2017-02-11T08:39:22Z</time>
      </trkpt>
      <trkpt lat="45.58279" lon="5.34413">
        <ele>436.58</ele>
        <time>2017-02-11T08:39:29Z</time>
      </trkpt>
      <trkpt lat="45.58267" lon="5.34401">
        <ele>438.5</ele>
        <time>2017-02-11T08:39:41Z</time>
      </trkpt>
      <trkpt lat="45.58259" lon="5.34389">
        <ele>439.46</ele>
        <time>2017-02-11T08:39:51Z</time>
      </trkpt>
      <trkpt lat="45.58255" lon="5.34383">
        <ele>440.42</ele>
        <time>2017-02-11T08:39:55Z</time>
      </trkpt>
      <trkpt lat="45.58248" lon="5.34376">
        <ele>440.9</ele>
        <time>2017-02-11T08:40:00Z</time>
      </trkpt>
      <trkpt lat="45.58239" lon="5.34359">
        <ele>441.86</ele>
        <time>2017-02-11T08:40:10Z</time>
      </trkpt>
      <trkpt lat="45.58237" lon="5.34345">
        <ele>441.86</ele>
        <time>2017-02-11T08:41:14Z</time>
      </trkpt>
      <trkpt lat="45.58236" lon="5.34324">
        <ele>442.82</ele>
        <time>2017-02-11T08:41:21Z</time>
      </trkpt>
      <trkpt lat="45.5823" lon="5.34301">
        <ele>443.31</ele>
        <time>2017-02-11T08:41:28Z</time>
      </trkpt>
      <trkpt lat="45.58226" lon="5.34287">
        <ele>443.31</ele>
        <time>2017-02-11T08:41:34Z</time>
      </trkpt>
      <trkpt lat="45.58215" lon="5.3426">
        <ele>443.79</ele>
        <time>2017-02-11T08:41:45Z</time>
      </trkpt>
      <trkpt lat="45.58206" lon="5.34237">
        <ele>444.27</ele>
        <time>2017-02-11T08:41:55Z</time>
      </trkpt>
      <trkpt lat="45.58202" lon="5.3421">
        <ele>443.79</ele>
        <time>2017-02-11T08:42:04Z</time>
      </trkpt>
      <trkpt lat="45.58193" lon="5.34193">
        <ele>442.82</ele>
        <time>2017-02-11T08:42:10Z</time>
      </trkpt>
      <trkpt lat="45.58181" lon="5.34165">
        <ele>441.86</ele>
        <time>2017-02-11T08:42:20Z</time>
      </trkpt>
      <trkpt lat="45.5817" lon="5.34156">
        <ele>440.9</ele>
        <time>2017-02-11T08:42:26Z</time>
      </trkpt>
      <trkpt lat="45.58154" lon="5.34151">
        <ele>439.94</ele>
        <time>2017-02-11T08:42:31Z</time>
      </trkpt>
      <trkpt lat="45.58139" lon="5.34147">
        <ele>438.5</ele>
        <time>2017-02-11T08:42:37Z</time>
      </trkpt>
      <trkpt lat="45.58122" lon="5.3414">
        <ele>437.54</ele>
        <time>2017-02-11T08:42:45Z</time>
      </trkpt>
      <trkpt lat="45.58102" lon="5.34127">
        <ele>436.58</ele>
        <time>2017-02-11T08:42:53Z</time>
      </trkpt>
      <trkpt lat="45.58082" lon="5.34117">
        <ele>434.65</ele>
        <time>2017-02-11T08:43:01Z</time>
      </trkpt>
      <trkpt lat="45.58068" lon="5.34109">
        <ele>431.77</ele>
        <time>2017-02-11T08:43:08Z</time>
      </trkpt>
      <trkpt lat="45.58047" lon="5.34107">
        <ele>428.89</ele>
        <time>2017-02-11T08:43:14Z</time>
      </trkpt>
      <trkpt lat="45.58025" lon="5.34095">
        <ele>426.96</ele>
        <time>2017-02-11T08:43:20Z</time>
      </trkpt>
      <trkpt lat="45.58002" lon="5.34083">
        <ele>423.6</ele>
        <time>2017-02-11T08:43:29Z</time>
      </trkpt>
      <trkpt lat="45.58003" lon="5.34099">
        <ele>424.56</ele>
        <time>2017-02-11T08:43:42Z</time>
      </trkpt>
      <trkpt lat="45.57989" lon="5.34087">
        <ele>424.56</ele>
        <time>2017-02-11T08:43:49Z</time>
      </trkpt>
      <trkpt lat="45.57977" lon="5.34084">
        <ele>426.48</ele>
        <time>2017-02-11T08:43:57Z</time>
      </trkpt>
      <trkpt lat="45.57965" lon="5.34085">
        <ele>433.21</ele>
        <time>2017-02-11T08:44:10Z</time>
      </trkpt>
      <trkpt lat="45.57938" lon="5.34079">
        <ele>440.42</ele>
        <time>2017-02-11T08:44:34Z</time>
      </trkpt>
      <trkpt lat="45.5792" lon="5.34075">
        <ele>441.86</ele>
        <time>2017-02-11T08:44:43Z</time>
      </trkpt>
      <trkpt lat="45.57905" lon="5.34078">
        <ele>444.27</ele>
        <time>2017-02-11T08:44:53Z</time>
      </trkpt>
      <trkpt lat="45.57888" lon="5.34075">
        <ele>446.19</ele>
        <time>2017-02-11T08:45:01Z</time>
      </trkpt>
      <trkpt lat="45.57869" lon="5.34068">
        <ele>445.23</ele>
        <time>2017-02-11T08:45:07Z</time>
      </trkpt>
      <trkpt lat="45.57856" lon="5.34065">
        <ele>444.75</ele>
        <time>2017-02-11T08:45:13Z</time>
      </trkpt>
      <trkpt lat="45.57847" lon="5.3406">
        <ele>443.31</ele>
        <time>2017-02-11T08:45:19Z</time>
      </trkpt>
      <trkpt lat="45.5784" lon="5.34062">
        <ele>444.75</ele>
        <time>2017-02-11T08:45:25Z</time>
      </trkpt>
      <trkpt lat="45.57825" lon="5.34054">
        <ele>446.67</ele>
        <time>2017-02-11T08:45:34Z</time>
      </trkpt>
      <trkpt lat="45.57818" lon="5.3405">
        <ele>447.15</ele>
        <time>2017-02-11T08:45:39Z</time>
      </trkpt>
      <trkpt lat="45.57814" lon="5.34059">
        <ele>448.59</ele>
        <time>2017-02-11T08:45:50Z</time>
      </trkpt>
      <trkpt lat="45.57816" lon="5.34082">
        <ele>451.48</ele>
        <time>2017-02-11T08:46:05Z</time>
      </trkpt>
      <trkpt lat="45.57822" lon="5.34099">
        <ele>452.92</ele>
        <time>2017-02-11T08:46:16Z</time>
      </trkpt>
      <trkpt lat="45.57822" lon="5.3411">
        <ele>454.36</ele>
        <time>2017-02-11T08:46:22Z</time>
      </trkpt>
      <trkpt lat="45.57823" lon="5.34121">
        <ele>455.8</ele>
        <time>2017-02-11T08:46:30Z</time>
      </trkpt>
      <trkpt lat="45.57825" lon="5.34147">
        <ele>459.17</ele>
        <time>2017-02-11T08:46:46Z</time>
      </trkpt>
      <trkpt lat="45.57825" lon="5.34158">
        <ele>460.61</ele>
        <time>2017-02-11T08:46:54Z</time>
      </trkpt>
      <trkpt lat="45.57826" lon="5.34177">
        <ele>463.01</ele>
        <time>2017-02-11T08:47:05Z</time>
      </trkpt>
      <trkpt lat="45.57829" lon="5.34194">
        <ele>464.45</ele>
        <time>2017-02-11T08:47:16Z</time>
      </trkpt>
      <trkpt lat="45.57828" lon="5.34208">
        <ele>466.38</ele>
        <time>2017-02-11T08:47:25Z</time>
      </trkpt>
      <trkpt lat="45.57826" lon="5.34222">
        <ele>468.3</ele>
        <time>2017-02-11T08:47:35Z</time>
      </trkpt>
      <trkpt lat="45.57827" lon="5.34243">
        <ele>470.7</ele>
        <time>2017-02-11T08:47:47Z</time>
      </trkpt>
      <trkpt lat="45.57826" lon="5.34255">
        <ele>471.66</ele>
        <time>2017-02-11T08:47:54Z</time>
      </trkpt>
      <trkpt lat="45.57825" lon="5.34268">
        <ele>473.11</ele>
        <time>2017-02-11T08:48:01Z</time>
      </trkpt>
      <trkpt lat="45.57825" lon="5.34281">
        <ele>473.59</ele>
        <time>2017-02-11T08:48:09Z</time>
      </trkpt>
      <trkpt lat="45.57825" lon="5.34298">
        <ele>475.51</ele>
        <time>2017-02-11T08:48:19Z</time>
      </trkpt>
      <trkpt lat="45.57823" lon="5.34318">
        <ele>476.95</ele>
        <time>2017-02-11T08:48:30Z</time>
      </trkpt>
      <trkpt lat="45.5782" lon="5.34332">
        <ele>477.43</ele>
        <time>2017-02-11T08:48:38Z</time>
      </trkpt>
      <trkpt lat="45.57822" lon="5.34348">
        <ele>478.39</ele>
        <time>2017-02-11T08:48:47Z</time>
      </trkpt>
      <trkpt lat="45.57826" lon="5.3437">
        <ele>479.35</ele>
        <time>2017-02-11T08:49:00Z</time>
      </trkpt>
      <trkpt lat="45.57827" lon="5.34396">
        <ele>479.84</ele>
        <time>2017-02-11T08:49:15Z</time>
      </trkpt>
      <trkpt lat="45.57828" lon="5.34419">
        <ele>479.84</ele>
        <time>2017-02-11T08:49:26Z</time>
      </trkpt>
      <trkpt lat="45.57833" lon="5.34438">
        <ele>480.32</ele>
        <time>2017-02-11T08:49:36Z</time>
      </trkpt>
      <trkpt lat="45.57836" lon="5.34458">
        <ele>480.8</ele>
        <time>2017-02-11T08:49:45Z</time>
      </trkpt>
      <trkpt lat="45.57839" lon="5.34474">
        <ele>481.28</ele>
        <time>2017-02-11T08:49:56Z</time>
      </trkpt>
      <trkpt lat="45.57843" lon="5.34499">
        <ele>481.76</ele>
        <time>2017-02-11T08:50:10Z</time>
      </trkpt>
      <trkpt lat="45.57847" lon="5.34524">
        <ele>482.24</ele>
        <time>2017-02-11T08:50:20Z</time>
      </trkpt>
      <trkpt lat="45.5785" lon="5.34543">
        <ele>482.72</ele>
        <time>2017-02-11T08:50:27Z</time>
      </trkpt>
      <trkpt lat="45.57852" lon="5.34554">
        <ele>483.2</ele>
        <time>2017-02-11T08:50:31Z</time>
      </trkpt>
      <trkpt lat="45.57854" lon="5.34577">
        <ele>483.2</ele>
        <time>2017-02-11T08:50:40Z</time>
      </trkpt>
      <trkpt lat="45.57853" lon="5.34604">
        <ele>483.2</ele>
        <time>2017-02-11T08:50:48Z</time>
      </trkpt>
      <trkpt lat="45.57855" lon="5.34628">
        <ele>483.68</ele>
        <time>2017-02-11T08:50:55Z</time>
      </trkpt>
      <trkpt lat="45.57856" lon="5.34653">
        <ele>483.68</ele>
        <time>2017-02-11T08:51:03Z</time>
      </trkpt>
      <trkpt lat="45.57857" lon="5.34685">
        <ele>484.16</ele>
        <time>2017-02-11T08:51:13Z</time>
      </trkpt>
      <trkpt lat="45.57853" lon="5.34721">
        <ele>484.64</ele>
        <time>2017-02-11T08:51:23Z</time>
      </trkpt>
      <trkpt lat="45.5785" lon="5.34747">
        <ele>484.64</ele>
        <time>2017-02-11T08:51:32Z</time>
      </trkpt>
      <trkpt lat="45.57849" lon="5.34769">
        <ele>485.12</ele>
        <time>2017-02-11T08:51:40Z</time>
      </trkpt>
      <trkpt lat="45.57847" lon="5.3479">
        <ele>485.6</ele>
        <time>2017-02-11T08:51:47Z</time>
      </trkpt>
      <trkpt lat="45.57843" lon="5.34811">
        <ele>485.12</ele>
        <time>2017-02-11T08:51:53Z</time>
      </trkpt>
      <trkpt lat="45.57841" lon="5.34834">
        <ele>485.12</ele>
        <time>2017-02-11T08:52:00Z</time>
      </trkpt>
      <trkpt lat="45.57839" lon="5.3486">
        <ele>485.6</ele>
        <time>2017-02-11T08:52:08Z</time>
      </trkpt>
      <trkpt lat="45.57835" lon="5.3488">
        <ele>486.08</ele>
        <time>2017-02-11T08:52:14Z</time>
      </trkpt>
      <trkpt lat="45.57834" lon="5.34903">
        <ele>486.56</ele>
        <time>2017-02-11T08:52:21Z</time>
      </trkpt>
      <trkpt lat="45.5783" lon="5.34929">
        <ele>487.05</ele>
        <time>2017-02-11T08:52:28Z</time>
      </trkpt>
      <trkpt lat="45.57829" lon="5.34951">
        <ele>487.05</ele>
        <time>2017-02-11T08:52:35Z</time>
      </trkpt>
      <trkpt lat="45.57833" lon="5.3498">
        <ele>487.53</ele>
        <time>2017-02-11T08:52:44Z</time>
      </trkpt>
      <trkpt lat="45.5783" lon="5.35005">
        <ele>488.01</ele>
        <time>2017-02-11T08:52:51Z</time>
      </trkpt>
      <trkpt lat="45.5782" lon="5.35033">
        <ele>488.49</ele>
        <time>2017-02-11T08:52:59Z</time>
      </trkpt>
      <trkpt lat="45.57812" lon="5.35058">
        <ele>488.49</ele>
        <time>2017-02-11T08:53:07Z</time>
      </trkpt>
      <trkpt lat="45.57802" lon="5.35085">
        <ele>488.49</ele>
        <time>2017-02-11T08:53:14Z</time>
      </trkpt>
      <trkpt lat="45.57791" lon="5.35103">
        <ele>488.97</ele>
        <time>2017-02-11T08:53:20Z</time>
      </trkpt>
      <trkpt lat="45.57783" lon="5.35117">
        <ele>489.45</ele>
        <time>2017-02-11T08:53:25Z</time>
      </trkpt>
      <trkpt lat="45.57784" lon="5.35138">
        <ele>489.45</ele>
        <time>2017-02-11T08:53:31Z</time>
      </trkpt>
      <trkpt lat="45.57783" lon="5.35164">
        <ele>489.93</ele>
        <time>2017-02-11T08:53:39Z</time>
      </trkpt>
      <trkpt lat="45.57784" lon="5.35188">
        <ele>490.41</ele>
        <time>2017-02-11T08:53:47Z</time>
      </trkpt>
      <trkpt lat="45.57768" lon="5.35223">
        <ele>489.93</ele>
        <time>2017-02-11T08:53:57Z</time>
      </trkpt>
      <trkpt lat="45.57751" lon="5.35243">
        <ele>489.93</ele>
        <time>2017-02-11T08:54:05Z</time>
      </trkpt>
      <trkpt lat="45.57738" lon="5.35261">
        <ele>489.93</ele>
        <time>2017-02-11T08:54:12Z</time>
      </trkpt>
      <trkpt lat="45.57739" lon="5.35286">
        <ele>489.45</ele>
        <time>2017-02-11T08:54:20Z</time>
      </trkpt>
      <trkpt lat="45.57751" lon="5.35302">
        <ele>489.93</ele>
        <time>2017-02-11T08:54:27Z</time>
      </trkpt>
      <trkpt lat="45.57761" lon="5.35318">
        <ele>490.41</ele>
        <time>2017-02-11T08:54:34Z</time>
      </trkpt>
      <trkpt lat="45.57772" lon="5.35335">
        <ele>490.41</ele>
        <time>2017-02-11T08:54:41Z</time>
      </trkpt>
      <trkpt lat="45.57784" lon="5.35357">
        <ele>490.89</ele>
        <time>2017-02-11T08:54:49Z</time>
      </trkpt>
      <trkpt lat="45.57794" lon="5.35392">
        <ele>491.37</ele>
        <time>2017-02-11T08:54:59Z</time>
      </trkpt>
      <trkpt lat="45.57798" lon="5.35424">
        <ele>491.85</ele>
        <time>2017-02-11T08:55:08Z</time>
      </trkpt>
      <trkpt lat="45.57805" lon="5.35455">
        <ele>491.37</ele>
        <time>2017-02-11T08:55:18Z</time>
      </trkpt>
      <trkpt lat="45.57814" lon="5.3548">
        <ele>491.37</ele>
        <time>2017-02-11T08:55:26Z</time>
      </trkpt>
      <trkpt lat="45.57816" lon="5.35509">
        <ele>490.89</ele>
        <time>2017-02-11T08:55:34Z</time>
      </trkpt>
      <trkpt lat="45.57822" lon="5.35527">
        <ele>490.89</ele>
        <time>2017-02-11T08:55:40Z</time>
      </trkpt>
      <trkpt lat="45.57827" lon="5.35551">
        <ele>490.41</ele>
        <time>2017-02-11T08:55:47Z</time>
      </trkpt>
      <trkpt lat="45.57828" lon="5.3558">
        <ele>490.41</ele>
        <time>2017-02-11T08:55:55Z</time>
      </trkpt>
      <trkpt lat="45.57825" lon="5.356">
        <ele>489.93</ele>
        <time>2017-02-11T08:56:00Z</time>
      </trkpt>
      <trkpt lat="45.57821" lon="5.35623">
        <ele>489.93</ele>
        <time>2017-02-11T08:56:07Z</time>
      </trkpt>
      <trkpt lat="45.57817" lon="5.3565">
        <ele>489.45</ele>
        <time>2017-02-11T08:56:15Z</time>
      </trkpt>
      <trkpt lat="45.57813" lon="5.35686">
        <ele>489.45</ele>
        <time>2017-02-11T08:56:25Z</time>
      </trkpt>
      <trkpt lat="45.57812" lon="5.35704">
        <ele>489.93</ele>
        <time>2017-02-11T08:56:30Z</time>
      </trkpt>
      <trkpt lat="45.57807" lon="5.35726">
        <ele>489.45</ele>
        <time>2017-02-11T08:56:36Z</time>
      </trkpt>
      <trkpt lat="45.57802" lon="5.35743">
        <ele>489.93</ele>
        <time>2017-02-11T08:56:41Z</time>
      </trkpt>
      <trkpt lat="45.57799" lon="5.35759">
        <ele>489.93</ele>
        <time>2017-02-11T08:56:46Z</time>
      </trkpt>
      <trkpt lat="45.57793" lon="5.35776">
        <ele>489.93</ele>
        <time>2017-02-11T08:56:51Z</time>
      </trkpt>
      <trkpt lat="45.57782" lon="5.35803">
        <ele>490.41</ele>
        <time>2017-02-11T08:56:59Z</time>
      </trkpt>
      <trkpt lat="45.57774" lon="5.35822">
        <ele>490.89</ele>
        <time>2017-02-11T08:57:05Z</time>
      </trkpt>
      <trkpt lat="45.57767" lon="5.35837">
        <ele>490.89</ele>
        <time>2017-02-11T08:57:10Z</time>
      </trkpt>
      <trkpt lat="45.57759" lon="5.35854">
        <ele>490.41</ele>
        <time>2017-02-11T08:57:15Z</time>
      </trkpt>
      <trkpt lat="45.57749" lon="5.35873">
        <ele>490.41</ele>
        <time>2017-02-11T08:57:21Z</time>
      </trkpt>
      <trkpt lat="45.57745" lon="5.35893">
        <ele>489.93</ele>
        <time>2017-02-11T08:57:27Z</time>
      </trkpt>
      <trkpt lat="45.57742" lon="5.35909">
        <ele>489.93</ele>
        <time>2017-02-11T08:57:31Z</time>
      </trkpt>
      <trkpt lat="45.57735" lon="5.35921">
        <ele>489.45</ele>
        <time>2017-02-11T08:57:36Z</time>
      </trkpt>
      <trkpt lat="45.57729" lon="5.35929">
        <ele>488.97</ele>
        <time>2017-02-11T08:57:42Z</time>
      </trkpt>
      <trkpt lat="45.57725" lon="5.35935">
        <ele>488.97</ele>
        <time>2017-02-11T08:57:48Z</time>
      </trkpt>
      <trkpt lat="45.57716" lon="5.35951">
        <ele>488.49</ele>
        <time>2017-02-11T08:58:00Z</time>
      </trkpt>
      <trkpt lat="45.57708" lon="5.35959">
        <ele>488.49</ele>
        <time>2017-02-11T08:58:07Z</time>
      </trkpt>
      <trkpt lat="45.577" lon="5.35972">
        <ele>488.01</ele>
        <time>2017-02-11T08:58:15Z</time>
      </trkpt>
      <trkpt lat="45.57687" lon="5.35997">
        <ele>488.01</ele>
        <time>2017-02-11T08:58:23Z</time>
      </trkpt>
      <trkpt lat="45.57682" lon="5.36007">
        <ele>488.49</ele>
        <time>2017-02-11T08:58:27Z</time>
      </trkpt>
      <trkpt lat="45.57671" lon="5.36022">
        <ele>488.97</ele>
        <time>2017-02-11T08:58:34Z</time>
      </trkpt>
      <trkpt lat="45.57659" lon="5.36035">
        <ele>489.93</ele>
        <time>2017-02-11T08:58:40Z</time>
      </trkpt>
      <trkpt lat="45.57649" lon="5.36047">
        <ele>489.93</ele>
        <time>2017-02-11T08:58:45Z</time>
      </trkpt>
      <trkpt lat="45.57641" lon="5.36062">
        <ele>489.93</ele>
        <time>2017-02-11T08:58:50Z</time>
      </trkpt>
      <trkpt lat="45.57633" lon="5.36073">
        <ele>489.93</ele>
        <time>2017-02-11T08:58:55Z</time>
      </trkpt>
      <trkpt lat="45.57625" lon="5.36081">
        <ele>490.89</ele>
        <time>2017-02-11T08:58:59Z</time>
      </trkpt>
      <trkpt lat="45.57619" lon="5.36089">
        <ele>491.37</ele>
        <time>2017-02-11T08:59:03Z</time>
      </trkpt>
      <trkpt lat="45.57615" lon="5.36098">
        <ele>491.85</ele>
        <time>2017-02-11T08:59:07Z</time>
      </trkpt>
      <trkpt lat="45.5761" lon="5.36087">
        <ele>490.89</ele>
        <time>2017-02-11T08:59:18Z</time>
      </trkpt>
      <trkpt lat="45.5761" lon="5.36076">
        <ele>490.41</ele>
        <time>2017-02-11T08:59:38Z</time>
      </trkpt>
      <trkpt lat="45.57613" lon="5.36062">
        <ele>489.45</ele>
        <time>2017-02-11T08:59:43Z</time>
      </trkpt>
      <trkpt lat="45.57616" lon="5.36047">
        <ele>488.49</ele>
        <time>2017-02-11T08:59:47Z</time>
      </trkpt>
      <trkpt lat="45.5762" lon="5.36029">
        <ele>487.53</ele>
        <time>2017-02-11T08:59:52Z</time>
      </trkpt>
      <trkpt lat="45.57626" lon="5.36009">
        <ele>486.56</ele>
        <time>2017-02-11T08:59:58Z</time>
      </trkpt>
      <trkpt lat="45.5763" lon="5.35984">
        <ele>485.12</ele>
        <time>2017-02-11T09:00:05Z</time>
      </trkpt>
      <trkpt lat="45.57632" lon="5.35966">
        <ele>484.64</ele>
        <time>2017-02-11T09:00:10Z</time>
      </trkpt>
      <trkpt lat="45.57635" lon="5.35952">
        <ele>484.16</ele>
        <time>2017-02-11T09:00:14Z</time>
      </trkpt>
      <trkpt lat="45.57636" lon="5.35939">
        <ele>483.2</ele>
        <time>2017-02-11T09:00:19Z</time>
      </trkpt>
      <trkpt lat="45.57635" lon="5.35919">
        <ele>479.84</ele>
        <time>2017-02-11T09:00:26Z</time>
      </trkpt>
      <trkpt lat="45.57632" lon="5.35902">
        <ele>476.95</ele>
        <time>2017-02-11T09:00:31Z</time>
      </trkpt>
      <trkpt lat="45.57635" lon="5.35891">
        <ele>475.03</ele>
        <time>2017-02-11T09:00:34Z</time>
      </trkpt>
      <trkpt lat="45.57639" lon="5.35877">
        <ele>472.14</ele>
        <time>2017-02-11T09:00:38Z</time>
      </trkpt>
      <trkpt lat="45.57644" lon="5.35864">
        <ele>470.7</ele>
        <time>2017-02-11T09:00:41Z</time>
      </trkpt>
      <trkpt lat="45.57647" lon="5.35847">
        <ele>466.86</ele>
        <time>2017-02-11T09:00:45Z</time>
      </trkpt>
      <trkpt lat="45.57648" lon="5.35834">
        <ele>465.42</ele>
        <time>2017-02-11T09:00:48Z</time>
      </trkpt>
      <trkpt lat="45.57647" lon="5.35815">
        <ele>462.05</ele>
        <time>2017-02-11T09:00:53Z</time>
      </trkpt>
      <trkpt lat="45.57647" lon="5.35785">
        <ele>458.69</ele>
        <time>2017-02-11T09:01:00Z</time>
      </trkpt>
      <trkpt lat="45.57653" lon="5.35755">
        <ele>455.8</ele>
        <time>2017-02-11T09:01:07Z</time>
      </trkpt>
      <trkpt lat="45.57661" lon="5.35727">
        <ele>452.44</ele>
        <time>2017-02-11T09:01:14Z</time>
      </trkpt>
      <trkpt lat="45.57664" lon="5.357">
        <ele>450.03</ele>
        <time>2017-02-11T09:01:21Z</time>
      </trkpt>
      <trkpt lat="45.57671" lon="5.35665">
        <ele>447.15</ele>
        <time>2017-02-11T09:01:30Z</time>
      </trkpt>
      <trkpt lat="45.57676" lon="5.35635">
        <ele>444.27</ele>
        <time>2017-02-11T09:01:37Z</time>
      </trkpt>
      <trkpt lat="45.57681" lon="5.3561">
        <ele>441.38</ele>
        <time>2017-02-11T09:01:43Z</time>
      </trkpt>
      <trkpt lat="45.57684" lon="5.35587">
        <ele>438.98</ele>
        <time>2017-02-11T09:01:50Z</time>
      </trkpt>
      <trkpt lat="45.57682" lon="5.35553">
        <ele>436.58</ele>
        <time>2017-02-11T09:02:00Z</time>
      </trkpt>
      <trkpt lat="45.57678" lon="5.35526">
        <ele>434.65</ele>
        <time>2017-02-11T09:02:08Z</time>
      </trkpt>
      <trkpt lat="45.57672" lon="5.35516">
        <ele>433.21</ele>
        <time>2017-02-11T09:02:12Z</time>
      </trkpt>
      <trkpt lat="45.57665" lon="5.35506">
        <ele>431.77</ele>
        <time>2017-02-11T09:02:16Z</time>
      </trkpt>
      <trkpt lat="45.57648" lon="5.35497">
        <ele>430.33</ele>
        <time>2017-02-11T09:02:23Z</time>
      </trkpt>
      <trkpt lat="45.57633" lon="5.35486">
        <ele>428.4</ele>
        <time>2017-02-11T09:02:29Z</time>
      </trkpt>
      <trkpt lat="45.57619" lon="5.35481">
        <ele>426.96</ele>
        <time>2017-02-11T09:02:35Z</time>
      </trkpt>
      <trkpt lat="45.57601" lon="5.3547">
        <ele>426</ele>
        <time>2017-02-11T09:02:41Z</time>
      </trkpt>
      <trkpt lat="45.57587" lon="5.35464">
        <ele>424.08</ele>
        <time>2017-02-11T09:02:46Z</time>
      </trkpt>
      <trkpt lat="45.5757" lon="5.3546">
        <ele>423.6</ele>
        <time>2017-02-11T09:02:52Z</time>
      </trkpt>
      <trkpt lat="45.57548" lon="5.35453">
        <ele>422.64</ele>
        <time>2017-02-11T09:03:00Z</time>
      </trkpt>
      <trkpt lat="45.57528" lon="5.35447">
        <ele>421.19</ele>
        <time>2017-02-11T09:03:08Z</time>
      </trkpt>
      <trkpt lat="45.57514" lon="5.35441">
        <ele>421.19</ele>
        <time>2017-02-11T09:03:14Z</time>
      </trkpt>
      <trkpt lat="45.57496" lon="5.35431">
        <ele>421.19</ele>
        <time>2017-02-11T09:03:22Z</time>
      </trkpt>
      <trkpt lat="45.57474" lon="5.35428">
        <ele>420.23</ele>
        <time>2017-02-11T09:03:30Z</time>
      </trkpt>
      <trkpt lat="45.57457" lon="5.35431">
        <ele>418.79</ele>
        <time>2017-02-11T09:03:36Z</time>
      </trkpt>
      <trkpt lat="45.57434" lon="5.35432">
        <ele>416.87</ele>
        <time>2017-02-11T09:03:44Z</time>
      </trkpt>
      <trkpt lat="45.57412" lon="5.35436">
        <ele>417.35</ele>
        <time>2017-02-11T09:03:52Z</time>
      </trkpt>
      <trkpt lat="45.57396" lon="5.35442">
        <ele>414.95</ele>
        <time>2017-02-11T09:03:58Z</time>
      </trkpt>
      <trkpt lat="45.57391" lon="5.3545">
        <ele>413.5</ele>
        <time>2017-02-11T09:04:04Z</time>
      </trkpt>
      <trkpt lat="45.57387" lon="5.35461">
        <ele>409.66</ele>
        <time>2017-02-11T09:04:09Z</time>
      </trkpt>
      <trkpt lat="45.57381" lon="5.35474">
        <ele>406.29</ele>
        <time>2017-02-11T09:04:14Z</time>
      </trkpt>
      <trkpt lat="45.57375" lon="5.35485">
        <ele>403.41</ele>
        <time>2017-02-11T09:04:19Z</time>
      </trkpt>
      <trkpt lat="45.57371" lon="5.35498">
        <ele>400.05</ele>
        <time>2017-02-11T09:04:24Z</time>
      </trkpt>
      <trkpt lat="45.57365" lon="5.35517">
        <ele>396.68</ele>
        <time>2017-02-11T09:04:31Z</time>
      </trkpt>
      <trkpt lat="45.57351" lon="5.35533">
        <ele>394.28</ele>
        <time>2017-02-11T09:04:39Z</time>
      </trkpt>
      <trkpt lat="45.57331" lon="5.35544">
        <ele>390.43</ele>
        <time>2017-02-11T09:04:46Z</time>
      </trkpt>
      <trkpt lat="45.5732" lon="5.35543">
        <ele>387.07</ele>
        <time>2017-02-11T09:04:51Z</time>
      </trkpt>
      <trkpt lat="45.57307" lon="5.35533">
        <ele>383.22</ele>
        <time>2017-02-11T09:04:57Z</time>
      </trkpt>
      <trkpt lat="45.57303" lon="5.35525">
        <ele>381.78</ele>
        <time>2017-02-11T09:05:00Z</time>
      </trkpt>
      <trkpt lat="45.57291" lon="5.35524">
        <ele>378.42</ele>
        <time>2017-02-11T09:05:05Z</time>
      </trkpt>
      <trkpt lat="45.57273" lon="5.35527">
        <ele>375.05</ele>
        <time>2017-02-11T09:05:12Z</time>
      </trkpt>
      <trkpt lat="45.57254" lon="5.35529">
        <ele>371.69</ele>
        <time>2017-02-11T09:05:21Z</time>
      </trkpt>
      <trkpt lat="45.57236" lon="5.35524">
        <ele>368.32</ele>
        <time>2017-02-11T09:05:28Z</time>
      </trkpt>
      <trkpt lat="45.57219" lon="5.35519">
        <ele>365.44</ele>
        <time>2017-02-11T09:05:35Z</time>
      </trkpt>
      <trkpt lat="45.57202" lon="5.35509">
        <ele>362.55</ele>
        <time>2017-02-11T09:05:42Z</time>
      </trkpt>
      <trkpt lat="45.57182" lon="5.35501">
        <ele>358.71</ele>
        <time>2017-02-11T09:05:50Z</time>
      </trkpt>
      <trkpt lat="45.57165" lon="5.35502">
        <ele>355.83</ele>
        <time>2017-02-11T09:05:57Z</time>
      </trkpt>
      <trkpt lat="45.57141" lon="5.35496">
        <ele>353.42</ele>
        <time>2017-02-11T09:06:06Z</time>
      </trkpt>
      <trkpt lat="45.57118" lon="5.35496">
        <ele>351.02</ele>
        <time>2017-02-11T09:06:16Z</time>
      </trkpt>
      <trkpt lat="45.57101" lon="5.35503">
        <ele>349.1</ele>
        <time>2017-02-11T09:06:23Z</time>
      </trkpt>
      <trkpt lat="45.57085" lon="5.35508">
        <ele>347.17</ele>
        <time>2017-02-11T09:06:30Z</time>
      </trkpt>
      <trkpt lat="45.57063" lon="5.35512">
        <ele>344.29</ele>
        <time>2017-02-11T09:06:39Z</time>
      </trkpt>
      <trkpt lat="45.57046" lon="5.35511">
        <ele>342.85</ele>
        <time>2017-02-11T09:06:46Z</time>
      </trkpt>
      <trkpt lat="45.57027" lon="5.35509">
        <ele>340.92</ele>
        <time>2017-02-11T09:06:54Z</time>
      </trkpt>
      <trkpt lat="45.5701" lon="5.35505">
        <ele>338.52</ele>
        <time>2017-02-11T09:07:00Z</time>
      </trkpt>
      <trkpt lat="45.56987" lon="5.35495">
        <ele>336.12</ele>
        <time>2017-02-11T09:07:08Z</time>
      </trkpt>
      <trkpt lat="45.56968" lon="5.35495">
        <ele>334.2</ele>
        <time>2017-02-11T09:07:16Z</time>
      </trkpt>
      <trkpt lat="45.56948" lon="5.35484">
        <ele>332.27</ele>
        <time>2017-02-11T09:07:24Z</time>
      </trkpt>
      <trkpt lat="45.5693" lon="5.3547">
        <ele>330.35</ele>
        <time>2017-02-11T09:07:32Z</time>
      </trkpt>
      <trkpt lat="45.56913" lon="5.35462">
        <ele>328.43</ele>
        <time>2017-02-11T09:07:39Z</time>
      </trkpt>
      <trkpt lat="45.56893" lon="5.35458">
        <ele>326.99</ele>
        <time>2017-02-11T09:07:46Z</time>
      </trkpt>
      <trkpt lat="45.56883" lon="5.35455">
        <ele>326.5</ele>
        <time>2017-02-11T09:07:50Z</time>
      </trkpt>
      <trkpt lat="45.56869" lon="5.3545">
        <ele>325.06</ele>
        <time>2017-02-11T09:07:55Z</time>
      </trkpt>
      <trkpt lat="45.56857" lon="5.35445">
        <ele>323.62</ele>
        <time>2017-02-11T09:08:00Z</time>
      </trkpt>
      <trkpt lat="45.56845" lon="5.35438">
        <ele>322.66</ele>
        <time>2017-02-11T09:08:05Z</time>
      </trkpt>
      <trkpt lat="45.56827" lon="5.35437">
        <ele>322.18</ele>
        <time>2017-02-11T09:08:13Z</time>
      </trkpt>
      <trkpt lat="45.56822" lon="5.35432">
        <ele>321.22</ele>
        <time>2017-02-11T09:08:19Z</time>
      </trkpt>
      <trkpt lat="45.56825" lon="5.35448">
        <ele>322.18</ele>
        <time>2017-02-11T09:09:37Z</time>
      </trkpt>
      <trkpt lat="45.56827" lon="5.35473">
        <ele>322.66</ele>
        <time>2017-02-11T09:09:49Z</time>
      </trkpt>
      <trkpt lat="45.56828" lon="5.35495">
        <ele>322.18</ele>
        <time>2017-02-11T09:09:57Z</time>
      </trkpt>
      <trkpt lat="45.56829" lon="5.35515">
        <ele>321.7</ele>
        <time>2017-02-11T09:10:03Z</time>
      </trkpt>
      <trkpt lat="45.56833" lon="5.35546">
        <ele>321.22</ele>
        <time>2017-02-11T09:10:12Z</time>
      </trkpt>
      <trkpt lat="45.56836" lon="5.35569">
        <ele>321.22</ele>
        <time>2017-02-11T09:10:18Z</time>
      </trkpt>
      <trkpt lat="45.56835" lon="5.35593">
        <ele>321.22</ele>
        <time>2017-02-11T09:10:25Z</time>
      </trkpt>
      <trkpt lat="45.56837" lon="5.35622">
        <ele>320.26</ele>
        <time>2017-02-11T09:10:33Z</time>
      </trkpt>
      <trkpt lat="45.56839" lon="5.3564">
        <ele>319.78</ele>
        <time>2017-02-11T09:10:38Z</time>
      </trkpt>
      <trkpt lat="45.5684" lon="5.35658">
        <ele>319.3</ele>
        <time>2017-02-11T09:10:43Z</time>
      </trkpt>
      <trkpt lat="45.56843" lon="5.35679">
        <ele>318.81</ele>
        <time>2017-02-11T09:10:48Z</time>
      </trkpt>
      <trkpt lat="45.56845" lon="5.35697">
        <ele>318.33</ele>
        <time>2017-02-11T09:10:53Z</time>
      </trkpt>
      <trkpt lat="45.56847" lon="5.35715">
        <ele>318.81</ele>
        <time>2017-02-11T09:10:58Z</time>
      </trkpt>
      <trkpt lat="45.56846" lon="5.35733">
        <ele>318.81</ele>
        <time>2017-02-11T09:11:03Z</time>
      </trkpt>
      <trkpt lat="45.56843" lon="5.3576">
        <ele>320.26</ele>
        <time>2017-02-11T09:11:11Z</time>
      </trkpt>
      <trkpt lat="45.56847" lon="5.35777">
        <ele>320.74</ele>
        <time>2017-02-11T09:11:16Z</time>
      </trkpt>
      <trkpt lat="45.5685" lon="5.35801">
        <ele>321.7</ele>
        <time>2017-02-11T09:11:24Z</time>
      </trkpt>
      <trkpt lat="45.56854" lon="5.35824">
        <ele>322.66</ele>
        <time>2017-02-11T09:11:33Z</time>
      </trkpt>
      <trkpt lat="45.56865" lon="5.35831">
        <ele>324.1</ele>
        <time>2017-02-11T09:11:41Z</time>
      </trkpt>
      <trkpt lat="45.56878" lon="5.35839">
        <ele>326.5</ele>
        <time>2017-02-11T09:11:52Z</time>
      </trkpt>
      <trkpt lat="45.56891" lon="5.35842">
        <ele>328.91</ele>
        <time>2017-02-11T09:12:04Z</time>
      </trkpt>
      <trkpt lat="45.56898" lon="5.35846">
        <ele>331.79</ele>
        <time>2017-02-11T09:12:15Z</time>
      </trkpt>
      <trkpt lat="45.56909" lon="5.35849">
        <ele>334.2</ele>
        <time>2017-02-11T09:12:27Z</time>
      </trkpt>
      <trkpt lat="45.56915" lon="5.35852">
        <ele>335.64</ele>
        <time>2017-02-11T09:12:33Z</time>
      </trkpt>
      <trkpt lat="45.56923" lon="5.35858">
        <ele>337.56</ele>
        <time>2017-02-11T09:12:42Z</time>
      </trkpt>
      <trkpt lat="45.56934" lon="5.35863">
        <ele>340.92</ele>
        <time>2017-02-11T09:12:54Z</time>
      </trkpt>
      <trkpt lat="45.56943" lon="5.35866">
        <ele>342.85</ele>
        <time>2017-02-11T09:13:03Z</time>
      </trkpt>
      <trkpt lat="45.56957" lon="5.35869">
        <ele>346.21</ele>
        <time>2017-02-11T09:13:16Z</time>
      </trkpt>
      <trkpt lat="45.56967" lon="5.35877">
        <ele>348.13</ele>
        <time>2017-02-11T09:13:28Z</time>
      </trkpt>
      <trkpt lat="45.56973" lon="5.3588">
        <ele>349.58</ele>
        <time>2017-02-11T09:13:34Z</time>
      </trkpt>
      <trkpt lat="45.56983" lon="5.35886">
        <ele>351.02</ele>
        <time>2017-02-11T09:13:45Z</time>
      </trkpt>
      <trkpt lat="45.57" lon="5.35888">
        <ele>351.98</ele>
        <time>2017-02-11T09:13:57Z</time>
      </trkpt>
      <trkpt lat="45.5701" lon="5.35887">
        <ele>352.46</ele>
        <time>2017-02-11T09:14:04Z</time>
      </trkpt>
      <trkpt lat="45.57021" lon="5.35885">
        <ele>353.42</ele>
        <time>2017-02-11T09:14:12Z</time>
      </trkpt>
      <trkpt lat="45.5703" lon="5.35881">
        <ele>354.86</ele>
        <time>2017-02-11T09:14:20Z</time>
      </trkpt>
      <trkpt lat="45.57039" lon="5.35879">
        <ele>356.79</ele>
        <time>2017-02-11T09:14:28Z</time>
      </trkpt>
      <trkpt lat="45.57049" lon="5.35878">
        <ele>358.71</ele>
        <time>2017-02-11T09:14:38Z</time>
      </trkpt>
      <trkpt lat="45.57061" lon="5.35879">
        <ele>361.11</ele>
        <time>2017-02-11T09:14:50Z</time>
      </trkpt>
      <trkpt lat="45.57072" lon="5.35883">
        <ele>362.55</ele>
        <time>2017-02-11T09:15:00Z</time>
      </trkpt>
      <trkpt lat="45.57082" lon="5.35891">
        <ele>364.48</ele>
        <time>2017-02-11T09:15:10Z</time>
      </trkpt>
      <trkpt lat="45.57095" lon="5.35907">
        <ele>366.4</ele>
        <time>2017-02-11T09:15:26Z</time>
      </trkpt>
      <trkpt lat="45.57107" lon="5.35916">
        <ele>368.8</ele>
        <time>2017-02-11T09:15:36Z</time>
      </trkpt>
      <trkpt lat="45.57119" lon="5.35926">
        <ele>370.73</ele>
        <time>2017-02-11T09:15:49Z</time>
      </trkpt>
      <trkpt lat="45.57126" lon="5.35935">
        <ele>372.65</ele>
        <time>2017-02-11T09:15:59Z</time>
      </trkpt>
      <trkpt lat="45.57136" lon="5.35949">
        <ele>374.09</ele>
        <time>2017-02-11T09:16:09Z</time>
      </trkpt>
      <trkpt lat="45.57144" lon="5.35952">
        <ele>375.05</ele>
        <time>2017-02-11T09:16:18Z</time>
      </trkpt>
      <trkpt lat="45.5715" lon="5.35949">
        <ele>376.97</ele>
        <time>2017-02-11T09:16:26Z</time>
      </trkpt>
      <trkpt lat="45.57158" lon="5.35939">
        <ele>379.86</ele>
        <time>2017-02-11T09:16:38Z</time>
      </trkpt>
      <trkpt lat="45.57169" lon="5.35933">
        <ele>382.74</ele>
        <time>2017-02-11T09:16:52Z</time>
      </trkpt>
      <trkpt lat="45.57179" lon="5.35933">
        <ele>385.63</ele>
        <time>2017-02-11T09:17:05Z</time>
      </trkpt>
      <trkpt lat="45.57191" lon="5.35925">
        <ele>388.99</ele>
        <time>2017-02-11T09:17:20Z</time>
      </trkpt>
      <trkpt lat="45.57196" lon="5.35917">
        <ele>391.87</ele>
        <time>2017-02-11T09:17:33Z</time>
      </trkpt>
      <trkpt lat="45.57201" lon="5.35908">
        <ele>395.72</ele>
        <time>2017-02-11T09:17:50Z</time>
      </trkpt>
      <trkpt lat="45.57204" lon="5.35903">
        <ele>397.64</ele>
        <time>2017-02-11T09:17:59Z</time>
      </trkpt>
      <trkpt lat="45.57211" lon="5.35898">
        <ele>401.49</ele>
        <time>2017-02-11T09:18:16Z</time>
      </trkpt>
      <trkpt lat="45.57217" lon="5.35892">
        <ele>403.89</ele>
        <time>2017-02-11T09:18:28Z</time>
      </trkpt>
      <trkpt lat="45.57228" lon="5.35883">
        <ele>406.77</ele>
        <time>2017-02-11T09:18:44Z</time>
      </trkpt>
      <trkpt lat="45.57233" lon="5.35877">
        <ele>409.18</ele>
        <time>2017-02-11T09:18:54Z</time>
      </trkpt>
      <trkpt lat="45.57241" lon="5.35877">
        <ele>411.58</ele>
        <time>2017-02-11T09:19:04Z</time>
      </trkpt>
      <trkpt lat="45.57245" lon="5.35872">
        <ele>412.54</ele>
        <time>2017-02-11T09:19:12Z</time>
      </trkpt>
      <trkpt lat="45.57252" lon="5.3587">
        <ele>413.5</ele>
        <time>2017-02-11T09:19:20Z</time>
      </trkpt>
      <trkpt lat="45.57265" lon="5.35871">
        <ele>415.43</ele>
        <time>2017-02-11T09:19:37Z</time>
      </trkpt>
      <trkpt lat="45.57275" lon="5.35866">
        <ele>417.35</ele>
        <time>2017-02-11T09:19:51Z</time>
      </trkpt>
      <trkpt lat="45.57281" lon="5.35863">
        <ele>418.31</ele>
        <time>2017-02-11T09:20:00Z</time>
      </trkpt>
      <trkpt lat="45.57285" lon="5.35856">
        <ele>418.79</ele>
        <time>2017-02-11T09:20:07Z</time>
      </trkpt>
      <trkpt lat="45.57288" lon="5.35841">
        <ele>420.23</ele>
        <time>2017-02-11T09:20:16Z</time>
      </trkpt>
      <trkpt lat="45.57288" lon="5.35831">
        <ele>422.16</ele>
        <time>2017-02-11T09:20:27Z</time>
      </trkpt>
      <trkpt lat="45.57286" lon="5.35817">
        <ele>424.08</ele>
        <time>2017-02-11T09:20:42Z</time>
      </trkpt>
      <trkpt lat="45.57289" lon="5.35801">
        <ele>427.92</ele>
        <time>2017-02-11T09:21:02Z</time>
      </trkpt>
      <trkpt lat="45.5729" lon="5.35792">
        <ele>430.81</ele>
        <time>2017-02-11T09:21:16Z</time>
      </trkpt>
      <trkpt lat="45.57296" lon="5.3579">
        <ele>433.69</ele>
        <time>2017-02-11T09:21:29Z</time>
      </trkpt>
      <trkpt lat="45.57303" lon="5.35794">
        <ele>435.13</ele>
        <time>2017-02-11T09:21:41Z</time>
      </trkpt>
      <trkpt lat="45.57313" lon="5.358">
        <ele>438.5</ele>
        <time>2017-02-11T09:21:54Z</time>
      </trkpt>
      <trkpt lat="45.5732" lon="5.35805">
        <ele>440.9</ele>
        <time>2017-02-11T09:22:06Z</time>
      </trkpt>
      <trkpt lat="45.57331" lon="5.3581">
        <ele>443.31</ele>
        <time>2017-02-11T09:22:20Z</time>
      </trkpt>
      <trkpt lat="45.57339" lon="5.35811">
        <ele>445.23</ele>
        <time>2017-02-11T09:22:31Z</time>
      </trkpt>
      <trkpt lat="45.57347" lon="5.35814">
        <ele>447.15</ele>
        <time>2017-02-11T09:22:40Z</time>
      </trkpt>
      <trkpt lat="45.5736" lon="5.35814">
        <ele>452.44</ele>
        <time>2017-02-11T09:23:06Z</time>
      </trkpt>
      <trkpt lat="45.57365" lon="5.3581">
        <ele>455.32</ele>
        <time>2017-02-11T09:23:19Z</time>
      </trkpt>
      <trkpt lat="45.57371" lon="5.35806">
        <ele>458.21</ele>
        <time>2017-02-11T09:23:35Z</time>
      </trkpt>
      <trkpt lat="45.5738" lon="5.358">
        <ele>462.53</ele>
        <time>2017-02-11T09:23:57Z</time>
      </trkpt>
      <trkpt lat="45.57389" lon="5.35802">
        <ele>465.42</ele>
        <time>2017-02-11T09:24:14Z</time>
      </trkpt>
      <trkpt lat="45.57399" lon="5.35801">
        <ele>470.7</ele>
        <time>2017-02-11T09:24:37Z</time>
      </trkpt>
      <trkpt lat="45.5741" lon="5.35799">
        <ele>475.51</ele>
        <time>2017-02-11T09:25:06Z</time>
      </trkpt>
      <trkpt lat="45.57419" lon="5.35799">
        <ele>478.39</ele>
        <time>2017-02-11T09:25:19Z</time>
      </trkpt>
      <trkpt lat="45.57428" lon="5.35797">
        <ele>481.28</ele>
        <time>2017-02-11T09:25:33Z</time>
      </trkpt>
      <trkpt lat="45.57433" lon="5.35802">
        <ele>483.2</ele>
        <time>2017-02-11T09:25:43Z</time>
      </trkpt>
      <trkpt lat="45.57439" lon="5.35805">
        <ele>485.6</ele>
        <time>2017-02-11T09:25:52Z</time>
      </trkpt>
      <trkpt lat="45.57449" lon="5.35813">
        <ele>486.08</ele>
        <time>2017-02-11T09:26:05Z</time>
      </trkpt>
      <trkpt lat="45.57444" lon="5.35833">
        <ele>486.56</ele>
        <time>2017-02-11T09:27:23Z</time>
      </trkpt>
      <trkpt lat="45.5744" lon="5.35846">
        <ele>487.53</ele>
        <time>2017-02-11T09:27:30Z</time>
      </trkpt>
      <trkpt lat="45.5744" lon="5.3586">
        <ele>488.01</ele>
        <time>2017-02-11T09:27:38Z</time>
      </trkpt>
      <trkpt lat="45.57439" lon="5.35876">
        <ele>488.49</ele>
        <time>2017-02-11T09:27:47Z</time>
      </trkpt>
      <trkpt lat="45.57437" lon="5.35892">
        <ele>488.97</ele>
        <time>2017-02-11T09:27:57Z</time>
      </trkpt>
      <trkpt lat="45.57433" lon="5.35914">
        <ele>489.93</ele>
        <time>2017-02-11T09:28:10Z</time>
      </trkpt>
      <trkpt lat="45.57433" lon="5.35934">
        <ele>490.41</ele>
        <time>2017-02-11T09:28:21Z</time>
      </trkpt>
      <trkpt lat="45.57436" lon="5.35948">
        <ele>491.37</ele>
        <time>2017-02-11T09:28:29Z</time>
      </trkpt>
      <trkpt lat="45.57441" lon="5.35966">
        <ele>492.33</ele>
        <time>2017-02-11T09:28:40Z</time>
      </trkpt>
      <trkpt lat="45.57445" lon="5.35982">
        <ele>492.81</ele>
        <time>2017-02-11T09:28:50Z</time>
      </trkpt>
      <trkpt lat="45.57446" lon="5.35998">
        <ele>493.29</ele>
        <time>2017-02-11T09:28:59Z</time>
      </trkpt>
      <trkpt lat="45.57446" lon="5.36007">
        <ele>493.77</ele>
        <time>2017-02-11T09:29:04Z</time>
      </trkpt>
      <trkpt lat="45.57448" lon="5.36021">
        <ele>494.26</ele>
        <time>2017-02-11T09:29:10Z</time>
      </trkpt>
      <trkpt lat="45.57449" lon="5.3603">
        <ele>494.26</ele>
        <time>2017-02-11T09:29:16Z</time>
      </trkpt>
      <trkpt lat="45.57452" lon="5.36039">
        <ele>494.74</ele>
        <time>2017-02-11T09:29:21Z</time>
      </trkpt>
      <trkpt lat="45.57453" lon="5.36053">
        <ele>495.22</ele>
        <time>2017-02-11T09:29:26Z</time>
      </trkpt>
      <trkpt lat="45.57455" lon="5.36073">
        <ele>495.7</ele>
        <time>2017-02-11T09:29:32Z</time>
      </trkpt>
      <trkpt lat="45.57458" lon="5.3609">
        <ele>496.66</ele>
        <time>2017-02-11T09:29:37Z</time>
      </trkpt>
      <trkpt lat="45.57462" lon="5.36106">
        <ele>497.14</ele>
        <time>2017-02-11T09:29:43Z</time>
      </trkpt>
      <trkpt lat="45.57464" lon="5.36128">
        <ele>497.62</ele>
        <time>2017-02-11T09:29:50Z</time>
      </trkpt>
      <trkpt lat="45.57464" lon="5.36142">
        <ele>497.62</ele>
        <time>2017-02-11T09:29:55Z</time>
      </trkpt>
      <trkpt lat="45.57466" lon="5.36162">
        <ele>498.1</ele>
        <time>2017-02-11T09:30:03Z</time>
      </trkpt>
      <trkpt lat="45.5747" lon="5.36188">
        <ele>499.06</ele>
        <time>2017-02-11T09:30:11Z</time>
      </trkpt>
      <trkpt lat="45.57474" lon="5.36209">
        <ele>499.54</ele>
        <time>2017-02-11T09:30:19Z</time>
      </trkpt>
      <trkpt lat="45.57477" lon="5.36225">
        <ele>500.02</ele>
        <time>2017-02-11T09:30:24Z</time>
      </trkpt>
      <trkpt lat="45.5748" lon="5.36242">
        <ele>500.5</ele>
        <time>2017-02-11T09:30:30Z</time>
      </trkpt>
      <trkpt lat="45.57483" lon="5.36265">
        <ele>500.98</ele>
        <time>2017-02-11T09:30:37Z</time>
      </trkpt>
      <trkpt lat="45.57486" lon="5.36283">
        <ele>501.46</ele>
        <time>2017-02-11T09:30:43Z</time>
      </trkpt>
      <trkpt lat="45.57486" lon="5.36298">
        <ele>501.46</ele>
        <time>2017-02-11T09:30:48Z</time>
      </trkpt>
      <trkpt lat="45.57485" lon="5.36316">
        <ele>500.98</ele>
        <time>2017-02-11T09:30:54Z</time>
      </trkpt>
      <trkpt lat="45.57485" lon="5.36334">
        <ele>500.5</ele>
        <time>2017-02-11T09:31:00Z</time>
      </trkpt>
      <trkpt lat="45.57484" lon="5.36355">
        <ele>500.02</ele>
        <time>2017-02-11T09:31:06Z</time>
      </trkpt>
      <trkpt lat="45.57484" lon="5.36375">
        <ele>500.02</ele>
        <time>2017-02-11T09:31:12Z</time>
      </trkpt>
      <trkpt lat="45.57485" lon="5.36396">
        <ele>499.54</ele>
        <time>2017-02-11T09:31:19Z</time>
      </trkpt>
      <trkpt lat="45.57499" lon="5.36398">
        <ele>500.5</ele>
        <time>2017-02-11T09:31:26Z</time>
      </trkpt>
      <trkpt lat="45.57519" lon="5.36398">
        <ele>500.5</ele>
        <time>2017-02-11T09:31:35Z</time>
      </trkpt>
      <trkpt lat="45.57542" lon="5.36407">
        <ele>500.02</ele>
        <time>2017-02-11T09:31:44Z</time>
      </trkpt>
      <trkpt lat="45.57561" lon="5.36413">
        <ele>498.58</ele>
        <time>2017-02-11T09:31:52Z</time>
      </trkpt>
      <trkpt lat="45.5758" lon="5.36418">
        <ele>498.1</ele>
        <time>2017-02-11T09:31:59Z</time>
      </trkpt>
      <trkpt lat="45.57594" lon="5.36428">
        <ele>498.1</ele>
        <time>2017-02-11T09:32:05Z</time>
      </trkpt>
      <trkpt lat="45.57599" lon="5.36446">
        <ele>497.62</ele>
        <time>2017-02-11T09:32:10Z</time>
      </trkpt>
      <trkpt lat="45.57602" lon="5.36463">
        <ele>497.62</ele>
        <time>2017-02-11T09:32:16Z</time>
      </trkpt>
      <trkpt lat="45.57609" lon="5.36487">
        <ele>497.14</ele>
        <time>2017-02-11T09:32:24Z</time>
      </trkpt>
      <trkpt lat="45.57617" lon="5.36507">
        <ele>497.14</ele>
        <time>2017-02-11T09:32:31Z</time>
      </trkpt>
      <trkpt lat="45.57622" lon="5.36529">
        <ele>496.66</ele>
        <time>2017-02-11T09:32:38Z</time>
      </trkpt>
      <trkpt lat="45.57626" lon="5.36556">
        <ele>496.66</ele>
        <time>2017-02-11T09:32:46Z</time>
      </trkpt>
      <trkpt lat="45.57629" lon="5.36571">
        <ele>496.66</ele>
        <time>2017-02-11T09:32:51Z</time>
      </trkpt>
      <trkpt lat="45.5763" lon="5.36587">
        <ele>496.66</ele>
        <time>2017-02-11T09:32:56Z</time>
      </trkpt>
      <trkpt lat="45.57632" lon="5.36606">
        <ele>496.66</ele>
        <time>2017-02-11T09:33:02Z</time>
      </trkpt>
      <trkpt lat="45.57635" lon="5.36625">
        <ele>497.14</ele>
        <time>2017-02-11T09:33:08Z</time>
      </trkpt>
      <trkpt lat="45.57637" lon="5.36638">
        <ele>497.14</ele>
        <time>2017-02-11T09:33:13Z</time>
      </trkpt>
      <trkpt lat="45.57634" lon="5.36656">
        <ele>497.14</ele>
        <time>2017-02-11T09:33:19Z</time>
      </trkpt>
      <trkpt lat="45.57625" lon="5.36663">
        <ele>497.14</ele>
        <time>2017-02-11T09:33:23Z</time>
      </trkpt>
      <trkpt lat="45.57617" lon="5.36668">
        <ele>497.14</ele>
        <time>2017-02-11T09:33:27Z</time>
      </trkpt>
      <trkpt lat="45.57606" lon="5.36677">
        <ele>497.14</ele>
        <time>2017-02-11T09:33:32Z</time>
      </trkpt>
      <trkpt lat="45.57587" lon="5.3669">
        <ele>496.66</ele>
        <time>2017-02-11T09:33:41Z</time>
      </trkpt>
      <trkpt lat="45.5758" lon="5.36691">
        <ele>495.7</ele>
        <time>2017-02-11T09:33:47Z</time>
      </trkpt>
      <trkpt lat="45.57573" lon="5.36695">
        <ele>495.7</ele>
        <time>2017-02-11T09:33:54Z</time>
      </trkpt>
      <trkpt lat="45.57563" lon="5.36702">
        <ele>496.18</ele>
        <time>2017-02-11T09:34:03Z</time>
      </trkpt>
      <trkpt lat="45.57553" lon="5.3671">
        <ele>496.18</ele>
        <time>2017-02-11T09:34:12Z</time>
      </trkpt>
      <trkpt lat="45.5754" lon="5.36718">
        <ele>496.18</ele>
        <time>2017-02-11T09:34:20Z</time>
      </trkpt>
      <trkpt lat="45.57532" lon="5.36724">
        <ele>496.66</ele>
        <time>2017-02-11T09:34:25Z</time>
      </trkpt>
      <trkpt lat="45.57521" lon="5.36727">
        <ele>497.14</ele>
        <time>2017-02-11T09:34:30Z</time>
      </trkpt>
      <trkpt lat="45.57497" lon="5.36739">
        <ele>498.1</ele>
        <time>2017-02-11T09:34:42Z</time>
      </trkpt>
      <trkpt lat="45.57475" lon="5.3675">
        <ele>499.06</ele>
        <time>2017-02-11T09:34:52Z</time>
      </trkpt>
      <trkpt lat="45.57466" lon="5.36757">
        <ele>498.58</ele>
        <time>2017-02-11T09:34:57Z</time>
      </trkpt>
      <trkpt lat="45.57457" lon="5.36762">
        <ele>497.62</ele>
        <time>2017-02-11T09:35:02Z</time>
      </trkpt>
      <trkpt lat="45.57444" lon="5.36771">
        <ele>496.18</ele>
        <time>2017-02-11T09:35:08Z</time>
      </trkpt>
      <trkpt lat="45.57432" lon="5.36776">
        <ele>494.26</ele>
        <time>2017-02-11T09:35:13Z</time>
      </trkpt>
      <trkpt lat="45.5742" lon="5.3678">
        <ele>489.45</ele>
        <time>2017-02-11T09:35:20Z</time>
      </trkpt>
      <trkpt lat="45.57412" lon="5.36781">
        <ele>487.53</ele>
        <time>2017-02-11T09:35:23Z</time>
      </trkpt>
      <trkpt lat="45.57398" lon="5.3679">
        <ele>483.68</ele>
        <time>2017-02-11T09:35:28Z</time>
      </trkpt>
      <trkpt lat="45.57384" lon="5.36802">
        <ele>480.32</ele>
        <time>2017-02-11T09:35:34Z</time>
      </trkpt>
      <trkpt lat="45.57371" lon="5.36818">
        <ele>476.47</ele>
        <time>2017-02-11T09:35:41Z</time>
      </trkpt>
      <trkpt lat="45.57361" lon="5.36832">
        <ele>474.07</ele>
        <time>2017-02-11T09:35:47Z</time>
      </trkpt>
      <trkpt lat="45.57347" lon="5.36845">
        <ele>472.14</ele>
        <time>2017-02-11T09:35:53Z</time>
      </trkpt>
      <trkpt lat="45.57338" lon="5.36863">
        <ele>468.78</ele>
        <time>2017-02-11T09:36:01Z</time>
      </trkpt>
      <trkpt lat="45.5733" lon="5.36882">
        <ele>465.42</ele>
        <time>2017-02-11T09:36:09Z</time>
      </trkpt>
      <trkpt lat="45.57324" lon="5.36896">
        <ele>463.49</ele>
        <time>2017-02-11T09:36:14Z</time>
      </trkpt>
      <trkpt lat="45.57323" lon="5.36913">
        <ele>460.13</ele>
        <time>2017-02-11T09:36:19Z</time>
      </trkpt>
      <trkpt lat="45.57325" lon="5.36937">
        <ele>455.8</ele>
        <time>2017-02-11T09:36:26Z</time>
      </trkpt>
      <trkpt lat="45.57328" lon="5.3695">
        <ele>453.88</ele>
        <time>2017-02-11T09:36:30Z</time>
      </trkpt>
      <trkpt lat="45.57336" lon="5.36965">
        <ele>450.03</ele>
        <time>2017-02-11T09:36:35Z</time>
      </trkpt>
      <trkpt lat="45.57345" lon="5.36982">
        <ele>446.67</ele>
        <time>2017-02-11T09:36:41Z</time>
      </trkpt>
      <trkpt lat="45.57349" lon="5.36988">
        <ele>445.23</ele>
        <time>2017-02-11T09:36:44Z</time>
      </trkpt>
      <trkpt lat="45.5734" lon="5.37004">
        <ele>440.42</ele>
        <time>2017-02-11T09:36:52Z</time>
      </trkpt>
      <trkpt lat="45.57332" lon="5.37003">
        <ele>438.5</ele>
        <time>2017-02-11T09:36:55Z</time>
      </trkpt>
      <trkpt lat="45.57319" lon="5.36999">
        <ele>435.13</ele>
        <time>2017-02-11T09:37:00Z</time>
      </trkpt>
      <trkpt lat="45.57305" lon="5.36991">
        <ele>431.77</ele>
        <time>2017-02-11T09:37:05Z</time>
      </trkpt>
      <trkpt lat="45.57293" lon="5.36986">
        <ele>428.89</ele>
        <time>2017-02-11T09:37:10Z</time>
      </trkpt>
      <trkpt lat="45.57278" lon="5.36978">
        <ele>426.48</ele>
        <time>2017-02-11T09:37:15Z</time>
      </trkpt>
      <trkpt lat="45.57264" lon="5.36972">
        <ele>424.56</ele>
        <time>2017-02-11T09:37:20Z</time>
      </trkpt>
      <trkpt lat="45.5726" lon="5.36978">
        <ele>422.16</ele>
        <time>2017-02-11T09:38:06Z</time>
      </trkpt>
      <trkpt lat="45.5725" lon="5.36988">
        <ele>421.19</ele>
        <time>2017-02-11T09:38:11Z</time>
      </trkpt>
      <trkpt lat="45.57242" lon="5.36999">
        <ele>419.27</ele>
        <time>2017-02-11T09:38:15Z</time>
      </trkpt>
      <trkpt lat="45.57234" lon="5.37011">
        <ele>417.35</ele>
        <time>2017-02-11T09:38:21Z</time>
      </trkpt>
      <trkpt lat="45.57227" lon="5.3702">
        <ele>416.39</ele>
        <time>2017-02-11T09:38:26Z</time>
      </trkpt>
      <trkpt lat="45.57218" lon="5.3703">
        <ele>413.98</ele>
        <time>2017-02-11T09:38:31Z</time>
      </trkpt>
      <trkpt lat="45.57209" lon="5.37042">
        <ele>412.06</ele>
        <time>2017-02-11T09:38:36Z</time>
      </trkpt>
      <trkpt lat="45.572" lon="5.37051">
        <ele>410.62</ele>
        <time>2017-02-11T09:38:40Z</time>
      </trkpt>
      <trkpt lat="45.57192" lon="5.37062">
        <ele>408.22</ele>
        <time>2017-02-11T09:38:45Z</time>
      </trkpt>
      <trkpt lat="45.57186" lon="5.37071">
        <ele>407.26</ele>
        <time>2017-02-11T09:38:48Z</time>
      </trkpt>
      <trkpt lat="45.57179" lon="5.37083">
        <ele>404.37</ele>
        <time>2017-02-11T09:38:53Z</time>
      </trkpt>
      <trkpt lat="45.57168" lon="5.37103">
        <ele>402.45</ele>
        <time>2017-02-11T09:39:00Z</time>
      </trkpt>
      <trkpt lat="45.57161" lon="5.37118">
        <ele>400.53</ele>
        <time>2017-02-11T09:39:05Z</time>
      </trkpt>
      <trkpt lat="45.57156" lon="5.37136">
        <ele>397.64</ele>
        <time>2017-02-11T09:39:11Z</time>
      </trkpt>
      <trkpt lat="45.57151" lon="5.37156">
        <ele>394.76</ele>
        <time>2017-02-11T09:39:17Z</time>
      </trkpt>
      <trkpt lat="45.57148" lon="5.37173">
        <ele>391.39</ele>
        <time>2017-02-11T09:39:22Z</time>
      </trkpt>
      <trkpt lat="45.57143" lon="5.37183">
        <ele>389.95</ele>
        <time>2017-02-11T09:39:25Z</time>
      </trkpt>
      <trkpt lat="45.57139" lon="5.372">
        <ele>386.59</ele>
        <time>2017-02-11T09:39:30Z</time>
      </trkpt>
      <trkpt lat="45.57136" lon="5.37223">
        <ele>383.7</ele>
        <time>2017-02-11T09:39:38Z</time>
      </trkpt>
      <trkpt lat="45.5714" lon="5.37245">
        <ele>381.78</ele>
        <time>2017-02-11T09:39:44Z</time>
      </trkpt>
      <trkpt lat="45.57146" lon="5.37265">
        <ele>379.86</ele>
        <time>2017-02-11T09:39:50Z</time>
      </trkpt>
      <trkpt lat="45.57148" lon="5.37279">
        <ele>378.9</ele>
        <time>2017-02-11T09:39:55Z</time>
      </trkpt>
      <trkpt lat="45.5716" lon="5.37278">
        <ele>380.82</ele>
        <time>2017-02-11T09:40:10Z</time>
      </trkpt>
      <trkpt lat="45.57179" lon="5.37277">
        <ele>383.7</ele>
        <time>2017-02-11T09:40:24Z</time>
      </trkpt>
      <trkpt lat="45.57191" lon="5.37267">
        <ele>386.59</ele>
        <time>2017-02-11T09:40:35Z</time>
      </trkpt>
      <trkpt lat="45.57199" lon="5.37263">
        <ele>388.51</ele>
        <time>2017-02-11T09:40:44Z</time>
      </trkpt>
      <trkpt lat="45.57208" lon="5.37252">
        <ele>390.91</ele>
        <time>2017-02-11T09:40:54Z</time>
      </trkpt>
      <trkpt lat="45.57213" lon="5.3724">
        <ele>392.84</ele>
        <time>2017-02-11T09:41:02Z</time>
      </trkpt>
      <trkpt lat="45.57219" lon="5.37233">
        <ele>394.28</ele>
        <time>2017-02-11T09:41:08Z</time>
      </trkpt>
      <trkpt lat="45.57228" lon="5.37228">
        <ele>395.72</ele>
        <time>2017-02-11T09:41:15Z</time>
      </trkpt>
      <trkpt lat="45.57236" lon="5.37237">
        <ele>397.16</ele>
        <time>2017-02-11T09:41:22Z</time>
      </trkpt>
      <trkpt lat="45.5724" lon="5.3725">
        <ele>398.6</ele>
        <time>2017-02-11T09:41:29Z</time>
      </trkpt>
      <trkpt lat="45.57251" lon="5.37272">
        <ele>401.01</ele>
        <time>2017-02-11T09:41:40Z</time>
      </trkpt>
      <trkpt lat="45.57254" lon="5.37292">
        <ele>403.89</ele>
        <time>2017-02-11T09:41:51Z</time>
      </trkpt>
      <trkpt lat="45.5726" lon="5.37308">
        <ele>406.77</ele>
        <time>2017-02-11T09:42:03Z</time>
      </trkpt>
      <trkpt lat="45.57267" lon="5.3732">
        <ele>409.66</ele>
        <time>2017-02-11T09:42:15Z</time>
      </trkpt>
      <trkpt lat="45.57272" lon="5.37332">
        <ele>410.62</ele>
        <time>2017-02-11T09:42:20Z</time>
      </trkpt>
      <trkpt lat="45.57274" lon="5.3734">
        <ele>411.1</ele>
        <time>2017-02-11T09:42:27Z</time>
      </trkpt>
      <trkpt lat="45.57279" lon="5.37355">
        <ele>412.06</ele>
        <time>2017-02-11T09:42:34Z</time>
      </trkpt>
      <trkpt lat="45.57283" lon="5.37371">
        <ele>413.02</ele>
        <time>2017-02-11T09:42:43Z</time>
      </trkpt>
      <trkpt lat="45.57285" lon="5.3739">
        <ele>414.95</ele>
        <time>2017-02-11T09:42:53Z</time>
      </trkpt>
      <trkpt lat="45.57281" lon="5.37406">
        <ele>416.39</ele>
        <time>2017-02-11T09:43:02Z</time>
      </trkpt>
      <trkpt lat="45.57275" lon="5.3742">
        <ele>416.87</ele>
        <time>2017-02-11T09:43:10Z</time>
      </trkpt>
      <trkpt lat="45.57267" lon="5.37435">
        <ele>416.87</ele>
        <time>2017-02-11T09:43:16Z</time>
      </trkpt>
      <trkpt lat="45.57259" lon="5.37451">
        <ele>417.35</ele>
        <time>2017-02-11T09:43:22Z</time>
      </trkpt>
      <trkpt lat="45.57247" lon="5.37462">
        <ele>417.35</ele>
        <time>2017-02-11T09:43:29Z</time>
      </trkpt>
      <trkpt lat="45.57239" lon="5.37474">
        <ele>417.83</ele>
        <time>2017-02-11T09:43:34Z</time>
      </trkpt>
      <trkpt lat="45.57241" lon="5.37481">
        <ele>418.79</ele>
        <time>2017-02-11T09:43:38Z</time>
      </trkpt>
      <trkpt lat="45.5725" lon="5.37496">
        <ele>420.71</ele>
        <time>2017-02-11T09:43:50Z</time>
      </trkpt>
      <trkpt lat="45.57265" lon="5.37483">
        <ele>422.64</ele>
        <time>2017-02-11T09:44:07Z</time>
      </trkpt>
      <trkpt lat="45.57281" lon="5.37461">
        <ele>423.6</ele>
        <time>2017-02-11T09:44:16Z</time>
      </trkpt>
      <trkpt lat="45.57293" lon="5.37447">
        <ele>424.56</ele>
        <time>2017-02-11T09:44:23Z</time>
      </trkpt>
      <trkpt lat="45.57305" lon="5.37455">
        <ele>425.52</ele>
        <time>2017-02-11T09:44:30Z</time>
      </trkpt>
      <trkpt lat="45.57309" lon="5.37461">
        <ele>426.96</ele>
        <time>2017-02-11T09:44:36Z</time>
      </trkpt>
      <trkpt lat="45.57309" lon="5.37473">
        <ele>428.89</ele>
        <time>2017-02-11T09:44:46Z</time>
      </trkpt>
      <trkpt lat="45.57306" lon="5.3749">
        <ele>431.77</ele>
        <time>2017-02-11T09:44:59Z</time>
      </trkpt>
      <trkpt lat="45.57302" lon="5.37511">
        <ele>435.13</ele>
        <time>2017-02-11T09:45:15Z</time>
      </trkpt>
      <trkpt lat="45.57293" lon="5.37527">
        <ele>437.06</ele>
        <time>2017-02-11T09:45:25Z</time>
      </trkpt>
      <trkpt lat="45.57286" lon="5.37535">
        <ele>437.54</ele>
        <time>2017-02-11T09:45:36Z</time>
      </trkpt>
      <trkpt lat="45.57275" lon="5.37552">
        <ele>436.1</ele>
        <time>2017-02-11T09:45:53Z</time>
      </trkpt>
      <trkpt lat="45.57274" lon="5.37568">
        <ele>434.65</ele>
        <time>2017-02-11T09:45:57Z</time>
      </trkpt>
      <trkpt lat="45.57278" lon="5.37595">
        <ele>432.73</ele>
        <time>2017-02-11T09:46:03Z</time>
      </trkpt>
      <trkpt lat="45.57283" lon="5.37611">
        <ele>431.29</ele>
        <time>2017-02-11T09:46:08Z</time>
      </trkpt>
      <trkpt lat="45.57293" lon="5.37627">
        <ele>431.29</ele>
        <time>2017-02-11T09:46:15Z</time>
      </trkpt>
      <trkpt lat="45.57299" lon="5.37632">
        <ele>432.73</ele>
        <time>2017-02-11T09:46:21Z</time>
      </trkpt>
      <trkpt lat="45.57292" lon="5.37612">
        <ele>438.98</ele>
        <time>2017-02-11T09:46:50Z</time>
      </trkpt>
      <trkpt lat="45.5729" lon="5.37596">
        <ele>440.9</ele>
        <time>2017-02-11T09:47:00Z</time>
      </trkpt>
      <trkpt lat="45.57288" lon="5.37585">
        <ele>443.31</ele>
        <time>2017-02-11T09:47:14Z</time>
      </trkpt>
      <trkpt lat="45.57289" lon="5.37573">
        <ele>445.71</ele>
        <time>2017-02-11T09:47:24Z</time>
      </trkpt>
      <trkpt lat="45.57293" lon="5.37566">
        <ele>446.67</ele>
        <time>2017-02-11T09:47:31Z</time>
      </trkpt>
      <trkpt lat="45.57299" lon="5.37562">
        <ele>448.11</ele>
        <time>2017-02-11T09:47:39Z</time>
      </trkpt>
      <trkpt lat="45.57304" lon="5.37557">
        <ele>449.55</ele>
        <time>2017-02-11T09:47:47Z</time>
      </trkpt>
      <trkpt lat="45.57311" lon="5.37557">
        <ele>451.48</ele>
        <time>2017-02-11T09:47:55Z</time>
      </trkpt>
      <trkpt lat="45.5732" lon="5.37555">
        <ele>452.92</ele>
        <time>2017-02-11T09:48:03Z</time>
      </trkpt>
      <trkpt lat="45.57327" lon="5.37552">
        <ele>454.36</ele>
        <time>2017-02-11T09:48:11Z</time>
      </trkpt>
      <trkpt lat="45.57332" lon="5.37548">
        <ele>456.28</ele>
        <time>2017-02-11T09:48:19Z</time>
      </trkpt>
      <trkpt lat="45.57336" lon="5.37542">
        <ele>457.24</ele>
        <time>2017-02-11T09:48:25Z</time>
      </trkpt>
      <trkpt lat="45.57344" lon="5.37534">
        <ele>459.17</ele>
        <time>2017-02-11T09:48:35Z</time>
      </trkpt>
      <trkpt lat="45.57354" lon="5.37533">
        <ele>461.57</ele>
        <time>2017-02-11T09:48:45Z</time>
      </trkpt>
      <trkpt lat="45.57359" lon="5.3753">
        <ele>462.53</ele>
        <time>2017-02-11T09:48:51Z</time>
      </trkpt>
      <trkpt lat="45.57364" lon="5.37522">
        <ele>463.97</ele>
        <time>2017-02-11T09:48:58Z</time>
      </trkpt>
      <trkpt lat="45.57372" lon="5.37519">
        <ele>465.42</ele>
        <time>2017-02-11T09:49:05Z</time>
      </trkpt>
      <trkpt lat="45.57378" lon="5.37515">
        <ele>466.86</ele>
        <time>2017-02-11T09:49:12Z</time>
      </trkpt>
      <trkpt lat="45.57387" lon="5.375">
        <ele>470.22</ele>
        <time>2017-02-11T09:49:27Z</time>
      </trkpt>
      <trkpt lat="45.5739" lon="5.37483">
        <ele>472.14</ele>
        <time>2017-02-11T09:49:37Z</time>
      </trkpt>
      <trkpt lat="45.57394" lon="5.37474">
        <ele>474.07</ele>
        <time>2017-02-11T09:49:45Z</time>
      </trkpt>
      <trkpt lat="45.57401" lon="5.37459">
        <ele>476.47</ele>
        <time>2017-02-11T09:49:57Z</time>
      </trkpt>
      <trkpt lat="45.5741" lon="5.3745">
        <ele>478.39</ele>
        <time>2017-02-11T09:50:06Z</time>
      </trkpt>
      <trkpt lat="45.57419" lon="5.37444">
        <ele>480.32</ele>
        <time>2017-02-11T09:50:16Z</time>
      </trkpt>
      <trkpt lat="45.57428" lon="5.3744">
        <ele>481.76</ele>
        <time>2017-02-11T09:50:25Z</time>
      </trkpt>
      <trkpt lat="45.57443" lon="5.37432">
        <ele>484.16</ele>
        <time>2017-02-11T09:50:40Z</time>
      </trkpt>
      <trkpt lat="45.57454" lon="5.37431">
        <ele>485.6</ele>
        <time>2017-02-11T09:50:50Z</time>
      </trkpt>
      <trkpt lat="45.57464" lon="5.37431">
        <ele>486.08</ele>
        <time>2017-02-11T09:50:58Z</time>
      </trkpt>
      <trkpt lat="45.57471" lon="5.37442">
        <ele>487.05</ele>
        <time>2017-02-11T09:51:04Z</time>
      </trkpt>
      <trkpt lat="45.57472" lon="5.3746">
        <ele>487.05</ele>
        <time>2017-02-11T09:51:13Z</time>
      </trkpt>
      <trkpt lat="45.57468" lon="5.37472">
        <ele>487.05</ele>
        <time>2017-02-11T09:51:20Z</time>
      </trkpt>
      <trkpt lat="45.57465" lon="5.37489">
        <ele>487.53</ele>
        <time>2017-02-11T09:51:25Z</time>
      </trkpt>
      <trkpt lat="45.57461" lon="5.37506">
        <ele>487.53</ele>
        <time>2017-02-11T09:51:30Z</time>
      </trkpt>
      <trkpt lat="45.57459" lon="5.37517">
        <ele>487.53</ele>
        <time>2017-02-11T09:51:33Z</time>
      </trkpt>
      <trkpt lat="45.57455" lon="5.37542">
        <ele>488.01</ele>
        <time>2017-02-11T09:51:40Z</time>
      </trkpt>
      <trkpt lat="45.57452" lon="5.37563">
        <ele>488.49</ele>
        <time>2017-02-11T09:51:46Z</time>
      </trkpt>
      <trkpt lat="45.57449" lon="5.37584">
        <ele>488.49</ele>
        <time>2017-02-11T09:51:52Z</time>
      </trkpt>
      <trkpt lat="45.57445" lon="5.37601">
        <ele>488.97</ele>
        <time>2017-02-11T09:51:57Z</time>
      </trkpt>
      <trkpt lat="45.5744" lon="5.37618">
        <ele>489.45</ele>
        <time>2017-02-11T09:52:02Z</time>
      </trkpt>
      <trkpt lat="45.57434" lon="5.37642">
        <ele>490.41</ele>
        <time>2017-02-11T09:52:09Z</time>
      </trkpt>
      <trkpt lat="45.57435" lon="5.37657">
        <ele>491.37</ele>
        <time>2017-02-11T09:52:15Z</time>
      </trkpt>
      <trkpt lat="45.57432" lon="5.37684">
        <ele>491.85</ele>
        <time>2017-02-11T09:52:23Z</time>
      </trkpt>
      <trkpt lat="45.5743" lon="5.37701">
        <ele>493.29</ele>
        <time>2017-02-11T09:52:28Z</time>
      </trkpt>
      <trkpt lat="45.57427" lon="5.37719">
        <ele>494.74</ele>
        <time>2017-02-11T09:52:34Z</time>
      </trkpt>
      <trkpt lat="45.57425" lon="5.37746">
        <ele>495.7</ele>
        <time>2017-02-11T09:52:43Z</time>
      </trkpt>
      <trkpt lat="45.57427" lon="5.37776">
        <ele>496.66</ele>
        <time>2017-02-11T09:52:51Z</time>
      </trkpt>
      <trkpt lat="45.57428" lon="5.37804">
        <ele>497.62</ele>
        <time>2017-02-11T09:52:59Z</time>
      </trkpt>
      <trkpt lat="45.57427" lon="5.3783">
        <ele>498.1</ele>
        <time>2017-02-11T09:53:06Z</time>
      </trkpt>
      <trkpt lat="45.57428" lon="5.37844">
        <ele>498.58</ele>
        <time>2017-02-11T09:53:10Z</time>
      </trkpt>
      <trkpt lat="45.57428" lon="5.3786">
        <ele>499.06</ele>
        <time>2017-02-11T09:53:15Z</time>
      </trkpt>
      <trkpt lat="45.57431" lon="5.37875">
        <ele>499.06</ele>
        <time>2017-02-11T09:53:19Z</time>
      </trkpt>
      <trkpt lat="45.57432" lon="5.37893">
        <ele>499.06</ele>
        <time>2017-02-11T09:53:24Z</time>
      </trkpt>
      <trkpt lat="45.57435" lon="5.3791">
        <ele>499.54</ele>
        <time>2017-02-11T09:53:29Z</time>
      </trkpt>
      <trkpt lat="45.5744" lon="5.37925">
        <ele>499.54</ele>
        <time>2017-02-11T09:53:34Z</time>
      </trkpt>
      <trkpt lat="45.57444" lon="5.37943">
        <ele>499.54</ele>
        <time>2017-02-11T09:53:39Z</time>
      </trkpt>
      <trkpt lat="45.57448" lon="5.37963">
        <ele>499.54</ele>
        <time>2017-02-11T09:53:45Z</time>
      </trkpt>
      <trkpt lat="45.57452" lon="5.37982">
        <ele>499.06</ele>
        <time>2017-02-11T09:53:50Z</time>
      </trkpt>
      <trkpt lat="45.57456" lon="5.38">
        <ele>499.06</ele>
        <time>2017-02-11T09:53:55Z</time>
      </trkpt>
      <trkpt lat="45.57459" lon="5.3802">
        <ele>498.58</ele>
        <time>2017-02-11T09:54:01Z</time>
      </trkpt>
      <trkpt lat="45.57461" lon="5.38037">
        <ele>498.1</ele>
        <time>2017-02-11T09:54:06Z</time>
      </trkpt>
      <trkpt lat="45.57462" lon="5.38052">
        <ele>498.1</ele>
        <time>2017-02-11T09:54:10Z</time>
      </trkpt>
      <trkpt lat="45.57465" lon="5.38065">
        <ele>497.62</ele>
        <time>2017-02-11T09:54:14Z</time>
      </trkpt>
      <trkpt lat="45.57473" lon="5.38083">
        <ele>497.62</ele>
        <time>2017-02-11T09:54:19Z</time>
      </trkpt>
      <trkpt lat="45.57481" lon="5.38106">
        <ele>496.66</ele>
        <time>2017-02-11T09:54:26Z</time>
      </trkpt>
      <trkpt lat="45.57484" lon="5.38126">
        <ele>495.7</ele>
        <time>2017-02-11T09:54:32Z</time>
      </trkpt>
      <trkpt lat="45.57492" lon="5.3815">
        <ele>493.77</ele>
        <time>2017-02-11T09:54:39Z</time>
      </trkpt>
      <trkpt lat="45.57494" lon="5.38162">
        <ele>493.29</ele>
        <time>2017-02-11T09:54:43Z</time>
      </trkpt>
      <trkpt lat="45.57505" lon="5.38183">
        <ele>492.81</ele>
        <time>2017-02-11T09:54:49Z</time>
      </trkpt>
      <trkpt lat="45.57512" lon="5.38203">
        <ele>492.33</ele>
        <time>2017-02-11T09:54:55Z</time>
      </trkpt>
      <trkpt lat="45.57513" lon="5.38213">
        <ele>491.85</ele>
        <time>2017-02-11T09:54:59Z</time>
      </trkpt>
      <trkpt lat="45.57493" lon="5.38235">
        <ele>488.97</ele>
        <time>2017-02-11T09:55:07Z</time>
      </trkpt>
      <trkpt lat="45.57479" lon="5.38247">
        <ele>488.01</ele>
        <time>2017-02-11T09:55:13Z</time>
      </trkpt>
      <trkpt lat="45.57458" lon="5.38255">
        <ele>486.56</ele>
        <time>2017-02-11T09:55:18Z</time>
      </trkpt>
      <trkpt lat="45.57436" lon="5.38252">
        <ele>484.64</ele>
        <time>2017-02-11T09:55:25Z</time>
      </trkpt>
      <trkpt lat="45.57417" lon="5.38237">
        <ele>482.72</ele>
        <time>2017-02-11T09:55:33Z</time>
      </trkpt>
      <trkpt lat="45.574" lon="5.38216">
        <ele>480.32</ele>
        <time>2017-02-11T09:55:40Z</time>
      </trkpt>
      <trkpt lat="45.57384" lon="5.38193">
        <ele>478.87</ele>
        <time>2017-02-11T09:55:46Z</time>
      </trkpt>
      <trkpt lat="45.57371" lon="5.38172">
        <ele>476.47</ele>
        <time>2017-02-11T09:55:52Z</time>
      </trkpt>
      <trkpt lat="45.57362" lon="5.38156">
        <ele>474.55</ele>
        <time>2017-02-11T09:55:57Z</time>
      </trkpt>
      <trkpt lat="45.5735" lon="5.38135">
        <ele>471.18</ele>
        <time>2017-02-11T09:56:03Z</time>
      </trkpt>
      <trkpt lat="45.57346" lon="5.38117">
        <ele>467.82</ele>
        <time>2017-02-11T09:56:08Z</time>
      </trkpt>
      <trkpt lat="45.57344" lon="5.381">
        <ele>466.38</ele>
        <time>2017-02-11T09:56:12Z</time>
      </trkpt>
      <trkpt lat="45.57344" lon="5.38079">
        <ele>464.45</ele>
        <time>2017-02-11T09:56:16Z</time>
      </trkpt>
      <trkpt lat="45.57342" lon="5.3805">
        <ele>461.57</ele>
        <time>2017-02-11T09:56:22Z</time>
      </trkpt>
      <trkpt lat="45.5734" lon="5.38032">
        <ele>459.65</ele>
        <time>2017-02-11T09:56:27Z</time>
      </trkpt>
      <trkpt lat="45.57339" lon="5.38012">
        <ele>457.24</ele>
        <time>2017-02-11T09:56:32Z</time>
      </trkpt>
      <trkpt lat="45.57334" lon="5.37991">
        <ele>454.84</ele>
        <time>2017-02-11T09:56:37Z</time>
      </trkpt>
      <trkpt lat="45.57321" lon="5.37974">
        <ele>452.44</ele>
        <time>2017-02-11T09:56:44Z</time>
      </trkpt>
      <trkpt lat="45.57309" lon="5.37958">
        <ele>450.03</ele>
        <time>2017-02-11T09:56:49Z</time>
      </trkpt>
      <trkpt lat="45.57299" lon="5.37944">
        <ele>448.59</ele>
        <time>2017-02-11T09:56:54Z</time>
      </trkpt>
      <trkpt lat="45.57279" lon="5.37928">
        <ele>446.19</ele>
        <time>2017-02-11T09:57:01Z</time>
      </trkpt>
      <trkpt lat="45.57273" lon="5.37913">
        <ele>444.75</ele>
        <time>2017-02-11T09:57:06Z</time>
      </trkpt>
      <trkpt lat="45.5727" lon="5.379">
        <ele>443.79</ele>
        <time>2017-02-11T09:57:10Z</time>
      </trkpt>
      <trkpt lat="45.57264" lon="5.3789">
        <ele>442.82</ele>
        <time>2017-02-11T09:57:13Z</time>
      </trkpt>
      <trkpt lat="45.57252" lon="5.37868">
        <ele>440.9</ele>
        <time>2017-02-11T09:57:20Z</time>
      </trkpt>
      <trkpt lat="45.57241" lon="5.37849">
        <ele>438.98</ele>
        <time>2017-02-11T09:57:26Z</time>
      </trkpt>
      <trkpt lat="45.57229" lon="5.37834">
        <ele>437.06</ele>
        <time>2017-02-11T09:57:32Z</time>
      </trkpt>
      <trkpt lat="45.57212" lon="5.37823">
        <ele>435.61</ele>
        <time>2017-02-11T09:57:39Z</time>
      </trkpt>
      <trkpt lat="45.57202" lon="5.37816">
        <ele>434.17</ele>
        <time>2017-02-11T09:57:43Z</time>
      </trkpt>
      <trkpt lat="45.57188" lon="5.378">
        <ele>432.25</ele>
        <time>2017-02-11T09:57:51Z</time>
      </trkpt>
      <trkpt lat="45.57174" lon="5.37788">
        <ele>430.81</ele>
        <time>2017-02-11T09:57:57Z</time>
      </trkpt>
      <trkpt lat="45.5716" lon="5.37771">
        <ele>428.89</ele>
        <time>2017-02-11T09:58:04Z</time>
      </trkpt>
      <trkpt lat="45.57151" lon="5.37758">
        <ele>427.92</ele>
        <time>2017-02-11T09:58:09Z</time>
      </trkpt>
      <trkpt lat="45.57142" lon="5.37742">
        <ele>426.48</ele>
        <time>2017-02-11T09:58:15Z</time>
      </trkpt>
      <trkpt lat="45.57129" lon="5.37734">
        <ele>425.52</ele>
        <time>2017-02-11T09:58:20Z</time>
      </trkpt>
      <trkpt lat="45.5711" lon="5.3773">
        <ele>423.12</ele>
        <time>2017-02-11T09:58:26Z</time>
      </trkpt>
      <trkpt lat="45.57094" lon="5.37728">
        <ele>421.19</ele>
        <time>2017-02-11T09:58:33Z</time>
      </trkpt>
      <trkpt lat="45.57075" lon="5.37725">
        <ele>418.31</ele>
        <time>2017-02-11T09:58:39Z</time>
      </trkpt>
      <trkpt lat="45.57057" lon="5.37724">
        <ele>415.43</ele>
        <time>2017-02-11T09:58:45Z</time>
      </trkpt>
      <trkpt lat="45.57044" lon="5.37725">
        <ele>412.54</ele>
        <time>2017-02-11T09:58:52Z</time>
      </trkpt>
      <trkpt lat="45.5705" lon="5.37752">
        <ele>414.47</ele>
        <time>2017-02-11T09:59:02Z</time>
      </trkpt>
      <trkpt lat="45.57051" lon="5.37785">
        <ele>417.35</ele>
        <time>2017-02-11T09:59:17Z</time>
      </trkpt>
      <trkpt lat="45.57052" lon="5.37795">
        <ele>418.31</ele>
        <time>2017-02-11T09:59:23Z</time>
      </trkpt>
      <trkpt lat="45.57051" lon="5.37815">
        <ele>420.23</ele>
        <time>2017-02-11T09:59:34Z</time>
      </trkpt>
      <trkpt lat="45.57047" lon="5.37839">
        <ele>421.19</ele>
        <time>2017-02-11T09:59:46Z</time>
      </trkpt>
      <trkpt lat="45.57045" lon="5.37853">
        <ele>421.68</ele>
        <time>2017-02-11T09:59:54Z</time>
      </trkpt>
      <trkpt lat="45.57041" lon="5.37873">
        <ele>422.16</ele>
        <time>2017-02-11T10:00:04Z</time>
      </trkpt>
      <trkpt lat="45.57035" lon="5.37883">
        <ele>427.92</ele>
        <time>2017-02-11T10:00:54Z</time>
      </trkpt>
      <trkpt lat="45.57031" lon="5.37892">
        <ele>427.92</ele>
        <time>2017-02-11T10:00:57Z</time>
      </trkpt>
      <trkpt lat="45.57018" lon="5.37921">
        <ele>429.37</ele>
        <time>2017-02-11T10:01:05Z</time>
      </trkpt>
      <trkpt lat="45.57007" lon="5.37949">
        <ele>430.81</ele>
        <time>2017-02-11T10:01:14Z</time>
      </trkpt>
      <trkpt lat="45.57003" lon="5.37966">
        <ele>431.77</ele>
        <time>2017-02-11T10:01:20Z</time>
      </trkpt>
      <trkpt lat="45.57003" lon="5.37981">
        <ele>434.65</ele>
        <time>2017-02-11T10:01:34Z</time>
      </trkpt>
      <trkpt lat="45.57014" lon="5.37978">
        <ele>436.1</ele>
        <time>2017-02-11T10:01:45Z</time>
      </trkpt>
      <trkpt lat="45.57022" lon="5.37978">
        <ele>437.06</ele>
        <time>2017-02-11T10:01:53Z</time>
      </trkpt>
      <trkpt lat="45.57029" lon="5.3799">
        <ele>438.5</ele>
        <time>2017-02-11T10:02:00Z</time>
      </trkpt>
      <trkpt lat="45.57035" lon="5.37997">
        <ele>440.9</ele>
        <time>2017-02-11T10:02:09Z</time>
      </trkpt>
      <trkpt lat="45.57041" lon="5.38">
        <ele>442.82</ele>
        <time>2017-02-11T10:02:17Z</time>
      </trkpt>
      <trkpt lat="45.57044" lon="5.38007">
        <ele>444.75</ele>
        <time>2017-02-11T10:02:25Z</time>
      </trkpt>
      <trkpt lat="45.57051" lon="5.38012">
        <ele>447.63</ele>
        <time>2017-02-11T10:02:35Z</time>
      </trkpt>
      <trkpt lat="45.57062" lon="5.37992">
        <ele>447.15</ele>
        <time>2017-02-11T10:02:45Z</time>
      </trkpt>
      <trkpt lat="45.57068" lon="5.37979">
        <ele>447.15</ele>
        <time>2017-02-11T10:02:50Z</time>
      </trkpt>
      <trkpt lat="45.57071" lon="5.37971">
        <ele>446.67</ele>
        <time>2017-02-11T10:02:53Z</time>
      </trkpt>
      <trkpt lat="45.57077" lon="5.3796">
        <ele>447.63</ele>
        <time>2017-02-11T10:03:00Z</time>
      </trkpt>
      <trkpt lat="45.5709" lon="5.37955">
        <ele>450.52</ele>
        <time>2017-02-11T10:03:14Z</time>
      </trkpt>
      <trkpt lat="45.57099" lon="5.37948">
        <ele>452.44</ele>
        <time>2017-02-11T10:03:24Z</time>
      </trkpt>
      <trkpt lat="45.57102" lon="5.37939">
        <ele>452.44</ele>
        <time>2017-02-11T10:03:30Z</time>
      </trkpt>
      <trkpt lat="45.57106" lon="5.37925">
        <ele>453.4</ele>
        <time>2017-02-11T10:03:37Z</time>
      </trkpt>
      <trkpt lat="45.57114" lon="5.37915">
        <ele>453.4</ele>
        <time>2017-02-11T10:03:42Z</time>
      </trkpt>
      <trkpt lat="45.57121" lon="5.37909">
        <ele>454.36</ele>
        <time>2017-02-11T10:03:50Z</time>
      </trkpt>
      <trkpt lat="45.57126" lon="5.3792">
        <ele>459.17</ele>
        <time>2017-02-11T10:04:09Z</time>
      </trkpt>
      <trkpt lat="45.57123" lon="5.37937">
        <ele>460.61</ele>
        <time>2017-02-11T10:04:19Z</time>
      </trkpt>
      <trkpt lat="45.57123" lon="5.37956">
        <ele>463.97</ele>
        <time>2017-02-11T10:04:36Z</time>
      </trkpt>
      <trkpt lat="45.5712" lon="5.37978">
        <ele>467.34</ele>
        <time>2017-02-11T10:04:53Z</time>
      </trkpt>
      <trkpt lat="45.57121" lon="5.37991">
        <ele>469.74</ele>
        <time>2017-02-11T10:05:04Z</time>
      </trkpt>
      <trkpt lat="45.57117" lon="5.37996">
        <ele>470.22</ele>
        <time>2017-02-11T10:05:10Z</time>
      </trkpt>
      <trkpt lat="45.57118" lon="5.38006">
        <ele>473.11</ele>
        <time>2017-02-11T10:05:19Z</time>
      </trkpt>
      <trkpt lat="45.57113" lon="5.38016">
        <ele>475.51</ele>
        <time>2017-02-11T10:05:29Z</time>
      </trkpt>
      <trkpt lat="45.57116" lon="5.38027">
        <ele>476.95</ele>
        <time>2017-02-11T10:05:38Z</time>
      </trkpt>
      <trkpt lat="45.57118" lon="5.38035">
        <ele>479.35</ele>
        <time>2017-02-11T10:05:51Z</time>
      </trkpt>
      <trkpt lat="45.57117" lon="5.38045">
        <ele>480.8</ele>
        <time>2017-02-11T10:05:57Z</time>
      </trkpt>
      <trkpt lat="45.57114" lon="5.3806">
        <ele>482.72</ele>
        <time>2017-02-11T10:06:08Z</time>
      </trkpt>
      <trkpt lat="45.57109" lon="5.38072">
        <ele>484.16</ele>
        <time>2017-02-11T10:06:16Z</time>
      </trkpt>
      <trkpt lat="45.57106" lon="5.38087">
        <ele>485.6</ele>
        <time>2017-02-11T10:06:27Z</time>
      </trkpt>
      <trkpt lat="45.57105" lon="5.38097">
        <ele>487.05</ele>
        <time>2017-02-11T10:06:35Z</time>
      </trkpt>
      <trkpt lat="45.57104" lon="5.38109">
        <ele>488.97</ele>
        <time>2017-02-11T10:06:45Z</time>
      </trkpt>
      <trkpt lat="45.57101" lon="5.38121">
        <ele>491.37</ele>
        <time>2017-02-11T10:06:53Z</time>
      </trkpt>
      <trkpt lat="45.57099" lon="5.38128">
        <ele>492.33</ele>
        <time>2017-02-11T10:07:01Z</time>
      </trkpt>
      <trkpt lat="45.571" lon="5.38142">
        <ele>494.26</ele>
        <time>2017-02-11T10:07:10Z</time>
      </trkpt>
      <trkpt lat="45.57104" lon="5.38151">
        <ele>495.7</ele>
        <time>2017-02-11T10:07:18Z</time>
      </trkpt>
      <trkpt lat="45.57111" lon="5.38145">
        <ele>496.66</ele>
        <time>2017-02-11T10:09:51Z</time>
      </trkpt>
      <trkpt lat="45.57113" lon="5.38138">
        <ele>496.18</ele>
        <time>2017-02-11T10:09:58Z</time>
      </trkpt>
      <trkpt lat="45.57115" lon="5.38125">
        <ele>495.7</ele>
        <time>2017-02-11T10:10:07Z</time>
      </trkpt>
      <trkpt lat="45.5712" lon="5.38113">
        <ele>495.22</ele>
        <time>2017-02-11T10:10:14Z</time>
      </trkpt>
      <trkpt lat="45.57125" lon="5.38095">
        <ele>494.74</ele>
        <time>2017-02-11T10:10:23Z</time>
      </trkpt>
      <trkpt lat="45.57131" lon="5.38077">
        <ele>494.74</ele>
        <time>2017-02-11T10:10:32Z</time>
      </trkpt>
      <trkpt lat="45.57138" lon="5.38058">
        <ele>494.74</ele>
        <time>2017-02-11T10:10:41Z</time>
      </trkpt>
      <trkpt lat="45.57146" lon="5.38044">
        <ele>494.74</ele>
        <time>2017-02-11T10:10:48Z</time>
      </trkpt>
      <trkpt lat="45.57161" lon="5.38034">
        <ele>494.74</ele>
        <time>2017-02-11T10:10:55Z</time>
      </trkpt>
      <trkpt lat="45.5718" lon="5.38036">
        <ele>495.22</ele>
        <time>2017-02-11T10:11:03Z</time>
      </trkpt>
      <trkpt lat="45.57194" lon="5.3803">
        <ele>494.74</ele>
        <time>2017-02-11T10:11:09Z</time>
      </trkpt>
      <trkpt lat="45.57226" lon="5.38053">
        <ele>493.29</ele>
        <time>2017-02-11T10:11:20Z</time>
      </trkpt>
      <trkpt lat="45.57238" lon="5.38076">
        <ele>491.85</ele>
        <time>2017-02-11T10:11:27Z</time>
      </trkpt>
      <trkpt lat="45.57251" lon="5.38087">
        <ele>490.89</ele>
        <time>2017-02-11T10:11:32Z</time>
      </trkpt>
      <trkpt lat="45.57269" lon="5.38088">
        <ele>489.93</ele>
        <time>2017-02-11T10:11:40Z</time>
      </trkpt>
      <trkpt lat="45.57283" lon="5.38092">
        <ele>490.41</ele>
        <time>2017-02-11T10:11:45Z</time>
      </trkpt>
      <trkpt lat="45.57297" lon="5.381">
        <ele>490.89</ele>
        <time>2017-02-11T10:11:51Z</time>
      </trkpt>
      <trkpt lat="45.57308" lon="5.38113">
        <ele>492.33</ele>
        <time>2017-02-11T10:11:58Z</time>
      </trkpt>
      <trkpt lat="45.57319" lon="5.38128">
        <ele>493.29</ele>
        <time>2017-02-11T10:12:04Z</time>
      </trkpt>
      <trkpt lat="45.5733" lon="5.38142">
        <ele>493.29</ele>
        <time>2017-02-11T10:12:10Z</time>
      </trkpt>
      <trkpt lat="45.57347" lon="5.38159">
        <ele>493.77</ele>
        <time>2017-02-11T10:12:17Z</time>
      </trkpt>
      <trkpt lat="45.57358" lon="5.38169">
        <ele>493.77</ele>
        <time>2017-02-11T10:12:22Z</time>
      </trkpt>
      <trkpt lat="45.57369" lon="5.38179">
        <ele>494.74</ele>
        <time>2017-02-11T10:12:28Z</time>
      </trkpt>
      <trkpt lat="45.57383" lon="5.38193">
        <ele>495.22</ele>
        <time>2017-02-11T10:12:35Z</time>
      </trkpt>
      <trkpt lat="45.57395" lon="5.38205">
        <ele>495.22</ele>
        <time>2017-02-11T10:12:41Z</time>
      </trkpt>
      <trkpt lat="45.57407" lon="5.38217">
        <ele>495.22</ele>
        <time>2017-02-11T10:12:47Z</time>
      </trkpt>
      <trkpt lat="45.57415" lon="5.38223">
        <ele>495.7</ele>
        <time>2017-02-11T10:12:52Z</time>
      </trkpt>
      <trkpt lat="45.57427" lon="5.38228">
        <ele>496.18</ele>
        <time>2017-02-11T10:12:57Z</time>
      </trkpt>
      <trkpt lat="45.57444" lon="5.38238">
        <ele>497.62</ele>
        <time>2017-02-11T10:13:05Z</time>
      </trkpt>
      <trkpt lat="45.57453" lon="5.38241">
        <ele>498.1</ele>
        <time>2017-02-11T10:13:10Z</time>
      </trkpt>
      <trkpt lat="45.57465" lon="5.38242">
        <ele>499.06</ele>
        <time>2017-02-11T10:13:16Z</time>
      </trkpt>
      <trkpt lat="45.57478" lon="5.3824">
        <ele>500.02</ele>
        <time>2017-02-11T10:13:23Z</time>
      </trkpt>
      <trkpt lat="45.57487" lon="5.38231">
        <ele>500.5</ele>
        <time>2017-02-11T10:13:29Z</time>
      </trkpt>
      <trkpt lat="45.57495" lon="5.38224">
        <ele>500.98</ele>
        <time>2017-02-11T10:13:35Z</time>
      </trkpt>
      <trkpt lat="45.57499" lon="5.3822">
        <ele>500.98</ele>
        <time>2017-02-11T10:13:40Z</time>
      </trkpt>
      <trkpt lat="45.57516" lon="5.38237">
        <ele>501.46</ele>
        <time>2017-02-11T10:13:51Z</time>
      </trkpt>
      <trkpt lat="45.57521" lon="5.38257">
        <ele>501.46</ele>
        <time>2017-02-11T10:13:58Z</time>
      </trkpt>
      <trkpt lat="45.57531" lon="5.38289">
        <ele>501.46</ele>
        <time>2017-02-11T10:14:07Z</time>
      </trkpt>
      <trkpt lat="45.57536" lon="5.38301">
        <ele>501.95</ele>
        <time>2017-02-11T10:14:11Z</time>
      </trkpt>
      <trkpt lat="45.57543" lon="5.38317">
        <ele>502.43</ele>
        <time>2017-02-11T10:14:16Z</time>
      </trkpt>
      <trkpt lat="45.57548" lon="5.38338">
        <ele>502.43</ele>
        <time>2017-02-11T10:14:22Z</time>
      </trkpt>
      <trkpt lat="45.57552" lon="5.38353">
        <ele>501.95</ele>
        <time>2017-02-11T10:14:26Z</time>
      </trkpt>
      <trkpt lat="45.57559" lon="5.38373">
        <ele>500.98</ele>
        <time>2017-02-11T10:14:32Z</time>
      </trkpt>
      <trkpt lat="45.57564" lon="5.38387">
        <ele>500.02</ele>
        <time>2017-02-11T10:14:36Z</time>
      </trkpt>
      <trkpt lat="45.57568" lon="5.384">
        <ele>499.54</ele>
        <time>2017-02-11T10:14:40Z</time>
      </trkpt>
      <trkpt lat="45.57571" lon="5.38419">
        <ele>500.02</ele>
        <time>2017-02-11T10:14:45Z</time>
      </trkpt>
      <trkpt lat="45.57578" lon="5.38446">
        <ele>500.5</ele>
        <time>2017-02-11T10:14:52Z</time>
      </trkpt>
      <trkpt lat="45.57579" lon="5.38465">
        <ele>500.5</ele>
        <time>2017-02-11T10:14:57Z</time>
      </trkpt>
      <trkpt lat="45.57581" lon="5.38499">
        <ele>501.46</ele>
        <time>2017-02-11T10:15:07Z</time>
      </trkpt>
      <trkpt lat="45.57576" lon="5.38538">
        <ele>502.43</ele>
        <time>2017-02-11T10:15:17Z</time>
      </trkpt>
      <trkpt lat="45.57572" lon="5.38561">
        <ele>502.43</ele>
        <time>2017-02-11T10:15:23Z</time>
      </trkpt>
      <trkpt lat="45.57566" lon="5.38582">
        <ele>502.43</ele>
        <time>2017-02-11T10:15:29Z</time>
      </trkpt>
      <trkpt lat="45.57555" lon="5.38604">
        <ele>502.91</ele>
        <time>2017-02-11T10:15:37Z</time>
      </trkpt>
      <trkpt lat="45.57539" lon="5.38625">
        <ele>503.39</ele>
        <time>2017-02-11T10:15:45Z</time>
      </trkpt>
      <trkpt lat="45.57523" lon="5.38642">
        <ele>503.39</ele>
        <time>2017-02-11T10:15:52Z</time>
      </trkpt>
      <trkpt lat="45.57506" lon="5.38667">
        <ele>502.91</ele>
        <time>2017-02-11T10:16:01Z</time>
      </trkpt>
      <trkpt lat="45.57502" lon="5.38687">
        <ele>502.91</ele>
        <time>2017-02-11T10:16:06Z</time>
      </trkpt>
      <trkpt lat="45.57495" lon="5.38718">
        <ele>502.91</ele>
        <time>2017-02-11T10:16:14Z</time>
      </trkpt>
      <trkpt lat="45.5749" lon="5.38739">
        <ele>503.39</ele>
        <time>2017-02-11T10:16:20Z</time>
      </trkpt>
      <trkpt lat="45.57487" lon="5.38758">
        <ele>503.39</ele>
        <time>2017-02-11T10:16:25Z</time>
      </trkpt>
      <trkpt lat="45.5748" lon="5.38779">
        <ele>503.87</ele>
        <time>2017-02-11T10:16:31Z</time>
      </trkpt>
      <trkpt lat="45.57476" lon="5.38809">
        <ele>502.91</ele>
        <time>2017-02-11T10:16:39Z</time>
      </trkpt>
      <trkpt lat="45.57474" lon="5.3883">
        <ele>502.91</ele>
        <time>2017-02-11T10:16:45Z</time>
      </trkpt>
      <trkpt lat="45.57474" lon="5.38857">
        <ele>502.43</ele>
        <time>2017-02-11T10:16:52Z</time>
      </trkpt>
      <trkpt lat="45.5747" lon="5.38879">
        <ele>501.95</ele>
        <time>2017-02-11T10:16:57Z</time>
      </trkpt>
      <trkpt lat="45.57467" lon="5.38901">
        <ele>502.43</ele>
        <time>2017-02-11T10:17:03Z</time>
      </trkpt>
      <trkpt lat="45.57463" lon="5.38925">
        <ele>501.95</ele>
        <time>2017-02-11T10:17:09Z</time>
      </trkpt>
      <trkpt lat="45.57459" lon="5.38948">
        <ele>501.46</ele>
        <time>2017-02-11T10:17:15Z</time>
      </trkpt>
      <trkpt lat="45.57456" lon="5.38981">
        <ele>500.98</ele>
        <time>2017-02-11T10:17:24Z</time>
      </trkpt>
      <trkpt lat="45.57451" lon="5.39006">
        <ele>501.46</ele>
        <time>2017-02-11T10:17:31Z</time>
      </trkpt>
      <trkpt lat="45.57447" lon="5.39023">
        <ele>501.46</ele>
        <time>2017-02-11T10:17:36Z</time>
      </trkpt>
      <trkpt lat="45.57442" lon="5.39041">
        <ele>501.46</ele>
        <time>2017-02-11T10:17:41Z</time>
      </trkpt>
      <trkpt lat="45.57437" lon="5.39068">
        <ele>500.98</ele>
        <time>2017-02-11T10:17:48Z</time>
      </trkpt>
      <trkpt lat="45.57433" lon="5.39087">
        <ele>500.5</ele>
        <time>2017-02-11T10:17:53Z</time>
      </trkpt>
      <trkpt lat="45.57426" lon="5.39108">
        <ele>500.5</ele>
        <time>2017-02-11T10:17:59Z</time>
      </trkpt>
      <trkpt lat="45.57419" lon="5.39126">
        <ele>500.5</ele>
        <time>2017-02-11T10:18:04Z</time>
      </trkpt>
      <trkpt lat="45.57414" lon="5.39146">
        <ele>500.02</ele>
        <time>2017-02-11T10:18:10Z</time>
      </trkpt>
      <trkpt lat="45.57408" lon="5.39165">
        <ele>499.54</ele>
        <time>2017-02-11T10:18:15Z</time>
      </trkpt>
      <trkpt lat="45.57405" lon="5.39183">
        <ele>499.54</ele>
        <time>2017-02-11T10:18:20Z</time>
      </trkpt>
      <trkpt lat="45.57401" lon="5.39204">
        <ele>499.54</ele>
        <time>2017-02-11T10:18:26Z</time>
      </trkpt>
      <trkpt lat="45.57401" lon="5.39221">
        <ele>499.54</ele>
        <time>2017-02-11T10:18:31Z</time>
      </trkpt>
      <trkpt lat="45.57396" lon="5.39238">
        <ele>499.54</ele>
        <time>2017-02-11T10:18:36Z</time>
      </trkpt>
      <trkpt lat="45.57396" lon="5.39259">
        <ele>499.54</ele>
        <time>2017-02-11T10:18:42Z</time>
      </trkpt>
      <trkpt lat="45.57395" lon="5.39279">
        <ele>498.58</ele>
        <time>2017-02-11T10:18:48Z</time>
      </trkpt>
      <trkpt lat="45.57395" lon="5.39302">
        <ele>498.1</ele>
        <time>2017-02-11T10:18:54Z</time>
      </trkpt>
      <trkpt lat="45.57397" lon="5.39319">
        <ele>498.1</ele>
        <time>2017-02-11T10:18:59Z</time>
      </trkpt>
      <trkpt lat="45.57393" lon="5.39344">
        <ele>497.62</ele>
        <time>2017-02-11T10:19:06Z</time>
      </trkpt>
      <trkpt lat="45.57382" lon="5.39358">
        <ele>496.66</ele>
        <time>2017-02-11T10:19:12Z</time>
      </trkpt>
      <trkpt lat="45.5737" lon="5.39369">
        <ele>495.7</ele>
        <time>2017-02-11T10:19:17Z</time>
      </trkpt>
      <trkpt lat="45.5736" lon="5.39379">
        <ele>494.74</ele>
        <time>2017-02-11T10:19:22Z</time>
      </trkpt>
      <trkpt lat="45.57347" lon="5.39387">
        <ele>490.89</ele>
        <time>2017-02-11T10:19:29Z</time>
      </trkpt>
      <trkpt lat="45.57334" lon="5.39396">
        <ele>486.08</ele>
        <time>2017-02-11T10:19:36Z</time>
      </trkpt>
      <trkpt lat="45.57323" lon="5.39402">
        <ele>482.24</ele>
        <time>2017-02-11T10:19:42Z</time>
      </trkpt>
      <trkpt lat="45.57313" lon="5.39409">
        <ele>480.32</ele>
        <time>2017-02-11T10:19:46Z</time>
      </trkpt>
      <trkpt lat="45.57305" lon="5.39412">
        <ele>476.95</ele>
        <time>2017-02-11T10:19:50Z</time>
      </trkpt>
      <trkpt lat="45.57299" lon="5.39414">
        <ele>475.99</ele>
        <time>2017-02-11T10:19:52Z</time>
      </trkpt>
      <trkpt lat="45.57288" lon="5.3942">
        <ele>473.11</ele>
        <time>2017-02-11T10:19:56Z</time>
      </trkpt>
      <trkpt lat="45.57279" lon="5.39422">
        <ele>471.66</ele>
        <time>2017-02-11T10:19:59Z</time>
      </trkpt>
      <trkpt lat="45.57264" lon="5.39424">
        <ele>468.3</ele>
        <time>2017-02-11T10:20:04Z</time>
      </trkpt>
      <trkpt lat="45.57255" lon="5.39424">
        <ele>466.86</ele>
        <time>2017-02-11T10:20:07Z</time>
      </trkpt>
      <trkpt lat="45.57243" lon="5.39422">
        <ele>463.49</ele>
        <time>2017-02-11T10:20:12Z</time>
      </trkpt>
      <trkpt lat="45.57218" lon="5.39432">
        <ele>459.17</ele>
        <time>2017-02-11T10:20:20Z</time>
      </trkpt>
      <trkpt lat="45.57202" lon="5.39442">
        <ele>455.32</ele>
        <time>2017-02-11T10:20:27Z</time>
      </trkpt>
      <trkpt lat="45.57184" lon="5.3947">
        <ele>451</ele>
        <time>2017-02-11T10:20:34Z</time>
      </trkpt>
      <trkpt lat="45.57173" lon="5.39481">
        <ele>449.55</ele>
        <time>2017-02-11T10:20:37Z</time>
      </trkpt>
      <trkpt lat="45.57155" lon="5.39498">
        <ele>446.19</ele>
        <time>2017-02-11T10:20:42Z</time>
      </trkpt>
      <trkpt lat="45.57149" lon="5.39503">
        <ele>445.71</ele>
        <time>2017-02-11T10:20:44Z</time>
      </trkpt>
      <trkpt lat="45.57132" lon="5.39519">
        <ele>441.86</ele>
        <time>2017-02-11T10:20:49Z</time>
      </trkpt>
      <trkpt lat="45.57119" lon="5.39532">
        <ele>437.54</ele>
        <time>2017-02-11T10:21:00Z</time>
      </trkpt>
      <trkpt lat="45.57103" lon="5.3954">
        <ele>434.17</ele>
        <time>2017-02-11T10:21:06Z</time>
      </trkpt>
      <trkpt lat="45.57088" lon="5.39548">
        <ele>432.25</ele>
        <time>2017-02-11T10:21:11Z</time>
      </trkpt>
      <trkpt lat="45.57077" lon="5.39554">
        <ele>430.81</ele>
        <time>2017-02-11T10:21:15Z</time>
      </trkpt>
      <trkpt lat="45.57066" lon="5.39565">
        <ele>429.37</ele>
        <time>2017-02-11T10:21:20Z</time>
      </trkpt>
      <trkpt lat="45.5706" lon="5.39575">
        <ele>427.92</ele>
        <time>2017-02-11T10:21:23Z</time>
      </trkpt>
      <trkpt lat="45.57059" lon="5.39589">
        <ele>424.56</ele>
        <time>2017-02-11T10:21:28Z</time>
      </trkpt>
      <trkpt lat="45.57057" lon="5.39598">
        <ele>423.6</ele>
        <time>2017-02-11T10:21:31Z</time>
      </trkpt>
      <trkpt lat="45.57052" lon="5.39618">
        <ele>420.23</ele>
        <time>2017-02-11T10:21:36Z</time>
      </trkpt>
      <trkpt lat="45.57045" lon="5.39643">
        <ele>416.87</ele>
        <time>2017-02-11T10:21:43Z</time>
      </trkpt>
      <trkpt lat="45.57034" lon="5.3967">
        <ele>413.98</ele>
        <time>2017-02-11T10:21:50Z</time>
      </trkpt>
      <trkpt lat="45.57025" lon="5.39691">
        <ele>412.06</ele>
        <time>2017-02-11T10:21:57Z</time>
      </trkpt>
      <trkpt lat="45.57012" lon="5.3971">
        <ele>409.18</ele>
        <time>2017-02-11T10:22:04Z</time>
      </trkpt>
      <trkpt lat="45.56994" lon="5.39717">
        <ele>406.29</ele>
        <time>2017-02-11T10:22:12Z</time>
      </trkpt>
      <trkpt lat="45.56973" lon="5.39725">
        <ele>403.89</ele>
        <time>2017-02-11T10:22:19Z</time>
      </trkpt>
      <trkpt lat="45.5696" lon="5.39728">
        <ele>400.05</ele>
        <time>2017-02-11T10:22:24Z</time>
      </trkpt>
      <trkpt lat="45.5694" lon="5.39728">
        <ele>397.16</ele>
        <time>2017-02-11T10:22:31Z</time>
      </trkpt>
      <trkpt lat="45.56922" lon="5.3972">
        <ele>394.76</ele>
        <time>2017-02-11T10:22:38Z</time>
      </trkpt>
      <trkpt lat="45.56905" lon="5.39713">
        <ele>392.84</ele>
        <time>2017-02-11T10:22:44Z</time>
      </trkpt>
      <trkpt lat="45.56893" lon="5.39712">
        <ele>391.39</ele>
        <time>2017-02-11T10:22:49Z</time>
      </trkpt>
      <trkpt lat="45.56875" lon="5.3972">
        <ele>389.95</ele>
        <time>2017-02-11T10:22:56Z</time>
      </trkpt>
      <trkpt lat="45.56859" lon="5.39726">
        <ele>388.99</ele>
        <time>2017-02-11T10:23:02Z</time>
      </trkpt>
      <trkpt lat="45.56844" lon="5.39738">
        <ele>387.07</ele>
        <time>2017-02-11T10:23:09Z</time>
      </trkpt>
      <trkpt lat="45.56842" lon="5.39768">
        <ele>384.66</ele>
        <time>2017-02-11T10:23:16Z</time>
      </trkpt>
      <trkpt lat="45.56851" lon="5.39786">
        <ele>381.78</ele>
        <time>2017-02-11T10:23:23Z</time>
      </trkpt>
      <trkpt lat="45.56849" lon="5.39806">
        <ele>378.9</ele>
        <time>2017-02-11T10:23:29Z</time>
      </trkpt>
      <trkpt lat="45.56843" lon="5.39822">
        <ele>376.01</ele>
        <time>2017-02-11T10:23:34Z</time>
      </trkpt>
      <trkpt lat="45.56839" lon="5.3983">
        <ele>375.05</ele>
        <time>2017-02-11T10:23:36Z</time>
      </trkpt>
      <trkpt lat="45.56828" lon="5.39862">
        <ele>371.21</ele>
        <time>2017-02-11T10:23:44Z</time>
      </trkpt>
      <trkpt lat="45.56826" lon="5.39884">
        <ele>369.28</ele>
        <time>2017-02-11T10:23:50Z</time>
      </trkpt>
      <trkpt lat="45.5683" lon="5.39895">
        <ele>368.8</ele>
        <time>2017-02-11T10:23:54Z</time>
      </trkpt>
      <trkpt lat="45.5684" lon="5.39913">
        <ele>369.28</ele>
        <time>2017-02-11T10:24:03Z</time>
      </trkpt>
      <trkpt lat="45.56846" lon="5.39933">
        <ele>369.76</ele>
        <time>2017-02-11T10:24:09Z</time>
      </trkpt>
      <trkpt lat="45.5685" lon="5.39959">
        <ele>369.76</ele>
        <time>2017-02-11T10:24:18Z</time>
      </trkpt>
      <trkpt lat="45.5685" lon="5.39985">
        <ele>369.28</ele>
        <time>2017-02-11T10:24:24Z</time>
      </trkpt>
      <trkpt lat="45.56853" lon="5.40015">
        <ele>368.8</ele>
        <time>2017-02-11T10:24:30Z</time>
      </trkpt>
      <trkpt lat="45.56856" lon="5.40034">
        <ele>368.32</ele>
        <time>2017-02-11T10:24:36Z</time>
      </trkpt>
      <trkpt lat="45.5686" lon="5.40054">
        <ele>367.84</ele>
        <time>2017-02-11T10:24:42Z</time>
      </trkpt>
      <trkpt lat="45.56862" lon="5.40071">
        <ele>367.36</ele>
        <time>2017-02-11T10:24:47Z</time>
      </trkpt>
      <trkpt lat="45.56863" lon="5.40098">
        <ele>366.4</ele>
        <time>2017-02-11T10:24:54Z</time>
      </trkpt>
      <trkpt lat="45.56862" lon="5.40119">
        <ele>364.96</ele>
        <time>2017-02-11T10:24:59Z</time>
      </trkpt>
      <trkpt lat="45.56858" lon="5.4014">
        <ele>363.04</ele>
        <time>2017-02-11T10:25:05Z</time>
      </trkpt>
      <trkpt lat="45.56853" lon="5.40157">
        <ele>361.11</ele>
        <time>2017-02-11T10:25:10Z</time>
      </trkpt>
      <trkpt lat="45.56843" lon="5.40176">
        <ele>358.23</ele>
        <time>2017-02-11T10:25:16Z</time>
      </trkpt>
      <trkpt lat="45.56837" lon="5.402">
        <ele>354.86</ele>
        <time>2017-02-11T10:25:23Z</time>
      </trkpt>
      <trkpt lat="45.5683" lon="5.40228">
        <ele>352.94</ele>
        <time>2017-02-11T10:25:31Z</time>
      </trkpt>
      <trkpt lat="45.5683" lon="5.4026">
        <ele>350.06</ele>
        <time>2017-02-11T10:25:39Z</time>
      </trkpt>
      <trkpt lat="45.56833" lon="5.40291">
        <ele>347.17</ele>
        <time>2017-02-11T10:25:47Z</time>
      </trkpt>
      <trkpt lat="45.56833" lon="5.40317">
        <ele>345.73</ele>
        <time>2017-02-11T10:25:54Z</time>
      </trkpt>
      <trkpt lat="45.56832" lon="5.40357">
        <ele>343.81</ele>
        <time>2017-02-11T10:26:04Z</time>
      </trkpt>
      <trkpt lat="45.56832" lon="5.40382">
        <ele>342.85</ele>
        <time>2017-02-11T10:26:11Z</time>
      </trkpt>
      <trkpt lat="45.56829" lon="5.40409">
        <ele>341.89</ele>
        <time>2017-02-11T10:26:18Z</time>
      </trkpt>
      <trkpt lat="45.56828" lon="5.40443">
        <ele>340.44</ele>
        <time>2017-02-11T10:26:26Z</time>
      </trkpt>
      <trkpt lat="45.56828" lon="5.40474">
        <ele>339.96</ele>
        <time>2017-02-11T10:26:34Z</time>
      </trkpt>
      <trkpt lat="45.5683" lon="5.40512">
        <ele>340.44</ele>
        <time>2017-02-11T10:26:44Z</time>
      </trkpt>
      <trkpt lat="45.56827" lon="5.40542">
        <ele>340.44</ele>
        <time>2017-02-11T10:26:52Z</time>
      </trkpt>
      <trkpt lat="45.56821" lon="5.40573">
        <ele>339.48</ele>
        <time>2017-02-11T10:27:00Z</time>
      </trkpt>
      <trkpt lat="45.56813" lon="5.406">
        <ele>338.52</ele>
        <time>2017-02-11T10:27:07Z</time>
      </trkpt>
      <trkpt lat="45.56808" lon="5.40615">
        <ele>338.04</ele>
        <time>2017-02-11T10:27:11Z</time>
      </trkpt>
      <trkpt lat="45.56803" lon="5.40635">
        <ele>338.04</ele>
        <time>2017-02-11T10:27:17Z</time>
      </trkpt>
      <trkpt lat="45.56808" lon="5.40647">
        <ele>337.56</ele>
        <time>2017-02-11T10:27:23Z</time>
      </trkpt>
      <trkpt lat="45.56822" lon="5.40639">
        <ele>339.48</ele>
        <time>2017-02-11T10:27:36Z</time>
      </trkpt>
      <trkpt lat="45.56833" lon="5.40629">
        <ele>340.44</ele>
        <time>2017-02-11T10:27:46Z</time>
      </trkpt>
      <trkpt lat="45.56843" lon="5.40622">
        <ele>342.37</ele>
        <time>2017-02-11T10:27:57Z</time>
      </trkpt>
      <trkpt lat="45.56855" lon="5.40612">
        <ele>344.77</ele>
        <time>2017-02-11T10:28:09Z</time>
      </trkpt>
      <trkpt lat="45.56862" lon="5.40611">
        <ele>345.25</ele>
        <time>2017-02-11T10:28:16Z</time>
      </trkpt>
      <trkpt lat="45.56879" lon="5.4061">
        <ele>347.17</ele>
        <time>2017-02-11T10:28:30Z</time>
      </trkpt>
      <trkpt lat="45.56889" lon="5.40612">
        <ele>348.62</ele>
        <time>2017-02-11T10:28:38Z</time>
      </trkpt>
      <trkpt lat="45.56903" lon="5.40611">
        <ele>350.54</ele>
        <time>2017-02-11T10:28:51Z</time>
      </trkpt>
      <trkpt lat="45.56917" lon="5.40608">
        <ele>353.42</ele>
        <time>2017-02-11T10:29:05Z</time>
      </trkpt>
      <trkpt lat="45.56931" lon="5.40599">
        <ele>356.79</ele>
        <time>2017-02-11T10:29:23Z</time>
      </trkpt>
      <trkpt lat="45.56939" lon="5.40593">
        <ele>359.19</ele>
        <time>2017-02-11T10:29:35Z</time>
      </trkpt>
      <trkpt lat="45.56949" lon="5.40593">
        <ele>361.11</ele>
        <time>2017-02-11T10:29:46Z</time>
      </trkpt>
      <trkpt lat="45.56956" lon="5.40591">
        <ele>362.55</ele>
        <time>2017-02-11T10:29:54Z</time>
      </trkpt>
      <trkpt lat="45.56963" lon="5.40592">
        <ele>364.48</ele>
        <time>2017-02-11T10:30:03Z</time>
      </trkpt>
      <trkpt lat="45.5697" lon="5.40589">
        <ele>365.92</ele>
        <time>2017-02-11T10:30:11Z</time>
      </trkpt>
      <trkpt lat="45.5698" lon="5.4058">
        <ele>368.32</ele>
        <time>2017-02-11T10:30:25Z</time>
      </trkpt>
      <trkpt lat="45.56992" lon="5.40583">
        <ele>370.73</ele>
        <time>2017-02-11T10:30:40Z</time>
      </trkpt>
      <trkpt lat="45.56998" lon="5.40584">
        <ele>372.65</ele>
        <time>2017-02-11T10:30:49Z</time>
      </trkpt>
      <trkpt lat="45.57005" lon="5.40585">
        <ele>374.09</ele>
        <time>2017-02-11T10:30:58Z</time>
      </trkpt>
      <trkpt lat="45.57014" lon="5.40572">
        <ele>376.49</ele>
        <time>2017-02-11T10:31:11Z</time>
      </trkpt>
      <trkpt lat="45.57023" lon="5.40569">
        <ele>377.94</ele>
        <time>2017-02-11T10:31:22Z</time>
      </trkpt>
      <trkpt lat="45.57034" lon="5.40568">
        <ele>379.86</ele>
        <time>2017-02-11T10:31:35Z</time>
      </trkpt>
      <trkpt lat="45.57044" lon="5.40563">
        <ele>382.26</ele>
        <time>2017-02-11T10:31:47Z</time>
      </trkpt>
      <trkpt lat="45.57053" lon="5.40553">
        <ele>384.66</ele>
        <time>2017-02-11T10:31:57Z</time>
      </trkpt>
      <trkpt lat="45.57062" lon="5.40544">
        <ele>386.59</ele>
        <time>2017-02-11T10:32:09Z</time>
      </trkpt>
      <trkpt lat="45.57071" lon="5.40534">
        <ele>388.99</ele>
        <time>2017-02-11T10:32:24Z</time>
      </trkpt>
      <trkpt lat="45.57077" lon="5.40519">
        <ele>391.39</ele>
        <time>2017-02-11T10:32:36Z</time>
      </trkpt>
      <trkpt lat="45.57085" lon="5.40508">
        <ele>393.32</ele>
        <time>2017-02-11T10:32:48Z</time>
      </trkpt>
      <trkpt lat="45.57091" lon="5.40504">
        <ele>394.76</ele>
        <time>2017-02-11T10:32:56Z</time>
      </trkpt>
      <trkpt lat="45.57097" lon="5.40496">
        <ele>396.2</ele>
        <time>2017-02-11T10:33:07Z</time>
      </trkpt>
      <trkpt lat="45.5711" lon="5.40493">
        <ele>401.01</ele>
        <time>2017-02-11T10:33:28Z</time>
      </trkpt>
      <trkpt lat="45.5712" lon="5.40495">
        <ele>403.89</ele>
        <time>2017-02-11T10:33:41Z</time>
      </trkpt>
      <trkpt lat="45.57133" lon="5.40492">
        <ele>405.81</ele>
        <time>2017-02-11T10:33:52Z</time>
      </trkpt>
      <trkpt lat="45.57139" lon="5.40485">
        <ele>408.22</ele>
        <time>2017-02-11T10:34:02Z</time>
      </trkpt>
      <trkpt lat="45.57142" lon="5.40473">
        <ele>410.62</ele>
        <time>2017-02-11T10:34:13Z</time>
      </trkpt>
      <trkpt lat="45.57145" lon="5.40458">
        <ele>412.54</ele>
        <time>2017-02-11T10:34:25Z</time>
      </trkpt>
      <trkpt lat="45.57145" lon="5.40446">
        <ele>413.5</ele>
        <time>2017-02-11T10:34:38Z</time>
      </trkpt>
      <trkpt lat="45.5714" lon="5.40434">
        <ele>413.98</ele>
        <time>2017-02-11T10:34:47Z</time>
      </trkpt>
      <trkpt lat="45.5713" lon="5.40436">
        <ele>415.43</ele>
        <time>2017-02-11T10:34:57Z</time>
      </trkpt>
      <trkpt lat="45.57122" lon="5.40433">
        <ele>418.31</ele>
        <time>2017-02-11T10:35:08Z</time>
      </trkpt>
      <trkpt lat="45.57115" lon="5.40427">
        <ele>421.19</ele>
        <time>2017-02-11T10:35:21Z</time>
      </trkpt>
      <trkpt lat="45.57108" lon="5.40423">
        <ele>423.6</ele>
        <time>2017-02-11T10:35:33Z</time>
      </trkpt>
      <trkpt lat="45.57106" lon="5.40409">
        <ele>426</ele>
        <time>2017-02-11T10:35:46Z</time>
      </trkpt>
      <trkpt lat="45.57107" lon="5.40399">
        <ele>427.92</ele>
        <time>2017-02-11T10:35:54Z</time>
      </trkpt>
      <trkpt lat="45.57108" lon="5.40385">
        <ele>430.81</ele>
        <time>2017-02-11T10:36:08Z</time>
      </trkpt>
      <trkpt lat="45.57114" lon="5.40371">
        <ele>432.73</ele>
        <time>2017-02-11T10:36:23Z</time>
      </trkpt>
      <trkpt lat="45.57116" lon="5.40364">
        <ele>434.17</ele>
        <time>2017-02-11T10:36:32Z</time>
      </trkpt>
      <trkpt lat="45.57123" lon="5.40349">
        <ele>436.58</ele>
        <time>2017-02-11T10:36:47Z</time>
      </trkpt>
      <trkpt lat="45.57127" lon="5.40342">
        <ele>438.5</ele>
        <time>2017-02-11T10:36:59Z</time>
      </trkpt>
      <trkpt lat="45.57133" lon="5.40333">
        <ele>441.86</ele>
        <time>2017-02-11T10:37:14Z</time>
      </trkpt>
      <trkpt lat="45.57139" lon="5.40322">
        <ele>443.79</ele>
        <time>2017-02-11T10:37:25Z</time>
      </trkpt>
      <trkpt lat="45.57144" lon="5.40317">
        <ele>446.19</ele>
        <time>2017-02-11T10:37:35Z</time>
      </trkpt>
      <trkpt lat="45.57149" lon="5.40302">
        <ele>448.11</ele>
        <time>2017-02-11T10:37:46Z</time>
      </trkpt>
      <trkpt lat="45.57155" lon="5.40295">
        <ele>449.07</ele>
        <time>2017-02-11T10:37:53Z</time>
      </trkpt>
      <trkpt lat="45.57161" lon="5.40284">
        <ele>450.52</ele>
        <time>2017-02-11T10:38:05Z</time>
      </trkpt>
      <trkpt lat="45.57166" lon="5.40262">
        <ele>452.44</ele>
        <time>2017-02-11T10:38:19Z</time>
      </trkpt>
      <trkpt lat="45.57172" lon="5.40253">
        <ele>452.92</ele>
        <time>2017-02-11T10:38:28Z</time>
      </trkpt>
      <trkpt lat="45.57178" lon="5.40224">
        <ele>454.84</ele>
        <time>2017-02-11T10:38:46Z</time>
      </trkpt>
      <trkpt lat="45.57188" lon="5.40208">
        <ele>457.24</ele>
        <time>2017-02-11T10:39:01Z</time>
      </trkpt>
      <trkpt lat="45.57199" lon="5.40197">
        <ele>458.69</ele>
        <time>2017-02-11T10:39:13Z</time>
      </trkpt>
      <trkpt lat="45.57214" lon="5.4019">
        <ele>460.13</ele>
        <time>2017-02-11T10:39:25Z</time>
      </trkpt>
      <trkpt lat="45.57224" lon="5.40183">
        <ele>462.05</ele>
        <time>2017-02-11T10:39:38Z</time>
      </trkpt>
      <trkpt lat="45.57236" lon="5.40173">
        <ele>463.97</ele>
        <time>2017-02-11T10:39:55Z</time>
      </trkpt>
      <trkpt lat="45.57246" lon="5.40164">
        <ele>465.42</ele>
        <time>2017-02-11T10:40:07Z</time>
      </trkpt>
      <trkpt lat="45.57265" lon="5.40147">
        <ele>467.34</ele>
        <time>2017-02-11T10:40:20Z</time>
      </trkpt>
      <trkpt lat="45.5727" lon="5.4014">
        <ele>468.3</ele>
        <time>2017-02-11T10:40:28Z</time>
      </trkpt>
      <trkpt lat="45.57273" lon="5.40126">
        <ele>469.26</ele>
        <time>2017-02-11T10:40:37Z</time>
      </trkpt>
      <trkpt lat="45.57278" lon="5.40116">
        <ele>469.26</ele>
        <time>2017-02-11T10:40:58Z</time>
      </trkpt>
      <trkpt lat="45.57284" lon="5.40118">
        <ele>469.26</ele>
        <time>2017-02-11T10:41:06Z</time>
      </trkpt>
      <trkpt lat="45.57283" lon="5.40106">
        <ele>468.78</ele>
        <time>2017-02-11T10:43:27Z</time>
      </trkpt>
      <trkpt lat="45.57285" lon="5.40097">
        <ele>469.74</ele>
        <time>2017-02-11T10:43:35Z</time>
      </trkpt>
      <trkpt lat="45.57286" lon="5.40088">
        <ele>470.7</ele>
        <time>2017-02-11T10:43:43Z</time>
      </trkpt>
      <trkpt lat="45.57285" lon="5.40075">
        <ele>471.18</ele>
        <time>2017-02-11T10:43:50Z</time>
      </trkpt>
      <trkpt lat="45.57287" lon="5.40062">
        <ele>471.66</ele>
        <time>2017-02-11T10:43:56Z</time>
      </trkpt>
      <trkpt lat="45.57289" lon="5.40045">
        <ele>473.59</ele>
        <time>2017-02-11T10:44:05Z</time>
      </trkpt>
      <trkpt lat="45.57288" lon="5.40036">
        <ele>473.59</ele>
        <time>2017-02-11T10:44:12Z</time>
      </trkpt>
      <trkpt lat="45.57289" lon="5.40026">
        <ele>474.07</ele>
        <time>2017-02-11T10:44:17Z</time>
      </trkpt>
      <trkpt lat="45.5729" lon="5.40009">
        <ele>474.55</ele>
        <time>2017-02-11T10:44:26Z</time>
      </trkpt>
      <trkpt lat="45.57295" lon="5.39987">
        <ele>475.03</ele>
        <time>2017-02-11T10:44:35Z</time>
      </trkpt>
      <trkpt lat="45.57295" lon="5.39973">
        <ele>475.99</ele>
        <time>2017-02-11T10:44:43Z</time>
      </trkpt>
      <trkpt lat="45.57297" lon="5.39953">
        <ele>477.43</ele>
        <time>2017-02-11T10:44:53Z</time>
      </trkpt>
      <trkpt lat="45.573" lon="5.39936">
        <ele>477.43</ele>
        <time>2017-02-11T10:45:00Z</time>
      </trkpt>
      <trkpt lat="45.57301" lon="5.39924">
        <ele>477.91</ele>
        <time>2017-02-11T10:45:08Z</time>
      </trkpt>
      <trkpt lat="45.57303" lon="5.39908">
        <ele>478.87</ele>
        <time>2017-02-11T10:45:16Z</time>
      </trkpt>
      <trkpt lat="45.57309" lon="5.39892">
        <ele>479.84</ele>
        <time>2017-02-11T10:45:26Z</time>
      </trkpt>
      <trkpt lat="45.57312" lon="5.39871">
        <ele>480.8</ele>
        <time>2017-02-11T10:45:34Z</time>
      </trkpt>
      <trkpt lat="45.57315" lon="5.39853">
        <ele>481.76</ele>
        <time>2017-02-11T10:45:41Z</time>
      </trkpt>
      <trkpt lat="45.57317" lon="5.39837">
        <ele>482.72</ele>
        <time>2017-02-11T10:45:48Z</time>
      </trkpt>
      <trkpt lat="45.57318" lon="5.39824">
        <ele>482.72</ele>
        <time>2017-02-11T10:45:53Z</time>
      </trkpt>
      <trkpt lat="45.57321" lon="5.39803">
        <ele>483.2</ele>
        <time>2017-02-11T10:45:59Z</time>
      </trkpt>
      <trkpt lat="45.57323" lon="5.39784">
        <ele>483.68</ele>
        <time>2017-02-11T10:46:05Z</time>
      </trkpt>
      <trkpt lat="45.57328" lon="5.3977">
        <ele>484.16</ele>
        <time>2017-02-11T10:46:10Z</time>
      </trkpt>
      <trkpt lat="45.57337" lon="5.39748">
        <ele>485.6</ele>
        <time>2017-02-11T10:46:20Z</time>
      </trkpt>
      <trkpt lat="45.57342" lon="5.39728">
        <ele>488.01</ele>
        <time>2017-02-11T10:46:29Z</time>
      </trkpt>
      <trkpt lat="45.5735" lon="5.397">
        <ele>490.41</ele>
        <time>2017-02-11T10:46:40Z</time>
      </trkpt>
      <trkpt lat="45.57353" lon="5.39688">
        <ele>490.89</ele>
        <time>2017-02-11T10:46:45Z</time>
      </trkpt>
      <trkpt lat="45.57357" lon="5.39672">
        <ele>491.85</ele>
        <time>2017-02-11T10:46:51Z</time>
      </trkpt>
      <trkpt lat="45.57361" lon="5.39656">
        <ele>492.33</ele>
        <time>2017-02-11T10:46:57Z</time>
      </trkpt>
      <trkpt lat="45.57363" lon="5.39642">
        <ele>492.81</ele>
        <time>2017-02-11T10:47:02Z</time>
      </trkpt>
      <trkpt lat="45.57366" lon="5.39628">
        <ele>492.81</ele>
        <time>2017-02-11T10:47:07Z</time>
      </trkpt>
      <trkpt lat="45.57368" lon="5.39614">
        <ele>493.29</ele>
        <time>2017-02-11T10:47:12Z</time>
      </trkpt>
      <trkpt lat="45.57369" lon="5.39598">
        <ele>493.29</ele>
        <time>2017-02-11T10:47:17Z</time>
      </trkpt>
      <trkpt lat="45.5737" lon="5.39576">
        <ele>493.29</ele>
        <time>2017-02-11T10:47:23Z</time>
      </trkpt>
      <trkpt lat="45.57372" lon="5.39558">
        <ele>492.81</ele>
        <time>2017-02-11T10:47:28Z</time>
      </trkpt>
      <trkpt lat="45.57373" lon="5.39537">
        <ele>491.85</ele>
        <time>2017-02-11T10:47:34Z</time>
      </trkpt>
      <trkpt lat="45.57374" lon="5.39515">
        <ele>491.37</ele>
        <time>2017-02-11T10:47:40Z</time>
      </trkpt>
      <trkpt lat="45.57376" lon="5.39493">
        <ele>490.41</ele>
        <time>2017-02-11T10:47:47Z</time>
      </trkpt>
      <trkpt lat="45.57377" lon="5.39477">
        <ele>489.45</ele>
        <time>2017-02-11T10:47:52Z</time>
      </trkpt>
      <trkpt lat="45.57379" lon="5.39459">
        <ele>488.49</ele>
        <time>2017-02-11T10:47:57Z</time>
      </trkpt>
      <trkpt lat="45.5738" lon="5.39442">
        <ele>488.01</ele>
        <time>2017-02-11T10:48:02Z</time>
      </trkpt>
      <trkpt lat="45.5738" lon="5.39427">
        <ele>487.05</ele>
        <time>2017-02-11T10:48:06Z</time>
      </trkpt>
      <trkpt lat="45.5738" lon="5.39404">
        <ele>486.56</ele>
        <time>2017-02-11T10:48:13Z</time>
      </trkpt>
      <trkpt lat="45.5738" lon="5.3939">
        <ele>486.56</ele>
        <time>2017-02-11T10:48:17Z</time>
      </trkpt>
      <trkpt lat="45.57379" lon="5.39371">
        <ele>486.08</ele>
        <time>2017-02-11T10:48:22Z</time>
      </trkpt>
      <trkpt lat="45.57379" lon="5.39349">
        <ele>486.08</ele>
        <time>2017-02-11T10:48:28Z</time>
      </trkpt>
      <trkpt lat="45.57393" lon="5.39334">
        <ele>486.56</ele>
        <time>2017-02-11T10:48:35Z</time>
      </trkpt>
      <trkpt lat="45.57407" lon="5.39319">
        <ele>487.53</ele>
        <time>2017-02-11T10:48:43Z</time>
      </trkpt>
      <trkpt lat="45.57415" lon="5.39311">
        <ele>488.01</ele>
        <time>2017-02-11T10:48:48Z</time>
      </trkpt>
      <trkpt lat="45.57423" lon="5.39302">
        <ele>488.01</ele>
        <time>2017-02-11T10:48:53Z</time>
      </trkpt>
      <trkpt lat="45.57434" lon="5.39292">
        <ele>488.01</ele>
        <time>2017-02-11T10:48:58Z</time>
      </trkpt>
      <trkpt lat="45.5745" lon="5.39279">
        <ele>486.08</ele>
        <time>2017-02-11T10:49:05Z</time>
      </trkpt>
      <trkpt lat="45.57461" lon="5.3927">
        <ele>484.64</ele>
        <time>2017-02-11T10:49:10Z</time>
      </trkpt>
      <trkpt lat="45.57476" lon="5.39259">
        <ele>481.76</ele>
        <time>2017-02-11T10:49:17Z</time>
      </trkpt>
      <trkpt lat="45.57493" lon="5.39249">
        <ele>478.87</ele>
        <time>2017-02-11T10:49:24Z</time>
      </trkpt>
      <trkpt lat="45.57511" lon="5.39236">
        <ele>475.99</ele>
        <time>2017-02-11T10:49:32Z</time>
      </trkpt>
      <trkpt lat="45.57519" lon="5.39228">
        <ele>474.07</ele>
        <time>2017-02-11T10:49:36Z</time>
      </trkpt>
      <trkpt lat="45.5753" lon="5.39216">
        <ele>473.11</ele>
        <time>2017-02-11T10:49:41Z</time>
      </trkpt>
      <trkpt lat="45.57538" lon="5.39207">
        <ele>473.11</ele>
        <time>2017-02-11T10:49:45Z</time>
      </trkpt>
      <trkpt lat="45.57546" lon="5.39192">
        <ele>472.14</ele>
        <time>2017-02-11T10:49:50Z</time>
      </trkpt>
      <trkpt lat="45.57553" lon="5.39179">
        <ele>471.18</ele>
        <time>2017-02-11T10:49:55Z</time>
      </trkpt>
      <trkpt lat="45.57557" lon="5.39166">
        <ele>470.7</ele>
        <time>2017-02-11T10:49:59Z</time>
      </trkpt>
      <trkpt lat="45.57565" lon="5.39147">
        <ele>470.22</ele>
        <time>2017-02-11T10:50:04Z</time>
      </trkpt>
      <trkpt lat="45.57571" lon="5.39131">
        <ele>469.74</ele>
        <time>2017-02-11T10:50:09Z</time>
      </trkpt>
      <trkpt lat="45.57577" lon="5.39113">
        <ele>468.78</ele>
        <time>2017-02-11T10:50:14Z</time>
      </trkpt>
      <trkpt lat="45.57594" lon="5.39091">
        <ele>468.3</ele>
        <time>2017-02-11T10:50:23Z</time>
      </trkpt>
      <trkpt lat="45.57604" lon="5.39086">
        <ele>467.82</ele>
        <time>2017-02-11T10:50:27Z</time>
      </trkpt>
      <trkpt lat="45.57617" lon="5.39086">
        <ele>466.86</ele>
        <time>2017-02-11T10:50:33Z</time>
      </trkpt>
      <trkpt lat="45.57631" lon="5.3908">
        <ele>466.86</ele>
        <time>2017-02-11T10:50:39Z</time>
      </trkpt>
      <trkpt lat="45.57639" lon="5.39081">
        <ele>466.38</ele>
        <time>2017-02-11T10:50:42Z</time>
      </trkpt>
      <trkpt lat="45.57658" lon="5.39078">
        <ele>465.9</ele>
        <time>2017-02-11T10:50:50Z</time>
      </trkpt>
      <trkpt lat="45.57668" lon="5.39076">
        <ele>465.42</ele>
        <time>2017-02-11T10:50:54Z</time>
      </trkpt>
      <trkpt lat="45.57688" lon="5.39071">
        <ele>464.93</ele>
        <time>2017-02-11T10:51:01Z</time>
      </trkpt>
      <trkpt lat="45.57703" lon="5.39069">
        <ele>464.45</ele>
        <time>2017-02-11T10:51:07Z</time>
      </trkpt>
      <trkpt lat="45.57718" lon="5.39067">
        <ele>463.01</ele>
        <time>2017-02-11T10:51:14Z</time>
      </trkpt>
      <trkpt lat="45.57738" lon="5.3906">
        <ele>461.57</ele>
        <time>2017-02-11T10:51:23Z</time>
      </trkpt>
      <trkpt lat="45.57756" lon="5.39051">
        <ele>460.61</ele>
        <time>2017-02-11T10:51:30Z</time>
      </trkpt>
      <trkpt lat="45.57777" lon="5.39035">
        <ele>459.65</ele>
        <time>2017-02-11T10:51:38Z</time>
      </trkpt>
      <trkpt lat="45.57794" lon="5.39033">
        <ele>458.21</ele>
        <time>2017-02-11T10:51:45Z</time>
      </trkpt>
      <trkpt lat="45.57816" lon="5.3903">
        <ele>456.76</ele>
        <time>2017-02-11T10:51:53Z</time>
      </trkpt>
      <trkpt lat="45.57838" lon="5.3904">
        <ele>455.8</ele>
        <time>2017-02-11T10:52:00Z</time>
      </trkpt>
      <trkpt lat="45.57851" lon="5.39063">
        <ele>454.84</ele>
        <time>2017-02-11T10:52:07Z</time>
      </trkpt>
      <trkpt lat="45.57872" lon="5.39073">
        <ele>453.4</ele>
        <time>2017-02-11T10:52:15Z</time>
      </trkpt>
      <trkpt lat="45.5789" lon="5.39082">
        <ele>452.44</ele>
        <time>2017-02-11T10:52:23Z</time>
      </trkpt>
      <trkpt lat="45.57911" lon="5.39095">
        <ele>451</ele>
        <time>2017-02-11T10:52:32Z</time>
      </trkpt>
      <trkpt lat="45.57925" lon="5.391">
        <ele>450.52</ele>
        <time>2017-02-11T10:52:38Z</time>
      </trkpt>
      <trkpt lat="45.57937" lon="5.39089">
        <ele>451</ele>
        <time>2017-02-11T10:52:46Z</time>
      </trkpt>
      <trkpt lat="45.57939" lon="5.39066">
        <ele>452.92</ele>
        <time>2017-02-11T10:53:00Z</time>
      </trkpt>
      <trkpt lat="45.57946" lon="5.39042">
        <ele>455.32</ele>
        <time>2017-02-11T10:53:17Z</time>
      </trkpt>
      <trkpt lat="45.57953" lon="5.39015">
        <ele>457.72</ele>
        <time>2017-02-11T10:53:36Z</time>
      </trkpt>
      <trkpt lat="45.57958" lon="5.38988">
        <ele>460.13</ele>
        <time>2017-02-11T10:53:54Z</time>
      </trkpt>
      <trkpt lat="45.57958" lon="5.38975">
        <ele>461.09</ele>
        <time>2017-02-11T10:54:02Z</time>
      </trkpt>
      <trkpt lat="45.57958" lon="5.38953">
        <ele>462.53</ele>
        <time>2017-02-11T10:54:16Z</time>
      </trkpt>
      <trkpt lat="45.57959" lon="5.38933">
        <ele>463.97</ele>
        <time>2017-02-11T10:54:29Z</time>
      </trkpt>
      <trkpt lat="45.57961" lon="5.38912">
        <ele>466.38</ele>
        <time>2017-02-11T10:54:42Z</time>
      </trkpt>
      <trkpt lat="45.57965" lon="5.38902">
        <ele>466.86</ele>
        <time>2017-02-11T10:54:49Z</time>
      </trkpt>
      <trkpt lat="45.57972" lon="5.38885">
        <ele>468.3</ele>
        <time>2017-02-11T10:55:00Z</time>
      </trkpt>
      <trkpt lat="45.57978" lon="5.38868">
        <ele>469.26</ele>
        <time>2017-02-11T10:55:10Z</time>
      </trkpt>
      <trkpt lat="45.57983" lon="5.38847">
        <ele>470.22</ele>
        <time>2017-02-11T10:55:22Z</time>
      </trkpt>
      <trkpt lat="45.57986" lon="5.38831">
        <ele>470.7</ele>
        <time>2017-02-11T10:55:31Z</time>
      </trkpt>
      <trkpt lat="45.57989" lon="5.38815">
        <ele>471.18</ele>
        <time>2017-02-11T10:55:41Z</time>
      </trkpt>
      <trkpt lat="45.57992" lon="5.38793">
        <ele>471.66</ele>
        <time>2017-02-11T10:55:50Z</time>
      </trkpt>
      <trkpt lat="45.57996" lon="5.38778">
        <ele>472.14</ele>
        <time>2017-02-11T10:55:59Z</time>
      </trkpt>
      <trkpt lat="45.58" lon="5.3876">
        <ele>472.63</ele>
        <time>2017-02-11T10:56:08Z</time>
      </trkpt>
      <trkpt lat="45.58001" lon="5.38738">
        <ele>473.59</ele>
        <time>2017-02-11T10:56:16Z</time>
      </trkpt>
      <trkpt lat="45.58003" lon="5.38719">
        <ele>473.59</ele>
        <time>2017-02-11T10:56:22Z</time>
      </trkpt>
      <trkpt lat="45.58006" lon="5.38702">
        <ele>474.07</ele>
        <time>2017-02-11T10:56:27Z</time>
      </trkpt>
      <trkpt lat="45.58005" lon="5.38683">
        <ele>474.55</ele>
        <time>2017-02-11T10:56:32Z</time>
      </trkpt>
      <trkpt lat="45.58006" lon="5.38662">
        <ele>475.03</ele>
        <time>2017-02-11T10:56:38Z</time>
      </trkpt>
      <trkpt lat="45.58009" lon="5.38644">
        <ele>475.03</ele>
        <time>2017-02-11T10:56:43Z</time>
      </trkpt>
      <trkpt lat="45.58012" lon="5.38622">
        <ele>475.99</ele>
        <time>2017-02-11T10:56:50Z</time>
      </trkpt>
      <trkpt lat="45.58017" lon="5.38604">
        <ele>475.99</ele>
        <time>2017-02-11T10:56:56Z</time>
      </trkpt>
      <trkpt lat="45.58025" lon="5.3857">
        <ele>475.99</ele>
        <time>2017-02-11T10:57:06Z</time>
      </trkpt>
      <trkpt lat="45.58031" lon="5.38537">
        <ele>475.51</ele>
        <time>2017-02-11T10:57:15Z</time>
      </trkpt>
      <trkpt lat="45.58034" lon="5.38516">
        <ele>476.47</ele>
        <time>2017-02-11T10:57:22Z</time>
      </trkpt>
      <trkpt lat="45.58033" lon="5.3848">
        <ele>476.95</ele>
        <time>2017-02-11T10:57:33Z</time>
      </trkpt>
      <trkpt lat="45.58036" lon="5.38463">
        <ele>476.95</ele>
        <time>2017-02-11T10:57:38Z</time>
      </trkpt>
      <trkpt lat="45.58034" lon="5.3844">
        <ele>477.43</ele>
        <time>2017-02-11T10:57:44Z</time>
      </trkpt>
      <trkpt lat="45.58034" lon="5.38419">
        <ele>477.43</ele>
        <time>2017-02-11T10:57:50Z</time>
      </trkpt>
      <trkpt lat="45.58034" lon="5.38401">
        <ele>477.91</ele>
        <time>2017-02-11T10:57:55Z</time>
      </trkpt>
      <trkpt lat="45.58038" lon="5.38388">
        <ele>477.43</ele>
        <time>2017-02-11T10:57:59Z</time>
      </trkpt>
      <trkpt lat="45.58037" lon="5.38354">
        <ele>477.43</ele>
        <time>2017-02-11T10:58:09Z</time>
      </trkpt>
      <trkpt lat="45.58035" lon="5.38327">
        <ele>477.43</ele>
        <time>2017-02-11T10:58:16Z</time>
      </trkpt>
      <trkpt lat="45.58036" lon="5.38302">
        <ele>476.95</ele>
        <time>2017-02-11T10:58:22Z</time>
      </trkpt>
      <trkpt lat="45.58038" lon="5.3829">
        <ele>476.47</ele>
        <time>2017-02-11T10:58:25Z</time>
      </trkpt>
      <trkpt lat="45.58044" lon="5.38271">
        <ele>475.99</ele>
        <time>2017-02-11T10:58:30Z</time>
      </trkpt>
      <trkpt lat="45.58045" lon="5.3824">
        <ele>475.51</ele>
        <time>2017-02-11T10:58:39Z</time>
      </trkpt>
      <trkpt lat="45.58047" lon="5.38212">
        <ele>475.51</ele>
        <time>2017-02-11T10:58:47Z</time>
      </trkpt>
      <trkpt lat="45.58049" lon="5.38191">
        <ele>475.99</ele>
        <time>2017-02-11T10:58:53Z</time>
      </trkpt>
      <trkpt lat="45.5805" lon="5.38173">
        <ele>475.99</ele>
        <time>2017-02-11T10:58:58Z</time>
      </trkpt>
      <trkpt lat="45.58053" lon="5.38153">
        <ele>476.47</ele>
        <time>2017-02-11T10:59:04Z</time>
      </trkpt>
      <trkpt lat="45.58054" lon="5.38136">
        <ele>476.95</ele>
        <time>2017-02-11T10:59:09Z</time>
      </trkpt>
      <trkpt lat="45.58055" lon="5.38117">
        <ele>476.95</ele>
        <time>2017-02-11T10:59:14Z</time>
      </trkpt>
      <trkpt lat="45.58055" lon="5.38096">
        <ele>477.43</ele>
        <time>2017-02-11T10:59:20Z</time>
      </trkpt>
      <trkpt lat="45.58053" lon="5.38063">
        <ele>477.43</ele>
        <time>2017-02-11T10:59:30Z</time>
      </trkpt>
      <trkpt lat="45.58054" lon="5.38044">
        <ele>476.95</ele>
        <time>2017-02-11T10:59:36Z</time>
      </trkpt>
      <trkpt lat="45.58053" lon="5.38019">
        <ele>477.43</ele>
        <time>2017-02-11T10:59:43Z</time>
      </trkpt>
      <trkpt lat="45.58052" lon="5.37993">
        <ele>476.95</ele>
        <time>2017-02-11T10:59:50Z</time>
      </trkpt>
      <trkpt lat="45.5805" lon="5.37961">
        <ele>476.47</ele>
        <time>2017-02-11T10:59:58Z</time>
      </trkpt>
      <trkpt lat="45.58049" lon="5.37936">
        <ele>476.95</ele>
        <time>2017-02-11T11:00:04Z</time>
      </trkpt>
      <trkpt lat="45.58047" lon="5.37909">
        <ele>475.99</ele>
        <time>2017-02-11T11:00:11Z</time>
      </trkpt>
      <trkpt lat="45.58043" lon="5.37879">
        <ele>475.51</ele>
        <time>2017-02-11T11:00:19Z</time>
      </trkpt>
      <trkpt lat="45.58041" lon="5.37866">
        <ele>475.03</ele>
        <time>2017-02-11T11:00:23Z</time>
      </trkpt>
      <trkpt lat="45.58028" lon="5.37848">
        <ele>475.51</ele>
        <time>2017-02-11T11:00:29Z</time>
      </trkpt>
      <trkpt lat="45.58019" lon="5.37836">
        <ele>475.03</ele>
        <time>2017-02-11T11:00:35Z</time>
      </trkpt>
      <trkpt lat="45.57996" lon="5.3783">
        <ele>476.47</ele>
        <time>2017-02-11T11:00:44Z</time>
      </trkpt>
      <trkpt lat="45.57986" lon="5.3782">
        <ele>476.47</ele>
        <time>2017-02-11T11:00:48Z</time>
      </trkpt>
      <trkpt lat="45.58" lon="5.37799">
        <ele>476.47</ele>
        <time>2017-02-11T11:00:56Z</time>
      </trkpt>
      <trkpt lat="45.58012" lon="5.37782">
        <ele>475.03</ele>
        <time>2017-02-11T11:04:19Z</time>
      </trkpt>
      <trkpt lat="45.58021" lon="5.37761">
        <ele>474.07</ele>
        <time>2017-02-11T11:04:30Z</time>
      </trkpt>
      <trkpt lat="45.58029" lon="5.37746">
        <ele>472.14</ele>
        <time>2017-02-11T11:04:36Z</time>
      </trkpt>
      <trkpt lat="45.58038" lon="5.37732">
        <ele>468.78</ele>
        <time>2017-02-11T11:04:44Z</time>
      </trkpt>
      <trkpt lat="45.58041" lon="5.37722">
        <ele>466.86</ele>
        <time>2017-02-11T11:04:49Z</time>
      </trkpt>
      <trkpt lat="45.58049" lon="5.3771">
        <ele>463.97</ele>
        <time>2017-02-11T11:04:56Z</time>
      </trkpt>
      <trkpt lat="45.58056" lon="5.37694">
        <ele>461.57</ele>
        <time>2017-02-11T11:05:03Z</time>
      </trkpt>
      <trkpt lat="45.58066" lon="5.37677">
        <ele>459.17</ele>
        <time>2017-02-11T11:05:09Z</time>
      </trkpt>
      <trkpt lat="45.58077" lon="5.37668">
        <ele>456.28</ele>
        <time>2017-02-11T11:05:16Z</time>
      </trkpt>
      <trkpt lat="45.58084" lon="5.37665">
        <ele>454.36</ele>
        <time>2017-02-11T11:05:20Z</time>
      </trkpt>
      <trkpt lat="45.58097" lon="5.3766">
        <ele>451</ele>
        <time>2017-02-11T11:05:28Z</time>
      </trkpt>
      <trkpt lat="45.58104" lon="5.37657">
        <ele>449.07</ele>
        <time>2017-02-11T11:05:34Z</time>
      </trkpt>
      <trkpt lat="45.58111" lon="5.37659">
        <ele>447.63</ele>
        <time>2017-02-11T11:05:40Z</time>
      </trkpt>
      <trkpt lat="45.58119" lon="5.37659">
        <ele>446.67</ele>
        <time>2017-02-11T11:05:50Z</time>
      </trkpt>
      <trkpt lat="45.58125" lon="5.37662">
        <ele>445.71</ele>
        <time>2017-02-11T11:05:57Z</time>
      </trkpt>
      <trkpt lat="45.58133" lon="5.37665">
        <ele>445.23</ele>
        <time>2017-02-11T11:06:08Z</time>
      </trkpt>
      <trkpt lat="45.5814" lon="5.37658">
        <ele>443.79</ele>
        <time>2017-02-11T11:06:14Z</time>
      </trkpt>
      <trkpt lat="45.58148" lon="5.37646">
        <ele>441.86</ele>
        <time>2017-02-11T11:06:21Z</time>
      </trkpt>
      <trkpt lat="45.58162" lon="5.37636">
        <ele>439.94</ele>
        <time>2017-02-11T11:06:28Z</time>
      </trkpt>
      <trkpt lat="45.58174" lon="5.37641">
        <ele>438.02</ele>
        <time>2017-02-11T11:06:35Z</time>
      </trkpt>
      <trkpt lat="45.58191" lon="5.37645">
        <ele>435.13</ele>
        <time>2017-02-11T11:06:42Z</time>
      </trkpt>
      <trkpt lat="45.582" lon="5.37644">
        <ele>433.69</ele>
        <time>2017-02-11T11:06:46Z</time>
      </trkpt>
      <trkpt lat="45.58211" lon="5.37646">
        <ele>431.77</ele>
        <time>2017-02-11T11:06:51Z</time>
      </trkpt>
      <trkpt lat="45.58229" lon="5.37649">
        <ele>429.85</ele>
        <time>2017-02-11T11:06:58Z</time>
      </trkpt>
      <trkpt lat="45.58249" lon="5.37652">
        <ele>428.89</ele>
        <time>2017-02-11T11:07:06Z</time>
      </trkpt>
      <trkpt lat="45.58269" lon="5.37656">
        <ele>427.92</ele>
        <time>2017-02-11T11:07:13Z</time>
      </trkpt>
      <trkpt lat="45.58277" lon="5.37658">
        <ele>427.44</ele>
        <time>2017-02-11T11:07:17Z</time>
      </trkpt>
      <trkpt lat="45.58287" lon="5.3766">
        <ele>426.96</ele>
        <time>2017-02-11T11:07:21Z</time>
      </trkpt>
      <trkpt lat="45.58311" lon="5.37662">
        <ele>425.52</ele>
        <time>2017-02-11T11:07:31Z</time>
      </trkpt>
      <trkpt lat="45.58328" lon="5.37664">
        <ele>424.56</ele>
        <time>2017-02-11T11:07:38Z</time>
      </trkpt>
      <trkpt lat="45.5834" lon="5.37669">
        <ele>424.08</ele>
        <time>2017-02-11T11:07:43Z</time>
      </trkpt>
      <trkpt lat="45.58346" lon="5.37673">
        <ele>423.6</ele>
        <time>2017-02-11T11:07:46Z</time>
      </trkpt>
      <trkpt lat="45.58356" lon="5.37673">
        <ele>423.12</ele>
        <time>2017-02-11T11:07:50Z</time>
      </trkpt>
      <trkpt lat="45.58368" lon="5.37679">
        <ele>422.16</ele>
        <time>2017-02-11T11:07:57Z</time>
      </trkpt>
      <trkpt lat="45.58377" lon="5.37683">
        <ele>420.23</ele>
        <time>2017-02-11T11:08:02Z</time>
      </trkpt>
      <trkpt lat="45.58386" lon="5.37699">
        <ele>416.87</ele>
        <time>2017-02-11T11:08:08Z</time>
      </trkpt>
      <trkpt lat="45.58388" lon="5.37713">
        <ele>415.43</ele>
        <time>2017-02-11T11:08:11Z</time>
      </trkpt>
      <trkpt lat="45.58394" lon="5.37737">
        <ele>412.06</ele>
        <time>2017-02-11T11:08:16Z</time>
      </trkpt>
      <trkpt lat="45.58396" lon="5.37747">
        <ele>411.58</ele>
        <time>2017-02-11T11:08:19Z</time>
      </trkpt>
      <trkpt lat="45.58402" lon="5.37752">
        <ele>410.62</ele>
        <time>2017-02-11T11:08:25Z</time>
      </trkpt>
      <trkpt lat="45.58415" lon="5.37752">
        <ele>412.06</ele>
        <time>2017-02-11T11:08:33Z</time>
      </trkpt>
      <trkpt lat="45.58431" lon="5.37755">
        <ele>414.95</ele>
        <time>2017-02-11T11:08:51Z</time>
      </trkpt>
      <trkpt lat="45.58438" lon="5.37763">
        <ele>416.87</ele>
        <time>2017-02-11T11:08:59Z</time>
      </trkpt>
      <trkpt lat="45.58448" lon="5.37768">
        <ele>419.75</ele>
        <time>2017-02-11T11:09:11Z</time>
      </trkpt>
      <trkpt lat="45.58457" lon="5.37771">
        <ele>421.68</ele>
        <time>2017-02-11T11:09:20Z</time>
      </trkpt>
      <trkpt lat="45.58463" lon="5.37772">
        <ele>422.64</ele>
        <time>2017-02-11T11:09:26Z</time>
      </trkpt>
      <trkpt lat="45.58472" lon="5.37777">
        <ele>425.04</ele>
        <time>2017-02-11T11:09:37Z</time>
      </trkpt>
      <trkpt lat="45.58479" lon="5.37783">
        <ele>426.96</ele>
        <time>2017-02-11T11:09:46Z</time>
      </trkpt>
      <trkpt lat="45.58491" lon="5.37787">
        <ele>429.37</ele>
        <time>2017-02-11T11:09:59Z</time>
      </trkpt>
      <trkpt lat="45.58498" lon="5.37787">
        <ele>430.81</ele>
        <time>2017-02-11T11:10:06Z</time>
      </trkpt>
      <trkpt lat="45.58507" lon="5.37788">
        <ele>433.21</ele>
        <time>2017-02-11T11:10:19Z</time>
      </trkpt>
      <trkpt lat="45.58516" lon="5.37785">
        <ele>435.13</ele>
        <time>2017-02-11T11:10:28Z</time>
      </trkpt>
      <trkpt lat="45.58524" lon="5.37777">
        <ele>436.58</ele>
        <time>2017-02-11T11:10:37Z</time>
      </trkpt>
      <trkpt lat="45.58534" lon="5.3777">
        <ele>439.46</ele>
        <time>2017-02-11T11:10:52Z</time>
      </trkpt>
      <trkpt lat="45.58549" lon="5.37781">
        <ele>442.34</ele>
        <time>2017-02-11T11:11:07Z</time>
      </trkpt>
      <trkpt lat="45.58561" lon="5.37795">
        <ele>444.75</ele>
        <time>2017-02-11T11:11:20Z</time>
      </trkpt>
      <trkpt lat="45.58568" lon="5.37812">
        <ele>447.15</ele>
        <time>2017-02-11T11:11:34Z</time>
      </trkpt>
      <trkpt lat="45.58571" lon="5.37826">
        <ele>448.59</ele>
        <time>2017-02-11T11:11:43Z</time>
      </trkpt>
      <trkpt lat="45.58574" lon="5.37835">
        <ele>449.55</ele>
        <time>2017-02-11T11:11:50Z</time>
      </trkpt>
      <trkpt lat="45.58579" lon="5.37848">
        <ele>451</ele>
        <time>2017-02-11T11:12:00Z</time>
      </trkpt>
      <trkpt lat="45.58588" lon="5.37859">
        <ele>452.44</ele>
        <time>2017-02-11T11:12:10Z</time>
      </trkpt>
      <trkpt lat="45.58601" lon="5.37869">
        <ele>455.32</ele>
        <time>2017-02-11T11:12:23Z</time>
      </trkpt>
      <trkpt lat="45.58609" lon="5.37871">
        <ele>457.24</ele>
        <time>2017-02-11T11:12:33Z</time>
      </trkpt>
      <trkpt lat="45.58619" lon="5.37872">
        <ele>458.69</ele>
        <time>2017-02-11T11:12:43Z</time>
      </trkpt>
      <trkpt lat="45.58629" lon="5.37874">
        <ele>460.61</ele>
        <time>2017-02-11T11:12:53Z</time>
      </trkpt>
      <trkpt lat="45.58639" lon="5.37872">
        <ele>461.57</ele>
        <time>2017-02-11T11:13:03Z</time>
      </trkpt>
      <trkpt lat="45.5865" lon="5.37871">
        <ele>463.49</ele>
        <time>2017-02-11T11:13:14Z</time>
      </trkpt>
      <trkpt lat="45.58659" lon="5.37868">
        <ele>464.45</ele>
        <time>2017-02-11T11:13:22Z</time>
      </trkpt>
      <trkpt lat="45.58673" lon="5.37864">
        <ele>466.86</ele>
        <time>2017-02-11T11:13:37Z</time>
      </trkpt>
      <trkpt lat="45.58682" lon="5.37857">
        <ele>468.3</ele>
        <time>2017-02-11T11:13:46Z</time>
      </trkpt>
      <trkpt lat="45.5869" lon="5.3786">
        <ele>468.78</ele>
        <time>2017-02-11T11:13:54Z</time>
      </trkpt>
      <trkpt lat="45.58701" lon="5.37861">
        <ele>470.22</ele>
        <time>2017-02-11T11:14:04Z</time>
      </trkpt>
      <trkpt lat="45.58711" lon="5.3786">
        <ele>470.22</ele>
        <time>2017-02-11T11:14:13Z</time>
      </trkpt>
      <trkpt lat="45.58723" lon="5.37864">
        <ele>471.18</ele>
        <time>2017-02-11T11:14:24Z</time>
      </trkpt>
      <trkpt lat="45.58737" lon="5.37865">
        <ele>472.14</ele>
        <time>2017-02-11T11:14:34Z</time>
      </trkpt>
      <trkpt lat="45.5875" lon="5.37869">
        <ele>473.11</ele>
        <time>2017-02-11T11:14:44Z</time>
      </trkpt>
      <trkpt lat="45.58762" lon="5.37869">
        <ele>474.07</ele>
        <time>2017-02-11T11:14:54Z</time>
      </trkpt>
      <trkpt lat="45.58771" lon="5.37871">
        <ele>475.03</ele>
        <time>2017-02-11T11:15:02Z</time>
      </trkpt>
      <trkpt lat="45.58783" lon="5.37888">
        <ele>476.47</ele>
        <time>2017-02-11T11:15:15Z</time>
      </trkpt>
      <trkpt lat="45.58799" lon="5.3789">
        <ele>476.95</ele>
        <time>2017-02-11T11:15:27Z</time>
      </trkpt>
      <trkpt lat="45.5881" lon="5.37895">
        <ele>477.43</ele>
        <time>2017-02-11T11:15:36Z</time>
      </trkpt>
      <trkpt lat="45.58822" lon="5.37905">
        <ele>476.95</ele>
        <time>2017-02-11T11:15:45Z</time>
      </trkpt>
      <trkpt lat="45.58832" lon="5.37914">
        <ele>476.47</ele>
        <time>2017-02-11T11:15:51Z</time>
      </trkpt>
      <trkpt lat="45.58846" lon="5.37929">
        <ele>475.99</ele>
        <time>2017-02-11T11:15:58Z</time>
      </trkpt>
      <trkpt lat="45.58858" lon="5.37942">
        <ele>475.51</ele>
        <time>2017-02-11T11:16:05Z</time>
      </trkpt>
      <trkpt lat="45.58874" lon="5.37955">
        <ele>475.51</ele>
        <time>2017-02-11T11:16:12Z</time>
      </trkpt>
      <trkpt lat="45.58885" lon="5.37967">
        <ele>475.03</ele>
        <time>2017-02-11T11:16:17Z</time>
      </trkpt>
      <trkpt lat="45.58897" lon="5.3798">
        <ele>474.55</ele>
        <time>2017-02-11T11:16:23Z</time>
      </trkpt>
      <trkpt lat="45.58912" lon="5.37997">
        <ele>474.55</ele>
        <time>2017-02-11T11:16:31Z</time>
      </trkpt>
      <trkpt lat="45.58924" lon="5.38009">
        <ele>475.51</ele>
        <time>2017-02-11T11:16:38Z</time>
      </trkpt>
      <trkpt lat="45.58935" lon="5.38018">
        <ele>475.03</ele>
        <time>2017-02-11T11:16:44Z</time>
      </trkpt>
      <trkpt lat="45.58951" lon="5.38028">
        <ele>475.51</ele>
        <time>2017-02-11T11:16:52Z</time>
      </trkpt>
      <trkpt lat="45.58965" lon="5.38037">
        <ele>475.99</ele>
        <time>2017-02-11T11:16:59Z</time>
      </trkpt>
      <trkpt lat="45.58984" lon="5.3805">
        <ele>475.03</ele>
        <time>2017-02-11T11:17:08Z</time>
      </trkpt>
      <trkpt lat="45.58999" lon="5.38063">
        <ele>474.07</ele>
        <time>2017-02-11T11:17:15Z</time>
      </trkpt>
      <trkpt lat="45.59015" lon="5.38072">
        <ele>473.11</ele>
        <time>2017-02-11T11:17:22Z</time>
      </trkpt>
      <trkpt lat="45.59021" lon="5.38075">
        <ele>472.63</ele>
        <time>2017-02-11T11:17:25Z</time>
      </trkpt>
      <trkpt lat="45.59035" lon="5.38088">
        <ele>471.18</ele>
        <time>2017-02-11T11:17:32Z</time>
      </trkpt>
      <trkpt lat="45.59047" lon="5.38095">
        <ele>469.74</ele>
        <time>2017-02-11T11:17:37Z</time>
      </trkpt>
      <trkpt lat="45.59058" lon="5.38104">
        <ele>468.78</ele>
        <time>2017-02-11T11:17:41Z</time>
      </trkpt>
      <trkpt lat="45.5907" lon="5.38111">
        <ele>467.34</ele>
        <time>2017-02-11T11:17:46Z</time>
      </trkpt>
      <trkpt lat="45.59081" lon="5.38125">
        <ele>465.9</ele>
        <time>2017-02-11T11:17:52Z</time>
      </trkpt>
      <trkpt lat="45.59092" lon="5.38134">
        <ele>464.93</ele>
        <time>2017-02-11T11:17:58Z</time>
      </trkpt>
      <trkpt lat="45.59106" lon="5.38146">
        <ele>463.97</ele>
        <time>2017-02-11T11:18:05Z</time>
      </trkpt>
      <trkpt lat="45.59118" lon="5.38154">
        <ele>463.01</ele>
        <time>2017-02-11T11:18:11Z</time>
      </trkpt>
      <trkpt lat="45.59127" lon="5.38159">
        <ele>462.53</ele>
        <time>2017-02-11T11:18:15Z</time>
      </trkpt>
      <trkpt lat="45.59145" lon="5.38151">
        <ele>462.05</ele>
        <time>2017-02-11T11:18:22Z</time>
      </trkpt>
      <trkpt lat="45.59147" lon="5.38134">
        <ele>461.57</ele>
        <time>2017-02-11T11:18:28Z</time>
      </trkpt>
      <trkpt lat="45.5915" lon="5.38108">
        <ele>461.57</ele>
        <time>2017-02-11T11:18:36Z</time>
      </trkpt>
      <trkpt lat="45.59153" lon="5.38085">
        <ele>461.09</ele>
        <time>2017-02-11T11:18:43Z</time>
      </trkpt>
      <trkpt lat="45.59155" lon="5.38064">
        <ele>460.61</ele>
        <time>2017-02-11T11:18:49Z</time>
      </trkpt>
      <trkpt lat="45.59156" lon="5.38048">
        <ele>461.09</ele>
        <time>2017-02-11T11:18:54Z</time>
      </trkpt>
      <trkpt lat="45.59155" lon="5.38035">
        <ele>460.61</ele>
        <time>2017-02-11T11:18:59Z</time>
      </trkpt>
    </trkseg>
  </trk>
</gpx>